﻿<?xml version="1.0" encoding="utf-8"?><gpx creator="Garmin Desktop App" version="1.1" xsi:schemaLocation="http://www.topografix.com/GPX/1/1 http://www.topografix.com/GPX/1/1/gpx.xsd http://www.garmin.com/xmlschemas/WaypointExtension/v1 http://www8.garmin.com/xmlschemas/WaypointExtensionv1.xsd http://www.garmin.com/xmlschemas/TrackPointExtension/v1 http://www.garmin.com/xmlschemas/TrackPointExtensionv1.xsd http://www.garmin.com/xmlschemas/GpxExtensions/v3 http://www8.garmin.com/xmlschemas/GpxExtensionsv3.xsd http://www.garmin.com/xmlschemas/ActivityExtension/v1 http://www8.garmin.com/xmlschemas/ActivityExtensionv1.xsd http://www.garmin.com/xmlschemas/AdventuresExtensions/v1 http://www8.garmin.com/xmlschemas/AdventuresExtensionv1.xsd http://www.garmin.com/xmlschemas/PressureExtension/v1 http://www.garmin.com/xmlschemas/PressureExtensionv1.xsd http://www.garmin.com/xmlschemas/TripExtensions/v1 http://www.garmin.com/xmlschemas/TripExtensionsv1.xsd http://www.garmin.com/xmlschemas/TripMetaDataExtensions/v1 http://www.garmin.com/xmlschemas/TripMetaDataExtensionsv1.xsd http://www.garmin.com/xmlschemas/ViaPointTransportationModeExtensions/v1 http://www.garmin.com/xmlschemas/ViaPointTransportationModeExtensionsv1.xsd http://www.garmin.com/xmlschemas/CreationTimeExtension/v1 http://www.garmin.com/xmlschemas/CreationTimeExtensionsv1.xsd http://www.garmin.com/xmlschemas/AccelerationExtension/v1 http://www.garmin.com/xmlschemas/AccelerationExtensionv1.xsd http://www.garmin.com/xmlschemas/PowerExtension/v1 http://www.garmin.com/xmlschemas/PowerExtensionv1.xsd http://www.garmin.com/xmlschemas/VideoExtension/v1 http://www.garmin.com/xmlschemas/VideoExtensionv1.xsd" xmlns="http://www.topografix.com/GPX/1/1" xmlns:xsi="http://www.w3.org/2001/XMLSchema-instance" xmlns:wptx1="http://www.garmin.com/xmlschemas/WaypointExtension/v1" xmlns:gpxtrx="http://www.garmin.com/xmlschemas/GpxExtensions/v3" xmlns:gpxtpx="http://www.garmin.com/xmlschemas/TrackPointExtension/v1" xmlns:gpxx="http://www.garmin.com/xmlschemas/GpxExtensions/v3" xmlns:trp="http://www.garmin.com/xmlschemas/TripExtensions/v1" xmlns:adv="http://www.garmin.com/xmlschemas/AdventuresExtensions/v1" xmlns:prs="http://www.garmin.com/xmlschemas/PressureExtension/v1" xmlns:tmd="http://www.garmin.com/xmlschemas/TripMetaDataExtensions/v1" xmlns:vptm="http://www.garmin.com/xmlschemas/ViaPointTransportationModeExtensions/v1" xmlns:ctx="http://www.garmin.com/xmlschemas/CreationTimeExtension/v1" xmlns:gpxacc="http://www.garmin.com/xmlschemas/AccelerationExtension/v1" xmlns:gpxpx="http://www.garmin.com/xmlschemas/PowerExtension/v1" xmlns:vidx1="http://www.garmin.com/xmlschemas/VideoExtension/v1">

  <metadata>
    <link href="http://www.garmin.com">
      <text>Garmin International</text>
    </link>
    <time>2015-03-22T09:35:57Z</time>
    <bounds maxlat="45.948833199217916" maxlon="7.524748547002673" minlat="45.899489857256413" minlon="7.490071775391698" />
  </metadata>

  <trk>
    <name>rifugio nacamuli2013-07-28</name>
    <extensions>
      <gpxx:TrackExtension>
        <gpxx:DisplayColor>Yellow</gpxx:DisplayColor>
      </gpxx:TrackExtension>
    </extensions>
    <trkseg>
      <trkpt lat="45.899797305464745" lon="7.490327758714557">
        <ele>2003.52</ele>
        <time>2013-07-28T07:42:21Z</time>
      </trkpt>
      <trkpt lat="45.899793701246381" lon="7.490323232486844">
        <ele>2003.52</ele>
        <time>2013-07-28T07:42:42Z</time>
      </trkpt>
      <trkpt lat="45.89981272816658" lon="7.490326669067144">
        <ele>2003.04</ele>
        <time>2013-07-28T07:42:57Z</time>
      </trkpt>
      <trkpt lat="45.899822534993291" lon="7.490339912474155">
        <ele>2003.04</ele>
        <time>2013-07-28T07:42:59Z</time>
      </trkpt>
      <trkpt lat="45.899854302406311" lon="7.490437142550945">
        <ele>2003.04</ele>
        <time>2013-07-28T07:43:14Z</time>
      </trkpt>
      <trkpt lat="45.899851284921169" lon="7.490477710962296">
        <ele>2002.5599999999999</ele>
        <time>2013-07-28T07:43:16Z</time>
      </trkpt>
      <trkpt lat="45.899845752865076" lon="7.490680888295174">
        <ele>2002.5599999999999</ele>
        <time>2013-07-28T07:43:27Z</time>
      </trkpt>
      <trkpt lat="45.899806274101138" lon="7.490832433104515">
        <ele>2003.52</ele>
        <time>2013-07-28T07:43:37Z</time>
      </trkpt>
      <trkpt lat="45.899810800328851" lon="7.490916503593326">
        <ele>2004.01</ele>
        <time>2013-07-28T07:43:43Z</time>
      </trkpt>
      <trkpt lat="45.899797640740871" lon="7.490976937115192">
        <ele>2004.49</ele>
        <time>2013-07-28T07:43:57Z</time>
      </trkpt>
      <trkpt lat="45.899807782843709" lon="7.490988252684474">
        <ele>2004.01</ele>
        <time>2013-07-28T07:44:14Z</time>
      </trkpt>
      <trkpt lat="45.899833934381604" lon="7.490984732285142">
        <ele>2004.49</ele>
        <time>2013-07-28T07:44:31Z</time>
      </trkpt>
      <trkpt lat="45.899837538599968" lon="7.491078022867441">
        <ele>2004.97</ele>
        <time>2013-07-28T07:44:44Z</time>
      </trkpt>
      <trkpt lat="45.899835275486112" lon="7.491176342591643">
        <ele>2005.9300000000001</ele>
        <time>2013-07-28T07:44:57Z</time>
      </trkpt>
      <trkpt lat="45.899832341820002" lon="7.491309698671103">
        <ele>2008.8099999999999</ele>
        <time>2013-07-28T07:45:11Z</time>
      </trkpt>
      <trkpt lat="45.899824295192957" lon="7.491479264572263">
        <ele>2009.29</ele>
        <time>2013-07-28T07:45:25Z</time>
      </trkpt>
      <trkpt lat="45.899826139211655" lon="7.491599628701806">
        <ele>2009.29</ele>
        <time>2013-07-28T07:45:40Z</time>
      </trkpt>
      <trkpt lat="45.899825636297464" lon="7.491639023646712">
        <ele>2009.29</ele>
        <time>2013-07-28T07:45:52Z</time>
      </trkpt>
      <trkpt lat="45.899824043735862" lon="7.491776067763567">
        <ele>2007.3699999999999</ele>
        <time>2013-07-28T07:46:13Z</time>
      </trkpt>
      <trkpt lat="45.899848770350218" lon="7.491935659199953">
        <ele>2004.97</ele>
        <time>2013-07-28T07:46:28Z</time>
      </trkpt>
      <trkpt lat="45.899899480864406" lon="7.4921715259552">
        <ele>2004.01</ele>
        <time>2013-07-28T07:46:44Z</time>
      </trkpt>
      <trkpt lat="45.899960668757558" lon="7.492370763793588">
        <ele>2004.01</ele>
        <time>2013-07-28T07:46:59Z</time>
      </trkpt>
      <trkpt lat="45.900033675134182" lon="7.492547035217285">
        <ele>2005.9300000000001</ele>
        <time>2013-07-28T07:47:14Z</time>
      </trkpt>
      <trkpt lat="45.900098802521825" lon="7.492688940837979">
        <ele>2007.8499999999999</ele>
        <time>2013-07-28T07:47:26Z</time>
      </trkpt>
      <trkpt lat="45.900191590189934" lon="7.492883652448654">
        <ele>2007.8499999999999</ele>
        <time>2013-07-28T07:47:42Z</time>
      </trkpt>
      <trkpt lat="45.900286808609962" lon="7.493003597483039">
        <ele>2008.3299999999999</ele>
        <time>2013-07-28T07:47:55Z</time>
      </trkpt>
      <trkpt lat="45.900401808321476" lon="7.493144245818257">
        <ele>2009.77</ele>
        <time>2013-07-28T07:48:10Z</time>
      </trkpt>
      <trkpt lat="45.900468612089753" lon="7.493326049298048">
        <ele>2010.25</ele>
        <time>2013-07-28T07:48:24Z</time>
      </trkpt>
      <trkpt lat="45.900556622073054" lon="7.49345219694078">
        <ele>2012.1800000000001</ele>
        <time>2013-07-28T07:48:37Z</time>
      </trkpt>
      <trkpt lat="45.900594256818295" lon="7.49348790384829">
        <ele>2012.6600000000001</ele>
        <time>2013-07-28T07:48:48Z</time>
      </trkpt>
      <trkpt lat="45.900587718933821" lon="7.493488909676671">
        <ele>2012.6600000000001</ele>
        <time>2013-07-28T07:49:06Z</time>
      </trkpt>
      <trkpt lat="45.900595178827643" lon="7.493497123941779">
        <ele>2013.6199999999999</ele>
        <time>2013-07-28T07:49:28Z</time>
      </trkpt>
      <trkpt lat="45.900630550459027" lon="7.493507768958807">
        <ele>2013.6199999999999</ele>
        <time>2013-07-28T07:49:36Z</time>
      </trkpt>
      <trkpt lat="45.900700874626637" lon="7.493578596040607">
        <ele>2014.5799999999999</ele>
        <time>2013-07-28T07:49:43Z</time>
      </trkpt>
      <trkpt lat="45.900735156610608" lon="7.493599802255631">
        <ele>2015.0599999999999</ele>
        <time>2013-07-28T07:49:47Z</time>
      </trkpt>
      <trkpt lat="45.900766924023628" lon="7.493605250492692">
        <ele>2015.0599999999999</ele>
        <time>2013-07-28T07:49:51Z</time>
      </trkpt>
      <trkpt lat="45.900857197120786" lon="7.493756460025907">
        <ele>2015.54</ele>
        <time>2013-07-28T07:50:04Z</time>
      </trkpt>
      <trkpt lat="45.900871949270368" lon="7.493774062022567">
        <ele>2015.54</ele>
        <time>2013-07-28T07:50:06Z</time>
      </trkpt>
      <trkpt lat="45.900889802724123" lon="7.493778252974153">
        <ele>2016.02</ele>
        <time>2013-07-28T07:50:08Z</time>
      </trkpt>
      <trkpt lat="45.900931293144822" lon="7.493814127519727">
        <ele>2016.5</ele>
        <time>2013-07-28T07:50:21Z</time>
      </trkpt>
      <trkpt lat="45.901001952588558" lon="7.493967935442925">
        <ele>2016.5</ele>
        <time>2013-07-28T07:50:33Z</time>
      </trkpt>
      <trkpt lat="45.901013687252998" lon="7.4939882196486">
        <ele>2016.5</ele>
        <time>2013-07-28T07:50:35Z</time>
      </trkpt>
      <trkpt lat="45.901149809360504" lon="7.494139764457941">
        <ele>2016.98</ele>
        <time>2013-07-28T07:50:52Z</time>
      </trkpt>
      <trkpt lat="45.901274867355824" lon="7.494273539632559">
        <ele>2017.9400000000001</ele>
        <time>2013-07-28T07:51:06Z</time>
      </trkpt>
      <trkpt lat="45.901439320296049" lon="7.494414774700999">
        <ele>2018.4300000000001</ele>
        <time>2013-07-28T07:51:21Z</time>
      </trkpt>
      <trkpt lat="45.901464885100722" lon="7.494504041969776">
        <ele>2019.8699999999999</ele>
        <time>2013-07-28T07:51:34Z</time>
      </trkpt>
      <trkpt lat="45.901483576744795" lon="7.494549639523029">
        <ele>2018.9100000000001</ele>
        <time>2013-07-28T07:51:48Z</time>
      </trkpt>
      <trkpt lat="45.901523642241955" lon="7.494546454399824">
        <ele>2019.3900000000001</ele>
        <time>2013-07-28T07:51:59Z</time>
      </trkpt>
      <trkpt lat="45.90150972828269" lon="7.494543688371778">
        <ele>2020.3499999999999</ele>
        <time>2013-07-28T07:52:29Z</time>
      </trkpt>
      <trkpt lat="45.901520121842623" lon="7.494580317288637">
        <ele>2019.8699999999999</ele>
        <time>2013-07-28T07:52:44Z</time>
      </trkpt>
      <trkpt lat="45.90151316486299" lon="7.49455307610333">
        <ele>2020.3499999999999</ele>
        <time>2013-07-28T07:53:07Z</time>
      </trkpt>
      <trkpt lat="45.901499837636948" lon="7.494549136608839">
        <ele>2019.8699999999999</ele>
        <time>2013-07-28T07:53:30Z</time>
      </trkpt>
      <trkpt lat="45.901515679433942" lon="7.494532624259591">
        <ele>2019.8699999999999</ele>
        <time>2013-07-28T07:53:32Z</time>
      </trkpt>
      <trkpt lat="45.901681473478675" lon="7.494627255946398">
        <ele>2021.3099999999999</ele>
        <time>2013-07-28T07:53:47Z</time>
      </trkpt>
      <trkpt lat="45.901757748797536" lon="7.494707554578781">
        <ele>2022.27</ele>
        <time>2013-07-28T07:53:56Z</time>
      </trkpt>
      <trkpt lat="45.90188448317349" lon="7.494842503219843">
        <ele>2023.71</ele>
        <time>2013-07-28T07:54:11Z</time>
      </trkpt>
      <trkpt lat="45.901979114860296" lon="7.494979212060571">
        <ele>2025.1500000000001</ele>
        <time>2013-07-28T07:54:25Z</time>
      </trkpt>
      <trkpt lat="45.902013145387173" lon="7.495023552328348">
        <ele>2026.1199999999999</ele>
        <time>2013-07-28T07:54:31Z</time>
      </trkpt>
      <trkpt lat="45.902098221704364" lon="7.495120363309979">
        <ele>2027.0799999999999</ele>
        <time>2013-07-28T07:54:44Z</time>
      </trkpt>
      <trkpt lat="45.902177095413208" lon="7.495197393000126">
        <ele>2028.52</ele>
        <time>2013-07-28T07:54:57Z</time>
      </trkpt>
      <trkpt lat="45.902196206152439" lon="7.495212983340025">
        <ele>2029</ele>
        <time>2013-07-28T07:55:00Z</time>
      </trkpt>
      <trkpt lat="45.902296034619212" lon="7.495397804304957">
        <ele>2029.48</ele>
        <time>2013-07-28T07:55:16Z</time>
      </trkpt>
      <trkpt lat="45.902379602193832" lon="7.495529316365719">
        <ele>2030.9200000000001</ele>
        <time>2013-07-28T07:55:30Z</time>
      </trkpt>
      <trkpt lat="45.902455793693662" lon="7.495718579739332">
        <ele>2032.3599999999999</ele>
        <time>2013-07-28T07:55:45Z</time>
      </trkpt>
      <trkpt lat="45.902478005737066" lon="7.495840201154351">
        <ele>2032.8399999999999</ele>
        <time>2013-07-28T07:55:57Z</time>
      </trkpt>
      <trkpt lat="45.902511533349752" lon="7.49590708874166">
        <ele>2032.8399999999999</ele>
        <time>2013-07-28T07:56:19Z</time>
      </trkpt>
      <trkpt lat="45.902527961879969" lon="7.495969533920288">
        <ele>2032.8399999999999</ele>
        <time>2013-07-28T07:56:33Z</time>
      </trkpt>
      <trkpt lat="45.902525866404176" lon="7.495993170887232">
        <ele>2033.3299999999999</ele>
        <time>2013-07-28T07:56:42Z</time>
      </trkpt>
      <trkpt lat="45.90253684669733" lon="7.496215039864183">
        <ele>2033.8099999999999</ele>
        <time>2013-07-28T07:56:57Z</time>
      </trkpt>
      <trkpt lat="45.902585797011852" lon="7.496301122009754">
        <ele>2034.29</ele>
        <time>2013-07-28T07:57:05Z</time>
      </trkpt>
      <trkpt lat="45.902669783681631" lon="7.496424168348312">
        <ele>2036.21</ele>
        <time>2013-07-28T07:57:19Z</time>
      </trkpt>
      <trkpt lat="45.90274597518146" lon="7.496608234941959">
        <ele>2038.6099999999999</ele>
        <time>2013-07-28T07:57:33Z</time>
      </trkpt>
      <trkpt lat="45.902806241065264" lon="7.496784590184689">
        <ele>2040.54</ele>
        <time>2013-07-28T07:57:47Z</time>
      </trkpt>
      <trkpt lat="45.902875140309334" lon="7.496997574344277">
        <ele>2042.46</ele>
        <time>2013-07-28T07:58:03Z</time>
      </trkpt>
      <trkpt lat="45.902894837781787" lon="7.497120117768645">
        <ele>2045.3399999999999</ele>
        <time>2013-07-28T07:58:17Z</time>
      </trkpt>
      <trkpt lat="45.902928281575441" lon="7.497260766103864">
        <ele>2046.78</ele>
        <time>2013-07-28T07:58:30Z</time>
      </trkpt>
      <trkpt lat="45.902923671528697" lon="7.497297981753945">
        <ele>2047.75</ele>
        <time>2013-07-28T07:58:42Z</time>
      </trkpt>
      <trkpt lat="45.902949739247561" lon="7.497347267344594">
        <ele>2047.75</ele>
        <time>2013-07-28T07:59:01Z</time>
      </trkpt>
      <trkpt lat="45.902992654591799" lon="7.497440222650766">
        <ele>2049.6700000000001</ele>
        <time>2013-07-28T07:59:18Z</time>
      </trkpt>
      <trkpt lat="45.90301277115941" lon="7.497533345595002">
        <ele>2051.1100000000001</ele>
        <time>2013-07-28T07:59:31Z</time>
      </trkpt>
      <trkpt lat="45.903098518028855" lon="7.497613560408354">
        <ele>2054.4699999999998</ele>
        <time>2013-07-28T07:59:46Z</time>
      </trkpt>
      <trkpt lat="45.903175799176097" lon="7.497659828513861">
        <ele>2056.4000000000001</ele>
        <time>2013-07-28T07:59:59Z</time>
      </trkpt>
      <trkpt lat="45.903262803331017" lon="7.497756304219365">
        <ele>2057.8400000000001</ele>
        <time>2013-07-28T08:00:11Z</time>
      </trkpt>
      <trkpt lat="45.903334468603134" lon="7.497755130752921">
        <ele>2059.7600000000002</ele>
        <time>2013-07-28T08:00:24Z</time>
      </trkpt>
      <trkpt lat="45.90335383079946" lon="7.49776728451252">
        <ele>2059.7600000000002</ele>
        <time>2013-07-28T08:00:27Z</time>
      </trkpt>
      <trkpt lat="45.903463046997786" lon="7.497820090502501">
        <ele>2061.6799999999998</ele>
        <time>2013-07-28T08:00:40Z</time>
      </trkpt>
      <trkpt lat="45.903523564338684" lon="7.497826712206006">
        <ele>2064.5700000000002</ele>
        <time>2013-07-28T08:00:53Z</time>
      </trkpt>
      <trkpt lat="45.903618866577744" lon="7.497906675562263">
        <ele>2066.4899999999998</ele>
        <time>2013-07-28T08:01:06Z</time>
      </trkpt>
      <trkpt lat="45.90370218269527" lon="7.497981609776616">
        <ele>2068.4099999999999</ele>
        <time>2013-07-28T08:01:19Z</time>
      </trkpt>
      <trkpt lat="45.903770243749022" lon="7.498051514849067">
        <ele>2070.3400000000001</ele>
        <time>2013-07-28T08:01:29Z</time>
      </trkpt>
      <trkpt lat="45.903832102194428" lon="7.498242873698473">
        <ele>2072.7399999999998</ele>
        <time>2013-07-28T08:01:45Z</time>
      </trkpt>
      <trkpt lat="45.903861103579402" lon="7.498235665261746">
        <ele>2074.6599999999999</ele>
        <time>2013-07-28T08:01:57Z</time>
      </trkpt>
      <trkpt lat="45.903905192390084" lon="7.498138267546892">
        <ele>2077.0700000000002</ele>
        <time>2013-07-28T08:02:10Z</time>
      </trkpt>
      <trkpt lat="45.903934026136994" lon="7.498175399377942">
        <ele>2077.5500000000002</ele>
        <time>2013-07-28T08:02:14Z</time>
      </trkpt>
      <trkpt lat="45.903966296464205" lon="7.498388215899468">
        <ele>2078.5100000000002</ele>
        <time>2013-07-28T08:02:28Z</time>
      </trkpt>
      <trkpt lat="45.904014995321631" lon="7.498517548665404">
        <ele>2079.4699999999998</ele>
        <time>2013-07-28T08:02:39Z</time>
      </trkpt>
      <trkpt lat="45.904104514047503" lon="7.498622741550207">
        <ele>2080.4299999999998</ele>
        <time>2013-07-28T08:02:53Z</time>
      </trkpt>
      <trkpt lat="45.90412094257772" lon="7.49865023419261">
        <ele>2079.9499999999998</ele>
        <time>2013-07-28T08:03:06Z</time>
      </trkpt>
      <trkpt lat="45.904143322259188" lon="7.498664567247033">
        <ele>2081.8699999999999</ele>
        <time>2013-07-28T08:03:23Z</time>
      </trkpt>
      <trkpt lat="45.904178945347667" lon="7.498668925836682">
        <ele>2082.8299999999999</ele>
        <time>2013-07-28T08:03:37Z</time>
      </trkpt>
      <trkpt lat="45.904200151562691" lon="7.498684683814645">
        <ele>2082.3499999999999</ele>
        <time>2013-07-28T08:04:04Z</time>
      </trkpt>
      <trkpt lat="45.904243318364024" lon="7.498681414872408">
        <ele>2082.3499999999999</ele>
        <time>2013-07-28T08:04:10Z</time>
      </trkpt>
      <trkpt lat="45.904387990012765" lon="7.498805802315474">
        <ele>2083.3099999999999</ele>
        <time>2013-07-28T08:04:27Z</time>
      </trkpt>
      <trkpt lat="45.904386648908257" lon="7.498798929154873">
        <ele>2084.7600000000002</ele>
        <time>2013-07-28T08:04:41Z</time>
      </trkpt>
      <trkpt lat="45.904528554528952" lon="7.49893069267273">
        <ele>2084.7600000000002</ele>
        <time>2013-07-28T08:04:55Z</time>
      </trkpt>
      <trkpt lat="45.904553281143308" lon="7.49896933324635">
        <ele>2085.7199999999998</ele>
        <time>2013-07-28T08:04:59Z</time>
      </trkpt>
      <trkpt lat="45.904582031071186" lon="7.499018451198936">
        <ele>2085.2399999999998</ele>
        <time>2013-07-28T08:05:03Z</time>
      </trkpt>
      <trkpt lat="45.904653277248144" lon="7.49907829798758">
        <ele>2085.2399999999998</ele>
        <time>2013-07-28T08:05:16Z</time>
      </trkpt>
      <trkpt lat="45.904714465141296" lon="7.499153735116124">
        <ele>2084.7600000000002</ele>
        <time>2013-07-28T08:05:25Z</time>
      </trkpt>
      <trkpt lat="45.9047488309443" lon="7.499247863888741">
        <ele>2085.2399999999998</ele>
        <time>2013-07-28T08:05:32Z</time>
      </trkpt>
      <trkpt lat="45.904815969988704" lon="7.499394882470369">
        <ele>2084.2800000000002</ele>
        <time>2013-07-28T08:05:43Z</time>
      </trkpt>
      <trkpt lat="45.904865507036448" lon="7.499455818906426">
        <ele>2083.79</ele>
        <time>2013-07-28T08:05:50Z</time>
      </trkpt>
      <trkpt lat="45.904901213943958" lon="7.499496135860682">
        <ele>2084.2800000000002</ele>
        <time>2013-07-28T08:05:54Z</time>
      </trkpt>
      <trkpt lat="45.90492133051157" lon="7.499528825283051">
        <ele>2083.79</ele>
        <time>2013-07-28T08:05:57Z</time>
      </trkpt>
      <trkpt lat="45.90494136326015" lon="7.499543661251664">
        <ele>2084.2800000000002</ele>
        <time>2013-07-28T08:05:59Z</time>
      </trkpt>
      <trkpt lat="45.905003808438778" lon="7.499643908813596">
        <ele>2084.7600000000002</ele>
        <time>2013-07-28T08:06:16Z</time>
      </trkpt>
      <trkpt lat="45.905020236968994" lon="7.499665953218937">
        <ele>2084.7600000000002</ele>
        <time>2013-07-28T08:06:30Z</time>
      </trkpt>
      <trkpt lat="45.905055776238441" lon="7.499731332063675">
        <ele>2085.2399999999998</ele>
        <time>2013-07-28T08:06:36Z</time>
      </trkpt>
      <trkpt lat="45.905116628855467" lon="7.49976335093379">
        <ele>2086.1999999999998</ele>
        <time>2013-07-28T08:06:43Z</time>
      </trkpt>
      <trkpt lat="45.905210422351956" lon="7.499808948487043">
        <ele>2088.1199999999999</ele>
        <time>2013-07-28T08:06:56Z</time>
      </trkpt>
      <trkpt lat="45.905321231111884" lon="7.499887738376856">
        <ele>2089.5599999999999</ele>
        <time>2013-07-28T08:07:09Z</time>
      </trkpt>
      <trkpt lat="45.905349729582667" lon="7.499961163848639">
        <ele>2087.6399999999999</ele>
        <time>2013-07-28T08:07:23Z</time>
      </trkpt>
      <trkpt lat="45.905360290780663" lon="7.499951776117086">
        <ele>2086.6799999999998</ele>
        <time>2013-07-28T08:07:56Z</time>
      </trkpt>
      <trkpt lat="45.905348137021065" lon="7.499948758631945">
        <ele>2086.6799999999998</ele>
        <time>2013-07-28T08:08:24Z</time>
      </trkpt>
      <trkpt lat="45.905376216396689" lon="7.499979436397553">
        <ele>2087.1599999999999</ele>
        <time>2013-07-28T08:08:33Z</time>
      </trkpt>
      <trkpt lat="45.905406223610044" lon="7.500104997307062">
        <ele>2087.6399999999999</ele>
        <time>2013-07-28T08:08:41Z</time>
      </trkpt>
      <trkpt lat="45.905402451753616" lon="7.500177584588528">
        <ele>2086.6799999999998</ele>
        <time>2013-07-28T08:08:55Z</time>
      </trkpt>
      <trkpt lat="45.905387364327908" lon="7.50017624348402">
        <ele>2087.1599999999999</ele>
        <time>2013-07-28T08:09:02Z</time>
      </trkpt>
      <trkpt lat="45.905386442318559" lon="7.500386713072658">
        <ele>2087.6399999999999</ele>
        <time>2013-07-28T08:09:17Z</time>
      </trkpt>
      <trkpt lat="45.905411755666137" lon="7.500412613153458">
        <ele>2089.0799999999999</ele>
        <time>2013-07-28T08:09:21Z</time>
      </trkpt>
      <trkpt lat="45.905424077063799" lon="7.500442285090685">
        <ele>2089.0799999999999</ele>
        <time>2013-07-28T08:09:23Z</time>
      </trkpt>
      <trkpt lat="45.905427178367972" lon="7.500476399436593">
        <ele>2089.0799999999999</ele>
        <time>2013-07-28T08:09:25Z</time>
      </trkpt>
      <trkpt lat="45.905511416494846" lon="7.500516548752785">
        <ele>2090.52</ele>
        <time>2013-07-28T08:09:39Z</time>
      </trkpt>
      <trkpt lat="45.905579058453441" lon="7.500548399984837">
        <ele>2092.9299999999998</ele>
        <time>2013-07-28T08:09:53Z</time>
      </trkpt>
      <trkpt lat="45.905619626864791" lon="7.500628363341093">
        <ele>2095.8099999999999</ele>
        <time>2013-07-28T08:10:06Z</time>
      </trkpt>
      <trkpt lat="45.905683077871799" lon="7.500774040818214">
        <ele>2098.21</ele>
        <time>2013-07-28T08:10:20Z</time>
      </trkpt>
      <trkpt lat="45.905754575505853" lon="7.500794995576143">
        <ele>2100.1399999999999</ele>
        <time>2013-07-28T08:10:33Z</time>
      </trkpt>
      <trkpt lat="45.905808135867119" lon="7.500877138227224">
        <ele>2100.6199999999999</ele>
        <time>2013-07-28T08:10:46Z</time>
      </trkpt>
      <trkpt lat="45.90586488135159" lon="7.500853249803186">
        <ele>2102.0599999999999</ele>
        <time>2013-07-28T08:10:57Z</time>
      </trkpt>
      <trkpt lat="45.905949370935559" lon="7.500885603949428">
        <ele>2104.46</ele>
        <time>2013-07-28T08:11:10Z</time>
      </trkpt>
      <trkpt lat="45.905942413955927" lon="7.500923154875636">
        <ele>2103.98</ele>
        <time>2013-07-28T08:11:26Z</time>
      </trkpt>
      <trkpt lat="45.905940905213356" lon="7.500929776579142">
        <ele>2104.9400000000001</ele>
        <time>2013-07-28T08:11:46Z</time>
      </trkpt>
      <trkpt lat="45.905975941568613" lon="7.500961124897003">
        <ele>2105.4200000000001</ele>
        <time>2013-07-28T08:11:53Z</time>
      </trkpt>
      <trkpt lat="45.905988765880466" lon="7.500983504578471">
        <ele>2105.4200000000001</ele>
        <time>2013-07-28T08:11:55Z</time>
      </trkpt>
      <trkpt lat="45.906053138896823" lon="7.501049637794495">
        <ele>2106.8699999999999</ele>
        <time>2013-07-28T08:12:06Z</time>
      </trkpt>
      <trkpt lat="45.906134024262428" lon="7.501185340806842">
        <ele>2108.3099999999999</ele>
        <time>2013-07-28T08:12:19Z</time>
      </trkpt>
      <trkpt lat="45.90618833899498" lon="7.501211576163769">
        <ele>2108.79</ele>
        <time>2013-07-28T08:12:25Z</time>
      </trkpt>
      <trkpt lat="45.906264111399651" lon="7.501314003020525">
        <ele>2108.3099999999999</ele>
        <time>2013-07-28T08:12:37Z</time>
      </trkpt>
      <trkpt lat="45.906342230737209" lon="7.501381728798151">
        <ele>2109.75</ele>
        <time>2013-07-28T08:12:49Z</time>
      </trkpt>
      <trkpt lat="45.906354719772935" lon="7.501409472897649">
        <ele>2109.27</ele>
        <time>2013-07-28T08:12:51Z</time>
      </trkpt>
      <trkpt lat="45.906413896009326" lon="7.501507289707661">
        <ele>2109.75</ele>
        <time>2013-07-28T08:13:02Z</time>
      </trkpt>
      <trkpt lat="45.906466953456402" lon="7.501651374623179">
        <ele>2109.27</ele>
        <time>2013-07-28T08:13:12Z</time>
      </trkpt>
      <trkpt lat="45.906613552942872" lon="7.501797806471586">
        <ele>2107.3499999999999</ele>
        <time>2013-07-28T08:13:28Z</time>
      </trkpt>
      <trkpt lat="45.906686475500464" lon="7.501876261085272">
        <ele>2108.79</ele>
        <time>2013-07-28T08:13:37Z</time>
      </trkpt>
      <trkpt lat="45.906736180186272" lon="7.501901322975755">
        <ele>2109.27</ele>
        <time>2013-07-28T08:13:42Z</time>
      </trkpt>
      <trkpt lat="45.906878672540188" lon="7.502061752602458">
        <ele>2109.27</ele>
        <time>2013-07-28T08:13:58Z</time>
      </trkpt>
      <trkpt lat="45.906990151852369" lon="7.502189241349697">
        <ele>2109.75</ele>
        <time>2013-07-28T08:14:11Z</time>
      </trkpt>
      <trkpt lat="45.907060224562883" lon="7.502253195270896">
        <ele>2110.23</ele>
        <time>2013-07-28T08:14:21Z</time>
      </trkpt>
      <trkpt lat="45.907069947570562" lon="7.502253782004118">
        <ele>2110.23</ele>
        <time>2013-07-28T08:14:37Z</time>
      </trkpt>
      <trkpt lat="45.907084783539176" lon="7.502273060381413">
        <ele>2110.71</ele>
        <time>2013-07-28T08:14:39Z</time>
      </trkpt>
      <trkpt lat="45.907189138233662" lon="7.502379678189755">
        <ele>2111.6700000000001</ele>
        <time>2013-07-28T08:14:52Z</time>
      </trkpt>
      <trkpt lat="45.907245213165879" lon="7.502423096448183">
        <ele>2111.1900000000001</ele>
        <time>2013-07-28T08:15:05Z</time>
      </trkpt>
      <trkpt lat="45.907241189852357" lon="7.502418234944344">
        <ele>2111.1900000000001</ele>
        <time>2013-07-28T08:15:10Z</time>
      </trkpt>
      <trkpt lat="45.907304808497429" lon="7.502580340951681">
        <ele>2112.1500000000001</ele>
        <time>2013-07-28T08:15:25Z</time>
      </trkpt>
      <trkpt lat="45.907337078824639" lon="7.50261303037405">
        <ele>2112.1500000000001</ele>
        <time>2013-07-28T08:15:30Z</time>
      </trkpt>
      <trkpt lat="45.907458532601595" lon="7.502668099477887">
        <ele>2114.5599999999999</ele>
        <time>2013-07-28T08:15:43Z</time>
      </trkpt>
      <trkpt lat="45.907551739364862" lon="7.502744039520621">
        <ele>2115.52</ele>
        <time>2013-07-28T08:15:52Z</time>
      </trkpt>
      <trkpt lat="45.90756825171411" lon="7.50276398845017">
        <ele>2115.52</ele>
        <time>2013-07-28T08:15:54Z</time>
      </trkpt>
      <trkpt lat="45.907590799033642" lon="7.502793241292238">
        <ele>2114.5599999999999</ele>
        <time>2013-07-28T08:16:08Z</time>
      </trkpt>
      <trkpt lat="45.907592978328466" lon="7.502743117511272">
        <ele>2115.52</ele>
        <time>2013-07-28T08:16:19Z</time>
      </trkpt>
      <trkpt lat="45.90762197971344" lon="7.502760887145996">
        <ele>2116.48</ele>
        <time>2013-07-28T08:16:26Z</time>
      </trkpt>
      <trkpt lat="45.907733459025621" lon="7.502835486084223">
        <ele>2116.96</ele>
        <time>2013-07-28T08:16:37Z</time>
      </trkpt>
      <trkpt lat="45.907772099599242" lon="7.502872198820114">
        <ele>2116.96</ele>
        <time>2013-07-28T08:16:41Z</time>
      </trkpt>
      <trkpt lat="45.907863881438971" lon="7.502995999529958">
        <ele>2117.9200000000001</ele>
        <time>2013-07-28T08:16:55Z</time>
      </trkpt>
      <trkpt lat="45.907965721562505" lon="7.503072274848819">
        <ele>2119.8400000000001</ele>
        <time>2013-07-28T08:17:07Z</time>
      </trkpt>
      <trkpt lat="45.908015761524439" lon="7.503107311204076">
        <ele>2120.3200000000002</ele>
        <time>2013-07-28T08:17:13Z</time>
      </trkpt>
      <trkpt lat="45.908130006864667" lon="7.503193644806743">
        <ele>2121.77</ele>
        <time>2013-07-28T08:17:26Z</time>
      </trkpt>
      <trkpt lat="45.908239893615246" lon="7.503215437754989">
        <ele>2123.21</ele>
        <time>2013-07-28T08:17:37Z</time>
      </trkpt>
      <trkpt lat="45.908318599686027" lon="7.503129858523607">
        <ele>2124.6500000000001</ele>
        <time>2013-07-28T08:17:48Z</time>
      </trkpt>
      <trkpt lat="45.908362437039614" lon="7.503106473013759">
        <ele>2124.6500000000001</ele>
        <time>2013-07-28T08:18:02Z</time>
      </trkpt>
      <trkpt lat="45.908357407897711" lon="7.503115776926279">
        <ele>2124.6500000000001</ele>
        <time>2013-07-28T08:18:14Z</time>
      </trkpt>
      <trkpt lat="45.908398060128093" lon="7.503092894330621">
        <ele>2124.6500000000001</ele>
        <time>2013-07-28T08:18:27Z</time>
      </trkpt>
      <trkpt lat="45.908497972413898" lon="7.503081662580371">
        <ele>2125.6100000000001</ele>
        <time>2013-07-28T08:18:37Z</time>
      </trkpt>
      <trkpt lat="45.908628897741437" lon="7.503032209351659">
        <ele>2126.5700000000002</ele>
        <time>2013-07-28T08:18:50Z</time>
      </trkpt>
      <trkpt lat="45.908807935193181" lon="7.502992814406753">
        <ele>2127.0500000000002</ele>
        <time>2013-07-28T08:19:06Z</time>
      </trkpt>
      <trkpt lat="45.908882953226566" lon="7.502994490787387">
        <ele>2128.98</ele>
        <time>2013-07-28T08:19:13Z</time>
      </trkpt>
      <trkpt lat="45.909051429480314" lon="7.503015110269189">
        <ele>2129.9400000000001</ele>
        <time>2013-07-28T08:19:30Z</time>
      </trkpt>
      <trkpt lat="45.909122759476304" lon="7.503011086955667">
        <ele>2131.8600000000001</ele>
        <time>2013-07-28T08:19:37Z</time>
      </trkpt>
      <trkpt lat="45.909229544922709" lon="7.503068838268518">
        <ele>2132.3400000000001</ele>
        <time>2013-07-28T08:19:50Z</time>
      </trkpt>
      <trkpt lat="45.909361476078629" lon="7.503029108047485">
        <ele>2132.8200000000002</ele>
        <time>2013-07-28T08:20:05Z</time>
      </trkpt>
      <trkpt lat="45.909362817183137" lon="7.503024246543646">
        <ele>2132.8200000000002</ele>
        <time>2013-07-28T08:20:06Z</time>
      </trkpt>
      <trkpt lat="45.909382933750749" lon="7.503095408901572">
        <ele>2132.3400000000001</ele>
        <time>2013-07-28T08:20:11Z</time>
      </trkpt>
      <trkpt lat="45.909529952332377" lon="7.503310153260827">
        <ele>2132.3400000000001</ele>
        <time>2013-07-28T08:20:30Z</time>
      </trkpt>
      <trkpt lat="45.909547051414847" lon="7.503325827419758">
        <ele>2133.3000000000002</ele>
        <time>2013-07-28T08:20:42Z</time>
      </trkpt>
      <trkpt lat="45.909551326185465" lon="7.503310153260827">
        <ele>2133.3000000000002</ele>
        <time>2013-07-28T08:21:06Z</time>
      </trkpt>
      <trkpt lat="45.909545626491308" lon="7.503311075270176">
        <ele>2133.3000000000002</ele>
        <time>2013-07-28T08:21:35Z</time>
      </trkpt>
      <trkpt lat="45.909549817442894" lon="7.5033098179847">
        <ele>2132.8200000000002</ele>
        <time>2013-07-28T08:21:54Z</time>
      </trkpt>
      <trkpt lat="45.909547721967101" lon="7.503315350040793">
        <ele>2131.8600000000001</ele>
        <time>2013-07-28T08:22:02Z</time>
      </trkpt>
      <trkpt lat="45.909568425267935" lon="7.503330856561661">
        <ele>2131.3800000000001</ele>
        <time>2013-07-28T08:22:35Z</time>
      </trkpt>
      <trkpt lat="45.909537496045232" lon="7.50337041914463">
        <ele>2131.3800000000001</ele>
        <time>2013-07-28T08:23:22Z</time>
      </trkpt>
      <trkpt lat="45.909554846584797" lon="7.503345273435116">
        <ele>2131.3800000000001</ele>
        <time>2013-07-28T08:24:01Z</time>
      </trkpt>
      <trkpt lat="45.909546632319689" lon="7.50332297757268">
        <ele>2131.3800000000001</ele>
        <time>2013-07-28T08:24:29Z</time>
      </trkpt>
      <trkpt lat="45.909550823271275" lon="7.50330051407218">
        <ele>2132.8200000000002</ele>
        <time>2013-07-28T08:24:41Z</time>
      </trkpt>
      <trkpt lat="45.909650987014174" lon="7.50335524789989">
        <ele>2132.8200000000002</ele>
        <time>2013-07-28T08:24:54Z</time>
      </trkpt>
      <trkpt lat="45.909826252609491" lon="7.503493633121252">
        <ele>2132.8200000000002</ele>
        <time>2013-07-28T08:25:12Z</time>
      </trkpt>
      <trkpt lat="45.909936474636197" lon="7.503728494048119">
        <ele>2132.3400000000001</ele>
        <time>2013-07-28T08:25:30Z</time>
      </trkpt>
      <trkpt lat="45.910010570660233" lon="7.503923792392016">
        <ele>2132.8200000000002</ele>
        <time>2013-07-28T08:25:44Z</time>
      </trkpt>
      <trkpt lat="45.910039404407144" lon="7.503927731886506">
        <ele>2132.3400000000001</ele>
        <time>2013-07-28T08:25:58Z</time>
      </trkpt>
      <trkpt lat="45.910038566216826" lon="7.503941897302866">
        <ele>2132.3400000000001</ele>
        <time>2013-07-28T08:26:00Z</time>
      </trkpt>
      <trkpt lat="45.910048708319664" lon="7.504119174554944">
        <ele>2131.8600000000001</ele>
        <time>2013-07-28T08:26:14Z</time>
      </trkpt>
      <trkpt lat="45.910114422440529" lon="7.504311203956604">
        <ele>2131.3800000000001</ele>
        <time>2013-07-28T08:26:28Z</time>
      </trkpt>
      <trkpt lat="45.910265129059553" lon="7.504568612203002">
        <ele>2131.3800000000001</ele>
        <time>2013-07-28T08:26:47Z</time>
      </trkpt>
      <trkpt lat="45.910294717177749" lon="7.504593590274453">
        <ele>2131.8600000000001</ele>
        <time>2013-07-28T08:26:54Z</time>
      </trkpt>
      <trkpt lat="45.910397144034505" lon="7.504699537530541">
        <ele>2131.8600000000001</ele>
        <time>2013-07-28T08:27:09Z</time>
      </trkpt>
      <trkpt lat="45.910422960296273" lon="7.504722671583295">
        <ele>2131.3800000000001</ele>
        <time>2013-07-28T08:27:21Z</time>
      </trkpt>
      <trkpt lat="45.91052882373333" lon="7.504772208631039">
        <ele>2131.8600000000001</ele>
        <time>2013-07-28T08:27:33Z</time>
      </trkpt>
      <trkpt lat="45.910602752119303" lon="7.504822500050068">
        <ele>2130.9000000000001</ele>
        <time>2013-07-28T08:27:40Z</time>
      </trkpt>
      <trkpt lat="45.910715656355023" lon="7.504898943006992">
        <ele>2130.9000000000001</ele>
        <time>2013-07-28T08:27:52Z</time>
      </trkpt>
      <trkpt lat="45.91074381954968" lon="7.50486901961267">
        <ele>2130.9000000000001</ele>
        <time>2013-07-28T08:28:01Z</time>
      </trkpt>
      <trkpt lat="45.910792602226138" lon="7.50494278036058">
        <ele>2131.8600000000001</ele>
        <time>2013-07-28T08:28:12Z</time>
      </trkpt>
      <trkpt lat="45.910830153152347" lon="7.504984438419342">
        <ele>2131.8600000000001</ele>
        <time>2013-07-28T08:28:16Z</time>
      </trkpt>
      <trkpt lat="45.91085965745151" lon="7.504992485046387">
        <ele>2131.3800000000001</ele>
        <time>2013-07-28T08:28:31Z</time>
      </trkpt>
      <trkpt lat="45.911055123433471" lon="7.505186107009649">
        <ele>2131.3800000000001</ele>
        <time>2013-07-28T08:28:51Z</time>
      </trkpt>
      <trkpt lat="45.911067444831133" lon="7.50522231683135">
        <ele>2131.3800000000001</ele>
        <time>2013-07-28T08:28:56Z</time>
      </trkpt>
      <trkpt lat="45.911120250821114" lon="7.505298173055053">
        <ele>2130.9000000000001</ele>
        <time>2013-07-28T08:29:02Z</time>
      </trkpt>
      <trkpt lat="45.911244470626116" lon="7.505500596016645">
        <ele>2131.3800000000001</ele>
        <time>2013-07-28T08:29:17Z</time>
      </trkpt>
      <trkpt lat="45.911260396242142" lon="7.505564885213971">
        <ele>2131.3800000000001</ele>
        <time>2013-07-28T08:29:21Z</time>
      </trkpt>
      <trkpt lat="45.911275651305914" lon="7.505615511909127">
        <ele>2131.3800000000001</ele>
        <time>2013-07-28T08:29:31Z</time>
      </trkpt>
      <trkpt lat="45.911397524178028" lon="7.505867471918464">
        <ele>2131.3800000000001</ele>
        <time>2013-07-28T08:29:49Z</time>
      </trkpt>
      <trkpt lat="45.911549236625433" lon="7.506081126630306">
        <ele>2130.9000000000001</ele>
        <time>2013-07-28T08:30:06Z</time>
      </trkpt>
      <trkpt lat="45.911570359021425" lon="7.506130412220955">
        <ele>2131.3800000000001</ele>
        <time>2013-07-28T08:30:09Z</time>
      </trkpt>
      <trkpt lat="45.911661302670836" lon="7.506346497684717">
        <ele>2131.3800000000001</ele>
        <time>2013-07-28T08:30:25Z</time>
      </trkpt>
      <trkpt lat="45.911669684574008" lon="7.506346497684717">
        <ele>2130.9000000000001</ele>
        <time>2013-07-28T08:30:27Z</time>
      </trkpt>
      <trkpt lat="45.911711174994707" lon="7.506441213190556">
        <ele>2130.9000000000001</ele>
        <time>2013-07-28T08:30:41Z</time>
      </trkpt>
      <trkpt lat="45.911737494170666" lon="7.506486894562841">
        <ele>2130.9000000000001</ele>
        <time>2013-07-28T08:30:45Z</time>
      </trkpt>
      <trkpt lat="45.91190773062408" lon="7.506781183183193">
        <ele>2130.9000000000001</ele>
        <time>2013-07-28T08:31:05Z</time>
      </trkpt>
      <trkpt lat="45.912037147209048" lon="7.506951671093702">
        <ele>2131.3800000000001</ele>
        <time>2013-07-28T08:31:20Z</time>
      </trkpt>
      <trkpt lat="45.912062795832753" lon="7.506956113502383">
        <ele>2131.8600000000001</ele>
        <time>2013-07-28T08:31:31Z</time>
      </trkpt>
      <trkpt lat="45.912064891308546" lon="7.506976230069995">
        <ele>2132.3400000000001</ele>
        <time>2013-07-28T08:31:35Z</time>
      </trkpt>
      <trkpt lat="45.912166312336922" lon="7.507175551727414">
        <ele>2130.9000000000001</ele>
        <time>2013-07-28T08:31:49Z</time>
      </trkpt>
      <trkpt lat="45.912336548790336" lon="7.507400354370475">
        <ele>2131.3800000000001</ele>
        <time>2013-07-28T08:32:07Z</time>
      </trkpt>
      <trkpt lat="45.912507539615035" lon="7.507604705169797">
        <ele>2131.8600000000001</ele>
        <time>2013-07-28T08:32:25Z</time>
      </trkpt>
      <trkpt lat="45.912565961480141" lon="7.507701516151428">
        <ele>2131.8600000000001</ele>
        <time>2013-07-28T08:32:38Z</time>
      </trkpt>
      <trkpt lat="45.912562189623713" lon="7.507724231109023">
        <ele>2130.9000000000001</ele>
        <time>2013-07-28T08:32:48Z</time>
      </trkpt>
      <trkpt lat="45.912558166310191" lon="7.507701935246587">
        <ele>2130.4200000000001</ele>
        <time>2013-07-28T08:33:12Z</time>
      </trkpt>
      <trkpt lat="45.912579288706183" lon="7.507703946903348">
        <ele>2131.3800000000001</ele>
        <time>2013-07-28T08:33:22Z</time>
      </trkpt>
      <trkpt lat="45.912589514628053" lon="7.507727751508355">
        <ele>2131.3800000000001</ele>
        <time>2013-07-28T08:33:24Z</time>
      </trkpt>
      <trkpt lat="45.912752291187644" lon="7.507861442863941">
        <ele>2131.3800000000001</ele>
        <time>2013-07-28T08:33:40Z</time>
      </trkpt>
      <trkpt lat="45.912956390529871" lon="7.5079136621207">
        <ele>2130.9000000000001</ele>
        <time>2013-07-28T08:33:57Z</time>
      </trkpt>
      <trkpt lat="45.913126040250063" lon="7.50812329351902">
        <ele>2130.4200000000001</ele>
        <time>2013-07-28T08:34:14Z</time>
      </trkpt>
      <trkpt lat="45.913163674995303" lon="7.508251704275608">
        <ele>2130.4200000000001</ele>
        <time>2013-07-28T08:34:22Z</time>
      </trkpt>
      <trkpt lat="45.913188150152564" lon="7.508297385647893">
        <ele>2130.4200000000001</ele>
        <time>2013-07-28T08:34:26Z</time>
      </trkpt>
      <trkpt lat="45.913196951150894" lon="7.508316496387124">
        <ele>2130.4200000000001</ele>
        <time>2013-07-28T08:34:30Z</time>
      </trkpt>
      <trkpt lat="45.913255540654063" lon="7.508328650146723">
        <ele>2130.4200000000001</ele>
        <time>2013-07-28T08:34:35Z</time>
      </trkpt>
      <trkpt lat="45.913282446563244" lon="7.508610617369413">
        <ele>2130.4200000000001</ele>
        <time>2013-07-28T08:34:51Z</time>
      </trkpt>
      <trkpt lat="45.913335671648383" lon="7.508844807744026">
        <ele>2130.9000000000001</ele>
        <time>2013-07-28T08:35:05Z</time>
      </trkpt>
      <trkpt lat="45.913395434617996" lon="7.50896668061614">
        <ele>2130.4200000000001</ele>
        <time>2013-07-28T08:35:13Z</time>
      </trkpt>
      <trkpt lat="45.913517978042364" lon="7.509246049448848">
        <ele>2130.4200000000001</ele>
        <time>2013-07-28T08:35:31Z</time>
      </trkpt>
      <trkpt lat="45.913691483438015" lon="7.50947093591094">
        <ele>2129.46</ele>
        <time>2013-07-28T08:35:48Z</time>
      </trkpt>
      <trkpt lat="45.913873789831996" lon="7.509677466005087">
        <ele>2129.9400000000001</ele>
        <time>2013-07-28T08:36:07Z</time>
      </trkpt>
      <trkpt lat="45.913894660770893" lon="7.50969959422946">
        <ele>2129.9400000000001</ele>
        <time>2013-07-28T08:36:09Z</time>
      </trkpt>
      <trkpt lat="45.914069171994925" lon="7.509894724935293">
        <ele>2129.9400000000001</ele>
        <time>2013-07-28T08:36:27Z</time>
      </trkpt>
      <trkpt lat="45.914146872237325" lon="7.510053310543299">
        <ele>2129.46</ele>
        <time>2013-07-28T08:36:37Z</time>
      </trkpt>
      <trkpt lat="45.914184674620628" lon="7.510366374626756">
        <ele>2130.4200000000001</ele>
        <time>2013-07-28T08:36:54Z</time>
      </trkpt>
      <trkpt lat="45.914203114807606" lon="7.510620849207044">
        <ele>2131.8600000000001</ele>
        <time>2013-07-28T08:37:08Z</time>
      </trkpt>
      <trkpt lat="45.914225578308105" lon="7.51078337430954">
        <ele>2131.8600000000001</ele>
        <time>2013-07-28T08:37:18Z</time>
      </trkpt>
      <trkpt lat="45.914309564977884" lon="7.511008428409696">
        <ele>2133.3000000000002</ele>
        <time>2013-07-28T08:37:34Z</time>
      </trkpt>
      <trkpt lat="45.914387181401253" lon="7.511156285181642">
        <ele>2135.23</ele>
        <time>2013-07-28T08:37:48Z</time>
      </trkpt>
      <trkpt lat="45.914483740925789" lon="7.511325934901834">
        <ele>2137.1500000000001</ele>
        <time>2013-07-28T08:38:03Z</time>
      </trkpt>
      <trkpt lat="45.914595723152161" lon="7.511547049507499">
        <ele>2136.6700000000001</ele>
        <time>2013-07-28T08:38:18Z</time>
      </trkpt>
      <trkpt lat="45.914659593254328" lon="7.511699516326189">
        <ele>2137.6300000000001</ele>
        <time>2013-07-28T08:38:28Z</time>
      </trkpt>
      <trkpt lat="45.914681553840637" lon="7.511761542409658">
        <ele>2138.1100000000001</ele>
        <time>2013-07-28T08:38:32Z</time>
      </trkpt>
      <trkpt lat="45.914779454469681" lon="7.511940579861403">
        <ele>2139.0700000000002</ele>
        <time>2013-07-28T08:38:46Z</time>
      </trkpt>
      <trkpt lat="45.914822369813919" lon="7.512036049738526">
        <ele>2138.5900000000001</ele>
        <time>2013-07-28T08:38:52Z</time>
      </trkpt>
      <trkpt lat="45.914915576577187" lon="7.512156832963228">
        <ele>2139.0700000000002</ele>
        <time>2013-07-28T08:39:02Z</time>
      </trkpt>
      <trkpt lat="45.91501004062593" lon="7.512443074956536">
        <ele>2139.0700000000002</ele>
        <time>2013-07-28T08:39:19Z</time>
      </trkpt>
      <trkpt lat="45.915072821080685" lon="7.512600487098098">
        <ele>2141.4699999999998</ele>
        <time>2013-07-28T08:39:33Z</time>
      </trkpt>
      <trkpt lat="45.915082879364491" lon="7.512645162642002">
        <ele>2141.9499999999998</ele>
        <time>2013-07-28T08:39:36Z</time>
      </trkpt>
      <trkpt lat="45.915096625685692" lon="7.512821014970541">
        <ele>2145.3200000000002</ele>
        <time>2013-07-28T08:39:51Z</time>
      </trkpt>
      <trkpt lat="45.915094362571836" lon="7.512864181771874">
        <ele>2145.3200000000002</ele>
        <time>2013-07-28T08:39:54Z</time>
      </trkpt>
      <trkpt lat="45.915120095014572" lon="7.513041459023953">
        <ele>2147.7199999999998</ele>
        <time>2013-07-28T08:40:08Z</time>
      </trkpt>
      <trkpt lat="45.915074748918414" lon="7.513221083208919">
        <ele>2150.1300000000001</ele>
        <time>2013-07-28T08:40:22Z</time>
      </trkpt>
      <trkpt lat="45.915033426135778" lon="7.513290233910084">
        <ele>2151.5700000000002</ele>
        <time>2013-07-28T08:40:31Z</time>
      </trkpt>
      <trkpt lat="45.915027307346463" lon="7.513298029080033">
        <ele>2151.0900000000001</ele>
        <time>2013-07-28T08:40:45Z</time>
      </trkpt>
      <trkpt lat="45.915030911564827" lon="7.513285372406244">
        <ele>2151.0900000000001</ele>
        <time>2013-07-28T08:41:04Z</time>
      </trkpt>
      <trkpt lat="45.915009370073676" lon="7.513290317729116">
        <ele>2151.0900000000001</ele>
        <time>2013-07-28T08:41:21Z</time>
      </trkpt>
      <trkpt lat="45.915002161636949" lon="7.513303812593222">
        <ele>2151.5700000000002</ele>
        <time>2013-07-28T08:41:37Z</time>
      </trkpt>
      <trkpt lat="45.915011465549469" lon="7.513314709067345">
        <ele>2151.0900000000001</ele>
        <time>2013-07-28T08:42:00Z</time>
      </trkpt>
      <trkpt lat="45.91501247137785" lon="7.513295598328114">
        <ele>2150.6100000000001</ele>
        <time>2013-07-28T08:42:08Z</time>
      </trkpt>
      <trkpt lat="45.915064355358481" lon="7.513290569186211">
        <ele>2151.0900000000001</ele>
        <time>2013-07-28T08:42:19Z</time>
      </trkpt>
      <trkpt lat="45.915134847164154" lon="7.513279169797897">
        <ele>2152.5300000000002</ele>
        <time>2013-07-28T08:42:39Z</time>
      </trkpt>
      <trkpt lat="45.915151527151465" lon="7.513281432911754">
        <ele>2153.0100000000002</ele>
        <time>2013-07-28T08:42:41Z</time>
      </trkpt>
      <trkpt lat="45.915200477465987" lon="7.513319235295057">
        <ele>2153.9699999999998</ele>
        <time>2013-07-28T08:42:48Z</time>
      </trkpt>
      <trkpt lat="45.915200058370829" lon="7.513389559462667">
        <ele>2154.4499999999998</ele>
        <time>2013-07-28T08:43:00Z</time>
      </trkpt>
      <trkpt lat="45.915209697559476" lon="7.513379920274019">
        <ele>2155.4099999999999</ele>
        <time>2013-07-28T08:43:14Z</time>
      </trkpt>
      <trkpt lat="45.915255295112729" lon="7.513450244441629">
        <ele>2154.9299999999998</ele>
        <time>2013-07-28T08:43:27Z</time>
      </trkpt>
      <trkpt lat="45.915253115817904" lon="7.51345619559288">
        <ele>2154.9299999999998</ele>
        <time>2013-07-28T08:43:43Z</time>
      </trkpt>
      <trkpt lat="45.915260491892695" lon="7.513434067368507">
        <ele>2155.4099999999999</ele>
        <time>2013-07-28T08:44:04Z</time>
      </trkpt>
      <trkpt lat="45.915269795805216" lon="7.513459464535117">
        <ele>2155.4099999999999</ele>
        <time>2013-07-28T08:44:05Z</time>
      </trkpt>
      <trkpt lat="45.915335342288017" lon="7.513618133962154">
        <ele>2153.4899999999998</ele>
        <time>2013-07-28T08:44:18Z</time>
      </trkpt>
      <trkpt lat="45.915337856858969" lon="7.513653505593538">
        <ele>2152.5300000000002</ele>
        <time>2013-07-28T08:44:20Z</time>
      </trkpt>
      <trkpt lat="45.915364678949118" lon="7.513772696256638">
        <ele>2149.1599999999999</ele>
        <time>2013-07-28T08:44:29Z</time>
      </trkpt>
      <trkpt lat="45.915370630100369" lon="7.513776049017906">
        <ele>2149.1599999999999</ele>
        <time>2013-07-28T08:44:30Z</time>
      </trkpt>
      <trkpt lat="45.915383957326412" lon="7.513835644349456">
        <ele>2148.1999999999998</ele>
        <time>2013-07-28T08:44:33Z</time>
      </trkpt>
      <trkpt lat="45.915480684489012" lon="7.513988194987178">
        <ele>2144.8400000000001</ele>
        <time>2013-07-28T08:44:46Z</time>
      </trkpt>
      <trkpt lat="45.915551260113716" lon="7.514051478356123">
        <ele>2144.8400000000001</ele>
        <time>2013-07-28T08:44:53Z</time>
      </trkpt>
      <trkpt lat="45.91570783406496" lon="7.514139488339424">
        <ele>2144.8400000000001</ele>
        <time>2013-07-28T08:45:07Z</time>
      </trkpt>
      <trkpt lat="45.915784444659948" lon="7.514221044257283">
        <ele>2143.8800000000001</ele>
        <time>2013-07-28T08:45:15Z</time>
      </trkpt>
      <trkpt lat="45.915922159329057" lon="7.514438470825553">
        <ele>2141.4699999999998</ele>
        <time>2013-07-28T08:45:32Z</time>
      </trkpt>
      <trkpt lat="45.916020981967449" lon="7.514569312334061">
        <ele>2138.1100000000001</ele>
        <time>2013-07-28T08:45:44Z</time>
      </trkpt>
      <trkpt lat="45.916082924231887" lon="7.514673080295324">
        <ele>2136.1900000000001</ele>
        <time>2013-07-28T08:45:51Z</time>
      </trkpt>
      <trkpt lat="45.916118966415524" lon="7.514753630384803">
        <ele>2135.23</ele>
        <time>2013-07-28T08:45:56Z</time>
      </trkpt>
      <trkpt lat="45.916160373017192" lon="7.514831246808171">
        <ele>2134.2600000000002</ele>
        <time>2013-07-28T08:46:01Z</time>
      </trkpt>
      <trkpt lat="45.91626925393939" lon="7.515020677819848">
        <ele>2132.8200000000002</ele>
        <time>2013-07-28T08:46:15Z</time>
      </trkpt>
      <trkpt lat="45.916338907554746" lon="7.51503249630332">
        <ele>2134.2600000000002</ele>
        <time>2013-07-28T08:46:23Z</time>
      </trkpt>
      <trkpt lat="45.916398838162422" lon="7.515027383342385">
        <ele>2136.6700000000001</ele>
        <time>2013-07-28T08:46:31Z</time>
      </trkpt>
      <trkpt lat="45.916435047984123" lon="7.515041045844555">
        <ele>2138.1100000000001</ele>
        <time>2013-07-28T08:46:37Z</time>
      </trkpt>
      <trkpt lat="45.916530853137374" lon="7.515127127990127">
        <ele>2140.5100000000002</ele>
        <time>2013-07-28T08:46:50Z</time>
      </trkpt>
      <trkpt lat="45.91663671657443" lon="7.515224609524012">
        <ele>2142.9200000000001</ele>
        <time>2013-07-28T08:47:03Z</time>
      </trkpt>
      <trkpt lat="45.916643673554063" lon="7.515237182378769">
        <ele>2142.9200000000001</ele>
        <time>2013-07-28T08:47:04Z</time>
      </trkpt>
      <trkpt lat="45.91675347648561" lon="7.515306416898966">
        <ele>2142.4400000000001</ele>
        <time>2013-07-28T08:47:14Z</time>
      </trkpt>
      <trkpt lat="45.916825560852885" lon="7.515365090221167">
        <ele>2142.4400000000001</ele>
        <time>2013-07-28T08:47:21Z</time>
      </trkpt>
      <trkpt lat="45.916840396821499" lon="7.515381770208478">
        <ele>2142.9200000000001</ele>
        <time>2013-07-28T08:47:33Z</time>
      </trkpt>
      <trkpt lat="45.916873756796122" lon="7.515429295599461">
        <ele>2142.9200000000001</ele>
        <time>2013-07-28T08:47:37Z</time>
      </trkpt>
      <trkpt lat="45.916889933869243" lon="7.515480760484934">
        <ele>2142.9200000000001</ele>
        <time>2013-07-28T08:47:40Z</time>
      </trkpt>
      <trkpt lat="45.917062684893608" lon="7.515567680820823">
        <ele>2141.9499999999998</ele>
        <time>2013-07-28T08:47:56Z</time>
      </trkpt>
      <trkpt lat="45.917106606066227" lon="7.515584360808134">
        <ele>2141.9499999999998</ele>
        <time>2013-07-28T08:48:00Z</time>
      </trkpt>
      <trkpt lat="45.917164273560047" lon="7.515675136819482">
        <ele>2140.5100000000002</ele>
        <time>2013-07-28T08:48:12Z</time>
      </trkpt>
      <trkpt lat="45.91718346811831" lon="7.515723500400782">
        <ele>2139.0700000000002</ele>
        <time>2013-07-28T08:48:17Z</time>
      </trkpt>
      <trkpt lat="45.917228227481246" lon="7.515835398808122">
        <ele>2137.6300000000001</ele>
        <time>2013-07-28T08:48:24Z</time>
      </trkpt>
      <trkpt lat="45.917337611317635" lon="7.516091801226139">
        <ele>2135.23</ele>
        <time>2013-07-28T08:48:42Z</time>
      </trkpt>
      <trkpt lat="45.917461663484573" lon="7.51635767519474">
        <ele>2133.3000000000002</ele>
        <time>2013-07-28T08:49:00Z</time>
      </trkpt>
      <trkpt lat="45.917482702061534" lon="7.51639187335968">
        <ele>2132.8200000000002</ele>
        <time>2013-07-28T08:49:03Z</time>
      </trkpt>
      <trkpt lat="45.917589403688908" lon="7.516521373763681">
        <ele>2130.4200000000001</ele>
        <time>2013-07-28T08:49:15Z</time>
      </trkpt>
      <trkpt lat="45.917684705927968" lon="7.51674416474998">
        <ele>2129.46</ele>
        <time>2013-07-28T08:49:30Z</time>
      </trkpt>
      <trkpt lat="45.91779082082212" lon="7.516904845833778">
        <ele>2127.5300000000002</ele>
        <time>2013-07-28T08:49:43Z</time>
      </trkpt>
      <trkpt lat="45.91790565289557" lon="7.517139706760645">
        <ele>2126.5700000000002</ele>
        <time>2013-07-28T08:49:59Z</time>
      </trkpt>
      <trkpt lat="45.917961057275534" lon="7.517276247963309">
        <ele>2125.1300000000001</ele>
        <time>2013-07-28T08:50:08Z</time>
      </trkpt>
      <trkpt lat="45.918038170784712" lon="7.517534913495183">
        <ele>2122.73</ele>
        <time>2013-07-28T08:50:23Z</time>
      </trkpt>
      <trkpt lat="45.918158870190382" lon="7.517749825492501">
        <ele>2120.3200000000002</ele>
        <time>2013-07-28T08:50:39Z</time>
      </trkpt>
      <trkpt lat="45.918277474120259" lon="7.517994744703174">
        <ele>2118.8800000000001</ele>
        <time>2013-07-28T08:50:54Z</time>
      </trkpt>
      <trkpt lat="45.918365819379687" lon="7.518138829618692">
        <ele>2119.3600000000001</ele>
        <time>2013-07-28T08:51:06Z</time>
      </trkpt>
      <trkpt lat="45.918430779129267" lon="7.518229940906167">
        <ele>2120.3200000000002</ele>
        <time>2013-07-28T08:51:15Z</time>
      </trkpt>
      <trkpt lat="45.918511748313904" lon="7.518461532890797">
        <ele>2118.8800000000001</ele>
        <time>2013-07-28T08:51:31Z</time>
      </trkpt>
      <trkpt lat="45.918558267876506" lon="7.518719360232353">
        <ele>2117.9200000000001</ele>
        <time>2013-07-28T08:51:46Z</time>
      </trkpt>
      <trkpt lat="45.918567823246121" lon="7.518777027726173">
        <ele>2116.96</ele>
        <time>2013-07-28T08:51:50Z</time>
      </trkpt>
      <trkpt lat="45.918603781610727" lon="7.519013565033674">
        <ele>2117.9200000000001</ele>
        <time>2013-07-28T08:52:06Z</time>
      </trkpt>
      <trkpt lat="45.91863127425313" lon="7.519281199201942">
        <ele>2119.8400000000001</ele>
        <time>2013-07-28T08:52:23Z</time>
      </trkpt>
      <trkpt lat="45.918644182384014" lon="7.51931045204401">
        <ele>2119.8400000000001</ele>
        <time>2013-07-28T08:52:25Z</time>
      </trkpt>
      <trkpt lat="45.918655833229423" lon="7.519369460642338">
        <ele>2119.8400000000001</ele>
        <time>2013-07-28T08:52:28Z</time>
      </trkpt>
      <trkpt lat="45.918791703879833" lon="7.519542295485735">
        <ele>2120.8099999999999</ele>
        <time>2013-07-28T08:52:44Z</time>
      </trkpt>
      <trkpt lat="45.918852556496859" lon="7.519633322954178">
        <ele>2121.77</ele>
        <time>2013-07-28T08:52:51Z</time>
      </trkpt>
      <trkpt lat="45.918881138786674" lon="7.519677327945828">
        <ele>2122.73</ele>
        <time>2013-07-28T08:52:55Z</time>
      </trkpt>
      <trkpt lat="45.918957078829408" lon="7.51975804567337">
        <ele>2122.73</ele>
        <time>2013-07-28T08:53:10Z</time>
      </trkpt>
      <trkpt lat="45.918982811272144" lon="7.519774222746491">
        <ele>2124.6500000000001</ele>
        <time>2013-07-28T08:53:17Z</time>
      </trkpt>
      <trkpt lat="45.919066462665796" lon="7.519849659875035">
        <ele>2126.5700000000002</ele>
        <time>2013-07-28T08:53:30Z</time>
      </trkpt>
      <trkpt lat="45.919145587831736" lon="7.519919145852327">
        <ele>2127.0500000000002</ele>
        <time>2013-07-28T08:53:43Z</time>
      </trkpt>
      <trkpt lat="45.919206524267793" lon="7.519863490015268">
        <ele>2128.98</ele>
        <time>2013-07-28T08:53:57Z</time>
      </trkpt>
      <trkpt lat="45.919210463762283" lon="7.519862232729793">
        <ele>2129.9400000000001</ele>
        <time>2013-07-28T08:53:58Z</time>
      </trkpt>
      <trkpt lat="45.919250948354602" lon="7.519886121153832">
        <ele>2130.9000000000001</ele>
        <time>2013-07-28T08:54:06Z</time>
      </trkpt>
      <trkpt lat="45.91931976377964" lon="7.5198635738343">
        <ele>2132.8200000000002</ele>
        <time>2013-07-28T08:54:21Z</time>
      </trkpt>
      <trkpt lat="45.919331917539239" lon="7.519854940474033">
        <ele>2133.3000000000002</ele>
        <time>2013-07-28T08:54:34Z</time>
      </trkpt>
      <trkpt lat="45.919351782649755" lon="7.519789393991232">
        <ele>2135.23</ele>
        <time>2013-07-28T08:54:49Z</time>
      </trkpt>
      <trkpt lat="45.919422190636396" lon="7.519832560792565">
        <ele>2138.1100000000001</ele>
        <time>2013-07-28T08:55:01Z</time>
      </trkpt>
      <trkpt lat="45.919505758211017" lon="7.519880505278707">
        <ele>2140.0300000000002</ele>
        <time>2013-07-28T08:55:13Z</time>
      </trkpt>
      <trkpt lat="45.919549595564604" lon="7.51992953941226">
        <ele>2140.9899999999998</ele>
        <time>2013-07-28T08:55:19Z</time>
      </trkpt>
      <trkpt lat="45.919590163975954" lon="7.520039090886712">
        <ele>2142.4400000000001</ele>
        <time>2013-07-28T08:55:33Z</time>
      </trkpt>
      <trkpt lat="45.919640706852078" lon="7.520112600177527">
        <ele>2144.3600000000001</ele>
        <time>2013-07-28T08:55:45Z</time>
      </trkpt>
      <trkpt lat="45.919654620811343" lon="7.520126597955823">
        <ele>2144.3600000000001</ele>
        <time>2013-07-28T08:55:49Z</time>
      </trkpt>
      <trkpt lat="45.919773308560252" lon="7.520190719515085">
        <ele>2145.8000000000002</ele>
        <time>2013-07-28T08:56:02Z</time>
      </trkpt>
      <trkpt lat="45.919867102056742" lon="7.520210333168507">
        <ele>2147.2399999999998</ele>
        <time>2013-07-28T08:56:15Z</time>
      </trkpt>
      <trkpt lat="45.919971959665418" lon="7.520229779183865">
        <ele>2147.7199999999998</ele>
        <time>2013-07-28T08:56:27Z</time>
      </trkpt>
      <trkpt lat="45.920078745111823" lon="7.52029306255281">
        <ele>2149.1599999999999</ele>
        <time>2013-07-28T08:56:43Z</time>
      </trkpt>
      <trkpt lat="45.920203970745206" lon="7.520385347306728">
        <ele>2150.6100000000001</ele>
        <time>2013-07-28T08:56:59Z</time>
      </trkpt>
      <trkpt lat="45.920290220528841" lon="7.520445361733437">
        <ele>2151.5700000000002</ele>
        <time>2013-07-28T08:57:12Z</time>
      </trkpt>
      <trkpt lat="45.920359035953879" lon="7.520472435280681">
        <ele>2153.9699999999998</ele>
        <time>2013-07-28T08:57:26Z</time>
      </trkpt>
      <trkpt lat="45.92040354385972" lon="7.520486349239945">
        <ele>2154.4499999999998</ele>
        <time>2013-07-28T08:57:31Z</time>
      </trkpt>
      <trkpt lat="45.920532708987594" lon="7.520585339516401">
        <ele>2154.4499999999998</ele>
        <time>2013-07-28T08:57:45Z</time>
      </trkpt>
      <trkpt lat="45.920636979863048" lon="7.520615346729755">
        <ele>2154.9299999999998</ele>
        <time>2013-07-28T08:57:59Z</time>
      </trkpt>
      <trkpt lat="45.920744687318802" lon="7.520684497430921">
        <ele>2154.9299999999998</ele>
        <time>2013-07-28T08:58:14Z</time>
      </trkpt>
      <trkpt lat="45.920801684260368" lon="7.520699417218566">
        <ele>2157.8200000000002</ele>
        <time>2013-07-28T08:58:22Z</time>
      </trkpt>
      <trkpt lat="45.92080713249743" lon="7.520704362541437">
        <ele>2157.8200000000002</ele>
        <time>2013-07-28T08:58:23Z</time>
      </trkpt>
      <trkpt lat="45.920933950692415" lon="7.520727245137096">
        <ele>2159.7399999999998</ele>
        <time>2013-07-28T08:58:38Z</time>
      </trkpt>
      <trkpt lat="45.921064708381891" lon="7.520744511857629">
        <ele>2162.1399999999999</ele>
        <time>2013-07-28T08:58:52Z</time>
      </trkpt>
      <trkpt lat="45.921137128025293" lon="7.52077778801322">
        <ele>2162.1399999999999</ele>
        <time>2013-07-28T08:59:00Z</time>
      </trkpt>
      <trkpt lat="45.92129185795784" lon="7.520831851288676">
        <ele>2162.6199999999999</ele>
        <time>2013-07-28T08:59:15Z</time>
      </trkpt>
      <trkpt lat="45.921329408884048" lon="7.520836126059294">
        <ele>2163.0999999999999</ele>
        <time>2013-07-28T08:59:19Z</time>
      </trkpt>
      <trkpt lat="45.921475673094392" lon="7.52086185850203">
        <ele>2164.0599999999999</ele>
        <time>2013-07-28T08:59:34Z</time>
      </trkpt>
      <trkpt lat="45.921520264819264" lon="7.520877532660961">
        <ele>2164.5500000000002</ele>
        <time>2013-07-28T08:59:39Z</time>
      </trkpt>
      <trkpt lat="45.921542476862669" lon="7.520871665328741">
        <ele>2165.0300000000002</ele>
        <time>2013-07-28T08:59:41Z</time>
      </trkpt>
      <trkpt lat="45.921603329479694" lon="7.520894631743431">
        <ele>2166.4699999999998</ele>
        <time>2013-07-28T08:59:48Z</time>
      </trkpt>
      <trkpt lat="45.921662673354149" lon="7.520926063880324">
        <ele>2166.4699999999998</ele>
        <time>2013-07-28T08:59:54Z</time>
      </trkpt>
      <trkpt lat="45.921698296442628" lon="7.520958166569471">
        <ele>2165.9899999999998</ele>
        <time>2013-07-28T08:59:58Z</time>
      </trkpt>
      <trkpt lat="45.921887643635273" lon="7.520998064428568">
        <ele>2164.5500000000002</ele>
        <time>2013-07-28T09:00:16Z</time>
      </trkpt>
      <trkpt lat="45.922052599489689" lon="7.520989011973143">
        <ele>2165.9899999999998</ele>
        <time>2013-07-28T09:00:33Z</time>
      </trkpt>
      <trkpt lat="45.922198612242937" lon="7.520939977839589">
        <ele>2166.4699999999998</ele>
        <time>2013-07-28T09:00:47Z</time>
      </trkpt>
      <trkpt lat="45.922254268079996" lon="7.520884489640594">
        <ele>2167.4299999999998</ele>
        <time>2013-07-28T09:00:56Z</time>
      </trkpt>
      <trkpt lat="45.922271618619561" lon="7.520870491862297">
        <ele>2167.9099999999999</ele>
        <time>2013-07-28T09:00:58Z</time>
      </trkpt>
      <trkpt lat="45.922401286661625" lon="7.520869234576821">
        <ele>2167.9099999999999</ele>
        <time>2013-07-28T09:01:11Z</time>
      </trkpt>
      <trkpt lat="45.922512849792838" lon="7.52084425650537">
        <ele>2169.3499999999999</ele>
        <time>2013-07-28T09:01:24Z</time>
      </trkpt>
      <trkpt lat="45.922519387677312" lon="7.520850710570812">
        <ele>2169.3499999999999</ele>
        <time>2013-07-28T09:01:25Z</time>
      </trkpt>
      <trkpt lat="45.922577222809196" lon="7.520862780511379">
        <ele>2169.3499999999999</ele>
        <time>2013-07-28T09:01:31Z</time>
      </trkpt>
      <trkpt lat="45.922739412635565" lon="7.520854566246271">
        <ele>2169.8299999999999</ele>
        <time>2013-07-28T09:01:46Z</time>
      </trkpt>
      <trkpt lat="45.922790709882975" lon="7.520835371688008">
        <ele>2170.3099999999999</ele>
        <time>2013-07-28T09:01:51Z</time>
      </trkpt>
      <trkpt lat="45.922808647155762" lon="7.520827325060964">
        <ele>2170.3099999999999</ele>
        <time>2013-07-28T09:01:53Z</time>
      </trkpt>
      <trkpt lat="45.922889616340399" lon="7.520815758034587">
        <ele>2171.27</ele>
        <time>2013-07-28T09:02:01Z</time>
      </trkpt>
      <trkpt lat="45.922985086217523" lon="7.520727245137096">
        <ele>2171.27</ele>
        <time>2013-07-28T09:02:13Z</time>
      </trkpt>
      <trkpt lat="45.923023978248239" lon="7.520698327571154">
        <ele>2170.79</ele>
        <time>2013-07-28T09:02:17Z</time>
      </trkpt>
      <trkpt lat="45.923155825585127" lon="7.520643593743444">
        <ele>2171.7600000000002</ele>
        <time>2013-07-28T09:02:30Z</time>
      </trkpt>
      <trkpt lat="45.923192957416177" lon="7.520626913756132">
        <ele>2172.2399999999998</ele>
        <time>2013-07-28T09:02:35Z</time>
      </trkpt>
      <trkpt lat="45.923324469476938" lon="7.520565390586853">
        <ele>2172.7199999999998</ele>
        <time>2013-07-28T09:02:48Z</time>
      </trkpt>
      <trkpt lat="45.923429243266582" lon="7.52050512470305">
        <ele>2173.6799999999998</ele>
        <time>2013-07-28T09:03:01Z</time>
      </trkpt>
      <trkpt lat="45.923451203852892" lon="7.52049439586699">
        <ele>2174.1599999999999</ele>
        <time>2013-07-28T09:03:04Z</time>
      </trkpt>
      <trkpt lat="45.923552876338363" lon="7.520440751686692">
        <ele>2174.6399999999999</ele>
        <time>2013-07-28T09:03:16Z</time>
      </trkpt>
      <trkpt lat="45.923658488318324" lon="7.520334720611572">
        <ele>2175.5999999999999</ele>
        <time>2013-07-28T09:03:31Z</time>
      </trkpt>
      <trkpt lat="45.923696206882596" lon="7.52030186355114">
        <ele>2175.5999999999999</ele>
        <time>2013-07-28T09:03:36Z</time>
      </trkpt>
      <trkpt lat="45.923731494694948" lon="7.520270431414247">
        <ele>2175.5999999999999</ele>
        <time>2013-07-28T09:03:40Z</time>
      </trkpt>
      <trkpt lat="45.923815732821822" lon="7.520223241299391">
        <ele>2176.0799999999999</ele>
        <time>2013-07-28T09:03:54Z</time>
      </trkpt>
      <trkpt lat="45.923955459147692" lon="7.520146043971181">
        <ele>2176.0799999999999</ele>
        <time>2013-07-28T09:04:06Z</time>
      </trkpt>
      <trkpt lat="45.924115050584078" lon="7.52006147056818">
        <ele>2176.0799999999999</ele>
        <time>2013-07-28T09:04:22Z</time>
      </trkpt>
      <trkpt lat="45.92428763397038" lon="7.519979411736131">
        <ele>2178.48</ele>
        <time>2013-07-28T09:04:39Z</time>
      </trkpt>
      <trkpt lat="45.924354186281562" lon="7.519896514713764">
        <ele>2176.5599999999999</ele>
        <time>2013-07-28T09:04:46Z</time>
      </trkpt>
      <trkpt lat="45.924492739140987" lon="7.519860221073031">
        <ele>2176.5599999999999</ele>
        <time>2013-07-28T09:04:57Z</time>
      </trkpt>
      <trkpt lat="45.924499193206429" lon="7.519850749522448">
        <ele>2176.5599999999999</ele>
        <time>2013-07-28T09:04:58Z</time>
      </trkpt>
      <trkpt lat="45.92452802695334" lon="7.519811857491732">
        <ele>2176.0799999999999</ele>
        <time>2013-07-28T09:05:01Z</time>
      </trkpt>
      <trkpt lat="45.924564739689231" lon="7.519675232470036">
        <ele>2177.52</ele>
        <time>2013-07-28T09:05:12Z</time>
      </trkpt>
      <trkpt lat="45.92465459369123" lon="7.519539780914784">
        <ele>2179.4499999999998</ele>
        <time>2013-07-28T09:05:25Z</time>
      </trkpt>
      <trkpt lat="45.924691474065185" lon="7.519510192796588">
        <ele>2179.4499999999998</ele>
        <time>2013-07-28T09:05:30Z</time>
      </trkpt>
      <trkpt lat="45.924710752442479" lon="7.51948001794517">
        <ele>2179.9299999999998</ele>
        <time>2013-07-28T09:05:33Z</time>
      </trkpt>
      <trkpt lat="45.92474746517837" lon="7.5194819457829">
        <ele>2180.4099999999999</ele>
        <time>2013-07-28T09:05:39Z</time>
      </trkpt>
      <trkpt lat="45.924756769090891" lon="7.519454704597592">
        <ele>2179.9299999999998</ele>
        <time>2013-07-28T09:05:41Z</time>
      </trkpt>
      <trkpt lat="45.924780489876866" lon="7.519427463412285">
        <ele>2180.4099999999999</ele>
        <time>2013-07-28T09:05:56Z</time>
      </trkpt>
      <trkpt lat="45.924785016104579" lon="7.519423272460699">
        <ele>2180.8899999999999</ele>
        <time>2013-07-28T09:06:00Z</time>
      </trkpt>
      <trkpt lat="45.924898004159331" lon="7.519291928038001">
        <ele>2182.3299999999999</ele>
        <time>2013-07-28T09:06:14Z</time>
      </trkpt>
      <trkpt lat="45.9249306935817" lon="7.519206097349525">
        <ele>2181.3699999999999</ele>
        <time>2013-07-28T09:06:29Z</time>
      </trkpt>
      <trkpt lat="45.924967154860497" lon="7.519162176176906">
        <ele>2181.8499999999999</ele>
        <time>2013-07-28T09:06:33Z</time>
      </trkpt>
      <trkpt lat="45.924973525106907" lon="7.519144657999277">
        <ele>2181.3699999999999</ele>
        <time>2013-07-28T09:06:44Z</time>
      </trkpt>
      <trkpt lat="45.925119034945965" lon="7.518978780135512">
        <ele>2181.3699999999999</ele>
        <time>2013-07-28T09:07:00Z</time>
      </trkpt>
      <trkpt lat="45.925164548680186" lon="7.518900828436017">
        <ele>2181.3699999999999</ele>
        <time>2013-07-28T09:07:05Z</time>
      </trkpt>
      <trkpt lat="45.925184078514576" lon="7.518875934183598">
        <ele>2180.8899999999999</ele>
        <time>2013-07-28T09:07:07Z</time>
      </trkpt>
      <trkpt lat="45.925194472074509" lon="7.518863109871745">
        <ele>2181.3699999999999</ele>
        <time>2013-07-28T09:07:08Z</time>
      </trkpt>
      <trkpt lat="45.92525121755898" lon="7.518797814846039">
        <ele>2181.3699999999999</ele>
        <time>2013-07-28T09:07:15Z</time>
      </trkpt>
      <trkpt lat="45.92527661472559" lon="7.518779542297125">
        <ele>2181.8499999999999</ele>
        <time>2013-07-28T09:07:17Z</time>
      </trkpt>
      <trkpt lat="45.925287678837776" lon="7.518783397972584">
        <ele>2181.8499999999999</ele>
        <time>2013-07-28T09:07:18Z</time>
      </trkpt>
      <trkpt lat="45.925326151773334" lon="7.518756911158562">
        <ele>2181.3699999999999</ele>
        <time>2013-07-28T09:07:23Z</time>
      </trkpt>
      <trkpt lat="45.925368815660477" lon="7.518683737143874">
        <ele>2181.8499999999999</ele>
        <time>2013-07-28T09:07:30Z</time>
      </trkpt>
      <trkpt lat="45.925392117351294" lon="7.51866445876658">
        <ele>2181.3699999999999</ele>
        <time>2013-07-28T09:07:33Z</time>
      </trkpt>
      <trkpt lat="45.925395805388689" lon="7.51865079626441">
        <ele>2181.3699999999999</ele>
        <time>2013-07-28T09:07:34Z</time>
      </trkpt>
      <trkpt lat="45.92549454420805" lon="7.518491372466087">
        <ele>2182.3299999999999</ele>
        <time>2013-07-28T09:07:48Z</time>
      </trkpt>
      <trkpt lat="45.925554390996695" lon="7.518413672223687">
        <ele>2183.29</ele>
        <time>2013-07-28T09:07:55Z</time>
      </trkpt>
      <trkpt lat="45.925696715712547" lon="7.518287105485797">
        <ele>2183.77</ele>
        <time>2013-07-28T09:08:08Z</time>
      </trkpt>
      <trkpt lat="45.925806686282158" lon="7.518121814355254">
        <ele>2183.77</ele>
        <time>2013-07-28T09:08:22Z</time>
      </trkpt>
      <trkpt lat="45.925807524472475" lon="7.518113180994988">
        <ele>2183.77</ele>
        <time>2013-07-28T09:08:23Z</time>
      </trkpt>
      <trkpt lat="45.925812469795346" lon="7.518087783828378">
        <ele>2184.25</ele>
        <time>2013-07-28T09:08:25Z</time>
      </trkpt>
      <trkpt lat="45.925831831991673" lon="7.518070014193654">
        <ele>2184.73</ele>
        <time>2013-07-28T09:08:27Z</time>
      </trkpt>
      <trkpt lat="45.925949346274137" lon="7.517937077209353">
        <ele>2184.25</ele>
        <time>2013-07-28T09:08:41Z</time>
      </trkpt>
      <trkpt lat="45.926013384014368" lon="7.517809420824051">
        <ele>2185.21</ele>
        <time>2013-07-28T09:08:52Z</time>
      </trkpt>
      <trkpt lat="45.926028303802013" lon="7.517787544056773">
        <ele>2185.6900000000001</ele>
        <time>2013-07-28T09:08:55Z</time>
      </trkpt>
      <trkpt lat="45.926071051508188" lon="7.517698695883155">
        <ele>2186.6599999999999</ele>
        <time>2013-07-28T09:09:03Z</time>
      </trkpt>
      <trkpt lat="45.926079014316201" lon="7.517678579315543">
        <ele>2187.1399999999999</ele>
        <time>2013-07-28T09:09:06Z</time>
      </trkpt>
      <trkpt lat="45.92609946615994" lon="7.517641196027398">
        <ele>2188.0999999999999</ele>
        <time>2013-07-28T09:09:10Z</time>
      </trkpt>
      <trkpt lat="45.926205832511187" lon="7.517515635117889">
        <ele>2189.54</ele>
        <time>2013-07-28T09:09:22Z</time>
      </trkpt>
      <trkpt lat="45.92628319747746" lon="7.51742335036397">
        <ele>2191.46</ele>
        <time>2013-07-28T09:09:35Z</time>
      </trkpt>
      <trkpt lat="45.926344217732549" lon="7.517335088923574">
        <ele>2193.8699999999999</ele>
        <time>2013-07-28T09:09:48Z</time>
      </trkpt>
      <trkpt lat="45.926346983760595" lon="7.51731731928885">
        <ele>2194.3499999999999</ele>
        <time>2013-07-28T09:09:51Z</time>
      </trkpt>
      <trkpt lat="45.926378834992647" lon="7.517214389517903">
        <ele>2196.27</ele>
        <time>2013-07-28T09:10:03Z</time>
      </trkpt>
      <trkpt lat="45.926392413675785" lon="7.517151944339275">
        <ele>2197.23</ele>
        <time>2013-07-28T09:10:10Z</time>
      </trkpt>
      <trkpt lat="45.926406998187304" lon="7.517035268247128">
        <ele>2199.6300000000001</ele>
        <time>2013-07-28T09:10:23Z</time>
      </trkpt>
      <trkpt lat="45.92641563154757" lon="7.5169244594872">
        <ele>2201.5599999999999</ele>
        <time>2013-07-28T09:10:34Z</time>
      </trkpt>
      <trkpt lat="45.926472460851073" lon="7.516835276037455">
        <ele>2203</ele>
        <time>2013-07-28T09:10:46Z</time>
      </trkpt>
      <trkpt lat="45.92653532512486" lon="7.516722036525607">
        <ele>2203.48</ele>
        <time>2013-07-28T09:10:59Z</time>
      </trkpt>
      <trkpt lat="45.92659642919898" lon="7.5166274048388">
        <ele>2204.9200000000001</ele>
        <time>2013-07-28T09:11:12Z</time>
      </trkpt>
      <trkpt lat="45.926634483039379" lon="7.516552722081542">
        <ele>2206.3600000000001</ele>
        <time>2013-07-28T09:11:21Z</time>
      </trkpt>
      <trkpt lat="45.926687540486455" lon="7.51647250726819">
        <ele>2207.8099999999999</ele>
        <time>2013-07-28T09:11:35Z</time>
      </trkpt>
      <trkpt lat="45.926698269322515" lon="7.51641383394599">
        <ele>2208.77</ele>
        <time>2013-07-28T09:11:41Z</time>
      </trkpt>
      <trkpt lat="45.926715033128858" lon="7.516377540305257">
        <ele>2209.25</ele>
        <time>2013-07-28T09:11:46Z</time>
      </trkpt>
      <trkpt lat="45.926760211586952" lon="7.516369661316276">
        <ele>2209.73</ele>
        <time>2013-07-28T09:11:51Z</time>
      </trkpt>
      <trkpt lat="45.926811760291457" lon="7.516259858384728">
        <ele>2212.1300000000001</ele>
        <time>2013-07-28T09:12:04Z</time>
      </trkpt>
      <trkpt lat="45.926375230774283" lon="7.516142930835486">
        <ele>2213.5700000000002</ele>
        <time>2013-07-28T09:12:15Z</time>
      </trkpt>
      <trkpt lat="45.926476065069437" lon="7.516180230304599">
        <ele>2215.0100000000002</ele>
        <time>2013-07-28T09:12:26Z</time>
      </trkpt>
      <trkpt lat="45.926525518298149" lon="7.516109989956021">
        <ele>2216.46</ele>
        <time>2013-07-28T09:12:40Z</time>
      </trkpt>
      <trkpt lat="45.926561979576945" lon="7.516124993562698">
        <ele>2216.9400000000001</ele>
        <time>2013-07-28T09:12:44Z</time>
      </trkpt>
      <trkpt lat="45.926585029810667" lon="7.516124406829476">
        <ele>2216.9400000000001</ele>
        <time>2013-07-28T09:12:47Z</time>
      </trkpt>
      <trkpt lat="45.9266696870327" lon="7.51600974239409">
        <ele>2219.3400000000001</ele>
        <time>2013-07-28T09:13:00Z</time>
      </trkpt>
      <trkpt lat="45.926675219088793" lon="7.515998845919967">
        <ele>2218.8600000000001</ele>
        <time>2013-07-28T09:13:02Z</time>
      </trkpt>
      <trkpt lat="45.926708076149225" lon="7.515966240316629">
        <ele>2218.8600000000001</ele>
        <time>2013-07-28T09:13:06Z</time>
      </trkpt>
      <trkpt lat="45.926785776391625" lon="7.515922738239169">
        <ele>2219.3400000000001</ele>
        <time>2013-07-28T09:13:14Z</time>
      </trkpt>
      <trkpt lat="45.926844365894794" lon="7.515870435163379">
        <ele>2219.3400000000001</ele>
        <time>2013-07-28T09:13:27Z</time>
      </trkpt>
      <trkpt lat="45.926850317046046" lon="7.515851994976401">
        <ele>2219.8200000000002</ele>
        <time>2013-07-28T09:13:54Z</time>
      </trkpt>
      <trkpt lat="45.926844114437699" lon="7.51584067940712">
        <ele>2220.7800000000002</ele>
        <time>2013-07-28T09:14:03Z</time>
      </trkpt>
      <trkpt lat="45.926913851872087" lon="7.515761302784085">
        <ele>2221.2600000000002</ele>
        <time>2013-07-28T09:14:11Z</time>
      </trkpt>
      <trkpt lat="45.926932962611318" lon="7.515712352469564">
        <ele>2221.2600000000002</ele>
        <time>2013-07-28T09:14:15Z</time>
      </trkpt>
      <trkpt lat="45.926978141069412" lon="7.515643872320652">
        <ele>2222.2199999999998</ele>
        <time>2013-07-28T09:14:22Z</time>
      </trkpt>
      <trkpt lat="45.926997922360897" lon="7.51561445184052">
        <ele>2221.7399999999998</ele>
        <time>2013-07-28T09:14:25Z</time>
      </trkpt>
      <trkpt lat="45.927126249298453" lon="7.51552308909595">
        <ele>2223.6700000000001</ele>
        <time>2013-07-28T09:14:39Z</time>
      </trkpt>
      <trkpt lat="45.927236638963223" lon="7.515474557876587">
        <ele>2224.1500000000001</ele>
        <time>2013-07-28T09:14:50Z</time>
      </trkpt>
      <trkpt lat="45.927260695025325" lon="7.5154790841043">
        <ele>2226.5500000000002</ele>
        <time>2013-07-28T09:15:03Z</time>
      </trkpt>
      <trkpt lat="45.927280141040683" lon="7.515479000285268">
        <ele>2225.5900000000001</ele>
        <time>2013-07-28T09:15:05Z</time>
      </trkpt>
      <trkpt lat="45.927421459928155" lon="7.515585953369737">
        <ele>2225.5900000000001</ele>
        <time>2013-07-28T09:15:19Z</time>
      </trkpt>
      <trkpt lat="45.927469991147518" lon="7.51557438634336">
        <ele>2226.5500000000002</ele>
        <time>2013-07-28T09:15:24Z</time>
      </trkpt>
      <trkpt lat="45.927482731640339" lon="7.51556659117341">
        <ele>2227.0300000000002</ele>
        <time>2013-07-28T09:15:25Z</time>
      </trkpt>
      <trkpt lat="45.927500165998936" lon="7.515545804053545">
        <ele>2227.5100000000002</ele>
        <time>2013-07-28T09:15:27Z</time>
      </trkpt>
      <trkpt lat="45.927639305591583" lon="7.515546223148704">
        <ele>2228.4699999999998</ele>
        <time>2013-07-28T09:15:39Z</time>
      </trkpt>
      <trkpt lat="45.927774086594582" lon="7.515418482944369">
        <ele>2229.4299999999998</ele>
        <time>2013-07-28T09:15:54Z</time>
      </trkpt>
      <trkpt lat="45.927859917283058" lon="7.515259142965078">
        <ele>2231.3600000000001</ele>
        <time>2013-07-28T09:16:07Z</time>
      </trkpt>
      <trkpt lat="45.927953459322453" lon="7.515158643946052">
        <ele>2231.3600000000001</ele>
        <time>2013-07-28T09:16:17Z</time>
      </trkpt>
      <trkpt lat="45.927972318604589" lon="7.515104077756405">
        <ele>2231.8400000000001</ele>
        <time>2013-07-28T09:16:21Z</time>
      </trkpt>
      <trkpt lat="45.927993105724454" lon="7.515097875148058">
        <ele>2233.2800000000002</ele>
        <time>2013-07-28T09:16:23Z</time>
      </trkpt>
      <trkpt lat="45.928079690784216" lon="7.515101814642549">
        <ele>2232.3200000000002</ele>
        <time>2013-07-28T09:16:32Z</time>
      </trkpt>
      <trkpt lat="45.928146913647652" lon="7.515023946762085">
        <ele>2233.7600000000002</ele>
        <time>2013-07-28T09:16:40Z</time>
      </trkpt>
      <trkpt lat="45.928222518414259" lon="7.514885058626533">
        <ele>2235.6799999999998</ele>
        <time>2013-07-28T09:16:52Z</time>
      </trkpt>
      <trkpt lat="45.928251184523106" lon="7.514836527407169">
        <ele>2237.6100000000001</ele>
        <time>2013-07-28T09:16:58Z</time>
      </trkpt>
      <trkpt lat="45.928263422101736" lon="7.514811800792813">
        <ele>2237.6100000000001</ele>
        <time>2013-07-28T09:17:00Z</time>
      </trkpt>
      <trkpt lat="45.928304493427277" lon="7.514724461361766">
        <ele>2239.0500000000002</ele>
        <time>2013-07-28T09:17:07Z</time>
      </trkpt>
      <trkpt lat="45.928323855623603" lon="7.514539053663611">
        <ele>2241.4499999999998</ele>
        <time>2013-07-28T09:17:20Z</time>
      </trkpt>
      <trkpt lat="45.928327208384871" lon="7.514452887699008">
        <ele>2242.8899999999999</ele>
        <time>2013-07-28T09:17:26Z</time>
      </trkpt>
      <trkpt lat="45.928390072658658" lon="7.514356831088662">
        <ele>2244.8200000000002</ele>
        <time>2013-07-28T09:17:35Z</time>
      </trkpt>
      <trkpt lat="45.928448578342795" lon="7.514207633212209">
        <ele>2244.3299999999999</ele>
        <time>2013-07-28T09:17:48Z</time>
      </trkpt>
      <trkpt lat="45.928458385169506" lon="7.514168070629239">
        <ele>2245.7800000000002</ele>
        <time>2013-07-28T09:17:53Z</time>
      </trkpt>
      <trkpt lat="45.928477915003896" lon="7.514110989868641">
        <ele>2244.3299999999999</ele>
        <time>2013-07-28T09:17:59Z</time>
      </trkpt>
      <trkpt lat="45.928466264158487" lon="7.514046533033252">
        <ele>2247.2199999999998</ele>
        <time>2013-07-28T09:18:05Z</time>
      </trkpt>
      <trkpt lat="45.928461235016584" lon="7.5140371453017">
        <ele>2246.7399999999998</ele>
        <time>2013-07-28T09:18:06Z</time>
      </trkpt>
      <trkpt lat="45.928425444290042" lon="7.513867663219571">
        <ele>2246.7399999999998</ele>
        <time>2013-07-28T09:18:19Z</time>
      </trkpt>
      <trkpt lat="45.928431143984199" lon="7.513844529166818">
        <ele>2247.6999999999998</ele>
        <time>2013-07-28T09:18:22Z</time>
      </trkpt>
      <trkpt lat="45.928440783172846" lon="7.513796417042613">
        <ele>2248.1799999999998</ele>
        <time>2013-07-28T09:18:27Z</time>
      </trkpt>
      <trkpt lat="45.928469784557819" lon="7.513694828376174">
        <ele>2248.1799999999998</ele>
        <time>2013-07-28T09:18:37Z</time>
      </trkpt>
      <trkpt lat="45.928456876426935" lon="7.513675214722753">
        <ele>2249.1399999999999</ele>
        <time>2013-07-28T09:18:40Z</time>
      </trkpt>
      <trkpt lat="45.928456457331777" lon="7.513524256646633">
        <ele>2252.0300000000002</ele>
        <time>2013-07-28T09:18:54Z</time>
      </trkpt>
      <trkpt lat="45.928448662161827" lon="7.513499530032277">
        <ele>2253.4699999999998</ele>
        <time>2013-07-28T09:19:11Z</time>
      </trkpt>
      <trkpt lat="45.92844195663929" lon="7.513491567224264">
        <ele>2253.4699999999998</ele>
        <time>2013-07-28T09:19:40Z</time>
      </trkpt>
      <trkpt lat="45.928438771516085" lon="7.513446137309074">
        <ele>2252.5100000000002</ele>
        <time>2013-07-28T09:19:44Z</time>
      </trkpt>
      <trkpt lat="45.928430808708072" lon="7.513376399874687">
        <ele>2251.54</ele>
        <time>2013-07-28T09:19:49Z</time>
      </trkpt>
      <trkpt lat="45.928414883092046" lon="7.513300543650985">
        <ele>2247.6999999999998</ele>
        <time>2013-07-28T09:19:59Z</time>
      </trkpt>
      <trkpt lat="45.928412955254316" lon="7.51329786144197">
        <ele>2247.6999999999998</ele>
        <time>2013-07-28T09:20:00Z</time>
      </trkpt>
      <trkpt lat="45.928421337157488" lon="7.513293251395226">
        <ele>2247.6999999999998</ele>
        <time>2013-07-28T09:20:21Z</time>
      </trkpt>
      <trkpt lat="45.928410273045301" lon="7.513291072100401">
        <ele>2247.6999999999998</ele>
        <time>2013-07-28T09:20:24Z</time>
      </trkpt>
      <trkpt lat="45.92837993055582" lon="7.513308255001903">
        <ele>2247.2199999999998</ele>
        <time>2013-07-28T09:20:26Z</time>
      </trkpt>
      <trkpt lat="45.928337685763836" lon="7.513405401259661">
        <ele>2247.2199999999998</ele>
        <time>2013-07-28T09:20:38Z</time>
      </trkpt>
      <trkpt lat="45.928341373801231" lon="7.513414118438959">
        <ele>2246.7399999999998</ele>
        <time>2013-07-28T09:20:49Z</time>
      </trkpt>
      <trkpt lat="45.928349504247308" lon="7.513397941365838">
        <ele>2247.2199999999998</ele>
        <time>2013-07-28T09:21:17Z</time>
      </trkpt>
      <trkpt lat="45.928336093202233" lon="7.513390732929111">
        <ele>2247.2199999999998</ele>
        <time>2013-07-28T09:21:40Z</time>
      </trkpt>
      <trkpt lat="45.928345397114754" lon="7.513388721272349">
        <ele>2246.2600000000002</ele>
        <time>2013-07-28T09:22:11Z</time>
      </trkpt>
      <trkpt lat="45.928326873108745" lon="7.513405652716756">
        <ele>2246.7399999999998</ele>
        <time>2013-07-28T09:22:39Z</time>
      </trkpt>
      <trkpt lat="45.928315557539463" lon="7.513381177559495">
        <ele>2246.7399999999998</ele>
        <time>2013-07-28T09:23:06Z</time>
      </trkpt>
      <trkpt lat="45.928313881158829" lon="7.513387883082032">
        <ele>2247.2199999999998</ele>
        <time>2013-07-28T09:23:38Z</time>
      </trkpt>
      <trkpt lat="45.928316144272685" lon="7.513398109003902">
        <ele>2247.2199999999998</ele>
        <time>2013-07-28T09:24:06Z</time>
      </trkpt>
      <trkpt lat="45.928321089595556" lon="7.513356199488044">
        <ele>2247.2199999999998</ele>
        <time>2013-07-28T09:24:37Z</time>
      </trkpt>
      <trkpt lat="45.928328381851315" lon="7.513312697410584">
        <ele>2246.7399999999998</ele>
        <time>2013-07-28T09:24:57Z</time>
      </trkpt>
      <trkpt lat="45.928301978856325" lon="7.513327868655324">
        <ele>2247.2199999999998</ele>
        <time>2013-07-28T09:25:35Z</time>
      </trkpt>
      <trkpt lat="45.928303236141801" lon="7.513381680473685">
        <ele>2246.7399999999998</ele>
        <time>2013-07-28T09:26:20Z</time>
      </trkpt>
      <trkpt lat="45.928371548652649" lon="7.513230219483376">
        <ele>2247.2199999999998</ele>
        <time>2013-07-28T09:27:03Z</time>
      </trkpt>
      <trkpt lat="45.928759295493364" lon="7.51292310655117">
        <ele>2246.7399999999998</ele>
        <time>2013-07-28T09:27:48Z</time>
      </trkpt>
      <trkpt lat="45.928762145340443" lon="7.513080015778542">
        <ele>2246.2600000000002</ele>
        <time>2013-07-28T09:28:24Z</time>
      </trkpt>
      <trkpt lat="45.928810173645616" lon="7.51331789419055">
        <ele>2246.2600000000002</ele>
        <time>2013-07-28T09:29:05Z</time>
      </trkpt>
      <trkpt lat="45.928843030706048" lon="7.513401126489043">
        <ele>2246.2600000000002</ele>
        <time>2013-07-28T09:29:28Z</time>
      </trkpt>
      <trkpt lat="45.928832134231925" lon="7.51333893276751">
        <ele>2247.6999999999998</ele>
        <time>2013-07-28T09:29:39Z</time>
      </trkpt>
      <trkpt lat="45.928839258849621" lon="7.513308255001903">
        <ele>2247.2199999999998</ele>
        <time>2013-07-28T09:29:55Z</time>
      </trkpt>
      <trkpt lat="45.928838839754462" lon="7.513326779007912">
        <ele>2247.6999999999998</ele>
        <time>2013-07-28T09:30:10Z</time>
      </trkpt>
      <trkpt lat="45.92887245118618" lon="7.513346979394555">
        <ele>2250.0999999999999</ele>
        <time>2013-07-28T09:30:23Z</time>
      </trkpt>
      <trkpt lat="45.928893405944109" lon="7.513357372954488">
        <ele>2249.1399999999999</ele>
        <time>2013-07-28T09:30:41Z</time>
      </trkpt>
      <trkpt lat="45.928953420370817" lon="7.513219406828284">
        <ele>2249.1399999999999</ele>
        <time>2013-07-28T09:30:54Z</time>
      </trkpt>
      <trkpt lat="45.928979571908712" lon="7.513195015490055">
        <ele>2249.1399999999999</ele>
        <time>2013-07-28T09:30:57Z</time>
      </trkpt>
      <trkpt lat="45.929057775065303" lon="7.51309652812779">
        <ele>2252.5100000000002</ele>
        <time>2013-07-28T09:31:09Z</time>
      </trkpt>
      <trkpt lat="45.929065905511379" lon="7.513092923909426">
        <ele>2252.5100000000002</ele>
        <time>2013-07-28T09:31:10Z</time>
      </trkpt>
      <trkpt lat="45.929094823077321" lon="7.513049002736807">
        <ele>2252.9899999999998</ele>
        <time>2013-07-28T09:31:15Z</time>
      </trkpt>
      <trkpt lat="45.929100355133414" lon="7.512983456254005">
        <ele>2253.9499999999998</ele>
        <time>2013-07-28T09:31:21Z</time>
      </trkpt>
      <trkpt lat="45.929114101454616" lon="7.512937188148499">
        <ele>2253.4699999999998</ele>
        <time>2013-07-28T09:31:26Z</time>
      </trkpt>
      <trkpt lat="45.929140169173479" lon="7.51286736689508">
        <ele>2255.3899999999999</ele>
        <time>2013-07-28T09:31:32Z</time>
      </trkpt>
      <trkpt lat="45.929178977385163" lon="7.512786313891411">
        <ele>2255.3899999999999</ele>
        <time>2013-07-28T09:31:38Z</time>
      </trkpt>
      <trkpt lat="45.929213091731071" lon="7.512725712731481">
        <ele>2255.8699999999999</ele>
        <time>2013-07-28T09:31:44Z</time>
      </trkpt>
      <trkpt lat="45.929221976548433" lon="7.512671733275056">
        <ele>2257.3099999999999</ele>
        <time>2013-07-28T09:31:48Z</time>
      </trkpt>
      <trkpt lat="45.929312668740749" lon="7.51251507550478">
        <ele>2257.79</ele>
        <time>2013-07-28T09:32:05Z</time>
      </trkpt>
      <trkpt lat="45.929315853863955" lon="7.51242714934051">
        <ele>2259.2399999999998</ele>
        <time>2013-07-28T09:32:11Z</time>
      </trkpt>
      <trkpt lat="45.929320883005857" lon="7.512391358613968">
        <ele>2259.7199999999998</ele>
        <time>2013-07-28T09:32:14Z</time>
      </trkpt>
      <trkpt lat="45.929335635155439" lon="7.512370906770229">
        <ele>2261.1599999999999</ele>
        <time>2013-07-28T09:32:17Z</time>
      </trkpt>
      <trkpt lat="45.929404199123383" lon="7.51224341802299">
        <ele>2261.6399999999999</ele>
        <time>2013-07-28T09:32:28Z</time>
      </trkpt>
      <trkpt lat="45.929387686774135" lon="7.512189438566566">
        <ele>2263.0799999999999</ele>
        <time>2013-07-28T09:32:32Z</time>
      </trkpt>
      <trkpt lat="45.929395230486989" lon="7.512153647840023">
        <ele>2264.04</ele>
        <time>2013-07-28T09:32:34Z</time>
      </trkpt>
      <trkpt lat="45.929431356489658" lon="7.512098578736186">
        <ele>2264.04</ele>
        <time>2013-07-28T09:32:39Z</time>
      </trkpt>
      <trkpt lat="45.929464716464281" lon="7.512061111629009">
        <ele>2263.5599999999999</ele>
        <time>2013-07-28T09:32:43Z</time>
      </trkpt>
      <trkpt lat="45.929548451676965" lon="7.511923396959901">
        <ele>2264.04</ele>
        <time>2013-07-28T09:32:57Z</time>
      </trkpt>
      <trkpt lat="45.92961810529232" lon="7.511830776929855">
        <ele>2263.0799999999999</ele>
        <time>2013-07-28T09:33:06Z</time>
      </trkpt>
      <trkpt lat="45.92965280637145" lon="7.511811582371593">
        <ele>2263.5599999999999</ele>
        <time>2013-07-28T09:33:10Z</time>
      </trkpt>
      <trkpt lat="45.929690776392817" lon="7.511760033667088">
        <ele>2262.1199999999999</ele>
        <time>2013-07-28T09:33:15Z</time>
      </trkpt>
      <trkpt lat="45.929763782769442" lon="7.511657858267427">
        <ele>2264.04</ele>
        <time>2013-07-28T09:33:29Z</time>
      </trkpt>
      <trkpt lat="45.929778199642897" lon="7.511624414473772">
        <ele>2264.52</ele>
        <time>2013-07-28T09:33:33Z</time>
      </trkpt>
      <trkpt lat="45.929836705327034" lon="7.511449484154582">
        <ele>2265.48</ele>
        <time>2013-07-28T09:33:49Z</time>
      </trkpt>
      <trkpt lat="45.929874340072274" lon="7.511295676231384">
        <ele>2266.9299999999998</ele>
        <time>2013-07-28T09:34:03Z</time>
      </trkpt>
      <trkpt lat="45.929941311478615" lon="7.511182771995664">
        <ele>2268.8499999999999</ele>
        <time>2013-07-28T09:34:17Z</time>
      </trkpt>
      <trkpt lat="45.930033680051565" lon="7.511121919378638">
        <ele>2270.29</ele>
        <time>2013-07-28T09:34:31Z</time>
      </trkpt>
      <trkpt lat="45.930063687264919" lon="7.511028880253434">
        <ele>2272.21</ele>
        <time>2013-07-28T09:34:44Z</time>
      </trkpt>
      <trkpt lat="45.93011112883687" lon="7.510907175019383">
        <ele>2274.1399999999999</ele>
        <time>2013-07-28T09:34:57Z</time>
      </trkpt>
      <trkpt lat="45.930175418034196" lon="7.510750433430076">
        <ele>2274.6199999999999</ele>
        <time>2013-07-28T09:35:12Z</time>
      </trkpt>
      <trkpt lat="45.930237025022507" lon="7.510616658255458">
        <ele>2275.5799999999999</ele>
        <time>2013-07-28T09:35:25Z</time>
      </trkpt>
      <trkpt lat="45.930255297571421" lon="7.510543651878834">
        <ele>2276.54</ele>
        <time>2013-07-28T09:35:30Z</time>
      </trkpt>
      <trkpt lat="45.930301230400801" lon="7.510400991886854">
        <ele>2276.0599999999999</ele>
        <time>2013-07-28T09:35:41Z</time>
      </trkpt>
      <trkpt lat="45.930349677801132" lon="7.51022388227284">
        <ele>2277.02</ele>
        <time>2013-07-28T09:35:56Z</time>
      </trkpt>
      <trkpt lat="45.930406842380762" lon="7.510074935853481">
        <ele>2277.98</ele>
        <time>2013-07-28T09:36:11Z</time>
      </trkpt>
      <trkpt lat="45.930456379428506" lon="7.50994878821075">
        <ele>2277.98</ele>
        <time>2013-07-28T09:36:23Z</time>
      </trkpt>
      <trkpt lat="45.93046685680747" lon="7.509912075474858">
        <ele>2278.46</ele>
        <time>2013-07-28T09:36:26Z</time>
      </trkpt>
      <trkpt lat="45.930527374148369" lon="7.509738234803081">
        <ele>2279.4200000000001</ele>
        <time>2013-07-28T09:36:42Z</time>
      </trkpt>
      <trkpt lat="45.930584706366062" lon="7.509690290316939">
        <ele>2280.8699999999999</ele>
        <time>2013-07-28T09:36:56Z</time>
      </trkpt>
      <trkpt lat="45.930615048855543" lon="7.509596664458513">
        <ele>2283.27</ele>
        <time>2013-07-28T09:37:09Z</time>
      </trkpt>
      <trkpt lat="45.930682774633169" lon="7.50951586291194">
        <ele>2284.23</ele>
        <time>2013-07-28T09:37:20Z</time>
      </trkpt>
      <trkpt lat="45.930763408541679" lon="7.509479150176048">
        <ele>2285.6700000000001</ele>
        <time>2013-07-28T09:37:34Z</time>
      </trkpt>
      <trkpt lat="45.930841024965048" lon="7.509459285065532">
        <ele>2286.6300000000001</ele>
        <time>2013-07-28T09:37:46Z</time>
      </trkpt>
      <trkpt lat="45.930876731872559" lon="7.509382674470544">
        <ele>2287.5900000000001</ele>
        <time>2013-07-28T09:37:57Z</time>
      </trkpt>
      <trkpt lat="45.930955689400434" lon="7.509260550141335">
        <ele>2288.0799999999999</ele>
        <time>2013-07-28T09:38:09Z</time>
      </trkpt>
      <trkpt lat="45.93097697943449" lon="7.509231548756361">
        <ele>2289.52</ele>
        <time>2013-07-28T09:38:13Z</time>
      </trkpt>
      <trkpt lat="45.931033222004771" lon="7.509128702804446">
        <ele>2290.48</ele>
        <time>2013-07-28T09:38:25Z</time>
      </trkpt>
      <trkpt lat="45.931114526465535" lon="7.509037926793098">
        <ele>2291.4400000000001</ele>
        <time>2013-07-28T09:38:38Z</time>
      </trkpt>
      <trkpt lat="45.93114210292697" lon="7.508999118581414">
        <ele>2291.4400000000001</ele>
        <time>2013-07-28T09:38:44Z</time>
      </trkpt>
      <trkpt lat="45.931154005229473" lon="7.508992915973067">
        <ele>2291.9200000000001</ele>
        <time>2013-07-28T09:38:45Z</time>
      </trkpt>
      <trkpt lat="45.931175965815783" lon="7.50897254794836">
        <ele>2290.96</ele>
        <time>2013-07-28T09:38:49Z</time>
      </trkpt>
      <trkpt lat="45.931219719350338" lon="7.508830055594444">
        <ele>2292.4000000000001</ele>
        <time>2013-07-28T09:39:02Z</time>
      </trkpt>
      <trkpt lat="45.931274620816112" lon="7.508747912943363">
        <ele>2293.8400000000001</ele>
        <time>2013-07-28T09:39:14Z</time>
      </trkpt>
      <trkpt lat="45.931319296360016" lon="7.508612293750048">
        <ele>2294.8000000000002</ele>
        <time>2013-07-28T09:39:28Z</time>
      </trkpt>
      <trkpt lat="45.931352321058512" lon="7.508536605164409">
        <ele>2294.8000000000002</ele>
        <time>2013-07-28T09:39:35Z</time>
      </trkpt>
      <trkpt lat="45.931362127885222" lon="7.508509950712323">
        <ele>2294.8000000000002</ele>
        <time>2013-07-28T09:39:37Z</time>
      </trkpt>
      <trkpt lat="45.931372689083219" lon="7.508487151935697">
        <ele>2294.8000000000002</ele>
        <time>2013-07-28T09:39:39Z</time>
      </trkpt>
      <trkpt lat="45.931425578892231" lon="7.508347425609827">
        <ele>2296.73</ele>
        <time>2013-07-28T09:39:54Z</time>
      </trkpt>
      <trkpt lat="45.931520713493228" lon="7.5082728266716">
        <ele>2298.1700000000001</ele>
        <time>2013-07-28T09:40:06Z</time>
      </trkpt>
      <trkpt lat="45.931586595252156" lon="7.50822588801384">
        <ele>2298.1700000000001</ele>
        <time>2013-07-28T09:40:17Z</time>
      </trkpt>
      <trkpt lat="45.931705702096224" lon="7.508122371509671">
        <ele>2298.6500000000001</ele>
        <time>2013-07-28T09:40:31Z</time>
      </trkpt>
      <trkpt lat="45.93178222887218" lon="7.508051376789808">
        <ele>2300.0900000000001</ele>
        <time>2013-07-28T09:40:42Z</time>
      </trkpt>
      <trkpt lat="45.931868478655815" lon="7.507969569414854">
        <ele>2301.0500000000002</ele>
        <time>2013-07-28T09:40:54Z</time>
      </trkpt>
      <trkpt lat="45.931917512789369" lon="7.507943417876959">
        <ele>2302.4899999999998</ele>
        <time>2013-07-28T09:41:08Z</time>
      </trkpt>
      <trkpt lat="45.932002086192369" lon="7.507867394015193">
        <ele>2302.98</ele>
        <time>2013-07-28T09:41:20Z</time>
      </trkpt>
      <trkpt lat="45.932100992649794" lon="7.507737809792161">
        <ele>2302.0100000000002</ele>
        <time>2013-07-28T09:41:33Z</time>
      </trkpt>
      <trkpt lat="45.9321921877563" lon="7.507694726809859">
        <ele>2300.5700000000002</ele>
        <time>2013-07-28T09:41:43Z</time>
      </trkpt>
      <trkpt lat="45.932201743125916" lon="7.507690535858274">
        <ele>2303.9400000000001</ele>
        <time>2013-07-28T09:41:44Z</time>
      </trkpt>
      <trkpt lat="45.93221171759069" lon="7.507680729031563">
        <ele>2302.0100000000002</ele>
        <time>2013-07-28T09:41:45Z</time>
      </trkpt>
      <trkpt lat="45.932332249358296" lon="7.507584420964122">
        <ele>2302.4899999999998</ele>
        <time>2013-07-28T09:41:59Z</time>
      </trkpt>
      <trkpt lat="45.932360244914889" lon="7.507525747641921">
        <ele>2302.98</ele>
        <time>2013-07-28T09:42:04Z</time>
      </trkpt>
      <trkpt lat="45.932500977069139" lon="7.507436983287334">
        <ele>2304.9000000000001</ele>
        <time>2013-07-28T09:42:20Z</time>
      </trkpt>
      <trkpt lat="45.932622179389" lon="7.507358947768807">
        <ele>2305.3800000000001</ele>
        <time>2013-07-28T09:42:35Z</time>
      </trkpt>
      <trkpt lat="45.932708932086825" lon="7.507311925292015">
        <ele>2306.8200000000002</ele>
        <time>2013-07-28T09:42:46Z</time>
      </trkpt>
      <trkpt lat="45.932807922363281" lon="7.507284851744771">
        <ele>2307.7800000000002</ele>
        <time>2013-07-28T09:42:58Z</time>
      </trkpt>
      <trkpt lat="45.93288067728281" lon="7.507256772369146">
        <ele>2308.7399999999998</ele>
        <time>2013-07-28T09:43:09Z</time>
      </trkpt>
      <trkpt lat="45.933006322011352" lon="7.507203714922071">
        <ele>2307.7800000000002</ele>
        <time>2013-07-28T09:43:21Z</time>
      </trkpt>
      <trkpt lat="45.933075724169612" lon="7.507172366604209">
        <ele>2307.7800000000002</ele>
        <time>2013-07-28T09:43:29Z</time>
      </trkpt>
      <trkpt lat="45.933117466047406" lon="7.507114615291357">
        <ele>2308.2600000000002</ele>
        <time>2013-07-28T09:43:35Z</time>
      </trkpt>
      <trkpt lat="45.93317773193121" lon="7.507066335529089">
        <ele>2308.7399999999998</ele>
        <time>2013-07-28T09:43:43Z</time>
      </trkpt>
      <trkpt lat="45.933295078575611" lon="7.506883274763823">
        <ele>2309.6999999999998</ele>
        <time>2013-07-28T09:43:59Z</time>
      </trkpt>
      <trkpt lat="45.933382334187627" lon="7.506750756874681">
        <ele>2311.1500000000001</ele>
        <time>2013-07-28T09:44:12Z</time>
      </trkpt>
      <trkpt lat="45.933390045538545" lon="7.506744973361492">
        <ele>2311.1500000000001</ele>
        <time>2013-07-28T09:44:13Z</time>
      </trkpt>
      <trkpt lat="45.933442935347557" lon="7.50671018846333">
        <ele>2311.1500000000001</ele>
        <time>2013-07-28T09:44:19Z</time>
      </trkpt>
      <trkpt lat="45.9334821626544" lon="7.506661824882031">
        <ele>2311.6300000000001</ele>
        <time>2013-07-28T09:44:26Z</time>
      </trkpt>
      <trkpt lat="45.933514768257737" lon="7.506551938131452">
        <ele>2314.0300000000002</ele>
        <time>2013-07-28T09:44:39Z</time>
      </trkpt>
      <trkpt lat="45.933557013049722" lon="7.506474573165178">
        <ele>2314.9899999999998</ele>
        <time>2013-07-28T09:44:48Z</time>
      </trkpt>
      <trkpt lat="45.933600012212992" lon="7.506444314494729">
        <ele>2314.9899999999998</ele>
        <time>2013-07-28T09:44:53Z</time>
      </trkpt>
      <trkpt lat="45.933629767969251" lon="7.506398214027286">
        <ele>2315.9499999999998</ele>
        <time>2013-07-28T09:44:59Z</time>
      </trkpt>
      <trkpt lat="45.933699253946543" lon="7.506294613704085">
        <ele>2316.9099999999999</ele>
        <time>2013-07-28T09:45:13Z</time>
      </trkpt>
      <trkpt lat="45.933752646669745" lon="7.506194617599249">
        <ele>2318.3600000000001</ele>
        <time>2013-07-28T09:45:26Z</time>
      </trkpt>
      <trkpt lat="45.933768153190613" lon="7.506063692271709">
        <ele>2319.3200000000002</ele>
        <time>2013-07-28T09:45:40Z</time>
      </trkpt>
      <trkpt lat="45.933791538700461" lon="7.505951290950179">
        <ele>2320.7600000000002</ele>
        <time>2013-07-28T09:45:53Z</time>
      </trkpt>
      <trkpt lat="45.933852642774582" lon="7.505848528817296">
        <ele>2322.1999999999998</ele>
        <time>2013-07-28T09:46:05Z</time>
      </trkpt>
      <trkpt lat="45.933894049376249" lon="7.505709137767553">
        <ele>2323.6399999999999</ele>
        <time>2013-07-28T09:46:19Z</time>
      </trkpt>
      <trkpt lat="45.933901341632009" lon="7.505591372027993">
        <ele>2324.1199999999999</ele>
        <time>2013-07-28T09:46:31Z</time>
      </trkpt>
      <trkpt lat="45.933919781818986" lon="7.505523646250367">
        <ele>2325.0900000000001</ele>
        <time>2013-07-28T09:46:42Z</time>
      </trkpt>
      <trkpt lat="45.933929840102792" lon="7.50548173673451">
        <ele>2326.0500000000002</ele>
        <time>2013-07-28T09:46:48Z</time>
      </trkpt>
      <trkpt lat="45.933985579758883" lon="7.505435720086098">
        <ele>2326.5300000000002</ele>
        <time>2013-07-28T09:46:58Z</time>
      </trkpt>
      <trkpt lat="45.933979377150536" lon="7.505415016785264">
        <ele>2326.0500000000002</ele>
        <time>2013-07-28T09:47:02Z</time>
      </trkpt>
      <trkpt lat="45.934028076007962" lon="7.505343351513147">
        <ele>2327.9699999999998</ele>
        <time>2013-07-28T09:47:15Z</time>
      </trkpt>
      <trkpt lat="45.934029249474406" lon="7.50533077865839">
        <ele>2327.9699999999998</ele>
        <time>2013-07-28T09:47:19Z</time>
      </trkpt>
      <trkpt lat="45.934079624712467" lon="7.505224663764238">
        <ele>2327.4899999999998</ele>
        <time>2013-07-28T09:47:32Z</time>
      </trkpt>
      <trkpt lat="45.934116169810295" lon="7.505176216363907">
        <ele>2328.9299999999998</ele>
        <time>2013-07-28T09:47:43Z</time>
      </trkpt>
      <trkpt lat="45.934113068506122" lon="7.505119889974594">
        <ele>2329.4099999999999</ele>
        <time>2013-07-28T09:47:54Z</time>
      </trkpt>
      <trkpt lat="45.934163443744183" lon="7.50499022193253">
        <ele>2331.3299999999999</ele>
        <time>2013-07-28T09:48:07Z</time>
      </trkpt>
      <trkpt lat="45.934184566140175" lon="7.504913527518511">
        <ele>2331.8099999999999</ele>
        <time>2013-07-28T09:48:20Z</time>
      </trkpt>
      <trkpt lat="45.934242820367217" lon="7.504825601354241">
        <ele>2333.7399999999998</ele>
        <time>2013-07-28T09:48:32Z</time>
      </trkpt>
      <trkpt lat="45.934303756803274" lon="7.504718899726868">
        <ele>2335.1799999999998</ele>
        <time>2013-07-28T09:48:47Z</time>
      </trkpt>
      <trkpt lat="45.93436511233449" lon="7.504679504781961">
        <ele>2336.1399999999999</ele>
        <time>2013-07-28T09:49:00Z</time>
      </trkpt>
      <trkpt lat="45.934416074305773" lon="7.504573473706842">
        <ele>2337.5799999999999</ele>
        <time>2013-07-28T09:49:14Z</time>
      </trkpt>
      <trkpt lat="45.934433676302433" lon="7.504503317177296">
        <ele>2339.02</ele>
        <time>2013-07-28T09:49:27Z</time>
      </trkpt>
      <trkpt lat="45.934466114267707" lon="7.504416229203343">
        <ele>2340.4699999999998</ele>
        <time>2013-07-28T09:49:39Z</time>
      </trkpt>
      <trkpt lat="45.934446835890412" lon="7.504346743226051">
        <ele>2341.9099999999999</ele>
        <time>2013-07-28T09:49:47Z</time>
      </trkpt>
      <trkpt lat="45.934446165338159" lon="7.504340456798673">
        <ele>2341.4299999999998</ele>
        <time>2013-07-28T09:49:48Z</time>
      </trkpt>
      <trkpt lat="45.934456642717123" lon="7.50429485924542">
        <ele>2342.3899999999999</ele>
        <time>2013-07-28T09:49:52Z</time>
      </trkpt>
      <trkpt lat="45.934532498940825" lon="7.504138788208365">
        <ele>2344.3099999999999</ele>
        <time>2013-07-28T09:50:08Z</time>
      </trkpt>
      <trkpt lat="45.934584969654679" lon="7.504067206755281">
        <ele>2346.23</ele>
        <time>2013-07-28T09:50:16Z</time>
      </trkpt>
      <trkpt lat="45.934630651026964" lon="7.504021357744932">
        <ele>2348.1599999999999</ele>
        <time>2013-07-28T09:50:23Z</time>
      </trkpt>
      <trkpt lat="45.934703908860683" lon="7.503994032740593">
        <ele>2350.5599999999999</ele>
        <time>2013-07-28T09:50:35Z</time>
      </trkpt>
      <trkpt lat="45.934763923287392" lon="7.503932425752282">
        <ele>2352.48</ele>
        <time>2013-07-28T09:50:45Z</time>
      </trkpt>
      <trkpt lat="45.934781860560179" lon="7.503928318619728">
        <ele>2352.96</ele>
        <time>2013-07-28T09:50:47Z</time>
      </trkpt>
      <trkpt lat="45.934855369850993" lon="7.503908202052116">
        <ele>2354.8899999999999</ele>
        <time>2013-07-28T09:50:58Z</time>
      </trkpt>
      <trkpt lat="45.934893842786551" lon="7.503924295306206">
        <ele>2355.3699999999999</ele>
        <time>2013-07-28T09:51:04Z</time>
      </trkpt>
      <trkpt lat="45.934979757294059" lon="7.503884565085173">
        <ele>2357.29</ele>
        <time>2013-07-28T09:51:17Z</time>
      </trkpt>
      <trkpt lat="45.93507363460958" lon="7.503822539001703">
        <ele>2359.6900000000001</ele>
        <time>2013-07-28T09:51:30Z</time>
      </trkpt>
      <trkpt lat="45.935103222727776" lon="7.503784317523241">
        <ele>2360.6500000000001</ele>
        <time>2013-07-28T09:51:37Z</time>
      </trkpt>
      <trkpt lat="45.935150245204568" lon="7.503685159608722">
        <ele>2361.6199999999999</ele>
        <time>2013-07-28T09:51:48Z</time>
      </trkpt>
      <trkpt lat="45.935183856636286" lon="7.503649201244116">
        <ele>2362.0999999999999</ele>
        <time>2013-07-28T09:51:53Z</time>
      </trkpt>
      <trkpt lat="45.935258455574512" lon="7.503632185980678">
        <ele>2364.98</ele>
        <time>2013-07-28T09:52:06Z</time>
      </trkpt>
      <trkpt lat="45.935277063399553" lon="7.503623804077506">
        <ele>2365.46</ele>
        <time>2013-07-28T09:52:08Z</time>
      </trkpt>
      <trkpt lat="45.935359289869666" lon="7.503526993095875">
        <ele>2366.9000000000001</ele>
        <time>2013-07-28T09:52:21Z</time>
      </trkpt>
      <trkpt lat="45.935387704521418" lon="7.50350964255631">
        <ele>2367.3800000000001</ele>
        <time>2013-07-28T09:52:25Z</time>
      </trkpt>
      <trkpt lat="45.935446126386523" lon="7.503497237339616">
        <ele>2370.75</ele>
        <time>2013-07-28T09:52:37Z</time>
      </trkpt>
      <trkpt lat="45.935501530766487" lon="7.503486257046461">
        <ele>2373.1500000000001</ele>
        <time>2013-07-28T09:52:49Z</time>
      </trkpt>
      <trkpt lat="45.935555510222912" lon="7.503424063324928">
        <ele>2375.0700000000002</ele>
        <time>2013-07-28T09:53:02Z</time>
      </trkpt>
      <trkpt lat="45.935582416132092" lon="7.503423811867833">
        <ele>2375.0700000000002</ele>
        <time>2013-07-28T09:53:05Z</time>
      </trkpt>
      <trkpt lat="45.935612171888351" lon="7.503515761345625">
        <ele>2377.48</ele>
        <time>2013-07-28T09:53:15Z</time>
      </trkpt>
      <trkpt lat="45.935657937079668" lon="7.503515845164657">
        <ele>2380.3600000000001</ele>
        <time>2013-07-28T09:53:27Z</time>
      </trkpt>
      <trkpt lat="45.935732536017895" lon="7.503469157963991">
        <ele>2382.2800000000002</ele>
        <time>2013-07-28T09:53:40Z</time>
      </trkpt>
      <trkpt lat="45.93577042222023" lon="7.503441162407398">
        <ele>2383.25</ele>
        <time>2013-07-28T09:53:52Z</time>
      </trkpt>
      <trkpt lat="45.935793220996857" lon="7.503430601209402">
        <ele>2383.25</ele>
        <time>2013-07-28T09:54:03Z</time>
      </trkpt>
      <trkpt lat="45.935849882662296" lon="7.503415932878852">
        <ele>2385.1700000000001</ele>
        <time>2013-07-28T09:54:17Z</time>
      </trkpt>
      <trkpt lat="45.935880476608872" lon="7.503418531268835">
        <ele>2385.6500000000001</ele>
        <time>2013-07-28T09:54:25Z</time>
      </trkpt>
      <trkpt lat="45.93591651879251" lon="7.503442671149969">
        <ele>2388.0500000000002</ele>
        <time>2013-07-28T09:54:30Z</time>
      </trkpt>
      <trkpt lat="45.935983490198851" lon="7.503428170457482">
        <ele>2390.9400000000001</ele>
        <time>2013-07-28T09:54:46Z</time>
      </trkpt>
      <trkpt lat="45.935990028083324" lon="7.503428673371673">
        <ele>2390.9400000000001</ele>
        <time>2013-07-28T09:54:48Z</time>
      </trkpt>
      <trkpt lat="45.936056161299348" lon="7.503444850444794">
        <ele>2393.3400000000001</ele>
        <time>2013-07-28T09:54:59Z</time>
      </trkpt>
      <trkpt lat="45.936095807701349" lon="7.503448203206062">
        <ele>2393.8200000000002</ele>
        <time>2013-07-28T09:55:04Z</time>
      </trkpt>
      <trkpt lat="45.936108799651265" lon="7.503435714170337">
        <ele>2393.3400000000001</ele>
        <time>2013-07-28T09:55:06Z</time>
      </trkpt>
      <trkpt lat="45.936193373054266" lon="7.503442922607064">
        <ele>2394.7800000000002</ele>
        <time>2013-07-28T09:55:19Z</time>
      </trkpt>
      <trkpt lat="45.936230001971126" lon="7.503478210419416">
        <ele>2396.2199999999998</ele>
        <time>2013-07-28T09:55:29Z</time>
      </trkpt>
      <trkpt lat="45.936283813789487" lon="7.503541326150298">
        <ele>2399.1100000000001</ele>
        <time>2013-07-28T09:55:38Z</time>
      </trkpt>
      <trkpt lat="45.936309210956097" lon="7.50359371304512">
        <ele>2401.9899999999998</ele>
        <time>2013-07-28T09:55:46Z</time>
      </trkpt>
      <trkpt lat="45.936353718861938" lon="7.503603771328926">
        <ele>2403.4299999999998</ele>
        <time>2013-07-28T09:55:58Z</time>
      </trkpt>
      <trkpt lat="45.936422366648912" lon="7.5035619456321">
        <ele>2404.3899999999999</ele>
        <time>2013-07-28T09:56:11Z</time>
      </trkpt>
      <trkpt lat="45.936440890654922" lon="7.503534033894539">
        <ele>2405.8400000000001</ele>
        <time>2013-07-28T09:56:16Z</time>
      </trkpt>
      <trkpt lat="45.936478693038225" lon="7.503490028902888">
        <ele>2407.7600000000002</ele>
        <time>2013-07-28T09:56:25Z</time>
      </trkpt>
      <trkpt lat="45.936489002779126" lon="7.503605531528592">
        <ele>2409.6799999999998</ele>
        <time>2013-07-28T09:56:38Z</time>
      </trkpt>
      <trkpt lat="45.93649604357779" lon="7.50373100861907">
        <ele>2412.0900000000001</ele>
        <time>2013-07-28T09:56:52Z</time>
      </trkpt>
      <trkpt lat="45.936525547876954" lon="7.503719944506884">
        <ele>2414.4899999999998</ele>
        <time>2013-07-28T09:57:04Z</time>
      </trkpt>
      <trkpt lat="45.936584388837218" lon="7.503670239821076">
        <ele>2417.3699999999999</ele>
        <time>2013-07-28T09:57:15Z</time>
      </trkpt>
      <trkpt lat="45.93662110157311" lon="7.503686249256134">
        <ele>2420.7399999999998</ele>
        <time>2013-07-28T09:57:26Z</time>
      </trkpt>
      <trkpt lat="45.936650270596147" lon="7.503777192905545">
        <ele>2422.1799999999998</ele>
        <time>2013-07-28T09:57:38Z</time>
      </trkpt>
      <trkpt lat="45.936670135706663" lon="7.503856234252453">
        <ele>2423.6199999999999</ele>
        <time>2013-07-28T09:57:49Z</time>
      </trkpt>
      <trkpt lat="45.936671812087297" lon="7.503782724961639">
        <ele>2425.54</ele>
        <time>2013-07-28T09:58:01Z</time>
      </trkpt>
      <trkpt lat="45.936692180112004" lon="7.503748023882508">
        <ele>2426.9899999999998</ele>
        <time>2013-07-28T09:58:09Z</time>
      </trkpt>
      <trkpt lat="45.93674280680716" lon="7.503840811550617">
        <ele>2428.9099999999999</ele>
        <time>2013-07-28T09:58:22Z</time>
      </trkpt>
      <trkpt lat="45.936755463480949" lon="7.503789765760303">
        <ele>2431.3099999999999</ele>
        <time>2013-07-28T09:58:35Z</time>
      </trkpt>
      <trkpt lat="45.936777675524354" lon="7.503693122416735">
        <ele>2434.1999999999998</ele>
        <time>2013-07-28T09:58:48Z</time>
      </trkpt>
      <trkpt lat="45.936831068247557" lon="7.503618020564318">
        <ele>2436.5999999999999</ele>
        <time>2013-07-28T09:59:00Z</time>
      </trkpt>
      <trkpt lat="45.936858644708991" lon="7.503714663907886">
        <ele>2438.04</ele>
        <time>2013-07-28T09:59:13Z</time>
      </trkpt>
      <trkpt lat="45.936878426000476" lon="7.503676610067487">
        <ele>2440.9200000000001</ele>
        <time>2013-07-28T09:59:25Z</time>
      </trkpt>
      <trkpt lat="45.936882616952062" lon="7.503640986979008">
        <ele>2440.9200000000001</ele>
        <time>2013-07-28T09:59:30Z</time>
      </trkpt>
      <trkpt lat="45.936944978311658" lon="7.503563035279512">
        <ele>2440.4400000000001</ele>
        <time>2013-07-28T09:59:42Z</time>
      </trkpt>
      <trkpt lat="45.93701982870698" lon="7.503538727760315">
        <ele>2442.8499999999999</ele>
        <time>2013-07-28T09:59:54Z</time>
      </trkpt>
      <trkpt lat="45.93708680011332" lon="7.50350084155798">
        <ele>2444.29</ele>
        <time>2013-07-28T10:00:08Z</time>
      </trkpt>
      <trkpt lat="45.937125021591783" lon="7.503485418856144">
        <ele>2445.73</ele>
        <time>2013-07-28T10:00:14Z</time>
      </trkpt>
      <trkpt lat="45.937233399599791" lon="7.503432109951973">
        <ele>2444.77</ele>
        <time>2013-07-28T10:00:27Z</time>
      </trkpt>
      <trkpt lat="45.937328031286597" lon="7.503351476043463">
        <ele>2445.73</ele>
        <time>2013-07-28T10:00:43Z</time>
      </trkpt>
      <trkpt lat="45.937370443716645" lon="7.503244187682867">
        <ele>2447.1700000000001</ele>
        <time>2013-07-28T10:00:56Z</time>
      </trkpt>
      <trkpt lat="45.937385531142354" lon="7.50310555100441">
        <ele>2450.0599999999999</ele>
        <time>2013-07-28T10:01:10Z</time>
      </trkpt>
      <trkpt lat="45.937392907217145" lon="7.503060456365347">
        <ele>2450.54</ele>
        <time>2013-07-28T10:01:15Z</time>
      </trkpt>
      <trkpt lat="45.937435068190098" lon="7.502941517159343">
        <ele>2453.4200000000001</ele>
        <time>2013-07-28T10:01:27Z</time>
      </trkpt>
      <trkpt lat="45.937458202242851" lon="7.502908073365688">
        <ele>2455.8200000000002</ele>
        <time>2013-07-28T10:01:32Z</time>
      </trkpt>
      <trkpt lat="45.937527101486921" lon="7.502853507176042">
        <ele>2456.79</ele>
        <time>2013-07-28T10:01:45Z</time>
      </trkpt>
      <trkpt lat="45.937535986304283" lon="7.502848310396075">
        <ele>2457.27</ele>
        <time>2013-07-28T10:01:47Z</time>
      </trkpt>
      <trkpt lat="45.937574040144682" lon="7.502771280705929">
        <ele>2456.79</ele>
        <time>2013-07-28T10:01:55Z</time>
      </trkpt>
      <trkpt lat="45.937579069286585" lon="7.502737836912274">
        <ele>2457.27</ele>
        <time>2013-07-28T10:01:58Z</time>
      </trkpt>
      <trkpt lat="45.937589295208454" lon="7.502719396725297">
        <ele>2458.71</ele>
        <time>2013-07-28T10:02:00Z</time>
      </trkpt>
      <trkpt lat="45.937639167532325" lon="7.502610934898257">
        <ele>2459.1900000000001</ele>
        <time>2013-07-28T10:02:09Z</time>
      </trkpt>
      <trkpt lat="45.93769901432097" lon="7.502485876902938">
        <ele>2461.5900000000001</ele>
        <time>2013-07-28T10:02:21Z</time>
      </trkpt>
      <trkpt lat="45.937714437022805" lon="7.502452852204442">
        <ele>2461.1100000000001</ele>
        <time>2013-07-28T10:02:24Z</time>
      </trkpt>
      <trkpt lat="45.937787862494588" lon="7.502376493066549">
        <ele>2459.6700000000001</ele>
        <time>2013-07-28T10:02:35Z</time>
      </trkpt>
      <trkpt lat="45.937878051772714" lon="7.502260990440846">
        <ele>2458.71</ele>
        <time>2013-07-28T10:02:48Z</time>
      </trkpt>
      <trkpt lat="45.93792918138206" lon="7.502259397879243">
        <ele>2457.27</ele>
        <time>2013-07-28T10:02:56Z</time>
      </trkpt>
      <trkpt lat="45.93797461129725" lon="7.50225386582315">
        <ele>2458.71</ele>
        <time>2013-07-28T10:03:06Z</time>
      </trkpt>
      <trkpt lat="45.938015850260854" lon="7.502211788669229">
        <ele>2458.71</ele>
        <time>2013-07-28T10:03:13Z</time>
      </trkpt>
      <trkpt lat="45.938029931858182" lon="7.502192007377744">
        <ele>2458.71</ele>
        <time>2013-07-28T10:03:15Z</time>
      </trkpt>
      <trkpt lat="45.938089694827795" lon="7.502111457288265">
        <ele>2459.6700000000001</ele>
        <time>2013-07-28T10:03:23Z</time>
      </trkpt>
      <trkpt lat="45.938105536624789" lon="7.502068458124995">
        <ele>2460.1500000000001</ele>
        <time>2013-07-28T10:03:32Z</time>
      </trkpt>
      <trkpt lat="45.938163287937641" lon="7.501977765932679">
        <ele>2461.5900000000001</ele>
        <time>2013-07-28T10:03:44Z</time>
      </trkpt>
      <trkpt lat="45.938164880499244" lon="7.501982375979424">
        <ele>2462.0700000000002</ele>
        <time>2013-07-28T10:03:49Z</time>
      </trkpt>
      <trkpt lat="45.938168484717607" lon="7.501948177814484">
        <ele>2461.1100000000001</ele>
        <time>2013-07-28T10:04:05Z</time>
      </trkpt>
      <trkpt lat="45.938193378970027" lon="7.50185614451766">
        <ele>2459.6700000000001</ele>
        <time>2013-07-28T10:04:17Z</time>
      </trkpt>
      <trkpt lat="45.938218692317605" lon="7.501778108999133">
        <ele>2459.6700000000001</ele>
        <time>2013-07-28T10:04:24Z</time>
      </trkpt>
      <trkpt lat="45.938267391175032" lon="7.501680376008153">
        <ele>2461.1100000000001</ele>
        <time>2013-07-28T10:04:37Z</time>
      </trkpt>
      <trkpt lat="45.938298488035798" lon="7.501642322167754">
        <ele>2460.1500000000001</ele>
        <time>2013-07-28T10:04:45Z</time>
      </trkpt>
      <trkpt lat="45.938329333439469" lon="7.501572668552399">
        <ele>2461.1100000000001</ele>
        <time>2013-07-28T10:04:53Z</time>
      </trkpt>
      <trkpt lat="45.938366297632456" lon="7.50144224613905">
        <ele>2461.1100000000001</ele>
        <time>2013-07-28T10:05:06Z</time>
      </trkpt>
      <trkpt lat="45.938378451392055" lon="7.501415591686964">
        <ele>2461.1100000000001</ele>
        <time>2013-07-28T10:05:10Z</time>
      </trkpt>
      <trkpt lat="45.93838750384748" lon="7.501391284167767">
        <ele>2462.5500000000002</ele>
        <time>2013-07-28T10:05:12Z</time>
      </trkpt>
      <trkpt lat="45.938451122492552" lon="7.501243175938726">
        <ele>2461.5900000000001</ele>
        <time>2013-07-28T10:05:26Z</time>
      </trkpt>
      <trkpt lat="45.938487248495221" lon="7.501173773780465">
        <ele>2460.1500000000001</ele>
        <time>2013-07-28T10:05:37Z</time>
      </trkpt>
      <trkpt lat="45.938485572114587" lon="7.501171007752419">
        <ele>2459.6700000000001</ele>
        <time>2013-07-28T10:05:38Z</time>
      </trkpt>
      <trkpt lat="45.938505521044135" lon="7.50115348957479">
        <ele>2460.6300000000001</ele>
        <time>2013-07-28T10:05:44Z</time>
      </trkpt>
      <trkpt lat="45.938531924039125" lon="7.501037232577801">
        <ele>2461.5900000000001</ele>
        <time>2013-07-28T10:05:58Z</time>
      </trkpt>
      <trkpt lat="45.938532594591379" lon="7.500989623367786">
        <ele>2460.6300000000001</ele>
        <time>2013-07-28T10:06:07Z</time>
      </trkpt>
      <trkpt lat="45.938540054485202" lon="7.500951820984483">
        <ele>2460.6300000000001</ele>
        <time>2013-07-28T10:06:09Z</time>
      </trkpt>
      <trkpt lat="45.938529577106237" lon="7.500876216217876">
        <ele>2460.1500000000001</ele>
        <time>2013-07-28T10:06:20Z</time>
      </trkpt>
      <trkpt lat="45.938514405861497" lon="7.500850567594171">
        <ele>2460.1500000000001</ele>
        <time>2013-07-28T10:06:34Z</time>
      </trkpt>
      <trkpt lat="45.938523039221764" lon="7.500767251476646">
        <ele>2463.52</ele>
        <time>2013-07-28T10:06:43Z</time>
      </trkpt>
      <trkpt lat="45.938511891290545" lon="7.500750487670302">
        <ele>2464.48</ele>
        <time>2013-07-28T10:06:45Z</time>
      </trkpt>
      <trkpt lat="45.938480626791716" lon="7.500682678073645">
        <ele>2465.4400000000001</ele>
        <time>2013-07-28T10:06:57Z</time>
      </trkpt>
      <trkpt lat="45.938460761681199" lon="7.500659627839923">
        <ele>2464</ele>
        <time>2013-07-28T10:07:02Z</time>
      </trkpt>
      <trkpt lat="45.938506526872516" lon="7.500648563727737">
        <ele>2463.04</ele>
        <time>2013-07-28T10:07:12Z</time>
      </trkpt>
      <trkpt lat="45.938519518822432" lon="7.500610342249274">
        <ele>2462.5500000000002</ele>
        <time>2013-07-28T10:07:39Z</time>
      </trkpt>
      <trkpt lat="45.9384745080024" lon="7.500655436888337">
        <ele>2463.04</ele>
        <time>2013-07-28T10:08:11Z</time>
      </trkpt>
      <trkpt lat="45.938482973724604" lon="7.50066583044827">
        <ele>2463.04</ele>
        <time>2013-07-28T10:08:34Z</time>
      </trkpt>
      <trkpt lat="45.938475094735622" lon="7.500658957287669">
        <ele>2463.52</ele>
        <time>2013-07-28T10:09:07Z</time>
      </trkpt>
      <trkpt lat="45.93845640309155" lon="7.500673960894346">
        <ele>2463.04</ele>
        <time>2013-07-28T10:09:43Z</time>
      </trkpt>
      <trkpt lat="45.938457744196057" lon="7.500625010579824">
        <ele>2463.52</ele>
        <time>2013-07-28T10:10:17Z</time>
      </trkpt>
      <trkpt lat="45.938453553244472" lon="7.500642025843263">
        <ele>2464</ele>
        <time>2013-07-28T10:10:41Z</time>
      </trkpt>
      <trkpt lat="45.938472915440798" lon="7.500649569556117">
        <ele>2463.52</ele>
        <time>2013-07-28T10:11:04Z</time>
      </trkpt>
      <trkpt lat="45.938483392819762" lon="7.500627525150776">
        <ele>2463.52</ele>
        <time>2013-07-28T10:11:33Z</time>
      </trkpt>
      <trkpt lat="45.938499988988042" lon="7.500614617019892">
        <ele>2463.52</ele>
        <time>2013-07-28T10:12:06Z</time>
      </trkpt>
      <trkpt lat="45.938473250716925" lon="7.500665746629238">
        <ele>2463.04</ele>
        <time>2013-07-28T10:12:29Z</time>
      </trkpt>
      <trkpt lat="45.938444249331951" lon="7.500686030834913">
        <ele>2463.04</ele>
        <time>2013-07-28T10:13:05Z</time>
      </trkpt>
      <trkpt lat="45.938477609306574" lon="7.500649653375149">
        <ele>2463.52</ele>
        <time>2013-07-28T10:13:35Z</time>
      </trkpt>
      <trkpt lat="45.938486326485872" lon="7.500676307827234">
        <ele>2463.04</ele>
        <time>2013-07-28T10:13:56Z</time>
      </trkpt>
      <trkpt lat="45.938489343971014" lon="7.500697430223227">
        <ele>2465.9200000000001</ele>
        <time>2013-07-28T10:14:02Z</time>
      </trkpt>
      <trkpt lat="45.938502587378025" lon="7.500673625618219">
        <ele>2466.4000000000001</ele>
        <time>2013-07-28T10:14:06Z</time>
      </trkpt>
      <trkpt lat="45.938599146902561" lon="7.500589219853282">
        <ele>2465.4400000000001</ele>
        <time>2013-07-28T10:14:21Z</time>
      </trkpt>
      <trkpt lat="45.938662430271506" lon="7.500515878200531">
        <ele>2464.48</ele>
        <time>2013-07-28T10:14:34Z</time>
      </trkpt>
      <trkpt lat="45.938653461635113" lon="7.500488888472319">
        <ele>2464.96</ele>
        <time>2013-07-28T10:14:44Z</time>
      </trkpt>
      <trkpt lat="45.93863476999104" lon="7.500443207100034">
        <ele>2464.48</ele>
        <time>2013-07-28T10:14:50Z</time>
      </trkpt>
      <trkpt lat="45.938665447756648" lon="7.500259559601545">
        <ele>2464</ele>
        <time>2013-07-28T10:15:04Z</time>
      </trkpt>
      <trkpt lat="45.938675925135612" lon="7.499988405033946">
        <ele>2464</ele>
        <time>2013-07-28T10:15:18Z</time>
      </trkpt>
      <trkpt lat="45.938729401677847" lon="7.499741390347481">
        <ele>2465.9200000000001</ele>
        <time>2013-07-28T10:15:32Z</time>
      </trkpt>
      <trkpt lat="45.938735771924257" lon="7.499700570479035">
        <ele>2464.48</ele>
        <time>2013-07-28T10:15:34Z</time>
      </trkpt>
      <trkpt lat="45.938828391954303" lon="7.499413574114442">
        <ele>2465.9200000000001</ele>
        <time>2013-07-28T10:15:50Z</time>
      </trkpt>
      <trkpt lat="45.938937189057469" lon="7.499181982129812">
        <ele>2466.4000000000001</ele>
        <time>2013-07-28T10:16:05Z</time>
      </trkpt>
      <trkpt lat="45.938989659771323" lon="7.499087685719132">
        <ele>2466.4000000000001</ele>
        <time>2013-07-28T10:16:11Z</time>
      </trkpt>
      <trkpt lat="45.939046237617731" lon="7.498967489227653">
        <ele>2466.8800000000001</ele>
        <time>2013-07-28T10:16:18Z</time>
      </trkpt>
      <trkpt lat="45.939075825735927" lon="7.498890459537506">
        <ele>2466.8800000000001</ele>
        <time>2013-07-28T10:16:22Z</time>
      </trkpt>
      <trkpt lat="45.939176911488175" lon="7.498709410429001">
        <ele>2467.8400000000001</ele>
        <time>2013-07-28T10:16:36Z</time>
      </trkpt>
      <trkpt lat="45.93920742161572" lon="7.498629279434681">
        <ele>2468.3200000000002</ele>
        <time>2013-07-28T10:16:42Z</time>
      </trkpt>
      <trkpt lat="45.939228711649776" lon="7.498583681881428">
        <ele>2468.3200000000002</ele>
        <time>2013-07-28T10:16:46Z</time>
      </trkpt>
      <trkpt lat="45.9393276181072" lon="7.498419731855393">
        <ele>2468.3200000000002</ele>
        <time>2013-07-28T10:17:00Z</time>
      </trkpt>
      <trkpt lat="45.939416382461786" lon="7.498268773779273">
        <ele>2469.2800000000002</ele>
        <time>2013-07-28T10:17:13Z</time>
      </trkpt>
      <trkpt lat="45.939484359696507" lon="7.498136507347226">
        <ele>2469.2800000000002</ele>
        <time>2013-07-28T10:17:30Z</time>
      </trkpt>
      <trkpt lat="45.939449993893504" lon="7.498138435184956">
        <ele>2469.2800000000002</ele>
        <time>2013-07-28T10:17:36Z</time>
      </trkpt>
      <trkpt lat="45.939427530393004" lon="7.498135166242719">
        <ele>2470.73</ele>
        <time>2013-07-28T10:17:39Z</time>
      </trkpt>
      <trkpt lat="45.939461644738913" lon="7.498117815703154">
        <ele>2469.2800000000002</ele>
        <time>2013-07-28T10:17:54Z</time>
      </trkpt>
      <trkpt lat="45.939431805163622" lon="7.498095687478781">
        <ele>2470.2399999999998</ele>
        <time>2013-07-28T10:18:14Z</time>
      </trkpt>
      <trkpt lat="45.939453179016709" lon="7.498087473213673">
        <ele>2471.6900000000001</ele>
        <time>2013-07-28T10:18:17Z</time>
      </trkpt>
      <trkpt lat="45.93950011767447" lon="7.498018909245729">
        <ele>2472.1700000000001</ele>
        <time>2013-07-28T10:18:24Z</time>
      </trkpt>
      <trkpt lat="45.939537333324552" lon="7.497963588684797">
        <ele>2470.2399999999998</ele>
        <time>2013-07-28T10:18:29Z</time>
      </trkpt>
      <trkpt lat="45.939685190096498" lon="7.497737444937229">
        <ele>2470.73</ele>
        <time>2013-07-28T10:18:46Z</time>
      </trkpt>
      <trkpt lat="45.939799603074789" lon="7.497572405263782">
        <ele>2471.6900000000001</ele>
        <time>2013-07-28T10:18:59Z</time>
      </trkpt>
      <trkpt lat="45.939899096265435" lon="7.497401498258114">
        <ele>2471.21</ele>
        <time>2013-07-28T10:19:11Z</time>
      </trkpt>
      <trkpt lat="45.939964978024364" lon="7.49736562371254">
        <ele>2472.1700000000001</ele>
        <time>2013-07-28T10:19:17Z</time>
      </trkpt>
      <trkpt lat="45.940001020208001" lon="7.497290018945932">
        <ele>2473.6100000000001</ele>
        <time>2013-07-28T10:19:22Z</time>
      </trkpt>
      <trkpt lat="45.940078552812338" lon="7.497218102216721">
        <ele>2476.9699999999998</ele>
        <time>2013-07-28T10:19:36Z</time>
      </trkpt>
      <trkpt lat="45.940129011869431" lon="7.497157081961632">
        <ele>2478.4200000000001</ele>
        <time>2013-07-28T10:19:47Z</time>
      </trkpt>
      <trkpt lat="45.940163042396307" lon="7.49714576639235">
        <ele>2480.3400000000001</ele>
        <time>2013-07-28T10:20:00Z</time>
      </trkpt>
      <trkpt lat="45.940183745697141" lon="7.497119028121233">
        <ele>2478.9000000000001</ele>
        <time>2013-07-28T10:20:02Z</time>
      </trkpt>
      <trkpt lat="45.94020570628345" lon="7.497095391154289">
        <ele>2477.9400000000001</ele>
        <time>2013-07-28T10:20:04Z</time>
      </trkpt>
      <trkpt lat="45.940247029066086" lon="7.497056582942605">
        <ele>2476.4899999999998</ele>
        <time>2013-07-28T10:20:08Z</time>
      </trkpt>
      <trkpt lat="45.940285418182611" lon="7.497017942368984">
        <ele>2479.3800000000001</ele>
        <time>2013-07-28T10:20:12Z</time>
      </trkpt>
      <trkpt lat="45.940329674631357" lon="7.496993048116565">
        <ele>2476.0100000000002</ele>
        <time>2013-07-28T10:20:20Z</time>
      </trkpt>
      <trkpt lat="45.940395891666412" lon="7.496943343430758">
        <ele>2475.0500000000002</ele>
        <time>2013-07-28T10:20:29Z</time>
      </trkpt>
      <trkpt lat="45.940475100651383" lon="7.496906295418739">
        <ele>2476.0100000000002</ele>
        <time>2013-07-28T10:20:43Z</time>
      </trkpt>
      <trkpt lat="45.940515585243702" lon="7.496901350095868">
        <ele>2477.4499999999998</ele>
        <time>2013-07-28T10:20:49Z</time>
      </trkpt>
      <trkpt lat="45.940547185018659" lon="7.496898416429758">
        <ele>2477.9400000000001</ele>
        <time>2013-07-28T10:20:53Z</time>
      </trkpt>
      <trkpt lat="45.940560679882765" lon="7.496909229084849">
        <ele>2479.3800000000001</ele>
        <time>2013-07-28T10:20:56Z</time>
      </trkpt>
      <trkpt lat="45.940571743994951" lon="7.49691903591156">
        <ele>2478.9000000000001</ele>
        <time>2013-07-28T10:20:58Z</time>
      </trkpt>
      <trkpt lat="45.940598817542195" lon="7.496946444734931">
        <ele>2478.9000000000001</ele>
        <time>2013-07-28T10:21:02Z</time>
      </trkpt>
      <trkpt lat="45.940643325448036" lon="7.496939236298204">
        <ele>2479.8600000000001</ele>
        <time>2013-07-28T10:21:08Z</time>
      </trkpt>
      <trkpt lat="45.94067526049912" lon="7.496915096417069">
        <ele>2479.8600000000001</ele>
        <time>2013-07-28T10:21:11Z</time>
      </trkpt>
      <trkpt lat="45.940701076760888" lon="7.49689657241106">
        <ele>2480.3400000000001</ele>
        <time>2013-07-28T10:21:15Z</time>
      </trkpt>
      <trkpt lat="45.940733682364225" lon="7.496844353154302">
        <ele>2481.7800000000002</ele>
        <time>2013-07-28T10:21:20Z</time>
      </trkpt>
      <trkpt lat="45.940769808366895" lon="7.496848125010729">
        <ele>2482.2600000000002</ele>
        <time>2013-07-28T10:21:24Z</time>
      </trkpt>
      <trkpt lat="45.940850358456373" lon="7.49683890491724">
        <ele>2485.1500000000001</ele>
        <time>2013-07-28T10:21:37Z</time>
      </trkpt>
      <trkpt lat="45.940901571884751" lon="7.496780902147293">
        <ele>2486.5900000000001</ele>
        <time>2013-07-28T10:21:47Z</time>
      </trkpt>
      <trkpt lat="45.940944654867053" lon="7.496771514415741">
        <ele>2487.0700000000002</ele>
        <time>2013-07-28T10:21:53Z</time>
      </trkpt>
      <trkpt lat="45.941045992076397" lon="7.496766317635775">
        <ele>2489.4699999999998</ele>
        <time>2013-07-28T10:22:06Z</time>
      </trkpt>
      <trkpt lat="45.941081866621971" lon="7.49672407284379">
        <ele>2491.3899999999999</ele>
        <time>2013-07-28T10:22:16Z</time>
      </trkpt>
      <trkpt lat="45.941087063401937" lon="7.496719965711236">
        <ele>2491.3899999999999</ele>
        <time>2013-07-28T10:22:17Z</time>
      </trkpt>
      <trkpt lat="45.941139198839664" lon="7.496728766709566">
        <ele>2493.3200000000002</ele>
        <time>2013-07-28T10:22:28Z</time>
      </trkpt>
      <trkpt lat="45.941188568249345" lon="7.49674460850656">
        <ele>2496.1999999999998</ele>
        <time>2013-07-28T10:22:35Z</time>
      </trkpt>
      <trkpt lat="45.94123424962163" lon="7.496734634041786">
        <ele>2497.6399999999999</ele>
        <time>2013-07-28T10:22:46Z</time>
      </trkpt>
      <trkpt lat="45.941267944872379" lon="7.49670990742743">
        <ele>2498.1199999999999</ele>
        <time>2013-07-28T10:22:53Z</time>
      </trkpt>
      <trkpt lat="45.941346818581223" lon="7.496747290715575">
        <ele>2501.0100000000002</ele>
        <time>2013-07-28T10:23:07Z</time>
      </trkpt>
      <trkpt lat="45.941391661763191" lon="7.496740501374006">
        <ele>2503.8899999999999</ele>
        <time>2013-07-28T10:23:13Z</time>
      </trkpt>
      <trkpt lat="45.941401049494743" lon="7.496760366484523">
        <ele>2505.8099999999999</ele>
        <time>2013-07-28T10:23:15Z</time>
      </trkpt>
      <trkpt lat="45.941417813301086" lon="7.496761539950967">
        <ele>2504.8499999999999</ele>
        <time>2013-07-28T10:23:19Z</time>
      </trkpt>
      <trkpt lat="45.941452598199248" lon="7.496754163876176">
        <ele>2505.3299999999999</ele>
        <time>2013-07-28T10:23:24Z</time>
      </trkpt>
      <trkpt lat="45.941524682566524" lon="7.496788362041116">
        <ele>2506.29</ele>
        <time>2013-07-28T10:23:37Z</time>
      </trkpt>
      <trkpt lat="45.941560054197907" lon="7.496845526620746">
        <ele>2508.2199999999998</ele>
        <time>2013-07-28T10:23:48Z</time>
      </trkpt>
      <trkpt lat="45.941548487171531" lon="7.496937224641442">
        <ele>2511.0999999999999</ele>
        <time>2013-07-28T10:24:01Z</time>
      </trkpt>
      <trkpt lat="45.941567346453667" lon="7.497005201876164">
        <ele>2513.5</ele>
        <time>2013-07-28T10:24:13Z</time>
      </trkpt>
      <trkpt lat="45.941592240706086" lon="7.497035125270486">
        <ele>2513.5</ele>
        <time>2013-07-28T10:24:18Z</time>
      </trkpt>
      <trkpt lat="45.94159928150475" lon="7.497056247666478">
        <ele>2514.9499999999998</ele>
        <time>2013-07-28T10:24:21Z</time>
      </trkpt>
      <trkpt lat="45.941630294546485" lon="7.497119447216392">
        <ele>2516.8699999999999</ele>
        <time>2013-07-28T10:24:32Z</time>
      </trkpt>
      <trkpt lat="45.941637000069022" lon="7.497216928750277">
        <ele>2518.79</ele>
        <time>2013-07-28T10:24:44Z</time>
      </trkpt>
      <trkpt lat="45.941622583195567" lon="7.497234782204032">
        <ele>2521.6799999999998</ele>
        <time>2013-07-28T10:25:00Z</time>
      </trkpt>
      <trkpt lat="45.941624091938138" lon="7.497317511588335">
        <ele>2524.0799999999999</ele>
        <time>2013-07-28T10:25:12Z</time>
      </trkpt>
      <trkpt lat="45.941634485498071" lon="7.497326480224729">
        <ele>2524.0799999999999</ele>
        <time>2013-07-28T10:25:35Z</time>
      </trkpt>
      <trkpt lat="45.941621158272028" lon="7.49732555821538">
        <ele>2525.52</ele>
        <time>2013-07-28T10:25:57Z</time>
      </trkpt>
      <trkpt lat="45.941651333123446" lon="7.497321115806699">
        <ele>2526</ele>
        <time>2013-07-28T10:26:08Z</time>
      </trkpt>
      <trkpt lat="45.941677903756499" lon="7.497347099706531">
        <ele>2527.4400000000001</ele>
        <time>2013-07-28T10:26:19Z</time>
      </trkpt>
      <trkpt lat="45.941714616492391" lon="7.497341902926564">
        <ele>2528.8899999999999</ele>
        <time>2013-07-28T10:26:29Z</time>
      </trkpt>
      <trkpt lat="45.941718891263008" lon="7.497327234596014">
        <ele>2530.3299999999999</ele>
        <time>2013-07-28T10:26:31Z</time>
      </trkpt>
      <trkpt lat="45.941697768867016" lon="7.497327569872141">
        <ele>2529.3699999999999</ele>
        <time>2013-07-28T10:26:49Z</time>
      </trkpt>
      <trkpt lat="45.94171117991209" lon="7.497331760823727">
        <ele>2529.3699999999999</ele>
        <time>2013-07-28T10:27:10Z</time>
      </trkpt>
      <trkpt lat="45.941783851012588" lon="7.497249031439424">
        <ele>2529.8499999999999</ele>
        <time>2013-07-28T10:27:40Z</time>
      </trkpt>
      <trkpt lat="45.941735990345478" lon="7.497259927913547">
        <ele>2530.8099999999999</ele>
        <time>2013-07-28T10:27:53Z</time>
      </trkpt>
      <trkpt lat="45.941772451624274" lon="7.497246181592345">
        <ele>2533.6900000000001</ele>
        <time>2013-07-28T10:28:01Z</time>
      </trkpt>
      <trkpt lat="45.941800028085709" lon="7.497262107208371">
        <ele>2535.1300000000001</ele>
        <time>2013-07-28T10:28:05Z</time>
      </trkpt>
      <trkpt lat="45.941768679767847" lon="7.497328156605363">
        <ele>2537.54</ele>
        <time>2013-07-28T10:28:18Z</time>
      </trkpt>
      <trkpt lat="45.941777061671019" lon="7.497324468567967">
        <ele>2538.5</ele>
        <time>2013-07-28T10:28:23Z</time>
      </trkpt>
      <trkpt lat="45.941802877932787" lon="7.497342992573977">
        <ele>2540.9000000000001</ele>
        <time>2013-07-28T10:28:39Z</time>
      </trkpt>
      <trkpt lat="45.941768009215593" lon="7.497403426095843">
        <ele>2542.3400000000001</ele>
        <time>2013-07-28T10:28:51Z</time>
      </trkpt>
      <trkpt lat="45.941799441352487" lon="7.497402839362621">
        <ele>2543.79</ele>
        <time>2013-07-28T10:29:02Z</time>
      </trkpt>
      <trkpt lat="45.941802710294724" lon="7.497450197115541">
        <ele>2545.71</ele>
        <time>2013-07-28T10:29:12Z</time>
      </trkpt>
      <trkpt lat="45.941762728616595" lon="7.497480288147926">
        <ele>2548.1100000000001</ele>
        <time>2013-07-28T10:29:25Z</time>
      </trkpt>
      <trkpt lat="45.941798351705074" lon="7.497501829639077">
        <ele>2548.5900000000001</ele>
        <time>2013-07-28T10:29:36Z</time>
      </trkpt>
      <trkpt lat="45.941826850175858" lon="7.497540302574635">
        <ele>2548.5900000000001</ele>
        <time>2013-07-28T10:29:47Z</time>
      </trkpt>
      <trkpt lat="45.941828023642302" lon="7.497536027804017">
        <ele>2550.0300000000002</ele>
        <time>2013-07-28T10:29:49Z</time>
      </trkpt>
      <trkpt lat="45.941843697801232" lon="7.497529741376638">
        <ele>2551.96</ele>
        <time>2013-07-28T10:29:55Z</time>
      </trkpt>
      <trkpt lat="45.941850822418928" lon="7.49753812327981">
        <ele>2553.4000000000001</ele>
        <time>2013-07-28T10:29:57Z</time>
      </trkpt>
      <trkpt lat="45.941885774955153" lon="7.497545080259442">
        <ele>2554.8400000000001</ele>
        <time>2013-07-28T10:30:07Z</time>
      </trkpt>
      <trkpt lat="45.941901616752148" lon="7.497540386393666">
        <ele>2555.8000000000002</ele>
        <time>2013-07-28T10:30:10Z</time>
      </trkpt>
      <trkpt lat="45.941948220133781" lon="7.497486490756273">
        <ele>2556.7600000000002</ele>
        <time>2013-07-28T10:30:23Z</time>
      </trkpt>
      <trkpt lat="45.94196523539722" lon="7.497476181015372">
        <ele>2558.6900000000001</ele>
        <time>2013-07-28T10:30:32Z</time>
      </trkpt>
      <trkpt lat="45.941981161013246" lon="7.497477689757943">
        <ele>2559.6500000000001</ele>
        <time>2013-07-28T10:30:39Z</time>
      </trkpt>
      <trkpt lat="45.941996499896049" lon="7.497527226805687">
        <ele>2562.0500000000002</ele>
        <time>2013-07-28T10:30:49Z</time>
      </trkpt>
      <trkpt lat="45.942009994760156" lon="7.497579697519541">
        <ele>2564.9299999999998</ele>
        <time>2013-07-28T10:31:02Z</time>
      </trkpt>
      <trkpt lat="45.942038828507066" lon="7.497623702511191">
        <ele>2566.8600000000001</ele>
        <time>2013-07-28T10:31:13Z</time>
      </trkpt>
      <trkpt lat="45.942051820456982" lon="7.497617583721876">
        <ele>2570.2199999999998</ele>
        <time>2013-07-28T10:31:28Z</time>
      </trkpt>
      <trkpt lat="45.942054083570838" lon="7.497606938704848">
        <ele>2568.3000000000002</ele>
        <time>2013-07-28T10:31:36Z</time>
      </trkpt>
      <trkpt lat="45.942073613405228" lon="7.497595455497503">
        <ele>2570.2199999999998</ele>
        <time>2013-07-28T10:31:41Z</time>
      </trkpt>
      <trkpt lat="45.942101189866662" lon="7.497572237625718">
        <ele>2573.5900000000001</ele>
        <time>2013-07-28T10:31:49Z</time>
      </trkpt>
      <trkpt lat="45.942106135189533" lon="7.497581709176302">
        <ele>2574.5500000000002</ele>
        <time>2013-07-28T10:31:51Z</time>
      </trkpt>
      <trkpt lat="45.942110577598214" lon="7.497590091079474">
        <ele>2574.5500000000002</ele>
        <time>2013-07-28T10:31:52Z</time>
      </trkpt>
      <trkpt lat="45.942159527912736" lon="7.497561257332563">
        <ele>2574.5500000000002</ele>
        <time>2013-07-28T10:32:02Z</time>
      </trkpt>
      <trkpt lat="45.942166401073337" lon="7.497639041393995">
        <ele>2577.4299999999998</ele>
        <time>2013-07-28T10:32:13Z</time>
      </trkpt>
      <trkpt lat="45.942152738571167" lon="7.497672820463777">
        <ele>2579.8400000000001</ele>
        <time>2013-07-28T10:32:18Z</time>
      </trkpt>
      <trkpt lat="45.94217243604362" lon="7.497704671695828">
        <ele>2579.8400000000001</ele>
        <time>2013-07-28T10:32:31Z</time>
      </trkpt>
      <trkpt lat="45.942192049697042" lon="7.497713640332222">
        <ele>2581.7600000000002</ele>
        <time>2013-07-28T10:32:43Z</time>
      </trkpt>
      <trkpt lat="45.942201102152467" lon="7.497754879295826">
        <ele>2584.6399999999999</ele>
        <time>2013-07-28T10:32:52Z</time>
      </trkpt>
      <trkpt lat="45.942205041646957" lon="7.497756136581302">
        <ele>2585.1199999999999</ele>
        <time>2013-07-28T10:32:53Z</time>
      </trkpt>
      <trkpt lat="45.942223565652966" lon="7.497798381373286">
        <ele>2586.0799999999999</ele>
        <time>2013-07-28T10:33:02Z</time>
      </trkpt>
      <trkpt lat="45.942260110750794" lon="7.497781869024038">
        <ele>2588.9699999999998</ele>
        <time>2013-07-28T10:33:13Z</time>
      </trkpt>
      <trkpt lat="45.942283747717738" lon="7.497733673080802">
        <ele>2590.4099999999999</ele>
        <time>2013-07-28T10:33:24Z</time>
      </trkpt>
      <trkpt lat="45.942276455461979" lon="7.497729482129216">
        <ele>2589.4499999999998</ele>
        <time>2013-07-28T10:33:26Z</time>
      </trkpt>
      <trkpt lat="45.942323310300708" lon="7.497704504057765">
        <ele>2592.8099999999999</ele>
        <time>2013-07-28T10:33:35Z</time>
      </trkpt>
      <trkpt lat="45.942346109077334" lon="7.497728811576963">
        <ele>2593.77</ele>
        <time>2013-07-28T10:33:46Z</time>
      </trkpt>
      <trkpt lat="45.942332614213228" lon="7.497794860973954">
        <ele>2595.2199999999998</ele>
        <time>2013-07-28T10:33:58Z</time>
      </trkpt>
      <trkpt lat="45.942359687760472" lon="7.497800560668111">
        <ele>2598.0999999999999</ele>
        <time>2013-07-28T10:34:08Z</time>
      </trkpt>
      <trkpt lat="45.942344181239605" lon="7.497867196798325">
        <ele>2599.0599999999999</ele>
        <time>2013-07-28T10:34:22Z</time>
      </trkpt>
      <trkpt lat="45.942325657233596" lon="7.497866861522198">
        <ele>2601.46</ele>
        <time>2013-07-28T10:34:37Z</time>
      </trkpt>
      <trkpt lat="45.942316185683012" lon="7.497897455468774">
        <ele>2602.9099999999999</ele>
        <time>2013-07-28T10:34:43Z</time>
      </trkpt>
      <trkpt lat="45.942307552322745" lon="7.497970042750239">
        <ele>2604.8299999999999</ele>
        <time>2013-07-28T10:34:57Z</time>
      </trkpt>
      <trkpt lat="45.942365387454629" lon="7.497947160154581">
        <ele>2604.8299999999999</ele>
        <time>2013-07-28T10:35:11Z</time>
      </trkpt>
      <trkpt lat="45.942443255335093" lon="7.497927630320191">
        <ele>2606.75</ele>
        <time>2013-07-28T10:35:23Z</time>
      </trkpt>
      <trkpt lat="45.942448619753122" lon="7.497976077720523">
        <ele>2608.1900000000001</ele>
        <time>2013-07-28T10:35:29Z</time>
      </trkpt>
      <trkpt lat="45.942393131554127" lon="7.49808931723237">
        <ele>2611.0799999999999</ele>
        <time>2013-07-28T10:35:43Z</time>
      </trkpt>
      <trkpt lat="45.942438310012221" lon="7.498096860945225">
        <ele>2613</ele>
        <time>2013-07-28T10:35:56Z</time>
      </trkpt>
      <trkpt lat="45.94240989536047" lon="7.49813231639564">
        <ele>2613.96</ele>
        <time>2013-07-28T10:36:10Z</time>
      </trkpt>
      <trkpt lat="45.942430011928082" lon="7.498123431578279">
        <ele>2615.8800000000001</ele>
        <time>2013-07-28T10:36:31Z</time>
      </trkpt>
      <trkpt lat="45.942459432408214" lon="7.498150924220681">
        <ele>2619.25</ele>
        <time>2013-07-28T10:36:40Z</time>
      </trkpt>
      <trkpt lat="45.942467898130417" lon="7.498143883422017">
        <ele>2619.73</ele>
        <time>2013-07-28T10:36:41Z</time>
      </trkpt>
      <trkpt lat="45.942528583109379" lon="7.498138099908829">
        <ele>2621.6500000000001</ele>
        <time>2013-07-28T10:36:55Z</time>
      </trkpt>
      <trkpt lat="45.942554231733084" lon="7.498148661106825">
        <ele>2623.0900000000001</ele>
        <time>2013-07-28T10:37:06Z</time>
      </trkpt>
      <trkpt lat="45.942576192319393" lon="7.4981430452317">
        <ele>2624.54</ele>
        <time>2013-07-28T10:37:17Z</time>
      </trkpt>
      <trkpt lat="45.942601086571813" lon="7.498141620308161">
        <ele>2624.0599999999999</ele>
        <time>2013-07-28T10:37:33Z</time>
      </trkpt>
      <trkpt lat="45.942616173997521" lon="7.498191744089127">
        <ele>2626.9400000000001</ele>
        <time>2013-07-28T10:37:44Z</time>
      </trkpt>
      <trkpt lat="45.942614916712046" lon="7.498228624463081">
        <ele>2629.8200000000002</ele>
        <time>2013-07-28T10:37:56Z</time>
      </trkpt>
      <trkpt lat="45.942650958895683" lon="7.498206244781613">
        <ele>2631.75</ele>
        <time>2013-07-28T10:38:08Z</time>
      </trkpt>
      <trkpt lat="45.942663531750441" lon="7.498287968337536">
        <ele>2634.6300000000001</ele>
        <time>2013-07-28T10:38:20Z</time>
      </trkpt>
      <trkpt lat="45.942648276686668" lon="7.498323759064078">
        <ele>2633.1900000000001</ele>
        <time>2013-07-28T10:38:32Z</time>
      </trkpt>
      <trkpt lat="45.942695634439588" lon="7.49834094196558">
        <ele>2636.5500000000002</ele>
        <time>2013-07-28T10:38:47Z</time>
      </trkpt>
      <trkpt lat="45.942728826776147" lon="7.498367428779602">
        <ele>2637.9899999999998</ele>
        <time>2013-07-28T10:38:59Z</time>
      </trkpt>
      <trkpt lat="45.942751541733742" lon="7.498317304998636">
        <ele>2640.8800000000001</ele>
        <time>2013-07-28T10:39:10Z</time>
      </trkpt>
      <trkpt lat="45.942803425714374" lon="7.498272126540542">
        <ele>2641.8400000000001</ele>
        <time>2013-07-28T10:39:25Z</time>
      </trkpt>
      <trkpt lat="45.942854639142752" lon="7.498287046328187">
        <ele>2643.2800000000002</ele>
        <time>2013-07-28T10:39:41Z</time>
      </trkpt>
      <trkpt lat="45.942882634699345" lon="7.498265337198973">
        <ele>2644.7199999999998</ele>
        <time>2013-07-28T10:39:46Z</time>
      </trkpt>
      <trkpt lat="45.942920856177807" lon="7.498298361897469">
        <ele>2646.6500000000001</ele>
        <time>2013-07-28T10:39:58Z</time>
      </trkpt>
      <trkpt lat="45.942925550043583" lon="7.498408667743206">
        <ele>2649.0500000000002</ele>
        <time>2013-07-28T10:40:11Z</time>
      </trkpt>
      <trkpt lat="45.942960167303681" lon="7.49845921061933">
        <ele>2651.9299999999998</ele>
        <time>2013-07-28T10:40:23Z</time>
      </trkpt>
      <trkpt lat="45.94298992305994" lon="7.498452253639698">
        <ele>2652.9000000000001</ele>
        <time>2013-07-28T10:40:30Z</time>
      </trkpt>
      <trkpt lat="45.943005345761776" lon="7.49849240295589">
        <ele>2655.3000000000002</ele>
        <time>2013-07-28T10:40:41Z</time>
      </trkpt>
      <trkpt lat="45.94302068464458" lon="7.49850464053452">
        <ele>2655.7800000000002</ele>
        <time>2013-07-28T10:40:51Z</time>
      </trkpt>
      <trkpt lat="45.943032586947083" lon="7.49853883869946">
        <ele>2655.7800000000002</ele>
        <time>2013-07-28T10:41:05Z</time>
      </trkpt>
      <trkpt lat="45.943072820082307" lon="7.498516710475087">
        <ele>2657.2199999999998</ele>
        <time>2013-07-28T10:41:16Z</time>
      </trkpt>
      <trkpt lat="45.943098301067948" lon="7.498608995229006">
        <ele>2659.1399999999999</ele>
        <time>2013-07-28T10:41:28Z</time>
      </trkpt>
      <trkpt lat="45.943118082359433" lon="7.498654676601291">
        <ele>2661.5500000000002</ele>
        <time>2013-07-28T10:41:40Z</time>
      </trkpt>
      <trkpt lat="45.943099390715361" lon="7.498697843402624">
        <ele>2662.5100000000002</ele>
        <time>2013-07-28T10:41:53Z</time>
      </trkpt>
      <trkpt lat="45.943103665485978" lon="7.498753583058715">
        <ele>2665.8699999999999</ele>
        <time>2013-07-28T10:42:04Z</time>
      </trkpt>
      <trkpt lat="45.943126464262605" lon="7.498815190047026">
        <ele>2666.8299999999999</ele>
        <time>2013-07-28T10:42:17Z</time>
      </trkpt>
      <trkpt lat="45.943149095401168" lon="7.498794486746192">
        <ele>2666.8299999999999</ele>
        <time>2013-07-28T10:42:29Z</time>
      </trkpt>
      <trkpt lat="45.943176504224539" lon="7.4988061375916">
        <ele>2669.7199999999998</ele>
        <time>2013-07-28T10:42:36Z</time>
      </trkpt>
      <trkpt lat="45.943202488124371" lon="7.498835641890764">
        <ele>2670.6799999999998</ele>
        <time>2013-07-28T10:42:47Z</time>
      </trkpt>
      <trkpt lat="45.943226376548409" lon="7.498840754851699">
        <ele>2672.1199999999999</ele>
        <time>2013-07-28T10:42:59Z</time>
      </trkpt>
      <trkpt lat="45.943258898332715" lon="7.498855255544186">
        <ele>2671.1599999999999</ele>
        <time>2013-07-28T10:43:19Z</time>
      </trkpt>
      <trkpt lat="45.943296365439892" lon="7.498886436223984">
        <ele>2673.0799999999999</ele>
        <time>2013-07-28T10:43:26Z</time>
      </trkpt>
      <trkpt lat="45.943325702100992" lon="7.498966651037335">
        <ele>2676.4499999999998</ele>
        <time>2013-07-28T10:43:34Z</time>
      </trkpt>
      <trkpt lat="45.943363336846232" lon="7.499001268297434">
        <ele>2677.8899999999999</ele>
        <time>2013-07-28T10:43:41Z</time>
      </trkpt>
      <trkpt lat="45.943389236927032" lon="7.499048290774226">
        <ele>2678.3699999999999</ele>
        <time>2013-07-28T10:43:46Z</time>
      </trkpt>
      <trkpt lat="45.943411281332374" lon="7.499050805345178">
        <ele>2679.3299999999999</ele>
        <time>2013-07-28T10:43:48Z</time>
      </trkpt>
      <trkpt lat="45.943466182798147" lon="7.499088691547513">
        <ele>2682.2199999999998</ele>
        <time>2013-07-28T10:43:59Z</time>
      </trkpt>
      <trkpt lat="45.943516558036208" lon="7.499170918017626">
        <ele>2684.1399999999999</ele>
        <time>2013-07-28T10:44:11Z</time>
      </trkpt>
      <trkpt lat="45.943536758422852" lon="7.499212827533484">
        <ele>2683.6599999999999</ele>
        <time>2013-07-28T10:44:20Z</time>
      </trkpt>
      <trkpt lat="45.943555198609829" lon="7.499285833910108">
        <ele>2687.02</ele>
        <time>2013-07-28T10:44:29Z</time>
      </trkpt>
      <trkpt lat="45.943620325997472" lon="7.499320702627301">
        <ele>2687.98</ele>
        <time>2013-07-28T10:44:41Z</time>
      </trkpt>
      <trkpt lat="45.943677239120007" lon="7.4993294198066">
        <ele>2689.4299999999998</ele>
        <time>2013-07-28T10:44:56Z</time>
      </trkpt>
      <trkpt lat="45.943621080368757" lon="7.499257335439324">
        <ele>2691.8299999999999</ele>
        <time>2013-07-28T10:45:09Z</time>
      </trkpt>
      <trkpt lat="45.943695763126016" lon="7.499307962134481">
        <ele>2694.23</ele>
        <time>2013-07-28T10:45:21Z</time>
      </trkpt>
      <trkpt lat="45.943737421184778" lon="7.499310560524464">
        <ele>2694.71</ele>
        <time>2013-07-28T10:45:29Z</time>
      </trkpt>
      <trkpt lat="45.943832555785775" lon="7.499402761459351">
        <ele>2694.71</ele>
        <time>2013-07-28T10:45:44Z</time>
      </trkpt>
      <trkpt lat="45.943839931860566" lon="7.49941541813314">
        <ele>2694.71</ele>
        <time>2013-07-28T10:45:45Z</time>
      </trkpt>
      <trkpt lat="45.943891312927008" lon="7.499416675418615">
        <ele>2694.71</ele>
        <time>2013-07-28T10:45:53Z</time>
      </trkpt>
      <trkpt lat="45.94390464015305" lon="7.499413322657347">
        <ele>2694.71</ele>
        <time>2013-07-28T10:45:54Z</time>
      </trkpt>
      <trkpt lat="45.943982424214482" lon="7.499358924105763">
        <ele>2697.5999999999999</ele>
        <time>2013-07-28T10:46:06Z</time>
      </trkpt>
      <trkpt lat="45.94404730014503" lon="7.499334029853344">
        <ele>2700.48</ele>
        <time>2013-07-28T10:46:17Z</time>
      </trkpt>
      <trkpt lat="45.944089628756046" lon="7.499263370409608">
        <ele>2703.8499999999999</ele>
        <time>2013-07-28T10:46:31Z</time>
      </trkpt>
      <trkpt lat="45.944098681211472" lon="7.499272003769875">
        <ele>2707.21</ele>
        <time>2013-07-28T10:46:33Z</time>
      </trkpt>
      <trkpt lat="45.944105638191104" lon="7.499275943264365">
        <ele>2707.21</ele>
        <time>2013-07-28T10:46:34Z</time>
      </trkpt>
      <trkpt lat="45.944125084206462" lon="7.499267728999257">
        <ele>2702.8800000000001</ele>
        <time>2013-07-28T10:46:36Z</time>
      </trkpt>
      <trkpt lat="45.944133969023824" lon="7.499262113124132">
        <ele>2702.8800000000001</ele>
        <time>2013-07-28T10:46:37Z</time>
      </trkpt>
      <trkpt lat="45.944200688973069" lon="7.499277954921126">
        <ele>2703.8499999999999</ele>
        <time>2013-07-28T10:46:45Z</time>
      </trkpt>
      <trkpt lat="45.944233629852533" lon="7.499312907457352">
        <ele>2703.8499999999999</ele>
        <time>2013-07-28T10:46:50Z</time>
      </trkpt>
      <trkpt lat="45.944285597652197" lon="7.499327240511775">
        <ele>2703.3600000000001</ele>
        <time>2013-07-28T10:46:56Z</time>
      </trkpt>
      <trkpt lat="45.944345528259873" lon="7.499344674870372">
        <ele>2702.8800000000001</ele>
        <time>2013-07-28T10:47:03Z</time>
      </trkpt>
      <trkpt lat="45.944391125813127" lon="7.499355655163527">
        <ele>2702.4000000000001</ele>
        <time>2013-07-28T10:47:08Z</time>
      </trkpt>
      <trkpt lat="45.944403950124979" lon="7.499358085915446">
        <ele>2704.3299999999999</ele>
        <time>2013-07-28T10:47:10Z</time>
      </trkpt>
      <trkpt lat="45.944504532963037" lon="7.499440312385559">
        <ele>2705.29</ele>
        <time>2013-07-28T10:47:23Z</time>
      </trkpt>
      <trkpt lat="45.944525320082903" lon="7.499462105333805">
        <ele>2705.77</ele>
        <time>2013-07-28T10:47:26Z</time>
      </trkpt>
      <trkpt lat="45.944548035040498" lon="7.499497896060348">
        <ele>2706.25</ele>
        <time>2013-07-28T10:47:30Z</time>
      </trkpt>
      <trkpt lat="45.944582233205438" lon="7.499506110325456">
        <ele>2705.77</ele>
        <time>2013-07-28T10:47:33Z</time>
      </trkpt>
      <trkpt lat="45.944615760818124" lon="7.499511726200581">
        <ele>2706.25</ele>
        <time>2013-07-28T10:47:37Z</time>
      </trkpt>
      <trkpt lat="45.944693461060524" lon="7.499539889395237">
        <ele>2705.77</ele>
        <time>2013-07-28T10:47:43Z</time>
      </trkpt>
      <trkpt lat="45.944741405546665" lon="7.499533938243985">
        <ele>2706.25</ele>
        <time>2013-07-28T10:47:49Z</time>
      </trkpt>
      <trkpt lat="45.94479052349925" lon="7.499470319598913">
        <ele>2703.3600000000001</ele>
        <time>2013-07-28T10:47:58Z</time>
      </trkpt>
      <trkpt lat="45.944800833240151" lon="7.49945011921227">
        <ele>2704.8099999999999</ele>
        <time>2013-07-28T10:48:00Z</time>
      </trkpt>
      <trkpt lat="45.944876773282886" lon="7.499416926875711">
        <ele>2707.6900000000001</ele>
        <time>2013-07-28T10:48:14Z</time>
      </trkpt>
      <trkpt lat="45.944917341694236" lon="7.49941935762763">
        <ele>2710.0900000000001</ele>
        <time>2013-07-28T10:48:23Z</time>
      </trkpt>
      <trkpt lat="45.944930333644152" lon="7.499411813914776">
        <ele>2711.0599999999999</ele>
        <time>2013-07-28T10:48:25Z</time>
      </trkpt>
      <trkpt lat="45.944969393312931" lon="7.499480294063687">
        <ele>2712.02</ele>
        <time>2013-07-28T10:48:37Z</time>
      </trkpt>
      <trkpt lat="45.945042902603745" lon="7.499517761170864">
        <ele>2713.46</ele>
        <time>2013-07-28T10:48:51Z</time>
      </trkpt>
      <trkpt lat="45.945120016112924" lon="7.49962898902595">
        <ele>2715.3800000000001</ele>
        <time>2013-07-28T10:49:04Z</time>
      </trkpt>
      <trkpt lat="45.945140132680535" lon="7.499664444476366">
        <ele>2715.8600000000001</ele>
        <time>2013-07-28T10:49:19Z</time>
      </trkpt>
      <trkpt lat="45.945145664736629" lon="7.499674167484045">
        <ele>2715.8600000000001</ele>
        <time>2013-07-28T10:49:22Z</time>
      </trkpt>
      <trkpt lat="45.945156896486878" lon="7.499694284051657">
        <ele>2715.8600000000001</ele>
        <time>2013-07-28T10:49:24Z</time>
      </trkpt>
      <trkpt lat="45.945288492366672" lon="7.499948674812913">
        <ele>2715.3800000000001</ele>
        <time>2013-07-28T10:49:42Z</time>
      </trkpt>
      <trkpt lat="45.94540567137301" lon="7.500212034210563">
        <ele>2714.9000000000001</ele>
        <time>2013-07-28T10:49:59Z</time>
      </trkpt>
      <trkpt lat="45.945525113493204" lon="7.500453935936093">
        <ele>2717.3000000000002</ele>
        <time>2013-07-28T10:50:17Z</time>
      </trkpt>
      <trkpt lat="45.945607339963317" lon="7.500669183209539">
        <ele>2718.27</ele>
        <time>2013-07-28T10:50:32Z</time>
      </trkpt>
      <trkpt lat="45.945686297491193" lon="7.500809580087662">
        <ele>2720.6700000000001</ele>
        <time>2013-07-28T10:50:47Z</time>
      </trkpt>
      <trkpt lat="45.945739606395364" lon="7.500876216217876">
        <ele>2722.5900000000001</ele>
        <time>2013-07-28T10:51:01Z</time>
      </trkpt>
      <trkpt lat="45.945729967206717" lon="7.500844281166792">
        <ele>2723.0700000000002</ele>
        <time>2013-07-28T10:51:20Z</time>
      </trkpt>
      <trkpt lat="45.945810601115227" lon="7.500936649739742">
        <ele>2724.5100000000002</ele>
        <time>2013-07-28T10:51:40Z</time>
      </trkpt>
      <trkpt lat="45.945816971361637" lon="7.500944780185819">
        <ele>2724.9899999999998</ele>
        <time>2013-07-28T10:51:41Z</time>
      </trkpt>
      <trkpt lat="45.945853181183338" lon="7.501029521226883">
        <ele>2725.48</ele>
        <time>2013-07-28T10:51:48Z</time>
      </trkpt>
      <trkpt lat="45.9458586294204" lon="7.50106162391603">
        <ele>2724.9899999999998</ele>
        <time>2013-07-28T10:51:50Z</time>
      </trkpt>
      <trkpt lat="45.945924678817391" lon="7.501187771558762">
        <ele>2727.4000000000001</ele>
        <time>2013-07-28T10:52:04Z</time>
      </trkpt>
      <trkpt lat="45.945990309119225" lon="7.501286594197154">
        <ele>2730.7600000000002</ele>
        <time>2013-07-28T10:52:17Z</time>
      </trkpt>
      <trkpt lat="45.946025680750608" lon="7.501322217285633">
        <ele>2731.2399999999998</ele>
        <time>2013-07-28T10:52:22Z</time>
      </trkpt>
      <trkpt lat="45.946080917492509" lon="7.501364378258586">
        <ele>2731.7199999999998</ele>
        <time>2013-07-28T10:52:29Z</time>
      </trkpt>
      <trkpt lat="45.946173705160618" lon="7.501487089321017">
        <ele>2732.6799999999998</ele>
        <time>2013-07-28T10:52:42Z</time>
      </trkpt>
      <trkpt lat="45.94628132879734" lon="7.501660091802478">
        <ele>2729.8000000000002</ele>
        <time>2013-07-28T10:52:58Z</time>
      </trkpt>
      <trkpt lat="45.946324160322547" lon="7.501704348251224">
        <ele>2730.2800000000002</ele>
        <time>2013-07-28T10:53:03Z</time>
      </trkpt>
      <trkpt lat="45.946434298530221" lon="7.501844074577093">
        <ele>2727.8800000000001</ele>
        <time>2013-07-28T10:53:16Z</time>
      </trkpt>
      <trkpt lat="45.946464473381639" lon="7.501916075125337">
        <ele>2727.8800000000001</ele>
        <time>2013-07-28T10:53:21Z</time>
      </trkpt>
      <trkpt lat="45.946539156138897" lon="7.502096705138683">
        <ele>2730.2800000000002</ele>
        <time>2013-07-28T10:53:35Z</time>
      </trkpt>
      <trkpt lat="45.946527756750584" lon="7.5020872335881">
        <ele>2729.8000000000002</ele>
        <time>2013-07-28T10:53:51Z</time>
      </trkpt>
      <trkpt lat="45.946555333212018" lon="7.50209167599678">
        <ele>2728.8400000000001</ele>
        <time>2013-07-28T10:53:54Z</time>
      </trkpt>
      <trkpt lat="45.946650383993983" lon="7.502124700695276">
        <ele>2728.3600000000001</ele>
        <time>2013-07-28T10:54:08Z</time>
      </trkpt>
      <trkpt lat="45.946664214134216" lon="7.502126879990101">
        <ele>2730.2800000000002</ele>
        <time>2013-07-28T10:54:10Z</time>
      </trkpt>
      <trkpt lat="45.946726910769939" lon="7.502140877768397">
        <ele>2730.7600000000002</ele>
        <time>2013-07-28T10:54:18Z</time>
      </trkpt>
      <trkpt lat="45.946830930188298" lon="7.502241879701614">
        <ele>2732.6799999999998</ele>
        <time>2013-07-28T10:54:32Z</time>
      </trkpt>
      <trkpt lat="45.946942158043385" lon="7.502333410084248">
        <ele>2733.6500000000001</ele>
        <time>2013-07-28T10:54:47Z</time>
      </trkpt>
      <trkpt lat="45.947022289037704" lon="7.502433070912957">
        <ele>2735.5700000000002</ele>
        <time>2013-07-28T10:55:02Z</time>
      </trkpt>
      <trkpt lat="45.947084315121174" lon="7.50250892713666">
        <ele>2737.0100000000002</ele>
        <time>2013-07-28T10:55:12Z</time>
      </trkpt>
      <trkpt lat="45.947130164131522" lon="7.502606241032481">
        <ele>2739.4099999999999</ele>
        <time>2013-07-28T10:55:23Z</time>
      </trkpt>
      <trkpt lat="45.947166373953223" lon="7.502660388126969">
        <ele>2740.3800000000001</ele>
        <time>2013-07-28T10:55:38Z</time>
      </trkpt>
      <trkpt lat="45.947170313447714" lon="7.502674972638488">
        <ele>2741.3400000000001</ele>
        <time>2013-07-28T10:55:40Z</time>
      </trkpt>
      <trkpt lat="45.947169056162238" lon="7.502682097256184">
        <ele>2739.8899999999999</ele>
        <time>2013-07-28T10:55:43Z</time>
      </trkpt>
      <trkpt lat="45.947165032848716" lon="7.502675224095583">
        <ele>2737.0100000000002</ele>
        <time>2013-07-28T10:55:46Z</time>
      </trkpt>
      <trkpt lat="45.947173414751887" lon="7.502675140276551">
        <ele>2742.7800000000002</ele>
        <time>2013-07-28T10:55:48Z</time>
      </trkpt>
      <trkpt lat="45.947180958464742" lon="7.50267555937171">
        <ele>2742.3000000000002</ele>
        <time>2013-07-28T10:55:49Z</time>
      </trkpt>
      <trkpt lat="45.947224460542202" lon="7.502728365361691">
        <ele>2746.1399999999999</ele>
        <time>2013-07-28T10:55:57Z</time>
      </trkpt>
      <trkpt lat="45.947228986769915" lon="7.502742614597082">
        <ele>2745.6599999999999</ele>
        <time>2013-07-28T10:55:58Z</time>
      </trkpt>
      <trkpt lat="45.947256814688444" lon="7.502797935158014">
        <ele>2743.7399999999998</ele>
        <time>2013-07-28T10:56:04Z</time>
      </trkpt>
      <trkpt lat="45.947304759174585" lon="7.502843448892236">
        <ele>2748.0700000000002</ele>
        <time>2013-07-28T10:56:14Z</time>
      </trkpt>
      <trkpt lat="45.947311967611313" lon="7.502836240455508">
        <ele>2744.2199999999998</ele>
        <time>2013-07-28T10:56:15Z</time>
      </trkpt>
      <trkpt lat="45.947333173826337" lon="7.502793073654175">
        <ele>2744.6999999999998</ele>
        <time>2013-07-28T10:56:21Z</time>
      </trkpt>
      <trkpt lat="45.947354966774583" lon="7.502790475264192">
        <ele>2747.0999999999999</ele>
        <time>2013-07-28T10:56:26Z</time>
      </trkpt>
      <trkpt lat="45.947397714480758" lon="7.502836156636477">
        <ele>2749.0300000000002</ele>
        <time>2013-07-28T10:56:37Z</time>
      </trkpt>
      <trkpt lat="45.947411209344864" lon="7.502841856330633">
        <ele>2752.3899999999999</ele>
        <time>2013-07-28T10:56:41Z</time>
      </trkpt>
      <trkpt lat="45.947415065020323" lon="7.502823499962688">
        <ele>2750.9499999999998</ele>
        <time>2013-07-28T10:56:44Z</time>
      </trkpt>
      <trkpt lat="45.947407186031342" lon="7.502797264605761">
        <ele>2755.7600000000002</ele>
        <time>2013-07-28T10:56:48Z</time>
      </trkpt>
      <trkpt lat="45.947407772764564" lon="7.502788044512272">
        <ele>2755.7600000000002</ele>
        <time>2013-07-28T10:56:49Z</time>
      </trkpt>
      <trkpt lat="45.947415148839355" lon="7.502771699801087">
        <ele>2750.4699999999998</ele>
        <time>2013-07-28T10:56:51Z</time>
      </trkpt>
      <trkpt lat="45.947423782199621" lon="7.502773124724627">
        <ele>2751.9099999999999</ele>
        <time>2013-07-28T10:56:52Z</time>
      </trkpt>
      <trkpt lat="45.947431409731507" lon="7.502783434465528">
        <ele>2756.7199999999998</ele>
        <time>2013-07-28T10:56:53Z</time>
      </trkpt>
      <trkpt lat="45.947437277063727" lon="7.502791564911604">
        <ele>2760.0799999999999</ele>
        <time>2013-07-28T10:56:54Z</time>
      </trkpt>
      <trkpt lat="45.947443647310138" lon="7.502795420587063">
        <ele>2760.0799999999999</ele>
        <time>2013-07-28T10:56:55Z</time>
      </trkpt>
      <trkpt lat="45.947462255135179" lon="7.502804137766361">
        <ele>2758.6399999999999</ele>
        <time>2013-07-28T10:57:01Z</time>
      </trkpt>
      <trkpt lat="45.947462087497115" lon="7.502795839682221">
        <ele>2764.8899999999999</ele>
        <time>2013-07-28T10:57:03Z</time>
      </trkpt>
      <trkpt lat="45.94745839945972" lon="7.502797516062856">
        <ele>2766.8099999999999</ele>
        <time>2013-07-28T10:57:04Z</time>
      </trkpt>
      <trkpt lat="45.947473738342524" lon="7.502794833853841">
        <ele>2753.8299999999999</ele>
        <time>2013-07-28T10:57:06Z</time>
      </trkpt>
      <trkpt lat="45.947478599846363" lon="7.502795252948999">
        <ele>2757.1999999999998</ele>
        <time>2013-07-28T10:57:07Z</time>
      </trkpt>
      <trkpt lat="45.947490585967898" lon="7.502809502184391">
        <ele>2758.1599999999999</ele>
        <time>2013-07-28T10:57:09Z</time>
      </trkpt>
      <trkpt lat="45.947526963427663" lon="7.502828696742654">
        <ele>2753.8299999999999</ele>
        <time>2013-07-28T10:57:16Z</time>
      </trkpt>
      <trkpt lat="45.947530400007963" lon="7.50282266177237">
        <ele>2753.8299999999999</ele>
        <time>2013-07-28T10:57:17Z</time>
      </trkpt>
      <trkpt lat="45.947540206834674" lon="7.502816710621119">
        <ele>2757.1999999999998</ele>
        <time>2013-07-28T10:57:19Z</time>
      </trkpt>
      <trkpt lat="45.947571471333504" lon="7.502805897966027">
        <ele>2758.6399999999999</ele>
        <time>2013-07-28T10:57:25Z</time>
      </trkpt>
      <trkpt lat="45.947601310908794" lon="7.502806652337313">
        <ele>2756.2399999999998</ele>
        <time>2013-07-28T10:57:32Z</time>
      </trkpt>
      <trkpt lat="45.947605920955539" lon="7.502819057554007">
        <ele>2760.0799999999999</ele>
        <time>2013-07-28T10:57:34Z</time>
      </trkpt>
      <trkpt lat="45.947606340050697" lon="7.502818889915943">
        <ele>2756.7199999999998</ele>
        <time>2013-07-28T10:57:35Z</time>
      </trkpt>
      <trkpt lat="45.94760742969811" lon="7.502821823582053">
        <ele>2752.3899999999999</ele>
        <time>2013-07-28T10:57:36Z</time>
      </trkpt>
      <trkpt lat="45.947611201554537" lon="7.502824254333973">
        <ele>2754.3099999999999</ele>
        <time>2013-07-28T10:57:37Z</time>
      </trkpt>
      <trkpt lat="45.947656547650695" lon="7.50281922519207">
        <ele>2757.6799999999998</ele>
        <time>2013-07-28T10:57:44Z</time>
      </trkpt>
      <trkpt lat="45.947694601491094" lon="7.502816040068865">
        <ele>2762</ele>
        <time>2013-07-28T10:57:51Z</time>
      </trkpt>
      <trkpt lat="45.947739444673061" lon="7.502840850502253">
        <ele>2761.52</ele>
        <time>2013-07-28T10:57:59Z</time>
      </trkpt>
      <trkpt lat="45.947780599817634" lon="7.502856776118279">
        <ele>2765.3699999999999</ele>
        <time>2013-07-28T10:58:06Z</time>
      </trkpt>
      <trkpt lat="45.947784455493093" lon="7.502862978726625">
        <ele>2764.8899999999999</ele>
        <time>2013-07-28T10:58:07Z</time>
      </trkpt>
      <trkpt lat="45.947793424129486" lon="7.50285929068923">
        <ele>2764.4099999999999</ele>
        <time>2013-07-28T10:58:12Z</time>
      </trkpt>
      <trkpt lat="45.947795687243342" lon="7.502855770289898">
        <ele>2768.73</ele>
        <time>2013-07-28T10:58:13Z</time>
      </trkpt>
      <trkpt lat="45.947801722213626" lon="7.502852501347661">
        <ele>2766.8099999999999</ele>
        <time>2013-07-28T10:58:14Z</time>
      </trkpt>
      <trkpt lat="45.947811780497432" lon="7.502853339537978">
        <ele>2765.3699999999999</ele>
        <time>2013-07-28T10:58:16Z</time>
      </trkpt>
      <trkpt lat="45.947819156572223" lon="7.502869684249163">
        <ele>2768.73</ele>
        <time>2013-07-28T10:58:18Z</time>
      </trkpt>
      <trkpt lat="45.947824185714126" lon="7.502874964848161">
        <ele>2768.25</ele>
        <time>2013-07-28T10:58:19Z</time>
      </trkpt>
      <trkpt lat="45.94785226508975" lon="7.502886615693569">
        <ele>2763.9299999999998</ele>
        <time>2013-07-28T10:58:25Z</time>
      </trkpt>
      <trkpt lat="45.947866514325142" lon="7.5028729531914">
        <ele>2762.9699999999998</ele>
        <time>2013-07-28T10:58:27Z</time>
      </trkpt>
      <trkpt lat="45.947902975603938" lon="7.502855770289898">
        <ele>2767.77</ele>
        <time>2013-07-28T10:58:32Z</time>
      </trkpt>
      <trkpt lat="45.947909178212285" lon="7.502860715612769">
        <ele>2767.77</ele>
        <time>2013-07-28T10:58:33Z</time>
      </trkpt>
      <trkpt lat="45.94794069416821" lon="7.502892231568694">
        <ele>2771.1399999999999</ele>
        <time>2013-07-28T10:58:38Z</time>
      </trkpt>
      <trkpt lat="45.947964750230312" lon="7.50289105810225">
        <ele>2767.29</ele>
        <time>2013-07-28T10:58:41Z</time>
      </trkpt>
      <trkpt lat="45.947978161275387" lon="7.502881418913603">
        <ele>2766.3299999999999</ele>
        <time>2013-07-28T10:58:43Z</time>
      </trkpt>
      <trkpt lat="45.948022753000259" lon="7.502889297902584">
        <ele>2770.1799999999998</ele>
        <time>2013-07-28T10:58:49Z</time>
      </trkpt>
      <trkpt lat="45.948027698323131" lon="7.502887956798077">
        <ele>2769.6999999999998</ele>
        <time>2013-07-28T10:58:50Z</time>
      </trkpt>
      <trkpt lat="45.948038510978222" lon="7.502878485247493">
        <ele>2768.25</ele>
        <time>2013-07-28T10:58:52Z</time>
      </trkpt>
      <trkpt lat="45.948046976700425" lon="7.502873791381717">
        <ele>2769.6999999999998</ele>
        <time>2013-07-28T10:58:54Z</time>
      </trkpt>
      <trkpt lat="45.948090981692076" lon="7.502820985391736">
        <ele>2769.6999999999998</ele>
        <time>2013-07-28T10:59:07Z</time>
      </trkpt>
      <trkpt lat="45.948090143501759" lon="7.502779494971037">
        <ele>2773.54</ele>
        <time>2013-07-28T10:59:15Z</time>
      </trkpt>
      <trkpt lat="45.94810338690877" lon="7.502756780013442">
        <ele>2771.1399999999999</ele>
        <time>2013-07-28T10:59:19Z</time>
      </trkpt>
      <trkpt lat="45.948119312524796" lon="7.502772957086563">
        <ele>2774.02</ele>
        <time>2013-07-28T10:59:21Z</time>
      </trkpt>
      <trkpt lat="45.948122162371874" lon="7.502780836075544">
        <ele>2774.5</ele>
        <time>2013-07-28T10:59:22Z</time>
      </trkpt>
      <trkpt lat="45.948157617822289" lon="7.502826098352671">
        <ele>2778.3499999999999</ele>
        <time>2013-07-28T10:59:31Z</time>
      </trkpt>
      <trkpt lat="45.948172202333808" lon="7.502837665379047">
        <ele>2780.75</ele>
        <time>2013-07-28T10:59:34Z</time>
      </trkpt>
      <trkpt lat="45.948231965303421" lon="7.502907235175371">
        <ele>2782.6700000000001</ele>
        <time>2013-07-28T10:59:48Z</time>
      </trkpt>
      <trkpt lat="45.948253590613604" lon="7.50289935618639">
        <ele>2780.27</ele>
        <time>2013-07-28T10:59:55Z</time>
      </trkpt>
      <trkpt lat="45.948254428803921" lon="7.502893237397075">
        <ele>2780.75</ele>
        <time>2013-07-28T10:59:56Z</time>
      </trkpt>
      <trkpt lat="45.948262894526124" lon="7.502866750583053">
        <ele>2776.9099999999999</ele>
        <time>2013-07-28T11:00:00Z</time>
      </trkpt>
      <trkpt lat="45.948262140154839" lon="7.502858703956008">
        <ele>2781.23</ele>
        <time>2013-07-28T11:00:01Z</time>
      </trkpt>
      <trkpt lat="45.948283933103085" lon="7.502855435013771">
        <ele>2786.04</ele>
        <time>2013-07-28T11:00:04Z</time>
      </trkpt>
      <trkpt lat="45.948351407423615" lon="7.502851998433471">
        <ele>2784.5999999999999</ele>
        <time>2013-07-28T11:00:16Z</time>
      </trkpt>
      <trkpt lat="45.948391137644649" lon="7.502811430022121">
        <ele>2787.96</ele>
        <time>2013-07-28T11:00:28Z</time>
      </trkpt>
      <trkpt lat="45.94845182262361" lon="7.502771029248834">
        <ele>2786.04</ele>
        <time>2013-07-28T11:00:41Z</time>
      </trkpt>
      <trkpt lat="45.948456097394228" lon="7.502749990671873">
        <ele>2788.4400000000001</ele>
        <time>2013-07-28T11:00:45Z</time>
      </trkpt>
      <trkpt lat="45.948471687734127" lon="7.502734567970038">
        <ele>2790.8400000000001</ele>
        <time>2013-07-28T11:00:49Z</time>
      </trkpt>
      <trkpt lat="45.948440926149487" lon="7.502677151933312">
        <ele>2792.29</ele>
        <time>2013-07-28T11:01:03Z</time>
      </trkpt>
      <trkpt lat="45.948434304445982" lon="7.502605319023132">
        <ele>2795.1700000000001</ele>
        <time>2013-07-28T11:01:15Z</time>
      </trkpt>
      <trkpt lat="45.948434052988887" lon="7.502595093101263">
        <ele>2791.8099999999999</ele>
        <time>2013-07-28T11:01:29Z</time>
      </trkpt>
      <trkpt lat="45.948433633893728" lon="7.502588806673884">
        <ele>2792.29</ele>
        <time>2013-07-28T11:01:30Z</time>
      </trkpt>
      <trkpt lat="45.948436567559838" lon="7.502578748390079">
        <ele>2796.6100000000001</ele>
        <time>2013-07-28T11:01:31Z</time>
      </trkpt>
      <trkpt lat="45.948452325537801" lon="7.502546142786741">
        <ele>2790.8400000000001</ele>
        <time>2013-07-28T11:01:35Z</time>
      </trkpt>
      <trkpt lat="45.948456600308418" lon="7.502549160271883">
        <ele>2794.6900000000001</ele>
        <time>2013-07-28T11:01:36Z</time>
      </trkpt>
      <trkpt lat="45.948461461812258" lon="7.50255779363215">
        <ele>2799.98</ele>
        <time>2013-07-28T11:01:37Z</time>
      </trkpt>
      <trkpt lat="45.948465820401907" lon="7.502560811117292">
        <ele>2804.3000000000002</ele>
        <time>2013-07-28T11:01:38Z</time>
      </trkpt>
      <trkpt lat="45.948469508439302" lon="7.50256315805018">
        <ele>2799.98</ele>
        <time>2013-07-28T11:01:39Z</time>
      </trkpt>
      <trkpt lat="45.948473867028952" lon="7.502561900764704">
        <ele>2796.6100000000001</ele>
        <time>2013-07-28T11:01:41Z</time>
      </trkpt>
      <trkpt lat="45.948508735746145" lon="7.50256072729826">
        <ele>2799.98</ele>
        <time>2013-07-28T11:01:46Z</time>
      </trkpt>
      <trkpt lat="45.948514016345143" lon="7.502564834430814">
        <ele>2800.46</ele>
        <time>2013-07-28T11:01:47Z</time>
      </trkpt>
      <trkpt lat="45.948525248095393" lon="7.502559134736657">
        <ele>2797.0900000000001</ele>
        <time>2013-07-28T11:01:50Z</time>
      </trkpt>
      <trkpt lat="45.948524577543139" lon="7.502555781975389">
        <ele>2797.5700000000002</ele>
        <time>2013-07-28T11:01:51Z</time>
      </trkpt>
      <trkpt lat="45.948524745181203" lon="7.502539101988077">
        <ele>2801.4200000000001</ele>
        <time>2013-07-28T11:01:54Z</time>
      </trkpt>
      <trkpt lat="45.948526337742805" lon="7.502533569931984">
        <ele>2805.2600000000002</ele>
        <time>2013-07-28T11:01:55Z</time>
      </trkpt>
      <trkpt lat="45.948531869798899" lon="7.502523511648178">
        <ele>2806.71</ele>
        <time>2013-07-28T11:01:57Z</time>
      </trkpt>
      <trkpt lat="45.948531366884708" lon="7.502483110874891">
        <ele>2799.98</ele>
        <time>2013-07-28T11:02:02Z</time>
      </trkpt>
      <trkpt lat="45.948536228388548" lon="7.50246936455369">
        <ele>2796.1300000000001</ele>
        <time>2013-07-28T11:02:04Z</time>
      </trkpt>
      <trkpt lat="45.948544694110751" lon="7.502468358725309">
        <ele>2801.4200000000001</ele>
        <time>2013-07-28T11:02:05Z</time>
      </trkpt>
      <trkpt lat="45.948553830385208" lon="7.502470789477229">
        <ele>2805.2600000000002</ele>
        <time>2013-07-28T11:02:06Z</time>
      </trkpt>
      <trkpt lat="45.948567157611251" lon="7.502479590475559">
        <ele>2802.3800000000001</ele>
        <time>2013-07-28T11:02:09Z</time>
      </trkpt>
      <trkpt lat="45.948566654697061" lon="7.502476908266544">
        <ele>2796.6100000000001</ele>
        <time>2013-07-28T11:02:10Z</time>
      </trkpt>
      <trkpt lat="45.948567325249314" lon="7.502471040934324">
        <ele>2799.98</ele>
        <time>2013-07-28T11:02:11Z</time>
      </trkpt>
      <trkpt lat="45.948564056307077" lon="7.502443799749017">
        <ele>2797.5700000000002</ele>
        <time>2013-07-28T11:02:13Z</time>
      </trkpt>
      <trkpt lat="45.948567157611251" lon="7.502434914931655">
        <ele>2800.9400000000001</ele>
        <time>2013-07-28T11:02:14Z</time>
      </trkpt>
      <trkpt lat="45.948591465130448" lon="7.502399208024144">
        <ele>2799.02</ele>
        <time>2013-07-28T11:02:18Z</time>
      </trkpt>
      <trkpt lat="45.948607390746474" lon="7.502389820292592">
        <ele>2802.8600000000001</ele>
        <time>2013-07-28T11:02:20Z</time>
      </trkpt>
      <trkpt lat="45.94862817786634" lon="7.502395519986749">
        <ele>2806.23</ele>
        <time>2013-07-28T11:02:22Z</time>
      </trkpt>
      <trkpt lat="45.948640750721097" lon="7.502395352348685">
        <ele>2808.6300000000001</ele>
        <time>2013-07-28T11:02:23Z</time>
      </trkpt>
      <trkpt lat="45.94866095110774" lon="7.502383785322309">
        <ele>2804.3000000000002</ele>
        <time>2013-07-28T11:02:25Z</time>
      </trkpt>
      <trkpt lat="45.948676625266671" lon="7.502367189154029">
        <ele>2801.9000000000001</ele>
        <time>2013-07-28T11:02:27Z</time>
      </trkpt>
      <trkpt lat="45.948683163151145" lon="7.50235696323216">
        <ele>2808.6300000000001</ele>
        <time>2013-07-28T11:02:28Z</time>
      </trkpt>
      <trkpt lat="45.948688108474016" lon="7.502347575500608">
        <ele>2811.9899999999998</ele>
        <time>2013-07-28T11:02:29Z</time>
      </trkpt>
      <trkpt lat="45.948694227263331" lon="7.502339025959373">
        <ele>2809.1100000000001</ele>
        <time>2013-07-28T11:02:30Z</time>
      </trkpt>
      <trkpt lat="45.94870244152844" lon="7.502331817522645">
        <ele>2804.7800000000002</ele>
        <time>2013-07-28T11:02:31Z</time>
      </trkpt>
      <trkpt lat="45.948709398508072" lon="7.502327542752028">
        <ele>2806.23</ele>
        <time>2013-07-28T11:02:32Z</time>
      </trkpt>
      <trkpt lat="45.948731945827603" lon="7.502309773117304">
        <ele>2802.3800000000001</ele>
        <time>2013-07-28T11:02:36Z</time>
      </trkpt>
      <trkpt lat="45.948755163699389" lon="7.502276077866554">
        <ele>2800.46</ele>
        <time>2013-07-28T11:02:40Z</time>
      </trkpt>
      <trkpt lat="45.94876354560256" lon="7.502241628244519">
        <ele>2797.5700000000002</ele>
        <time>2013-07-28T11:02:43Z</time>
      </trkpt>
      <trkpt lat="45.948775950819254" lon="7.50222209841013">
        <ele>2800.9400000000001</ele>
        <time>2013-07-28T11:02:46Z</time>
      </trkpt>
      <trkpt lat="45.948765138164163" lon="7.502167029306293">
        <ele>2802.3800000000001</ele>
        <time>2013-07-28T11:02:54Z</time>
      </trkpt>
      <trkpt lat="45.948769329115748" lon="7.502124952152371">
        <ele>2802.3800000000001</ele>
        <time>2013-07-28T11:03:01Z</time>
      </trkpt>
      <trkpt lat="45.948765641078353" lon="7.502137189731002">
        <ele>2802.8600000000001</ele>
        <time>2013-07-28T11:03:08Z</time>
      </trkpt>
      <trkpt lat="45.948764132335782" lon="7.502092095091939">
        <ele>2805.2600000000002</ele>
        <time>2013-07-28T11:03:12Z</time>
      </trkpt>
      <trkpt lat="45.948775280267" lon="7.501993272453547">
        <ele>2802.8600000000001</ele>
        <time>2013-07-28T11:03:19Z</time>
      </trkpt>
      <trkpt lat="45.948805706575513" lon="7.501874500885606">
        <ele>2805.2600000000002</ele>
        <time>2013-07-28T11:03:30Z</time>
      </trkpt>
      <trkpt lat="45.94879288226366" lon="7.501729326322675">
        <ele>2805.75</ele>
        <time>2013-07-28T11:03:45Z</time>
      </trkpt>
      <trkpt lat="45.948767066001892" lon="7.501618769019842">
        <ele>2808.1500000000001</ele>
        <time>2013-07-28T11:03:58Z</time>
      </trkpt>
      <trkpt lat="45.948758767917752" lon="7.501594629138708">
        <ele>2809.5900000000001</ele>
        <time>2013-07-28T11:04:02Z</time>
      </trkpt>
      <trkpt lat="45.948755666613579" lon="7.501521958038211">
        <ele>2810.5500000000002</ele>
        <time>2013-07-28T11:04:13Z</time>
      </trkpt>
      <trkpt lat="45.948721887543797" lon="7.501473342999816">
        <ele>2813.4400000000001</ele>
        <time>2013-07-28T11:04:28Z</time>
      </trkpt>
      <trkpt lat="45.948686935007572" lon="7.501466972753406">
        <ele>2813.9200000000001</ele>
        <time>2013-07-28T11:04:40Z</time>
      </trkpt>
      <trkpt lat="45.948666399344802" lon="7.501386757940054">
        <ele>2814.4000000000001</ele>
        <time>2013-07-28T11:04:53Z</time>
      </trkpt>
      <trkpt lat="45.94863404519856" lon="7.501371502876282">
        <ele>2813.9200000000001</ele>
        <time>2013-07-28T11:04:59Z</time>
      </trkpt>
      <trkpt lat="45.948620550334454" lon="7.501349290832877">
        <ele>2815.3600000000001</ele>
        <time>2013-07-28T11:05:02Z</time>
      </trkpt>
      <trkpt lat="45.948563637211919" lon="7.501267651095986">
        <ele>2815.8400000000001</ele>
        <time>2013-07-28T11:05:16Z</time>
      </trkpt>
      <trkpt lat="45.948515860363841" lon="7.501200176775456">
        <ele>2817.7600000000002</ele>
        <time>2013-07-28T11:05:31Z</time>
      </trkpt>
      <trkpt lat="45.948495995253325" lon="7.501109819859266">
        <ele>2815.8400000000001</ele>
        <time>2013-07-28T11:05:44Z</time>
      </trkpt>
      <trkpt lat="45.948502784594893" lon="7.501102443784475">
        <ele>2818.7199999999998</ele>
        <time>2013-07-28T11:05:45Z</time>
      </trkpt>
      <trkpt lat="45.948510579764843" lon="7.501103030517697">
        <ele>2818.7199999999998</ele>
        <time>2013-07-28T11:05:46Z</time>
      </trkpt>
      <trkpt lat="45.948553746566176" lon="7.501127757132053">
        <ele>2820.1599999999999</ele>
        <time>2013-07-28T11:05:54Z</time>
      </trkpt>
      <trkpt lat="45.948570845648646" lon="7.501119375228882">
        <ele>2821.1300000000001</ele>
        <time>2013-07-28T11:06:06Z</time>
      </trkpt>
      <trkpt lat="45.948598589748144" lon="7.501120967790484">
        <ele>2821.6100000000001</ele>
        <time>2013-07-28T11:06:18Z</time>
      </trkpt>
      <trkpt lat="45.948590794578195" lon="7.501070760190487">
        <ele>2822.0900000000001</ele>
        <time>2013-07-28T11:06:33Z</time>
      </trkpt>
      <trkpt lat="45.948597332462668" lon="7.501042177900672">
        <ele>2825.4499999999998</ele>
        <time>2013-07-28T11:06:44Z</time>
      </trkpt>
      <trkpt lat="45.94857444986701" lon="7.501027761027217">
        <ele>2827.3699999999999</ele>
        <time>2013-07-28T11:06:58Z</time>
      </trkpt>
      <trkpt lat="45.948572605848312" lon="7.500978307798505">
        <ele>2830.7399999999998</ele>
        <time>2013-07-28T11:07:11Z</time>
      </trkpt>
      <trkpt lat="45.948546286672354" lon="7.50092726200819">
        <ele>2828.8200000000002</ele>
        <time>2013-07-28T11:07:22Z</time>
      </trkpt>
      <trkpt lat="45.948544358834624" lon="7.500919466838241">
        <ele>2829.3000000000002</ele>
        <time>2013-07-28T11:07:23Z</time>
      </trkpt>
      <trkpt lat="45.948539078235626" lon="7.500897087156773">
        <ele>2831.2199999999998</ele>
        <time>2013-07-28T11:07:25Z</time>
      </trkpt>
      <trkpt lat="45.948514938354492" lon="7.500731879845262">
        <ele>2834.0999999999999</ele>
        <time>2013-07-28T11:07:40Z</time>
      </trkpt>
      <trkpt lat="45.948483590036631" lon="7.500764653086662">
        <ele>2834.5799999999999</ele>
        <time>2013-07-28T11:07:53Z</time>
      </trkpt>
      <trkpt lat="45.948424749076366" lon="7.500710673630238">
        <ele>2834.0999999999999</ele>
        <time>2013-07-28T11:08:04Z</time>
      </trkpt>
      <trkpt lat="45.948392227292061" lon="7.500655939802527">
        <ele>2835.0599999999999</ele>
        <time>2013-07-28T11:08:13Z</time>
      </trkpt>
      <trkpt lat="45.948381079360843" lon="7.500633811578155">
        <ele>2835.0599999999999</ele>
        <time>2013-07-28T11:08:15Z</time>
      </trkpt>
      <trkpt lat="45.948377475142479" lon="7.500583352521062">
        <ele>2832.1799999999998</ele>
        <time>2013-07-28T11:08:19Z</time>
      </trkpt>
      <trkpt lat="45.948369847610593" lon="7.500566253438592">
        <ele>2831.2199999999998</ele>
        <time>2013-07-28T11:08:26Z</time>
      </trkpt>
      <trkpt lat="45.948365069925785" lon="7.500551082193852">
        <ele>2835.5500000000002</ele>
        <time>2013-07-28T11:08:33Z</time>
      </trkpt>
      <trkpt lat="45.948363980278373" lon="7.500549489632249">
        <ele>2835.5500000000002</ele>
        <time>2013-07-28T11:08:34Z</time>
      </trkpt>
      <trkpt lat="45.948387868702412" lon="7.500577569007874">
        <ele>2835.0599999999999</ele>
        <time>2013-07-28T11:08:47Z</time>
      </trkpt>
      <trkpt lat="45.948395747691393" lon="7.500576479360461">
        <ele>2835.5500000000002</ele>
        <time>2013-07-28T11:08:53Z</time>
      </trkpt>
      <trkpt lat="45.948385940864682" lon="7.500563822686672">
        <ele>2834.0999999999999</ele>
        <time>2013-07-28T11:08:55Z</time>
      </trkpt>
      <trkpt lat="45.948399938642979" lon="7.500486290082336">
        <ele>2836.5100000000002</ele>
        <time>2013-07-28T11:09:01Z</time>
      </trkpt>
      <trkpt lat="45.94840781763196" lon="7.500478830188513">
        <ele>2836.5100000000002</ele>
        <time>2013-07-28T11:09:02Z</time>
      </trkpt>
      <trkpt lat="45.948430113494396" lon="7.500478494912386">
        <ele>2835.0599999999999</ele>
        <time>2013-07-28T11:09:06Z</time>
      </trkpt>
      <trkpt lat="45.948452074080706" lon="7.500465335324407">
        <ele>2837.9499999999998</ele>
        <time>2013-07-28T11:09:16Z</time>
      </trkpt>
      <trkpt lat="45.948464730754495" lon="7.5004674308002">
        <ele>2839.3899999999999</ele>
        <time>2013-07-28T11:09:18Z</time>
      </trkpt>
      <trkpt lat="45.948524996638298" lon="7.500535659492016">
        <ele>2839.8699999999999</ele>
        <time>2013-07-28T11:09:26Z</time>
      </trkpt>
      <trkpt lat="45.948541173711419" lon="7.500592991709709">
        <ele>2838.4299999999998</ele>
        <time>2013-07-28T11:09:30Z</time>
      </trkpt>
      <trkpt lat="45.94853094778955" lon="7.500719055533409">
        <ele>2836.0300000000002</ele>
        <time>2013-07-28T11:09:44Z</time>
      </trkpt>
      <trkpt lat="45.948524074628949" lon="7.500736741349101">
        <ele>2836.5100000000002</ele>
        <time>2013-07-28T11:09:55Z</time>
      </trkpt>
      <trkpt lat="45.948522482067347" lon="7.500744368880987">
        <ele>2836.0300000000002</ele>
        <time>2013-07-28T11:10:03Z</time>
      </trkpt>
      <trkpt lat="45.948530361056328" lon="7.500747721642256">
        <ele>2834.0999999999999</ele>
        <time>2013-07-28T11:10:18Z</time>
      </trkpt>
      <trkpt lat="45.948535976931453" lon="7.500724587589502">
        <ele>2834.5799999999999</ele>
        <time>2013-07-28T11:10:30Z</time>
      </trkpt>
      <trkpt lat="45.948528265580535" lon="7.500741854310036">
        <ele>2836.0300000000002</ele>
        <time>2013-07-28T11:10:37Z</time>
      </trkpt>
      <trkpt lat="45.948496079072356" lon="7.500747721642256">
        <ele>2834.5799999999999</ele>
        <time>2013-07-28T11:10:44Z</time>
      </trkpt>
      <trkpt lat="45.948521979153156" lon="7.500752583146095">
        <ele>2838.4299999999998</ele>
        <time>2013-07-28T11:10:54Z</time>
      </trkpt>
      <trkpt lat="45.94851435162127" lon="7.500763311982155">
        <ele>2834.5799999999999</ele>
        <time>2013-07-28T11:10:59Z</time>
      </trkpt>
      <trkpt lat="45.948500018566847" lon="7.500783512368798">
        <ele>2835.5500000000002</ele>
        <time>2013-07-28T11:11:19Z</time>
      </trkpt>
      <trkpt lat="45.948505969718099" lon="7.500825421884656">
        <ele>2835.0599999999999</ele>
        <time>2013-07-28T11:11:47Z</time>
      </trkpt>
      <trkpt lat="45.948495157063007" lon="7.500739507377148">
        <ele>2836.5100000000002</ele>
        <time>2013-07-28T11:12:15Z</time>
      </trkpt>
      <trkpt lat="45.948472609743476" lon="7.500754594802856">
        <ele>2835.0599999999999</ele>
        <time>2013-07-28T11:12:45Z</time>
      </trkpt>
      <trkpt lat="45.948498090729117" lon="7.500769682228565">
        <ele>2835.0599999999999</ele>
        <time>2013-07-28T11:13:14Z</time>
      </trkpt>
      <trkpt lat="45.948505299165845" lon="7.500761635601521">
        <ele>2836.0300000000002</ele>
        <time>2013-07-28T11:13:52Z</time>
      </trkpt>
      <trkpt lat="45.94850211404264" lon="7.500768089666963">
        <ele>2836.5100000000002</ele>
        <time>2013-07-28T11:14:23Z</time>
      </trkpt>
      <trkpt lat="45.948502533137798" lon="7.50076649710536">
        <ele>2835.0599999999999</ele>
        <time>2013-07-28T11:14:55Z</time>
      </trkpt>
      <trkpt lat="45.948508065193892" lon="7.500763647258282">
        <ele>2835.0599999999999</ele>
        <time>2013-07-28T11:15:26Z</time>
      </trkpt>
      <trkpt lat="45.948509993031621" lon="7.500780327245593">
        <ele>2836.0300000000002</ele>
        <time>2013-07-28T11:15:55Z</time>
      </trkpt>
      <trkpt lat="45.948501108214259" lon="7.500825086608529">
        <ele>2836.5100000000002</ele>
        <time>2013-07-28T11:16:32Z</time>
      </trkpt>
      <trkpt lat="45.948503287509084" lon="7.500800946727395">
        <ele>2836.5100000000002</ele>
        <time>2013-07-28T11:17:09Z</time>
      </trkpt>
      <trkpt lat="45.948512088507414" lon="7.500780494883657">
        <ele>2837.9499999999998</ele>
        <time>2013-07-28T11:17:34Z</time>
      </trkpt>
      <trkpt lat="45.948508903384209" lon="7.500809328630567">
        <ele>2836.5100000000002</ele>
        <time>2013-07-28T11:18:05Z</time>
      </trkpt>
      <trkpt lat="45.948509071022272" lon="7.500821817666292">
        <ele>2837.4699999999998</ele>
        <time>2013-07-28T11:18:40Z</time>
      </trkpt>
      <trkpt lat="45.948505718261003" lon="7.500825421884656">
        <ele>2836.0300000000002</ele>
        <time>2013-07-28T11:19:12Z</time>
      </trkpt>
      <trkpt lat="45.948505634441972" lon="7.500815447419882">
        <ele>2836.9899999999998</ele>
        <time>2013-07-28T11:19:23Z</time>
      </trkpt>
      <trkpt lat="45.948500856757164" lon="7.500821482390165">
        <ele>2836.9899999999998</ele>
        <time>2013-07-28T11:19:28Z</time>
      </trkpt>
      <trkpt lat="45.948499599471688" lon="7.500818464905024">
        <ele>2835.5500000000002</ele>
        <time>2013-07-28T11:19:31Z</time>
      </trkpt>
      <trkpt lat="45.948499515652657" lon="7.500752415508032">
        <ele>2836.0300000000002</ele>
        <time>2013-07-28T11:20:00Z</time>
      </trkpt>
      <trkpt lat="45.94848794862628" lon="7.500763982534409">
        <ele>2836.5100000000002</ele>
        <time>2013-07-28T11:20:33Z</time>
      </trkpt>
      <trkpt lat="45.948492642492056" lon="7.500764401629567">
        <ele>2838.4299999999998</ele>
        <time>2013-07-28T11:21:00Z</time>
      </trkpt>
      <trkpt lat="45.948489625006914" lon="7.500777561217547">
        <ele>2837.4699999999998</ele>
        <time>2013-07-28T11:21:33Z</time>
      </trkpt>
      <trkpt lat="45.948486691340804" lon="7.500797091051936">
        <ele>2838.9099999999999</ele>
        <time>2013-07-28T11:22:01Z</time>
      </trkpt>
      <trkpt lat="45.948485936969519" lon="7.500751744955778">
        <ele>2838.9099999999999</ele>
        <time>2013-07-28T11:22:33Z</time>
      </trkpt>
      <trkpt lat="45.94848602078855" lon="7.500741854310036">
        <ele>2838.9099999999999</ele>
        <time>2013-07-28T11:23:06Z</time>
      </trkpt>
      <trkpt lat="45.948486356064677" lon="7.500757612287998">
        <ele>2838.9099999999999</ele>
        <time>2013-07-28T11:23:31Z</time>
      </trkpt>
      <trkpt lat="45.94848744571209" lon="7.500764485448599">
        <ele>2838.4299999999998</ele>
        <time>2013-07-28T11:23:50Z</time>
      </trkpt>
      <trkpt lat="45.94848744571209" lon="7.500754091888666">
        <ele>2838.9099999999999</ele>
        <time>2013-07-28T11:24:18Z</time>
      </trkpt>
      <trkpt lat="45.948484595865011" lon="7.500735316425562">
        <ele>2838.4299999999998</ele>
        <time>2013-07-28T11:24:43Z</time>
      </trkpt>
      <trkpt lat="45.948512842878699" lon="7.500760797411203">
        <ele>2837.9499999999998</ele>
        <time>2013-07-28T11:25:12Z</time>
      </trkpt>
      <trkpt lat="45.948533713817596" lon="7.500741267576814">
        <ele>2838.4299999999998</ele>
        <time>2013-07-28T11:25:33Z</time>
      </trkpt>
      <trkpt lat="45.948550393804908" lon="7.500736573711038">
        <ele>2838.9099999999999</ele>
        <time>2013-07-28T11:26:02Z</time>
      </trkpt>
      <trkpt lat="45.948524493724108" lon="7.500749146565795">
        <ele>2839.3899999999999</ele>
        <time>2013-07-28T11:26:31Z</time>
      </trkpt>
      <trkpt lat="45.948529439046979" lon="7.500728024169803">
        <ele>2839.8699999999999</ele>
        <time>2013-07-28T11:27:11Z</time>
      </trkpt>
      <trkpt lat="45.948534552007914" lon="7.500726683065295">
        <ele>2841.3099999999999</ele>
        <time>2013-07-28T11:27:40Z</time>
      </trkpt>
      <trkpt lat="45.948536563664675" lon="7.500749733299017">
        <ele>2841.3099999999999</ele>
        <time>2013-07-28T11:28:11Z</time>
      </trkpt>
      <trkpt lat="45.94852801412344" lon="7.500718971714377">
        <ele>2842.2800000000002</ele>
        <time>2013-07-28T11:28:35Z</time>
      </trkpt>
      <trkpt lat="45.948532456532121" lon="7.500718887895346">
        <ele>2844.6799999999998</ele>
        <time>2013-07-28T11:28:41Z</time>
      </trkpt>
      <trkpt lat="45.948536563664675" lon="7.500718301162124">
        <ele>2845.1599999999999</ele>
        <time>2013-07-28T11:28:47Z</time>
      </trkpt>
      <trkpt lat="45.948543855920434" lon="7.50070882961154">
        <ele>2845.6399999999999</ele>
        <time>2013-07-28T11:28:53Z</time>
      </trkpt>
      <trkpt lat="45.948550226166844" lon="7.50070539303124">
        <ele>2845.1599999999999</ele>
        <time>2013-07-28T11:28:58Z</time>
      </trkpt>
      <trkpt lat="45.948549220338464" lon="7.500713607296348">
        <ele>2841.79</ele>
        <time>2013-07-28T11:29:05Z</time>
      </trkpt>
      <trkpt lat="45.948577551171184" lon="7.500741183757782">
        <ele>2839.8699999999999</ele>
        <time>2013-07-28T11:29:26Z</time>
      </trkpt>
      <trkpt lat="45.948547879233956" lon="7.500746212899685">
        <ele>2839.8699999999999</ele>
        <time>2013-07-28T11:29:35Z</time>
      </trkpt>
      <trkpt lat="45.948562296107411" lon="7.500764736905694">
        <ele>2840.3499999999999</ele>
        <time>2013-07-28T11:30:02Z</time>
      </trkpt>
      <trkpt lat="45.94857394695282" lon="7.500771442428231">
        <ele>2841.3099999999999</ele>
        <time>2013-07-28T11:30:32Z</time>
      </trkpt>
      <trkpt lat="45.948547376319766" lon="7.50076599419117">
        <ele>2841.3099999999999</ele>
        <time>2013-07-28T11:31:03Z</time>
      </trkpt>
      <trkpt lat="45.948540335521102" lon="7.500768508762121">
        <ele>2839.3899999999999</ele>
        <time>2013-07-28T11:31:06Z</time>
      </trkpt>
      <trkpt lat="45.948525164276361" lon="7.500747973099351">
        <ele>2839.3899999999999</ele>
        <time>2013-07-28T11:31:23Z</time>
      </trkpt>
      <trkpt lat="45.948524242267013" lon="7.500743363052607">
        <ele>2836.0300000000002</ele>
        <time>2013-07-28T11:31:25Z</time>
      </trkpt>
      <trkpt lat="45.948514267802238" lon="7.500746883451939">
        <ele>2837.9499999999998</ele>
        <time>2013-07-28T11:31:32Z</time>
      </trkpt>
      <trkpt lat="45.948516447097063" lon="7.500765491276979">
        <ele>2841.3099999999999</ele>
        <time>2013-07-28T11:31:49Z</time>
      </trkpt>
      <trkpt lat="45.948526421561837" lon="7.500755013898015">
        <ele>2840.8299999999999</ele>
        <time>2013-07-28T11:32:22Z</time>
      </trkpt>
      <trkpt lat="45.948512172326446" lon="7.500757109373808">
        <ele>2839.8699999999999</ele>
        <time>2013-07-28T11:32:31Z</time>
      </trkpt>
      <trkpt lat="45.948515944182873" lon="7.500727521255612">
        <ele>2840.8299999999999</ele>
        <time>2013-07-28T11:33:00Z</time>
      </trkpt>
      <trkpt lat="45.948512339964509" lon="7.500696843490005">
        <ele>2839.8699999999999</ele>
        <time>2013-07-28T11:33:30Z</time>
      </trkpt>
      <trkpt lat="45.948498090729117" lon="7.500691646710038">
        <ele>2838.9099999999999</ele>
        <time>2013-07-28T11:33:57Z</time>
      </trkpt>
      <trkpt lat="45.948516111820936" lon="7.500662729144096">
        <ele>2840.8299999999999</ele>
        <time>2013-07-28T11:34:31Z</time>
      </trkpt>
      <trkpt lat="45.948509657755494" lon="7.500680582597852">
        <ele>2838.4299999999998</ele>
        <time>2013-07-28T11:35:12Z</time>
      </trkpt>
      <trkpt lat="45.948512926697731" lon="7.500671530142427">
        <ele>2841.79</ele>
        <time>2013-07-28T11:35:27Z</time>
      </trkpt>
      <trkpt lat="45.948501862585545" lon="7.500682510435581">
        <ele>2842.7600000000002</ele>
        <time>2013-07-28T11:35:55Z</time>
      </trkpt>
      <trkpt lat="45.948525248095393" lon="7.500626519322395">
        <ele>2842.7600000000002</ele>
        <time>2013-07-28T11:36:22Z</time>
      </trkpt>
      <trkpt lat="45.948515692725778" lon="7.500652335584164">
        <ele>2842.7600000000002</ele>
        <time>2013-07-28T11:36:52Z</time>
      </trkpt>
      <trkpt lat="45.948540922254324" lon="7.500662058591843">
        <ele>2843.7199999999998</ele>
        <time>2013-07-28T11:37:21Z</time>
      </trkpt>
      <trkpt lat="45.948541425168514" lon="7.500682845711708">
        <ele>2842.2800000000002</ele>
        <time>2013-07-28T11:37:51Z</time>
      </trkpt>
      <trkpt lat="45.948526756837964" lon="7.50067949295044">
        <ele>2841.79</ele>
        <time>2013-07-28T11:38:17Z</time>
      </trkpt>
      <trkpt lat="45.948529355227947" lon="7.500685527920723">
        <ele>2841.3099999999999</ele>
        <time>2013-07-28T11:38:44Z</time>
      </trkpt>
      <trkpt lat="45.948547292500734" lon="7.500595254823566">
        <ele>2841.3099999999999</ele>
        <time>2013-07-28T11:39:12Z</time>
      </trkpt>
      <trkpt lat="45.948547041043639" lon="7.500638337805867">
        <ele>2843.7199999999998</ele>
        <time>2013-07-28T11:39:43Z</time>
      </trkpt>
      <trkpt lat="45.948569001629949" lon="7.50064579769969">
        <ele>2843.7199999999998</ele>
        <time>2013-07-28T11:40:10Z</time>
      </trkpt>
      <trkpt lat="45.948583753779531" lon="7.500572875142098">
        <ele>2840.8299999999999</ele>
        <time>2013-07-28T11:40:37Z</time>
      </trkpt>
      <trkpt lat="45.948596242815256" lon="7.50055493786931">
        <ele>2840.3499999999999</ele>
        <time>2013-07-28T11:40:43Z</time>
      </trkpt>
      <trkpt lat="45.948568917810917" lon="7.500457288697362">
        <ele>2841.3099999999999</ele>
        <time>2013-07-28T11:41:15Z</time>
      </trkpt>
      <trkpt lat="45.948522565886378" lon="7.500557200983167">
        <ele>2841.3099999999999</ele>
        <time>2013-07-28T11:41:43Z</time>
      </trkpt>
      <trkpt lat="45.948518458753824" lon="7.500615539029241">
        <ele>2840.3499999999999</ele>
        <time>2013-07-28T11:42:21Z</time>
      </trkpt>
      <trkpt lat="45.948526002466679" lon="7.50059793703258">
        <ele>2840.8299999999999</ele>
        <time>2013-07-28T11:42:59Z</time>
      </trkpt>
      <trkpt lat="45.948526253923774" lon="7.500603972002864">
        <ele>2842.2800000000002</ele>
        <time>2013-07-28T11:43:03Z</time>
      </trkpt>
      <trkpt lat="45.948544526472688" lon="7.500626435503364">
        <ele>2839.8699999999999</ele>
        <time>2013-07-28T11:43:37Z</time>
      </trkpt>
      <trkpt lat="45.948551567271352" lon="7.50066289678216">
        <ele>2840.8299999999999</ele>
        <time>2013-07-28T11:44:00Z</time>
      </trkpt>
      <trkpt lat="45.948557769879699" lon="7.500643450766802">
        <ele>2841.79</ele>
        <time>2013-07-28T11:44:31Z</time>
      </trkpt>
      <trkpt lat="45.948544191196561" lon="7.500649318099022">
        <ele>2840.3499999999999</ele>
        <time>2013-07-28T11:45:01Z</time>
      </trkpt>
      <trkpt lat="45.948522230610251" lon="7.500654514878988">
        <ele>2840.8299999999999</ele>
        <time>2013-07-28T11:45:37Z</time>
      </trkpt>
      <trkpt lat="45.948538826778531" lon="7.500664740800858">
        <ele>2840.3499999999999</ele>
        <time>2013-07-28T11:46:10Z</time>
      </trkpt>
      <trkpt lat="45.948547627776861" lon="7.500664740800858">
        <ele>2840.3499999999999</ele>
        <time>2013-07-28T11:46:39Z</time>
      </trkpt>
      <trkpt lat="45.948531869798899" lon="7.500699441879988">
        <ele>2839.3899999999999</ele>
        <time>2013-07-28T11:47:13Z</time>
      </trkpt>
      <trkpt lat="45.948530025780201" lon="7.500681420788169">
        <ele>2838.4299999999998</ele>
        <time>2013-07-28T11:47:47Z</time>
      </trkpt>
      <trkpt lat="45.948532121255994" lon="7.50070346519351">
        <ele>2838.9099999999999</ele>
        <time>2013-07-28T11:48:17Z</time>
      </trkpt>
      <trkpt lat="45.948525164276361" lon="7.50070539303124">
        <ele>2838.9099999999999</ele>
        <time>2013-07-28T11:48:49Z</time>
      </trkpt>
      <trkpt lat="45.948515692725778" lon="7.500717379152775">
        <ele>2837.4699999999998</ele>
        <time>2013-07-28T11:49:20Z</time>
      </trkpt>
      <trkpt lat="45.948503622785211" lon="7.500720648095012">
        <ele>2839.8699999999999</ele>
        <time>2013-07-28T11:49:51Z</time>
      </trkpt>
      <trkpt lat="45.948502952232957" lon="7.500713188201189">
        <ele>2837.9499999999998</ele>
        <time>2013-07-28T11:49:57Z</time>
      </trkpt>
      <trkpt lat="45.948502365499735" lon="7.50072400085628">
        <ele>2840.3499999999999</ele>
        <time>2013-07-28T11:50:28Z</time>
      </trkpt>
      <trkpt lat="45.948504796251655" lon="7.500730622559786">
        <ele>2840.3499999999999</ele>
        <time>2013-07-28T11:50:47Z</time>
      </trkpt>
      <trkpt lat="45.948500018566847" lon="7.500712517648935">
        <ele>2841.79</ele>
        <time>2013-07-28T11:51:17Z</time>
      </trkpt>
      <trkpt lat="45.948507143184543" lon="7.500699441879988">
        <ele>2840.8299999999999</ele>
        <time>2013-07-28T11:51:50Z</time>
      </trkpt>
      <trkpt lat="45.948514686897397" lon="7.500685695558786">
        <ele>2839.8699999999999</ele>
        <time>2013-07-28T11:52:23Z</time>
      </trkpt>
      <trkpt lat="45.948521308600903" lon="7.500714445486665">
        <ele>2839.3899999999999</ele>
        <time>2013-07-28T11:52:51Z</time>
      </trkpt>
      <trkpt lat="45.948515944182873" lon="7.500714026391506">
        <ele>2839.3899999999999</ele>
        <time>2013-07-28T11:53:24Z</time>
      </trkpt>
      <trkpt lat="45.948504880070686" lon="7.50072349794209">
        <ele>2841.3099999999999</ele>
        <time>2013-07-28T11:53:58Z</time>
      </trkpt>
      <trkpt lat="45.948509406298399" lon="7.500710673630238">
        <ele>2844.1999999999998</ele>
        <time>2013-07-28T11:54:15Z</time>
      </trkpt>
      <trkpt lat="45.948512675240636" lon="7.500725593417883">
        <ele>2841.3099999999999</ele>
        <time>2013-07-28T11:54:36Z</time>
      </trkpt>
      <trkpt lat="45.948490463197231" lon="7.500719977542758">
        <ele>2839.3899999999999</ele>
        <time>2013-07-28T11:55:12Z</time>
      </trkpt>
      <trkpt lat="45.948490463197231" lon="7.500691059976816">
        <ele>2842.7600000000002</ele>
        <time>2013-07-28T11:55:28Z</time>
      </trkpt>
      <trkpt lat="45.948499012738466" lon="7.500688126310706">
        <ele>2839.3899999999999</ele>
        <time>2013-07-28T11:55:38Z</time>
      </trkpt>
      <trkpt lat="45.948501443490386" lon="7.500711847096682">
        <ele>2840.3499999999999</ele>
        <time>2013-07-28T11:56:17Z</time>
      </trkpt>
      <trkpt lat="45.948474621400237" lon="7.500692149624229">
        <ele>2839.3899999999999</ele>
        <time>2013-07-28T11:56:51Z</time>
      </trkpt>
      <trkpt lat="45.948478225618601" lon="7.500725258141756">
        <ele>2839.3899999999999</ele>
        <time>2013-07-28T11:57:22Z</time>
      </trkpt>
      <trkpt lat="45.948483003303409" lon="7.500705979764462">
        <ele>2838.4299999999998</ele>
        <time>2013-07-28T11:57:52Z</time>
      </trkpt>
      <trkpt lat="45.948487278074026" lon="7.500711008906364">
        <ele>2842.7600000000002</ele>
        <time>2013-07-28T11:57:59Z</time>
      </trkpt>
      <trkpt lat="45.948489038273692" lon="7.50071226619184">
        <ele>2841.79</ele>
        <time>2013-07-28T11:58:00Z</time>
      </trkpt>
      <trkpt lat="45.948489792644978" lon="7.500708745792508">
        <ele>2839.3899999999999</ele>
        <time>2013-07-28T11:58:03Z</time>
      </trkpt>
      <trkpt lat="45.948503036051989" lon="7.500720815733075">
        <ele>2840.3499999999999</ele>
        <time>2013-07-28T11:58:39Z</time>
      </trkpt>
      <trkpt lat="45.948506388813257" lon="7.500748056918383">
        <ele>2839.8699999999999</ele>
        <time>2013-07-28T11:59:11Z</time>
      </trkpt>
      <trkpt lat="45.948498426005244" lon="7.500722073018551">
        <ele>2840.3499999999999</ele>
        <time>2013-07-28T11:59:49Z</time>
      </trkpt>
      <trkpt lat="45.948497923091054" lon="7.500716540962458">
        <ele>2842.2800000000002</ele>
        <time>2013-07-28T12:00:24Z</time>
      </trkpt>
      <trkpt lat="45.948501778766513" lon="7.500732550397515">
        <ele>2842.2800000000002</ele>
        <time>2013-07-28T12:01:00Z</time>
      </trkpt>
      <trkpt lat="45.948493061587214" lon="7.500702710822225">
        <ele>2841.3099999999999</ele>
        <time>2013-07-28T12:01:36Z</time>
      </trkpt>
      <trkpt lat="45.948502030223608" lon="7.500757863745093">
        <ele>2841.79</ele>
        <time>2013-07-28T12:02:16Z</time>
      </trkpt>
      <trkpt lat="45.948481326922774" lon="7.500744871795178">
        <ele>2841.3099999999999</ele>
        <time>2013-07-28T12:02:48Z</time>
      </trkpt>
      <trkpt lat="45.948466490954161" lon="7.500733053311706">
        <ele>2840.3499999999999</ele>
        <time>2013-07-28T12:03:12Z</time>
      </trkpt>
      <trkpt lat="45.948483506217599" lon="7.500765910372138">
        <ele>2842.7600000000002</ele>
        <time>2013-07-28T12:03:46Z</time>
      </trkpt>
      <trkpt lat="45.948459701612592" lon="7.500795666128397">
        <ele>2843.7199999999998</ele>
        <time>2013-07-28T12:04:21Z</time>
      </trkpt>
      <trkpt lat="45.948449643328786" lon="7.500827349722385">
        <ele>2842.7600000000002</ele>
        <time>2013-07-28T12:04:47Z</time>
      </trkpt>
      <trkpt lat="45.948460204526782" lon="7.500824499875307">
        <ele>2843.2399999999998</ele>
        <time>2013-07-28T12:05:27Z</time>
      </trkpt>
      <trkpt lat="45.948461797088385" lon="7.500796169042587">
        <ele>2842.2800000000002</ele>
        <time>2013-07-28T12:05:54Z</time>
      </trkpt>
      <trkpt lat="45.948481746017933" lon="7.500791558995843">
        <ele>2842.2800000000002</ele>
        <time>2013-07-28T12:06:30Z</time>
      </trkpt>
      <trkpt lat="45.948467329144478" lon="7.500788625329733">
        <ele>2842.7600000000002</ele>
        <time>2013-07-28T12:07:02Z</time>
      </trkpt>
      <trkpt lat="45.948468167334795" lon="7.500809412449598">
        <ele>2842.7600000000002</ele>
        <time>2013-07-28T12:07:40Z</time>
      </trkpt>
      <trkpt lat="45.948468251153827" lon="7.50078015960753">
        <ele>2842.7600000000002</ele>
        <time>2013-07-28T12:08:08Z</time>
      </trkpt>
      <trkpt lat="45.948474034667015" lon="7.500790888443589">
        <ele>2846.1199999999999</ele>
        <time>2013-07-28T12:08:19Z</time>
      </trkpt>
      <trkpt lat="45.948469759896398" lon="7.500784350559115">
        <ele>2843.7199999999998</ele>
        <time>2013-07-28T12:08:23Z</time>
      </trkpt>
      <trkpt lat="45.948471184819937" lon="7.500790134072304">
        <ele>2844.1999999999998</ele>
        <time>2013-07-28T12:08:51Z</time>
      </trkpt>
      <trkpt lat="45.948496079072356" lon="7.500807149335742">
        <ele>2842.7600000000002</ele>
        <time>2013-07-28T12:09:20Z</time>
      </trkpt>
      <trkpt lat="45.948474537581205" lon="7.500765742734075">
        <ele>2844.1999999999998</ele>
        <time>2013-07-28T12:09:51Z</time>
      </trkpt>
      <trkpt lat="45.948494235053658" lon="7.500795917585492">
        <ele>2845.6399999999999</ele>
        <time>2013-07-28T12:10:29Z</time>
      </trkpt>
      <trkpt lat="45.94849188812077" lon="7.500774962827563">
        <ele>2844.6799999999998</ele>
        <time>2013-07-28T12:11:04Z</time>
      </trkpt>
      <trkpt lat="45.948489708825946" lon="7.500812513753772">
        <ele>2846.5999999999999</ele>
        <time>2013-07-28T12:11:36Z</time>
      </trkpt>
      <trkpt lat="45.948492726311088" lon="7.500817710533738">
        <ele>2847.5599999999999</ele>
        <time>2013-07-28T12:11:38Z</time>
      </trkpt>
      <trkpt lat="45.948489708825946" lon="7.500837240368128">
        <ele>2844.1999999999998</ele>
        <time>2013-07-28T12:11:57Z</time>
      </trkpt>
      <trkpt lat="45.94848551787436" lon="7.50079725869">
        <ele>2846.5999999999999</ele>
        <time>2013-07-28T12:12:30Z</time>
      </trkpt>
      <trkpt lat="45.948480404913425" lon="7.500798515975475">
        <ele>2842.7600000000002</ele>
        <time>2013-07-28T12:12:50Z</time>
      </trkpt>
      <trkpt lat="45.948481410741806" lon="7.500802539288998">
        <ele>2844.6799999999998</ele>
        <time>2013-07-28T12:12:53Z</time>
      </trkpt>
      <trkpt lat="45.948485434055328" lon="7.500815028324723">
        <ele>2848.52</ele>
        <time>2013-07-28T12:13:00Z</time>
      </trkpt>
      <trkpt lat="45.94848551787436" lon="7.500817123800516">
        <ele>2848.52</ele>
        <time>2013-07-28T12:13:01Z</time>
      </trkpt>
      <trkpt lat="45.948493480682373" lon="7.500824248418212">
        <ele>2845.1599999999999</ele>
        <time>2013-07-28T12:13:13Z</time>
      </trkpt>
      <trkpt lat="45.948484512045979" lon="7.500779321417213">
        <ele>2841.79</ele>
        <time>2013-07-28T12:13:43Z</time>
      </trkpt>
      <trkpt lat="45.948475124314427" lon="7.50076356343925">
        <ele>2845.1599999999999</ele>
        <time>2013-07-28T12:14:15Z</time>
      </trkpt>
      <trkpt lat="45.948483422398567" lon="7.500779321417213">
        <ele>2843.2399999999998</ele>
        <time>2013-07-28T12:14:43Z</time>
      </trkpt>
      <trkpt lat="45.948470011353493" lon="7.500819051638246">
        <ele>2843.7199999999998</ele>
        <time>2013-07-28T12:15:22Z</time>
      </trkpt>
      <trkpt lat="45.948461964726448" lon="7.500801701098681">
        <ele>2844.6799999999998</ele>
        <time>2013-07-28T12:15:57Z</time>
      </trkpt>
      <trkpt lat="45.948479231446981" lon="7.50079583376646">
        <ele>2844.6799999999998</ele>
        <time>2013-07-28T12:16:21Z</time>
      </trkpt>
      <trkpt lat="45.948482500389218" lon="7.500775549560785">
        <ele>2844.1999999999998</ele>
        <time>2013-07-28T12:16:56Z</time>
      </trkpt>
      <trkpt lat="45.948483673855662" lon="7.500762138515711">
        <ele>2842.7600000000002</ele>
        <time>2013-07-28T12:17:29Z</time>
      </trkpt>
      <trkpt lat="45.948501611128449" lon="7.500779991969466">
        <ele>2841.79</ele>
        <time>2013-07-28T12:18:05Z</time>
      </trkpt>
      <trkpt lat="45.948495995253325" lon="7.500782506540418">
        <ele>2842.2800000000002</ele>
        <time>2013-07-28T12:18:40Z</time>
      </trkpt>
      <trkpt lat="45.948493229225278" lon="7.500773537904024">
        <ele>2840.8299999999999</ele>
        <time>2013-07-28T12:18:44Z</time>
      </trkpt>
      <trkpt lat="45.948497420176864" lon="7.500748559832573">
        <ele>2844.1999999999998</ele>
        <time>2013-07-28T12:19:10Z</time>
      </trkpt>
      <trkpt lat="45.948508400470018" lon="7.500773370265961">
        <ele>2846.5999999999999</ele>
        <time>2013-07-28T12:19:20Z</time>
      </trkpt>
      <trkpt lat="45.948503036051989" lon="7.500788373872638">
        <ele>2843.7199999999998</ele>
        <time>2013-07-28T12:19:51Z</time>
      </trkpt>
      <trkpt lat="45.948489876464009" lon="7.500754846259952">
        <ele>2841.79</ele>
        <time>2013-07-28T12:20:23Z</time>
      </trkpt>
      <trkpt lat="45.948527427390218" lon="7.500773202627897">
        <ele>2842.7600000000002</ele>
        <time>2013-07-28T12:20:54Z</time>
      </trkpt>
      <trkpt lat="45.94853631220758" lon="7.500764904543757">
        <ele>2844.1999999999998</ele>
        <time>2013-07-28T12:21:23Z</time>
      </trkpt>
      <trkpt lat="45.948539078235626" lon="7.500771190971136">
        <ele>2844.6799999999998</ele>
        <time>2013-07-28T12:21:25Z</time>
      </trkpt>
      <trkpt lat="45.948541173711419" lon="7.500772112980485">
        <ele>2846.1199999999999</ele>
        <time>2013-07-28T12:21:27Z</time>
      </trkpt>
      <trkpt lat="45.948564223945141" lon="7.50072349794209">
        <ele>2845.1599999999999</ele>
        <time>2013-07-28T12:21:54Z</time>
      </trkpt>
      <trkpt lat="45.948585933074355" lon="7.500714529305697">
        <ele>2844.6799999999998</ele>
        <time>2013-07-28T12:22:16Z</time>
      </trkpt>
      <trkpt lat="45.948573024943471" lon="7.500742692500353">
        <ele>2843.7199999999998</ele>
        <time>2013-07-28T12:22:31Z</time>
      </trkpt>
      <trkpt lat="45.948533797636628" lon="7.500789882615209">
        <ele>2841.3099999999999</ele>
        <time>2013-07-28T12:22:51Z</time>
      </trkpt>
      <trkpt lat="45.948536563664675" lon="7.500791223719716">
        <ele>2845.6399999999999</ele>
        <time>2013-07-28T12:22:53Z</time>
      </trkpt>
      <trkpt lat="45.948531785979867" lon="7.50079533085227">
        <ele>2843.2399999999998</ele>
        <time>2013-07-28T12:22:56Z</time>
      </trkpt>
      <trkpt lat="45.948554081842303" lon="7.500788792967796">
        <ele>2843.7199999999998</ele>
        <time>2013-07-28T12:23:20Z</time>
      </trkpt>
      <trkpt lat="45.948519296944141" lon="7.500769011676312">
        <ele>2845.1599999999999</ele>
        <time>2013-07-28T12:23:37Z</time>
      </trkpt>
      <trkpt lat="45.948536647483706" lon="7.500742692500353">
        <ele>2845.6399999999999</ele>
        <time>2013-07-28T12:23:46Z</time>
      </trkpt>
      <trkpt lat="45.948526421561837" lon="7.500759623944759">
        <ele>2845.1599999999999</ele>
        <time>2013-07-28T12:24:00Z</time>
      </trkpt>
      <trkpt lat="45.948548717424273" lon="7.500731125473976">
        <ele>2844.6799999999998</ele>
        <time>2013-07-28T12:24:11Z</time>
      </trkpt>
      <trkpt lat="45.948552656918764" lon="7.50071226619184">
        <ele>2845.6399999999999</ele>
        <time>2013-07-28T12:24:26Z</time>
      </trkpt>
      <trkpt lat="45.948545029386878" lon="7.500727772712708">
        <ele>2846.1199999999999</ele>
        <time>2013-07-28T12:24:51Z</time>
      </trkpt>
      <trkpt lat="45.948545867577195" lon="7.500722073018551">
        <ele>2847.5599999999999</ele>
        <time>2013-07-28T12:25:11Z</time>
      </trkpt>
      <trkpt lat="45.94855492003262" lon="7.500734142959118">
        <ele>2848.52</ele>
        <time>2013-07-28T12:25:29Z</time>
      </trkpt>
      <trkpt lat="45.948574198409915" lon="7.500795079395175">
        <ele>2847.0799999999999</ele>
        <time>2013-07-28T12:25:33Z</time>
      </trkpt>
      <trkpt lat="45.948591632768512" lon="7.500880658626556">
        <ele>2846.1199999999999</ele>
        <time>2013-07-28T12:25:38Z</time>
      </trkpt>
      <trkpt lat="45.948564391583204" lon="7.500882335007191">
        <ele>2844.1999999999998</ele>
        <time>2013-07-28T12:25:53Z</time>
      </trkpt>
      <trkpt lat="45.948556764051318" lon="7.500888956710696">
        <ele>2843.2399999999998</ele>
        <time>2013-07-28T12:26:14Z</time>
      </trkpt>
      <trkpt lat="45.948577802628279" lon="7.500887867063284">
        <ele>2844.1999999999998</ele>
        <time>2013-07-28T12:26:30Z</time>
      </trkpt>
      <trkpt lat="45.94858082011342" lon="7.500909576192498">
        <ele>2844.1999999999998</ele>
        <time>2013-07-28T12:26:44Z</time>
      </trkpt>
      <trkpt lat="45.948585262522101" lon="7.500913515686989">
        <ele>2842.7600000000002</ele>
        <time>2013-07-28T12:27:08Z</time>
      </trkpt>
      <trkpt lat="45.948586603626609" lon="7.500913264229894">
        <ele>2841.79</ele>
        <time>2013-07-28T12:27:38Z</time>
      </trkpt>
      <trkpt lat="45.948582999408245" lon="7.500895326957107">
        <ele>2842.2800000000002</ele>
        <time>2013-07-28T12:28:13Z</time>
      </trkpt>
      <trkpt lat="45.948571935296059" lon="7.500896416604519">
        <ele>2843.7199999999998</ele>
        <time>2013-07-28T12:28:29Z</time>
      </trkpt>
      <trkpt lat="45.948596075177193" lon="7.500905301421881">
        <ele>2844.6799999999998</ele>
        <time>2013-07-28T12:28:41Z</time>
      </trkpt>
      <trkpt lat="45.948579730466008" lon="7.500907480716705">
        <ele>2845.1599999999999</ele>
        <time>2013-07-28T12:29:00Z</time>
      </trkpt>
      <trkpt lat="45.94858517870307" lon="7.500916952267289">
        <ele>2847.0799999999999</ele>
        <time>2013-07-28T12:29:10Z</time>
      </trkpt>
      <trkpt lat="45.948570175096393" lon="7.500920724123716">
        <ele>2845.6399999999999</ele>
        <time>2013-07-28T12:29:28Z</time>
      </trkpt>
      <trkpt lat="45.948564475402236" lon="7.500912342220545">
        <ele>2844.6799999999998</ele>
        <time>2013-07-28T12:29:45Z</time>
      </trkpt>
      <trkpt lat="45.948565565049648" lon="7.500901026651263">
        <ele>2842.2800000000002</ele>
        <time>2013-07-28T12:29:58Z</time>
      </trkpt>
      <trkpt lat="45.948564726859331" lon="7.500904044136405">
        <ele>2844.1999999999998</ele>
        <time>2013-07-28T12:30:08Z</time>
      </trkpt>
      <trkpt lat="45.94857101328671" lon="7.500914186239243">
        <ele>2843.7199999999998</ele>
        <time>2013-07-28T12:30:13Z</time>
      </trkpt>
      <trkpt lat="45.948593812063336" lon="7.500939415767789">
        <ele>2842.7600000000002</ele>
        <time>2013-07-28T12:30:28Z</time>
      </trkpt>
      <trkpt lat="45.948587106540799" lon="7.500932207331061">
        <ele>2843.7199999999998</ele>
        <time>2013-07-28T12:30:48Z</time>
      </trkpt>
      <trkpt lat="45.948606468737125" lon="7.500927178189158">
        <ele>2842.7600000000002</ele>
        <time>2013-07-28T12:31:08Z</time>
      </trkpt>
      <trkpt lat="45.948578221723437" lon="7.500932961702347">
        <ele>2843.2399999999998</ele>
        <time>2013-07-28T12:31:34Z</time>
      </trkpt>
      <trkpt lat="45.948569672182202" lon="7.50093556009233">
        <ele>2842.7600000000002</ele>
        <time>2013-07-28T12:31:51Z</time>
      </trkpt>
      <trkpt lat="45.948557266965508" lon="7.500887531787157">
        <ele>2844.1999999999998</ele>
        <time>2013-07-28T12:32:02Z</time>
      </trkpt>
      <trkpt lat="45.948555925861001" lon="7.500892980024219">
        <ele>2842.2800000000002</ele>
        <time>2013-07-28T12:32:18Z</time>
      </trkpt>
      <trkpt lat="45.948564810678363" lon="7.500922484323382">
        <ele>2842.2800000000002</ele>
        <time>2013-07-28T12:32:30Z</time>
      </trkpt>
      <trkpt lat="45.948562128469348" lon="7.500914521515369">
        <ele>2843.2399999999998</ele>
        <time>2013-07-28T12:32:44Z</time>
      </trkpt>
      <trkpt lat="45.948583083227277" lon="7.50095508992672">
        <ele>2842.2800000000002</ele>
        <time>2013-07-28T12:32:59Z</time>
      </trkpt>
      <trkpt lat="45.948599679395556" lon="7.500978726893663">
        <ele>2841.3099999999999</ele>
        <time>2013-07-28T12:33:15Z</time>
      </trkpt>
      <trkpt lat="45.948601439595222" lon="7.50098492950201">
        <ele>2841.3099999999999</ele>
        <time>2013-07-28T12:33:29Z</time>
      </trkpt>
      <trkpt lat="45.948604708537459" lon="7.500961292535067">
        <ele>2839.3899999999999</ele>
        <time>2013-07-28T12:33:43Z</time>
      </trkpt>
      <trkpt lat="45.94861451536417" lon="7.500990210101008">
        <ele>2839.8699999999999</ele>
        <time>2013-07-28T12:33:54Z</time>
      </trkpt>
      <trkpt lat="45.94860814511776" lon="7.501018373295665">
        <ele>2841.79</ele>
        <time>2013-07-28T12:34:05Z</time>
      </trkpt>
      <trkpt lat="45.948601858690381" lon="7.501027341932058">
        <ele>2838.4299999999998</ele>
        <time>2013-07-28T12:34:15Z</time>
      </trkpt>
      <trkpt lat="45.948622142896056" lon="7.50102499499917">
        <ele>2836.9899999999998</ele>
        <time>2013-07-28T12:34:27Z</time>
      </trkpt>
      <trkpt lat="45.94863211736083" lon="7.50106455758214">
        <ele>2835.0599999999999</ele>
        <time>2013-07-28T12:34:38Z</time>
      </trkpt>
      <trkpt lat="45.948628261685371" lon="7.501088781282306">
        <ele>2834.5799999999999</ele>
        <time>2013-07-28T12:34:49Z</time>
      </trkpt>
      <trkpt lat="45.948615521192551" lon="7.501147454604507">
        <ele>2833.1399999999999</ele>
        <time>2013-07-28T12:35:03Z</time>
      </trkpt>
      <trkpt lat="45.948567576706409" lon="7.501152399927378">
        <ele>2832.1799999999998</ele>
        <time>2013-07-28T12:35:13Z</time>
      </trkpt>
      <trkpt lat="45.948500940576196" lon="7.501122141256928">
        <ele>2829.3000000000002</ele>
        <time>2013-07-28T12:35:24Z</time>
      </trkpt>
      <trkpt lat="45.948512926697731" lon="7.50113982707262">
        <ele>2828.8200000000002</ele>
        <time>2013-07-28T12:35:28Z</time>
      </trkpt>
      <trkpt lat="45.94855391420424" lon="7.501223143190146">
        <ele>2827.8499999999999</ele>
        <time>2013-07-28T12:35:40Z</time>
      </trkpt>
      <trkpt lat="45.948579395189881" lon="7.501256503164768">
        <ele>2825.9299999999998</ele>
        <time>2013-07-28T12:35:45Z</time>
      </trkpt>
      <trkpt lat="45.948600098490715" lon="7.501286678016186">
        <ele>2825.4499999999998</ele>
        <time>2013-07-28T12:35:48Z</time>
      </trkpt>
      <trkpt lat="45.948667153716087" lon="7.501378711313009">
        <ele>2824.4899999999998</ele>
        <time>2013-07-28T12:36:02Z</time>
      </trkpt>
      <trkpt lat="45.948707973584533" lon="7.501441407948732">
        <ele>2824.4899999999998</ele>
        <time>2013-07-28T12:36:16Z</time>
      </trkpt>
      <trkpt lat="45.948741333559155" lon="7.50146278180182">
        <ele>2824.0100000000002</ele>
        <time>2013-07-28T12:36:31Z</time>
      </trkpt>
      <trkpt lat="45.948753403499722" lon="7.501481473445892">
        <ele>2823.5300000000002</ele>
        <time>2013-07-28T12:36:35Z</time>
      </trkpt>
      <trkpt lat="45.948767988011241" lon="7.501563867554069">
        <ele>2822.5700000000002</ele>
        <time>2013-07-28T12:36:45Z</time>
      </trkpt>
      <trkpt lat="45.948777459561825" lon="7.501588594168425">
        <ele>2821.1300000000001</ele>
        <time>2013-07-28T12:36:47Z</time>
      </trkpt>
      <trkpt lat="45.948782488703728" lon="7.501618601381779">
        <ele>2821.1300000000001</ele>
        <time>2013-07-28T12:36:50Z</time>
      </trkpt>
      <trkpt lat="45.948808891698718" lon="7.501727398484945">
        <ele>2817.7600000000002</ele>
        <time>2013-07-28T12:37:01Z</time>
      </trkpt>
      <trkpt lat="45.948833199217916" lon="7.501863520592451">
        <ele>2817.2800000000002</ele>
        <time>2013-07-28T12:37:13Z</time>
      </trkpt>
      <trkpt lat="45.948816100135446" lon="7.501894449815154">
        <ele>2816.3200000000002</ele>
        <time>2013-07-28T12:37:16Z</time>
      </trkpt>
      <trkpt lat="45.948794558644295" lon="7.502040043473244">
        <ele>2815.8400000000001</ele>
        <time>2013-07-28T12:37:26Z</time>
      </trkpt>
      <trkpt lat="45.948795145377517" lon="7.502076169475913">
        <ele>2815.3600000000001</ele>
        <time>2013-07-28T12:37:28Z</time>
      </trkpt>
      <trkpt lat="45.948798498138785" lon="7.502194689586759">
        <ele>2814.8800000000001</ele>
        <time>2013-07-28T12:37:41Z</time>
      </trkpt>
      <trkpt lat="45.948805371299386" lon="7.502204161137343">
        <ele>2814.8800000000001</ele>
        <time>2013-07-28T12:37:43Z</time>
      </trkpt>
      <trkpt lat="45.948789278045297" lon="7.502273647114635">
        <ele>2814.4000000000001</ele>
        <time>2013-07-28T12:37:50Z</time>
      </trkpt>
      <trkpt lat="45.948775028809905" lon="7.502321843057871">
        <ele>2814.4000000000001</ele>
        <time>2013-07-28T12:37:54Z</time>
      </trkpt>
      <trkpt lat="45.948714511469007" lon="7.502361657097936">
        <ele>2815.8400000000001</ele>
        <time>2013-07-28T12:38:00Z</time>
      </trkpt>
      <trkpt lat="45.948669500648975" lon="7.502422258257866">
        <ele>2816.8000000000002</ele>
        <time>2013-07-28T12:38:06Z</time>
      </trkpt>
      <trkpt lat="45.948631865903735" lon="7.502449750900269">
        <ele>2816.8000000000002</ele>
        <time>2013-07-28T12:38:10Z</time>
      </trkpt>
      <trkpt lat="45.948600685223937" lon="7.502457965165377">
        <ele>2815.8400000000001</ele>
        <time>2013-07-28T12:38:13Z</time>
      </trkpt>
      <trkpt lat="45.948588699102402" lon="7.502496605738998">
        <ele>2814.8800000000001</ele>
        <time>2013-07-28T12:38:17Z</time>
      </trkpt>
      <trkpt lat="45.948559027165174" lon="7.502510771155357">
        <ele>2815.8400000000001</ele>
        <time>2013-07-28T12:38:22Z</time>
      </trkpt>
      <trkpt lat="45.948569672182202" lon="7.502557877451181">
        <ele>2810.0700000000002</ele>
        <time>2013-07-28T12:38:25Z</time>
      </trkpt>
      <trkpt lat="45.948549890890718" lon="7.502565421164036">
        <ele>2810.0700000000002</ele>
        <time>2013-07-28T12:38:27Z</time>
      </trkpt>
      <trkpt lat="45.948507646098733" lon="7.50258662737906">
        <ele>2810.0700000000002</ele>
        <time>2013-07-28T12:38:32Z</time>
      </trkpt>
      <trkpt lat="45.948460204526782" lon="7.502565253525972">
        <ele>2806.71</ele>
        <time>2013-07-28T12:38:37Z</time>
      </trkpt>
      <trkpt lat="45.94845668412745" lon="7.502573048695922">
        <ele>2806.23</ele>
        <time>2013-07-28T12:38:38Z</time>
      </trkpt>
      <trkpt lat="45.948449643328786" lon="7.502614539116621">
        <ele>2805.2600000000002</ele>
        <time>2013-07-28T12:38:41Z</time>
      </trkpt>
      <trkpt lat="45.948452744632959" lon="7.502637756988406">
        <ele>2804.3000000000002</ele>
        <time>2013-07-28T12:38:43Z</time>
      </trkpt>
      <trkpt lat="45.948459869250655" lon="7.502673966810107">
        <ele>2802.8600000000001</ele>
        <time>2013-07-28T12:38:46Z</time>
      </trkpt>
      <trkpt lat="45.948476884514093" lon="7.502699112519622">
        <ele>2801.4200000000001</ele>
        <time>2013-07-28T12:38:49Z</time>
      </trkpt>
      <trkpt lat="45.948474202305079" lon="7.502760887145996">
        <ele>2799.02</ele>
        <time>2013-07-28T12:38:56Z</time>
      </trkpt>
      <trkpt lat="45.948437405750155" lon="7.502819560468197">
        <ele>2796.1300000000001</ele>
        <time>2013-07-28T12:39:03Z</time>
      </trkpt>
      <trkpt lat="45.948432628065348" lon="7.502817716449499">
        <ele>2796.6100000000001</ele>
        <time>2013-07-28T12:39:04Z</time>
      </trkpt>
      <trkpt lat="45.948418714106083" lon="7.502817548811436">
        <ele>2798.0500000000002</ele>
        <time>2013-07-28T12:39:06Z</time>
      </trkpt>
      <trkpt lat="45.94833112321794" lon="7.5028729531914">
        <ele>2795.6500000000001</ele>
        <time>2013-07-28T12:39:20Z</time>
      </trkpt>
      <trkpt lat="45.948274880647659" lon="7.502910839393735">
        <ele>2791.8099999999999</ele>
        <time>2013-07-28T12:39:29Z</time>
      </trkpt>
      <trkpt lat="45.948229366913438" lon="7.502906480804086">
        <ele>2790.3600000000001</ele>
        <time>2013-07-28T12:39:36Z</time>
      </trkpt>
      <trkpt lat="45.948211429640651" lon="7.502876138314605">
        <ele>2788.4400000000001</ele>
        <time>2013-07-28T12:39:40Z</time>
      </trkpt>
      <trkpt lat="45.948142278939486" lon="7.502831462770701">
        <ele>2785.5599999999999</ele>
        <time>2013-07-28T12:39:54Z</time>
      </trkpt>
      <trkpt lat="45.948116546496749" lon="7.502803718671203">
        <ele>2785.5599999999999</ele>
        <time>2013-07-28T12:40:09Z</time>
      </trkpt>
      <trkpt lat="45.9481156244874" lon="7.502828361466527">
        <ele>2784.5999999999999</ele>
        <time>2013-07-28T12:40:11Z</time>
      </trkpt>
      <trkpt lat="45.948072541505098" lon="7.502871109172702">
        <ele>2783.1500000000001</ele>
        <time>2013-07-28T12:40:20Z</time>
      </trkpt>
      <trkpt lat="45.947969108819962" lon="7.502901619300246">
        <ele>2785.0799999999999</ele>
        <time>2013-07-28T12:40:33Z</time>
      </trkpt>
      <trkpt lat="45.947834746912122" lon="7.502892483025789">
        <ele>2784.1199999999999</ele>
        <time>2013-07-28T12:40:49Z</time>
      </trkpt>
      <trkpt lat="45.94775796867907" lon="7.502876976504922">
        <ele>2782.6700000000001</ele>
        <time>2013-07-28T12:41:01Z</time>
      </trkpt>
      <trkpt lat="45.947715137153864" lon="7.502848142758012">
        <ele>2780.27</ele>
        <time>2013-07-28T12:41:07Z</time>
      </trkpt>
      <trkpt lat="45.947664175182581" lon="7.502827355638146">
        <ele>2782.6700000000001</ele>
        <time>2013-07-28T12:41:14Z</time>
      </trkpt>
      <trkpt lat="45.947650847956538" lon="7.50282509252429">
        <ele>2778.3499999999999</ele>
        <time>2013-07-28T12:41:16Z</time>
      </trkpt>
      <trkpt lat="45.947644980624318" lon="7.502823332324624">
        <ele>2779.3099999999999</ele>
        <time>2013-07-28T12:41:17Z</time>
      </trkpt>
      <trkpt lat="45.947611620649695" lon="7.502817632630467">
        <ele>2777.8699999999999</ele>
        <time>2013-07-28T12:41:22Z</time>
      </trkpt>
      <trkpt lat="45.947592845186591" lon="7.502832468599081">
        <ele>2774.5</ele>
        <time>2013-07-28T12:41:26Z</time>
      </trkpt>
      <trkpt lat="45.947586391121149" lon="7.502830792218447">
        <ele>2774.98</ele>
        <time>2013-07-28T12:41:27Z</time>
      </trkpt>
      <trkpt lat="45.947543391957879" lon="7.502798940986395">
        <ele>2770.6599999999999</ele>
        <time>2013-07-28T12:41:36Z</time>
      </trkpt>
      <trkpt lat="45.947543224319816" lon="7.502799779176712">
        <ele>2770.6599999999999</ele>
        <time>2013-07-28T12:41:37Z</time>
      </trkpt>
      <trkpt lat="45.947500476613641" lon="7.502796342596412">
        <ele>2766.8099999999999</ele>
        <time>2013-07-28T12:41:45Z</time>
      </trkpt>
      <trkpt lat="45.947492681443691" lon="7.50278745777905">
        <ele>2762.4899999999998</ele>
        <time>2013-07-28T12:41:48Z</time>
      </trkpt>
      <trkpt lat="45.947469966486096" lon="7.502788128331304">
        <ele>2765.3699999999999</ele>
        <time>2013-07-28T12:41:59Z</time>
      </trkpt>
      <trkpt lat="45.947425039485097" lon="7.502773962914944">
        <ele>2763.9299999999998</ele>
        <time>2013-07-28T12:42:09Z</time>
      </trkpt>
      <trkpt lat="45.947425039485097" lon="7.502782763913274">
        <ele>2764.8899999999999</ele>
        <time>2013-07-28T12:42:11Z</time>
      </trkpt>
      <trkpt lat="45.947424117475748" lon="7.502812268212438">
        <ele>2762.9699999999998</ele>
        <time>2013-07-28T12:42:14Z</time>
      </trkpt>
      <trkpt lat="45.947370305657387" lon="7.502807155251503">
        <ele>2760.0799999999999</ele>
        <time>2013-07-28T12:42:23Z</time>
      </trkpt>
      <trkpt lat="45.94736116938293" lon="7.502792989835143">
        <ele>2759.5999999999999</ele>
        <time>2013-07-28T12:42:25Z</time>
      </trkpt>
      <trkpt lat="45.947334179654717" lon="7.502789217978716">
        <ele>2759.1199999999999</ele>
        <time>2013-07-28T12:42:28Z</time>
      </trkpt>
      <trkpt lat="45.947302496060729" lon="7.502838000655174">
        <ele>2757.6799999999998</ele>
        <time>2013-07-28T12:42:32Z</time>
      </trkpt>
      <trkpt lat="45.94727274030447" lon="7.502820147201419">
        <ele>2755.7600000000002</ele>
        <time>2013-07-28T12:42:35Z</time>
      </trkpt>
      <trkpt lat="45.94721901230514" lon="7.502785278484225">
        <ele>2757.6799999999998</ele>
        <time>2013-07-28T12:42:41Z</time>
      </trkpt>
      <trkpt lat="45.94718917272985" lon="7.502651168033481">
        <ele>2754.8000000000002</ele>
        <time>2013-07-28T12:42:50Z</time>
      </trkpt>
      <trkpt lat="45.947175091132522" lon="7.50262669287622">
        <ele>2753.8299999999999</ele>
        <time>2013-07-28T12:42:52Z</time>
      </trkpt>
      <trkpt lat="45.947157153859735" lon="7.502593919634819">
        <ele>2752.3899999999999</ele>
        <time>2013-07-28T12:42:54Z</time>
      </trkpt>
      <trkpt lat="45.947139551863074" lon="7.502563996240497">
        <ele>2752.3899999999999</ele>
        <time>2013-07-28T12:42:56Z</time>
      </trkpt>
      <trkpt lat="45.947105269879103" lon="7.502537174150348">
        <ele>2750.9499999999998</ele>
        <time>2013-07-28T12:42:59Z</time>
      </trkpt>
      <trkpt lat="45.94704014249146" lon="7.5024722982198">
        <ele>2749.0300000000002</ele>
        <time>2013-07-28T12:43:05Z</time>
      </trkpt>
      <trkpt lat="45.946915671229362" lon="7.502348497509956">
        <ele>2745.6599999999999</ele>
        <time>2013-07-28T12:43:15Z</time>
      </trkpt>
      <trkpt lat="45.946812238544226" lon="7.502235593274236">
        <ele>2742.3000000000002</ele>
        <time>2013-07-28T12:43:24Z</time>
      </trkpt>
      <trkpt lat="45.946678798645735" lon="7.5020906701684">
        <ele>2739.4099999999999</ele>
        <time>2013-07-28T12:43:36Z</time>
      </trkpt>
      <trkpt lat="45.946661280468106" lon="7.502063764259219">
        <ele>2738.9299999999998</ele>
        <time>2013-07-28T12:43:38Z</time>
      </trkpt>
      <trkpt lat="45.946656838059425" lon="7.501984471455216">
        <ele>2737.4899999999998</ele>
        <time>2013-07-28T12:43:42Z</time>
      </trkpt>
      <trkpt lat="45.946645271033049" lon="7.501964941620827">
        <ele>2738.9299999999998</ele>
        <time>2013-07-28T12:43:43Z</time>
      </trkpt>
      <trkpt lat="45.94661601819098" lon="7.501952201128006">
        <ele>2739.4099999999999</ele>
        <time>2013-07-28T12:43:46Z</time>
      </trkpt>
      <trkpt lat="45.946582909673452" lon="7.501919930800796">
        <ele>2738.4499999999998</ele>
        <time>2013-07-28T12:43:50Z</time>
      </trkpt>
      <trkpt lat="45.946577377617359" lon="7.501906855031848">
        <ele>2738.4499999999998</ele>
        <time>2013-07-28T12:43:51Z</time>
      </trkpt>
      <trkpt lat="45.946570001542568" lon="7.501895036548376">
        <ele>2738.9299999999998</ele>
        <time>2013-07-28T12:43:52Z</time>
      </trkpt>
      <trkpt lat="45.946552818641067" lon="7.501894449815154">
        <ele>2738.4499999999998</ele>
        <time>2013-07-28T12:43:55Z</time>
      </trkpt>
      <trkpt lat="45.946541419252753" lon="7.501893024891615">
        <ele>2738.9299999999998</ele>
        <time>2013-07-28T12:43:56Z</time>
      </trkpt>
      <trkpt lat="45.946529600769281" lon="7.50189227052033">
        <ele>2738.9299999999998</ele>
        <time>2013-07-28T12:43:57Z</time>
      </trkpt>
      <trkpt lat="45.946516273543239" lon="7.501891767606139">
        <ele>2738.9299999999998</ele>
        <time>2013-07-28T12:43:58Z</time>
      </trkpt>
      <trkpt lat="45.946502611041069" lon="7.501889923587441">
        <ele>2738.9299999999998</ele>
        <time>2013-07-28T12:43:59Z</time>
      </trkpt>
      <trkpt lat="45.946491463109851" lon="7.50188740901649">
        <ele>2738.4499999999998</ele>
        <time>2013-07-28T12:44:00Z</time>
      </trkpt>
      <trkpt lat="45.9464440215379" lon="7.501862933859229">
        <ele>2738.4499999999998</ele>
        <time>2013-07-28T12:44:09Z</time>
      </trkpt>
      <trkpt lat="45.946431113407016" lon="7.501851618289948">
        <ele>2738.9299999999998</ele>
        <time>2013-07-28T12:44:10Z</time>
      </trkpt>
      <trkpt lat="45.94641862437129" lon="7.501842984929681">
        <ele>2738.4499999999998</ele>
        <time>2013-07-28T12:44:11Z</time>
      </trkpt>
      <trkpt lat="45.946283005177975" lon="7.501676771789789">
        <ele>2739.4099999999999</ele>
        <time>2013-07-28T12:44:26Z</time>
      </trkpt>
      <trkpt lat="45.946196923032403" lon="7.501532938331366">
        <ele>2741.8200000000002</ele>
        <time>2013-07-28T12:44:40Z</time>
      </trkpt>
      <trkpt lat="45.946053089573979" lon="7.501357337459922">
        <ele>2740.8600000000001</ele>
        <time>2013-07-28T12:44:55Z</time>
      </trkpt>
      <trkpt lat="45.94592853449285" lon="7.501219706609845">
        <ele>2738.4499999999998</ele>
        <time>2013-07-28T12:45:08Z</time>
      </trkpt>
      <trkpt lat="45.945794172585011" lon="7.501040082424879">
        <ele>2736.0500000000002</ele>
        <time>2013-07-28T12:45:23Z</time>
      </trkpt>
      <trkpt lat="45.945780007168651" lon="7.501010745763779">
        <ele>2734.6100000000001</ele>
        <time>2013-07-28T12:45:25Z</time>
      </trkpt>
      <trkpt lat="45.945685710757971" lon="7.500848975032568">
        <ele>2733.6500000000001</ele>
        <time>2013-07-28T12:45:38Z</time>
      </trkpt>
      <trkpt lat="45.945609351620078" lon="7.50074696727097">
        <ele>2732.6799999999998</ele>
        <time>2013-07-28T12:45:46Z</time>
      </trkpt>
      <trkpt lat="45.94559334218502" lon="7.500703129917383">
        <ele>2731.2399999999998</ele>
        <time>2013-07-28T12:45:49Z</time>
      </trkpt>
      <trkpt lat="45.945583954453468" lon="7.500670859590173">
        <ele>2730.2800000000002</ele>
        <time>2013-07-28T12:45:51Z</time>
      </trkpt>
      <trkpt lat="45.945581523701549" lon="7.500650491565466">
        <ele>2729.3200000000002</ele>
        <time>2013-07-28T12:45:52Z</time>
      </trkpt>
      <trkpt lat="45.945575321093202" lon="7.500635320320725">
        <ele>2729.3200000000002</ele>
        <time>2013-07-28T12:45:53Z</time>
      </trkpt>
      <trkpt lat="45.94557230360806" lon="7.500614197924733">
        <ele>2729.3200000000002</ele>
        <time>2013-07-28T12:45:54Z</time>
      </trkpt>
      <trkpt lat="45.945568196475506" lon="7.5005969312042">
        <ele>2728.8400000000001</ele>
        <time>2013-07-28T12:45:55Z</time>
      </trkpt>
      <trkpt lat="45.945561323314905" lon="7.500581592321396">
        <ele>2728.3600000000001</ele>
        <time>2013-07-28T12:45:56Z</time>
      </trkpt>
      <trkpt lat="45.945479599758983" lon="7.500399453565478">
        <ele>2725.96</ele>
        <time>2013-07-28T12:46:09Z</time>
      </trkpt>
      <trkpt lat="45.945433499291539" lon="7.500293338671327">
        <ele>2726.9200000000001</ele>
        <time>2013-07-28T12:46:17Z</time>
      </trkpt>
      <trkpt lat="45.945421848446131" lon="7.500259811058641">
        <ele>2725.96</ele>
        <time>2013-07-28T12:46:19Z</time>
      </trkpt>
      <trkpt lat="45.945415142923594" lon="7.500242292881012">
        <ele>2726.4400000000001</ele>
        <time>2013-07-28T12:46:20Z</time>
      </trkpt>
      <trkpt lat="45.945295449346304" lon="7.499997625127435">
        <ele>2726.4400000000001</ele>
        <time>2013-07-28T12:46:37Z</time>
      </trkpt>
      <trkpt lat="45.945184556767344" lon="7.499773325398564">
        <ele>2726.9200000000001</ele>
        <time>2013-07-28T12:46:52Z</time>
      </trkpt>
      <trkpt lat="45.945099731907248" lon="7.499625468626618">
        <ele>2724.5100000000002</ele>
        <time>2013-07-28T12:47:02Z</time>
      </trkpt>
      <trkpt lat="45.945024294778705" lon="7.499538967385888">
        <ele>2724.5100000000002</ele>
        <time>2013-07-28T12:47:10Z</time>
      </trkpt>
      <trkpt lat="45.944989761337638" lon="7.499519940465689">
        <ele>2724.0300000000002</ele>
        <time>2013-07-28T12:47:13Z</time>
      </trkpt>
      <trkpt lat="45.944981127977371" lon="7.499505188316107">
        <ele>2722.5900000000001</ele>
        <time>2013-07-28T12:47:14Z</time>
      </trkpt>
      <trkpt lat="45.944975847378373" lon="7.499486748129129">
        <ele>2723.0700000000002</ele>
        <time>2013-07-28T12:47:15Z</time>
      </trkpt>
      <trkpt lat="45.944908373057842" lon="7.49942715279758">
        <ele>2720.6700000000001</ele>
        <time>2013-07-28T12:47:27Z</time>
      </trkpt>
      <trkpt lat="45.944901835173368" lon="7.499419776722789">
        <ele>2719.23</ele>
        <time>2013-07-28T12:47:29Z</time>
      </trkpt>
      <trkpt lat="45.944894878193736" lon="7.499444670975208">
        <ele>2718.75</ele>
        <time>2013-07-28T12:47:32Z</time>
      </trkpt>
      <trkpt lat="45.944883897900581" lon="7.499434361234307">
        <ele>2718.75</ele>
        <time>2013-07-28T12:47:33Z</time>
      </trkpt>
      <trkpt lat="45.944856991991401" lon="7.49942765571177">
        <ele>2717.3000000000002</ele>
        <time>2013-07-28T12:47:36Z</time>
      </trkpt>
      <trkpt lat="45.944844167679548" lon="7.499428242444992">
        <ele>2716.8200000000002</ele>
        <time>2013-07-28T12:47:37Z</time>
      </trkpt>
      <trkpt lat="45.944834025576711" lon="7.49943251721561">
        <ele>2716.8200000000002</ele>
        <time>2013-07-28T12:47:38Z</time>
      </trkpt>
      <trkpt lat="45.944824637845159" lon="7.499441485852003">
        <ele>2716.8200000000002</ele>
        <time>2013-07-28T12:47:39Z</time>
      </trkpt>
      <trkpt lat="45.944814076647162" lon="7.499454310163856">
        <ele>2716.3400000000001</ele>
        <time>2013-07-28T12:47:40Z</time>
      </trkpt>
      <trkpt lat="45.944768143817782" lon="7.499560257419944">
        <ele>2714.9000000000001</ele>
        <time>2013-07-28T12:47:47Z</time>
      </trkpt>
      <trkpt lat="45.944611569866538" lon="7.499540392309427">
        <ele>2716.3400000000001</ele>
        <time>2013-07-28T12:47:59Z</time>
      </trkpt>
      <trkpt lat="45.944595811888576" lon="7.499533016234636">
        <ele>2716.3400000000001</ele>
        <time>2013-07-28T12:48:01Z</time>
      </trkpt>
      <trkpt lat="45.944582400843501" lon="7.499515749514103">
        <ele>2716.8200000000002</ele>
        <time>2013-07-28T12:48:03Z</time>
      </trkpt>
      <trkpt lat="45.944483075290918" lon="7.499438971281052">
        <ele>2716.3400000000001</ele>
        <time>2013-07-28T12:48:12Z</time>
      </trkpt>
      <trkpt lat="45.944310072809458" lon="7.499381052330136">
        <ele>2717.3000000000002</ele>
        <time>2013-07-28T12:48:28Z</time>
      </trkpt>
      <trkpt lat="45.944287022575736" lon="7.499381471425295">
        <ele>2717.7800000000002</ele>
        <time>2013-07-28T12:48:30Z</time>
      </trkpt>
      <trkpt lat="45.944234300404787" lon="7.499359175562859">
        <ele>2716.8200000000002</ele>
        <time>2013-07-28T12:48:35Z</time>
      </trkpt>
      <trkpt lat="45.944197587668896" lon="7.49932112172246">
        <ele>2716.8200000000002</ele>
        <time>2013-07-28T12:48:39Z</time>
      </trkpt>
      <trkpt lat="45.944144111126661" lon="7.499294718727469">
        <ele>2715.8600000000001</ele>
        <time>2013-07-28T12:48:44Z</time>
      </trkpt>
      <trkpt lat="45.94408736564219" lon="7.499306788668037">
        <ele>2715.3800000000001</ele>
        <time>2013-07-28T12:48:51Z</time>
      </trkpt>
      <trkpt lat="45.944082420319319" lon="7.499338975176215">
        <ele>2713.9400000000001</ele>
        <time>2013-07-28T12:48:53Z</time>
      </trkpt>
      <trkpt lat="45.944047048687935" lon="7.499353894963861">
        <ele>2713.9400000000001</ele>
        <time>2013-07-28T12:48:57Z</time>
      </trkpt>
      <trkpt lat="45.944015197455883" lon="7.499355152249336">
        <ele>2713.46</ele>
        <time>2013-07-28T12:49:00Z</time>
      </trkpt>
      <trkpt lat="45.94397203065455" lon="7.499382058158517">
        <ele>2711.0599999999999</ele>
        <time>2013-07-28T12:49:04Z</time>
      </trkpt>
      <trkpt lat="45.943936742842197" lon="7.499399911612272">
        <ele>2710.5700000000002</ele>
        <time>2013-07-28T12:49:08Z</time>
      </trkpt>
      <trkpt lat="45.943876979872584" lon="7.499448359012604">
        <ele>2709.6100000000001</ele>
        <time>2013-07-28T12:49:14Z</time>
      </trkpt>
      <trkpt lat="45.943850660696626" lon="7.499454477801919">
        <ele>2709.6100000000001</ele>
        <time>2013-07-28T12:49:16Z</time>
      </trkpt>
      <trkpt lat="45.943748317658901" lon="7.499352218583226">
        <ele>2706.25</ele>
        <time>2013-07-28T12:49:26Z</time>
      </trkpt>
      <trkpt lat="45.943728033453226" lon="7.499346854165196">
        <ele>2705.29</ele>
        <time>2013-07-28T12:49:28Z</time>
      </trkpt>
      <trkpt lat="45.943589899688959" lon="7.499290192499757">
        <ele>2702.8800000000001</ele>
        <time>2013-07-28T12:49:42Z</time>
      </trkpt>
      <trkpt lat="45.943583194166422" lon="7.499279715120792">
        <ele>2702.8800000000001</ele>
        <time>2013-07-28T12:49:43Z</time>
      </trkpt>
      <trkpt lat="45.943516390398145" lon="7.499230345711112">
        <ele>2700.48</ele>
        <time>2013-07-28T12:49:55Z</time>
      </trkpt>
      <trkpt lat="45.943509349599481" lon="7.499233111739159">
        <ele>2699.52</ele>
        <time>2013-07-28T12:49:56Z</time>
      </trkpt>
      <trkpt lat="45.943436091765761" lon="7.499191788956523">
        <ele>2698.5599999999999</ele>
        <time>2013-07-28T12:50:05Z</time>
      </trkpt>
      <trkpt lat="45.943398624658585" lon="7.499036807566881">
        <ele>2695.6700000000001</ele>
        <time>2013-07-28T12:50:15Z</time>
      </trkpt>
      <trkpt lat="45.943388566374779" lon="7.499005291610956">
        <ele>2694.71</ele>
        <time>2013-07-28T12:50:17Z</time>
      </trkpt>
      <trkpt lat="45.943338861688972" lon="7.498938571661711">
        <ele>2691.3499999999999</ele>
        <time>2013-07-28T12:50:25Z</time>
      </trkpt>
      <trkpt lat="45.943288654088974" lon="7.498850394040346">
        <ele>2689.4299999999998</ele>
        <time>2013-07-28T12:50:34Z</time>
      </trkpt>
      <trkpt lat="45.943272477015853" lon="7.498838575556874">
        <ele>2688.9400000000001</ele>
        <time>2013-07-28T12:50:36Z</time>
      </trkpt>
      <trkpt lat="45.943264933302999" lon="7.498808903619647">
        <ele>2687.5</ele>
        <time>2013-07-28T12:50:38Z</time>
      </trkpt>
      <trkpt lat="45.943239452317357" lon="7.498837234452367">
        <ele>2686.54</ele>
        <time>2013-07-28T12:50:46Z</time>
      </trkpt>
      <trkpt lat="45.943175330758095" lon="7.498813681304455">
        <ele>2684.6199999999999</ele>
        <time>2013-07-28T12:51:00Z</time>
      </trkpt>
      <trkpt lat="45.943139120936394" lon="7.49880320392549">
        <ele>2681.25</ele>
        <time>2013-07-28T12:51:12Z</time>
      </trkpt>
      <trkpt lat="45.943102408200502" lon="7.498767580837011">
        <ele>2679.3299999999999</ele>
        <time>2013-07-28T12:51:19Z</time>
      </trkpt>
      <trkpt lat="45.943073993548751" lon="7.498772609978914">
        <ele>2677.4099999999999</ele>
        <time>2013-07-28T12:51:30Z</time>
      </trkpt>
      <trkpt lat="45.943050608038902" lon="7.498763557523489">
        <ele>2675.9699999999998</ele>
        <time>2013-07-28T12:51:34Z</time>
      </trkpt>
      <trkpt lat="45.943033089861274" lon="7.498729778453708">
        <ele>2674.52</ele>
        <time>2013-07-28T12:51:37Z</time>
      </trkpt>
      <trkpt lat="45.943038538098335" lon="7.498594913631678">
        <ele>2671.1599999999999</ele>
        <time>2013-07-28T12:51:47Z</time>
      </trkpt>
      <trkpt lat="45.943011380732059" lon="7.498547052964568">
        <ele>2670.6799999999998</ele>
        <time>2013-07-28T12:51:52Z</time>
      </trkpt>
      <trkpt lat="45.942984139546752" lon="7.498496510088444">
        <ele>2668.7600000000002</ele>
        <time>2013-07-28T12:52:04Z</time>
      </trkpt>
      <trkpt lat="45.942980870604515" lon="7.498501371592283">
        <ele>2669.2399999999998</ele>
        <time>2013-07-28T12:52:05Z</time>
      </trkpt>
      <trkpt lat="45.942963184788823" lon="7.498491145670414">
        <ele>2667.3099999999999</ele>
        <time>2013-07-28T12:52:08Z</time>
      </trkpt>
      <trkpt lat="45.942963184788823" lon="7.498473292216659">
        <ele>2665.8699999999999</ele>
        <time>2013-07-28T12:52:10Z</time>
      </trkpt>
      <trkpt lat="45.942940972745419" lon="7.498471029102802">
        <ele>2665.3899999999999</ele>
        <time>2013-07-28T12:52:15Z</time>
      </trkpt>
      <trkpt lat="45.942887160927057" lon="7.498411098495126">
        <ele>2662.0300000000002</ele>
        <time>2013-07-28T12:52:27Z</time>
      </trkpt>
      <trkpt lat="45.942856734618545" lon="7.498350078240037">
        <ele>2659.6199999999999</ele>
        <time>2013-07-28T12:52:36Z</time>
      </trkpt>
      <trkpt lat="45.942843407392502" lon="7.498278580605984">
        <ele>2660.5900000000001</ele>
        <time>2013-07-28T12:52:46Z</time>
      </trkpt>
      <trkpt lat="45.942836031317711" lon="7.498252596706152">
        <ele>2658.6599999999999</ele>
        <time>2013-07-28T12:52:49Z</time>
      </trkpt>
      <trkpt lat="45.942800994962454" lon="7.498265588656068">
        <ele>2656.7399999999998</ele>
        <time>2013-07-28T12:53:02Z</time>
      </trkpt>
      <trkpt lat="45.942775849252939" lon="7.498277071863413">
        <ele>2653.3800000000001</ele>
        <time>2013-07-28T12:53:12Z</time>
      </trkpt>
      <trkpt lat="45.942772161215544" lon="7.498286291956902">
        <ele>2652.9000000000001</ele>
        <time>2013-07-28T12:53:13Z</time>
      </trkpt>
      <trkpt lat="45.942731592804193" lon="7.498261062428355">
        <ele>2650.4899999999998</ele>
        <time>2013-07-28T12:53:19Z</time>
      </trkpt>
      <trkpt lat="45.942726144567132" lon="7.498345887288451">
        <ele>2648.5700000000002</ele>
        <time>2013-07-28T12:53:35Z</time>
      </trkpt>
      <trkpt lat="45.942734610289335" lon="7.498363489285111">
        <ele>2647.6100000000001</ele>
        <time>2013-07-28T12:53:37Z</time>
      </trkpt>
      <trkpt lat="45.942732263356447" lon="7.498365249484778">
        <ele>2648.5700000000002</ele>
        <time>2013-07-28T12:53:39Z</time>
      </trkpt>
      <trkpt lat="45.94267182983458" lon="7.498376648873091">
        <ele>2646.6500000000001</ele>
        <time>2013-07-28T12:53:50Z</time>
      </trkpt>
      <trkpt lat="45.9426449239254" lon="7.49835167080164">
        <ele>2645.21</ele>
        <time>2013-07-28T12:54:01Z</time>
      </trkpt>
      <trkpt lat="45.942623382434249" lon="7.498310850933194">
        <ele>2643.2800000000002</ele>
        <time>2013-07-28T12:54:12Z</time>
      </trkpt>
      <trkpt lat="45.942596392706037" lon="7.498238766565919">
        <ele>2642.8000000000002</ele>
        <time>2013-07-28T12:54:22Z</time>
      </trkpt>
      <trkpt lat="45.942572420462966" lon="7.498266845941544">
        <ele>2640.4000000000001</ele>
        <time>2013-07-28T12:54:33Z</time>
      </trkpt>
      <trkpt lat="45.9425413236022" lon="7.498255530372262">
        <ele>2638.96</ele>
        <time>2013-07-28T12:54:45Z</time>
      </trkpt>
      <trkpt lat="45.942553309723735" lon="7.498206915333867">
        <ele>2637.5100000000002</ele>
        <time>2013-07-28T12:54:55Z</time>
      </trkpt>
      <trkpt lat="45.942564038559794" lon="7.498188056051731">
        <ele>2637.5100000000002</ele>
        <time>2013-07-28T12:55:05Z</time>
      </trkpt>
      <trkpt lat="45.942557165399194" lon="7.498178752139211">
        <ele>2637.0300000000002</ele>
        <time>2013-07-28T12:55:14Z</time>
      </trkpt>
      <trkpt lat="45.942525900900364" lon="7.498182272538543">
        <ele>2633.6700000000001</ele>
        <time>2013-07-28T12:55:23Z</time>
      </trkpt>
      <trkpt lat="45.942496145144105" lon="7.498198784887791">
        <ele>2632.71</ele>
        <time>2013-07-28T12:55:35Z</time>
      </trkpt>
      <trkpt lat="45.942474436014891" lon="7.498207082971931">
        <ele>2630.79</ele>
        <time>2013-07-28T12:55:40Z</time>
      </trkpt>
      <trkpt lat="45.94242406077683" lon="7.498190067708492">
        <ele>2628.3800000000001</ele>
        <time>2013-07-28T12:55:53Z</time>
      </trkpt>
      <trkpt lat="45.942405620589852" lon="7.498151427134872">
        <ele>2625.98</ele>
        <time>2013-07-28T12:56:04Z</time>
      </trkpt>
      <trkpt lat="45.942382905632257" lon="7.49814061447978">
        <ele>2623.5799999999999</ele>
        <time>2013-07-28T12:56:15Z</time>
      </trkpt>
      <trkpt lat="45.942379049956799" lon="7.498123599216342">
        <ele>2622.6100000000001</ele>
        <time>2013-07-28T12:56:17Z</time>
      </trkpt>
      <trkpt lat="45.942388689145446" lon="7.498076912015677">
        <ele>2621.6500000000001</ele>
        <time>2013-07-28T12:56:23Z</time>
      </trkpt>
      <trkpt lat="45.942393047735095" lon="7.498048665001988">
        <ele>2620.6900000000001</ele>
        <time>2013-07-28T12:56:25Z</time>
      </trkpt>
      <trkpt lat="45.942398076876998" lon="7.498010108247399">
        <ele>2619.73</ele>
        <time>2013-07-28T12:56:38Z</time>
      </trkpt>
      <trkpt lat="45.942390952259302" lon="7.4980135448277">
        <ele>2620.21</ele>
        <time>2013-07-28T12:56:39Z</time>
      </trkpt>
      <trkpt lat="45.942353568971157" lon="7.498017065227032">
        <ele>2617.3299999999999</ele>
        <time>2013-07-28T12:56:43Z</time>
      </trkpt>
      <trkpt lat="45.942298751324415" lon="7.498007928952575">
        <ele>2614.4400000000001</ele>
        <time>2013-07-28T12:56:55Z</time>
      </trkpt>
      <trkpt lat="45.94229212962091" lon="7.497996529564261">
        <ele>2613.48</ele>
        <time>2013-07-28T12:56:57Z</time>
      </trkpt>
      <trkpt lat="45.94228969886899" lon="7.497983034700155">
        <ele>2614.9200000000001</ele>
        <time>2013-07-28T12:56:59Z</time>
      </trkpt>
      <trkpt lat="45.942290369421244" lon="7.497968031093478">
        <ele>2613.96</ele>
        <time>2013-07-28T12:57:03Z</time>
      </trkpt>
      <trkpt lat="45.942308809608221" lon="7.497923523187637">
        <ele>2613</ele>
        <time>2013-07-28T12:57:15Z</time>
      </trkpt>
      <trkpt lat="45.942309815436602" lon="7.497899634763598">
        <ele>2611.0799999999999</ele>
        <time>2013-07-28T12:57:20Z</time>
      </trkpt>
      <trkpt lat="45.942320208996534" lon="7.497851774096489">
        <ele>2609.6399999999999</ele>
        <time>2013-07-28T12:57:31Z</time>
      </trkpt>
      <trkpt lat="45.942291878163815" lon="7.497845068573952">
        <ele>2606.75</ele>
        <time>2013-07-28T12:57:44Z</time>
      </trkpt>
      <trkpt lat="45.942296823486686" lon="7.497809361666441">
        <ele>2605.3099999999999</ele>
        <time>2013-07-28T12:57:50Z</time>
      </trkpt>
      <trkpt lat="45.942285675555468" lon="7.497786311432719">
        <ele>2605.3099999999999</ele>
        <time>2013-07-28T12:58:01Z</time>
      </trkpt>
      <trkpt lat="45.942264050245285" lon="7.497788909822702">
        <ele>2602.4299999999998</ele>
        <time>2013-07-28T12:58:14Z</time>
      </trkpt>
      <trkpt lat="45.942227421328425" lon="7.497802320867777">
        <ele>2600.5</ele>
        <time>2013-07-28T12:58:25Z</time>
      </trkpt>
      <trkpt lat="45.942168245092034" lon="7.49778782017529">
        <ele>2598.5799999999999</ele>
        <time>2013-07-28T12:58:38Z</time>
      </trkpt>
      <trkpt lat="45.942130107432604" lon="7.49779025092721">
        <ele>2596.6599999999999</ele>
        <time>2013-07-28T12:58:44Z</time>
      </trkpt>
      <trkpt lat="45.942111164331436" lon="7.497772062197328">
        <ele>2593.77</ele>
        <time>2013-07-28T12:58:56Z</time>
      </trkpt>
      <trkpt lat="45.942106721922755" lon="7.49776678159833">
        <ele>2592.8099999999999</ele>
        <time>2013-07-28T12:58:57Z</time>
      </trkpt>
      <trkpt lat="45.942098256200552" lon="7.497689081355929">
        <ele>2590.8899999999999</ele>
        <time>2013-07-28T12:59:11Z</time>
      </trkpt>
      <trkpt lat="45.94208400696516" lon="7.497654128819704">
        <ele>2589.9299999999998</ele>
        <time>2013-07-28T12:59:22Z</time>
      </trkpt>
      <trkpt lat="45.942099178209901" lon="7.497614985331893">
        <ele>2588.0100000000002</ele>
        <time>2013-07-28T12:59:32Z</time>
      </trkpt>
      <trkpt lat="45.942087443545461" lon="7.497592940926552">
        <ele>2586.0799999999999</ele>
        <time>2013-07-28T12:59:44Z</time>
      </trkpt>
      <trkpt lat="45.942077217623591" lon="7.497620349749923">
        <ele>2584.6399999999999</ele>
        <time>2013-07-28T12:59:56Z</time>
      </trkpt>
      <trkpt lat="45.942063890397549" lon="7.497617667540908">
        <ele>2584.6399999999999</ele>
        <time>2013-07-28T12:59:57Z</time>
      </trkpt>
      <trkpt lat="45.942026423290372" lon="7.497626300901175">
        <ele>2583.6799999999998</ele>
        <time>2013-07-28T13:00:08Z</time>
      </trkpt>
      <trkpt lat="45.942014437168837" lon="7.497640969231725">
        <ele>2580.8000000000002</ele>
        <time>2013-07-28T13:00:19Z</time>
      </trkpt>
      <trkpt lat="45.941984178498387" lon="7.497653542086482">
        <ele>2579.8400000000001</ele>
        <time>2013-07-28T13:00:24Z</time>
      </trkpt>
      <trkpt lat="45.941950650885701" lon="7.497641472145915">
        <ele>2578.3899999999999</ele>
        <time>2013-07-28T13:00:27Z</time>
      </trkpt>
      <trkpt lat="45.941938161849976" lon="7.497587995603681">
        <ele>2575.9899999999998</ele>
        <time>2013-07-28T13:00:37Z</time>
      </trkpt>
      <trkpt lat="45.941911088302732" lon="7.497553797438741">
        <ele>2574.5500000000002</ele>
        <time>2013-07-28T13:00:48Z</time>
      </trkpt>
      <trkpt lat="45.941900946199894" lon="7.49751758761704">
        <ele>2572.6300000000001</ele>
        <time>2013-07-28T13:01:02Z</time>
      </trkpt>
      <trkpt lat="45.941881584003568" lon="7.497502751648426">
        <ele>2570.6999999999998</ele>
        <time>2013-07-28T13:01:13Z</time>
      </trkpt>
      <trkpt lat="45.941855683922768" lon="7.497540637850761">
        <ele>2568.7800000000002</ele>
        <time>2013-07-28T13:01:25Z</time>
      </trkpt>
      <trkpt lat="45.941833471879363" lon="7.497579529881477">
        <ele>2567.3400000000001</ele>
        <time>2013-07-28T13:01:34Z</time>
      </trkpt>
      <trkpt lat="45.941784605383873" lon="7.497567543759942">
        <ele>2566.3800000000001</ele>
        <time>2013-07-28T13:01:45Z</time>
      </trkpt>
      <trkpt lat="45.941801788285375" lon="7.497556395828724">
        <ele>2567.3400000000001</ele>
        <time>2013-07-28T13:02:10Z</time>
      </trkpt>
      <trkpt lat="45.941793406382203" lon="7.497576931491494">
        <ele>2565.9000000000001</ele>
        <time>2013-07-28T13:02:22Z</time>
      </trkpt>
      <trkpt lat="45.941747138276696" lon="7.497558575123549">
        <ele>2563.0100000000002</ele>
        <time>2013-07-28T13:02:36Z</time>
      </trkpt>
      <trkpt lat="45.941736493259668" lon="7.497510462999344">
        <ele>2561.0900000000001</ele>
        <time>2013-07-28T13:02:47Z</time>
      </trkpt>
      <trkpt lat="45.941778486594558" lon="7.497478108853102">
        <ele>2559.6500000000001</ele>
        <time>2013-07-28T13:02:59Z</time>
      </trkpt>
      <trkpt lat="45.941788293421268" lon="7.497475259006023">
        <ele>2558.6900000000001</ele>
        <time>2013-07-28T13:03:12Z</time>
      </trkpt>
      <trkpt lat="45.941786365583539" lon="7.497451454401016">
        <ele>2558.6900000000001</ele>
        <time>2013-07-28T13:03:24Z</time>
      </trkpt>
      <trkpt lat="45.941750658676028" lon="7.497442569583654">
        <ele>2556.7600000000002</ele>
        <time>2013-07-28T13:03:37Z</time>
      </trkpt>
      <trkpt lat="45.941751496866345" lon="7.497423542663455">
        <ele>2555.3200000000002</ele>
        <time>2013-07-28T13:03:40Z</time>
      </trkpt>
      <trkpt lat="45.941752586513758" lon="7.497389428317547">
        <ele>2554.3600000000001</ele>
        <time>2013-07-28T13:03:44Z</time>
      </trkpt>
      <trkpt lat="45.941771194338799" lon="7.497375514358282">
        <ele>2554.3600000000001</ele>
        <time>2013-07-28T13:03:55Z</time>
      </trkpt>
      <trkpt lat="45.941765243187547" lon="7.49738272279501">
        <ele>2555.3200000000002</ele>
        <time>2013-07-28T13:04:00Z</time>
      </trkpt>
      <trkpt lat="45.941743366420269" lon="7.497389847412705">
        <ele>2553.4000000000001</ele>
        <time>2013-07-28T13:04:03Z</time>
      </trkpt>
      <trkpt lat="45.941745461896062" lon="7.49732899479568">
        <ele>2553.4000000000001</ele>
        <time>2013-07-28T13:04:13Z</time>
      </trkpt>
      <trkpt lat="45.941748227924109" lon="7.497299909591675">
        <ele>2551</ele>
        <time>2013-07-28T13:04:25Z</time>
      </trkpt>
      <trkpt lat="45.941745545715094" lon="7.497318936511874">
        <ele>2551</ele>
        <time>2013-07-28T13:04:38Z</time>
      </trkpt>
      <trkpt lat="45.941711515188217" lon="7.49734366312623">
        <ele>2547.6300000000001</ele>
        <time>2013-07-28T13:04:50Z</time>
      </trkpt>
      <trkpt lat="45.94167698174715" lon="7.497378699481487">
        <ele>2545.23</ele>
        <time>2013-07-28T13:05:06Z</time>
      </trkpt>
      <trkpt lat="45.941633312031627" lon="7.497350284829736">
        <ele>2543.79</ele>
        <time>2013-07-28T13:05:20Z</time>
      </trkpt>
      <trkpt lat="45.941610345616937" lon="7.497378615662456">
        <ele>2542.3400000000001</ele>
        <time>2013-07-28T13:05:30Z</time>
      </trkpt>
      <trkpt lat="45.941615207120776" lon="7.497384399175644">
        <ele>2541.3800000000001</ele>
        <time>2013-07-28T13:05:34Z</time>
      </trkpt>
      <trkpt lat="45.941635491326451" lon="7.497340645641089">
        <ele>2540.9000000000001</ele>
        <time>2013-07-28T13:05:56Z</time>
      </trkpt>
      <trkpt lat="45.941641358658671" lon="7.497332012280822">
        <ele>2540.4200000000001</ele>
        <time>2013-07-28T13:06:23Z</time>
      </trkpt>
      <trkpt lat="45.941619817167521" lon="7.497334945946932">
        <ele>2540.9000000000001</ele>
        <time>2013-07-28T13:06:38Z</time>
      </trkpt>
      <trkpt lat="45.941631468012929" lon="7.497376520186663">
        <ele>2540.4200000000001</ele>
        <time>2013-07-28T13:06:58Z</time>
      </trkpt>
      <trkpt lat="45.941638257354498" lon="7.497386494651437">
        <ele>2541.3800000000001</ele>
        <time>2013-07-28T13:07:13Z</time>
      </trkpt>
      <trkpt lat="45.94163591042161" lon="7.497394373640418">
        <ele>2540.4200000000001</ele>
        <time>2013-07-28T13:07:31Z</time>
      </trkpt>
      <trkpt lat="45.941611686721444" lon="7.497401665896177">
        <ele>2540.9000000000001</ele>
        <time>2013-07-28T13:07:53Z</time>
      </trkpt>
      <trkpt lat="45.941608585417271" lon="7.497399905696511">
        <ele>2539.9400000000001</ele>
        <time>2013-07-28T13:07:55Z</time>
      </trkpt>
      <trkpt lat="45.941594420000911" lon="7.497404012829065">
        <ele>2539.9400000000001</ele>
        <time>2013-07-28T13:08:18Z</time>
      </trkpt>
      <trkpt lat="45.941605484113097" lon="7.497389847412705">
        <ele>2538.5</ele>
        <time>2013-07-28T13:08:26Z</time>
      </trkpt>
      <trkpt lat="45.941599449142814" lon="7.497382555156946">
        <ele>2538.5</ele>
        <time>2013-07-28T13:08:42Z</time>
      </trkpt>
      <trkpt lat="45.941603556275368" lon="7.497400660067797">
        <ele>2540.9000000000001</ele>
        <time>2013-07-28T13:09:09Z</time>
      </trkpt>
      <trkpt lat="45.941574973985553" lon="7.497365456074476">
        <ele>2539.46</ele>
        <time>2013-07-28T13:09:36Z</time>
      </trkpt>
      <trkpt lat="45.941581008955836" lon="7.497355816885829">
        <ele>2540.9000000000001</ele>
        <time>2013-07-28T13:09:56Z</time>
      </trkpt>
      <trkpt lat="45.941587379202247" lon="7.497358582913876">
        <ele>2540.9000000000001</ele>
        <time>2013-07-28T13:10:16Z</time>
      </trkpt>
      <trkpt lat="45.941588636487722" lon="7.497381465509534">
        <ele>2541.8600000000001</ele>
        <time>2013-07-28T13:10:36Z</time>
      </trkpt>
      <trkpt lat="45.941580589860678" lon="7.497356990352273">
        <ele>2540.9000000000001</ele>
        <time>2013-07-28T13:10:49Z</time>
      </trkpt>
      <trkpt lat="45.941580506041646" lon="7.49732312746346">
        <ele>2538.98</ele>
        <time>2013-07-28T13:11:00Z</time>
      </trkpt>
      <trkpt lat="45.941575476899743" lon="7.497262945398688">
        <ele>2537.0599999999999</ele>
        <time>2013-07-28T13:11:11Z</time>
      </trkpt>
      <trkpt lat="45.941571034491062" lon="7.497200248762965">
        <ele>2534.1700000000001</ele>
        <time>2013-07-28T13:11:21Z</time>
      </trkpt>
      <trkpt lat="45.941574722528458" lon="7.49716336838901">
        <ele>2532.73</ele>
        <time>2013-07-28T13:11:25Z</time>
      </trkpt>
      <trkpt lat="45.941560976207256" lon="7.497081141918898">
        <ele>2529.3699999999999</ele>
        <time>2013-07-28T13:11:36Z</time>
      </trkpt>
      <trkpt lat="45.941555108875036" lon="7.497068149968982">
        <ele>2528.8899999999999</ele>
        <time>2013-07-28T13:11:37Z</time>
      </trkpt>
      <trkpt lat="45.941499704495072" lon="7.496989024803042">
        <ele>2525.52</ele>
        <time>2013-07-28T13:11:48Z</time>
      </trkpt>
      <trkpt lat="45.94150448217988" lon="7.496903948485851">
        <ele>2524.0799999999999</ele>
        <time>2013-07-28T13:11:57Z</time>
      </trkpt>
      <trkpt lat="45.941496854647994" lon="7.496867906302214">
        <ele>2521.6799999999998</ele>
        <time>2013-07-28T13:12:01Z</time>
      </trkpt>
      <trkpt lat="45.941488891839981" lon="7.49686480499804">
        <ele>2521.6799999999998</ele>
        <time>2013-07-28T13:12:02Z</time>
      </trkpt>
      <trkpt lat="45.941461818292737" lon="7.496851142495871">
        <ele>2518.3099999999999</ele>
        <time>2013-07-28T13:12:05Z</time>
      </trkpt>
      <trkpt lat="45.941451173275709" lon="7.496842844411731">
        <ele>2520.23</ele>
        <time>2013-07-28T13:12:07Z</time>
      </trkpt>
      <trkpt lat="45.941444300115108" lon="7.496840078383684">
        <ele>2519.75</ele>
        <time>2013-07-28T13:12:08Z</time>
      </trkpt>
      <trkpt lat="45.941327456384897" lon="7.496820380911231">
        <ele>2518.3099999999999</ele>
        <time>2013-07-28T13:12:21Z</time>
      </trkpt>
      <trkpt lat="45.941272890195251" lon="7.496762713417411">
        <ele>2516.8699999999999</ele>
        <time>2013-07-28T13:12:32Z</time>
      </trkpt>
      <trkpt lat="45.941258976235986" lon="7.496749050915241">
        <ele>2515.9099999999999</ele>
        <time>2013-07-28T13:12:36Z</time>
      </trkpt>
      <trkpt lat="45.941244391724467" lon="7.496688617393374">
        <ele>2515.4299999999998</ele>
        <time>2013-07-28T13:12:45Z</time>
      </trkpt>
      <trkpt lat="45.941208098083735" lon="7.496673781424761">
        <ele>2513.5</ele>
        <time>2013-07-28T13:12:53Z</time>
      </trkpt>
      <trkpt lat="45.941195273771882" lon="7.496660873293877">
        <ele>2514.4699999999998</ele>
        <time>2013-07-28T13:13:07Z</time>
      </trkpt>
      <trkpt lat="45.941184880211949" lon="7.496656514704227">
        <ele>2514.4699999999998</ele>
        <time>2013-07-28T13:13:21Z</time>
      </trkpt>
      <trkpt lat="45.941157136112452" lon="7.49664444476366">
        <ele>2514.4699999999998</ele>
        <time>2013-07-28T13:13:33Z</time>
      </trkpt>
      <trkpt lat="45.941163673996925" lon="7.496633715927601">
        <ele>2513.98</ele>
        <time>2013-07-28T13:13:37Z</time>
      </trkpt>
      <trkpt lat="45.941153950989246" lon="7.496693395078182">
        <ele>2513.98</ele>
        <time>2013-07-28T13:13:49Z</time>
      </trkpt>
      <trkpt lat="45.941150765866041" lon="7.496731448918581">
        <ele>2513.02</ele>
        <time>2013-07-28T13:14:07Z</time>
      </trkpt>
      <trkpt lat="45.941118327900767" lon="7.496748799458146">
        <ele>2512.54</ele>
        <time>2013-07-28T13:14:17Z</time>
      </trkpt>
      <trkpt lat="45.941112041473389" lon="7.496769921854138">
        <ele>2511.5799999999999</ele>
        <time>2013-07-28T13:14:26Z</time>
      </trkpt>
      <trkpt lat="45.9410544577986" lon="7.496765227988362">
        <ele>2510.6199999999999</ele>
        <time>2013-07-28T13:14:39Z</time>
      </trkpt>
      <trkpt lat="45.941020511090755" lon="7.496752319857478">
        <ele>2510.1399999999999</ele>
        <time>2013-07-28T13:14:51Z</time>
      </trkpt>
      <trkpt lat="45.941007016226649" lon="7.496765814721584">
        <ele>2508.2199999999998</ele>
        <time>2013-07-28T13:15:07Z</time>
      </trkpt>
      <trkpt lat="45.940915821120143" lon="7.496768916025758">
        <ele>2506.29</ele>
        <time>2013-07-28T13:15:20Z</time>
      </trkpt>
      <trkpt lat="45.940909869968891" lon="7.496769083663821">
        <ele>2508.2199999999998</ele>
        <time>2013-07-28T13:15:21Z</time>
      </trkpt>
      <trkpt lat="45.940884556621313" lon="7.496768077835441">
        <ele>2506.29</ele>
        <time>2013-07-28T13:15:25Z</time>
      </trkpt>
      <trkpt lat="45.940868044272065" lon="7.496768496930599">
        <ele>2504.8499999999999</ele>
        <time>2013-07-28T13:15:27Z</time>
      </trkpt>
      <trkpt lat="45.940816244110465" lon="7.496802276000381">
        <ele>2503.4099999999999</ele>
        <time>2013-07-28T13:15:34Z</time>
      </trkpt>
      <trkpt lat="45.940773831680417" lon="7.496815016493201">
        <ele>2501.9699999999998</ele>
        <time>2013-07-28T13:15:44Z</time>
      </trkpt>
      <trkpt lat="45.940730161964893" lon="7.496834713965654">
        <ele>2502.9299999999998</ele>
        <time>2013-07-28T13:15:49Z</time>
      </trkpt>
      <trkpt lat="45.940717421472073" lon="7.49684770591557">
        <ele>2502.9299999999998</ele>
        <time>2013-07-28T13:15:52Z</time>
      </trkpt>
      <trkpt lat="45.940714990720153" lon="7.496870085597038">
        <ele>2501.9699999999998</ele>
        <time>2013-07-28T13:15:54Z</time>
      </trkpt>
      <trkpt lat="45.940636536106467" lon="7.496885843575001">
        <ele>2499.5700000000002</ele>
        <time>2013-07-28T13:16:01Z</time>
      </trkpt>
      <trkpt lat="45.940565960481763" lon="7.496914593502879">
        <ele>2497.1599999999999</ele>
        <time>2013-07-28T13:16:13Z</time>
      </trkpt>
      <trkpt lat="45.940546849742532" lon="7.496912414208055">
        <ele>2497.1599999999999</ele>
        <time>2013-07-28T13:16:18Z</time>
      </trkpt>
      <trkpt lat="45.940438723191619" lon="7.496907385066152">
        <ele>2495.7199999999998</ele>
        <time>2013-07-28T13:16:29Z</time>
      </trkpt>
      <trkpt lat="45.940414918586612" lon="7.496909648180008">
        <ele>2497.1599999999999</ele>
        <time>2013-07-28T13:16:32Z</time>
      </trkpt>
      <trkpt lat="45.940370075404644" lon="7.496898667886853">
        <ele>2494.7600000000002</ele>
        <time>2013-07-28T13:16:39Z</time>
      </trkpt>
      <trkpt lat="45.940366303548217" lon="7.496900847181678">
        <ele>2495.2399999999998</ele>
        <time>2013-07-28T13:16:49Z</time>
      </trkpt>
      <trkpt lat="45.940369153395295" lon="7.49691266566515">
        <ele>2496.6799999999998</ele>
        <time>2013-07-28T13:17:11Z</time>
      </trkpt>
      <trkpt lat="45.94036839902401" lon="7.496908642351627">
        <ele>2495.7199999999998</ele>
        <time>2013-07-28T13:17:17Z</time>
      </trkpt>
      <trkpt lat="45.940364710986614" lon="7.496908223256469">
        <ele>2493.3200000000002</ele>
        <time>2013-07-28T13:17:18Z</time>
      </trkpt>
      <trkpt lat="45.940366722643375" lon="7.496912581846118">
        <ele>2494.2800000000002</ele>
        <time>2013-07-28T13:17:22Z</time>
      </trkpt>
      <trkpt lat="45.940366638824344" lon="7.496920796111226">
        <ele>2495.2399999999998</ele>
        <time>2013-07-28T13:17:23Z</time>
      </trkpt>
      <trkpt lat="45.940347863361239" lon="7.496905205771327">
        <ele>2497.1599999999999</ele>
        <time>2013-07-28T13:17:31Z</time>
      </trkpt>
      <trkpt lat="45.940350377932191" lon="7.496896404772997">
        <ele>2494.7600000000002</ele>
        <time>2013-07-28T13:17:34Z</time>
      </trkpt>
      <trkpt lat="45.940317017957568" lon="7.496905289590359">
        <ele>2496.1999999999998</ele>
        <time>2013-07-28T13:17:48Z</time>
      </trkpt>
      <trkpt lat="45.940308133140206" lon="7.496916856616736">
        <ele>2494.7600000000002</ele>
        <time>2013-07-28T13:17:52Z</time>
      </trkpt>
      <trkpt lat="45.940260021016002" lon="7.496919203549624">
        <ele>2494.2800000000002</ele>
        <time>2013-07-28T13:18:02Z</time>
      </trkpt>
      <trkpt lat="45.940202102065086" lon="7.496954156085849">
        <ele>2491.3899999999999</ele>
        <time>2013-07-28T13:18:14Z</time>
      </trkpt>
      <trkpt lat="45.94017150811851" lon="7.496970584616065">
        <ele>2490.9099999999999</ele>
        <time>2013-07-28T13:18:17Z</time>
      </trkpt>
      <trkpt lat="45.940141920000315" lon="7.497008135542274">
        <ele>2492.3600000000001</ele>
        <time>2013-07-28T13:18:21Z</time>
      </trkpt>
      <trkpt lat="45.940118031576276" lon="7.497018864378333">
        <ele>2492.3600000000001</ele>
        <time>2013-07-28T13:18:23Z</time>
      </trkpt>
      <trkpt lat="45.94009917229414" lon="7.497049290686846">
        <ele>2492.8400000000001</ele>
        <time>2013-07-28T13:18:26Z</time>
      </trkpt>
      <trkpt lat="45.94005080871284" lon="7.497089691460133">
        <ele>2490.4299999999998</ele>
        <time>2013-07-28T13:18:37Z</time>
      </trkpt>
      <trkpt lat="45.940031865611672" lon="7.497097067534924">
        <ele>2491.3899999999999</ele>
        <time>2013-07-28T13:18:38Z</time>
      </trkpt>
      <trkpt lat="45.940011916682124" lon="7.497131936252117">
        <ele>2491.8699999999999</ele>
        <time>2013-07-28T13:18:40Z</time>
      </trkpt>
      <trkpt lat="45.939916362985969" lon="7.497227992862463">
        <ele>2492.8400000000001</ele>
        <time>2013-07-28T13:18:55Z</time>
      </trkpt>
      <trkpt lat="45.939827682450414" lon="7.497253641486168">
        <ele>2491.3899999999999</ele>
        <time>2013-07-28T13:19:06Z</time>
      </trkpt>
      <trkpt lat="45.939812259748578" lon="7.4972571618855">
        <ele>2490.9099999999999</ele>
        <time>2013-07-28T13:19:09Z</time>
      </trkpt>
      <trkpt lat="45.93977227807045" lon="7.497290438041091">
        <ele>2488.9899999999998</ele>
        <time>2013-07-28T13:19:16Z</time>
      </trkpt>
      <trkpt lat="45.939721986651421" lon="7.497351039201021">
        <ele>2488.9899999999998</ele>
        <time>2013-07-28T13:19:23Z</time>
      </trkpt>
      <trkpt lat="45.939603550359607" lon="7.497523538768292">
        <ele>2487.0700000000002</ele>
        <time>2013-07-28T13:19:39Z</time>
      </trkpt>
      <trkpt lat="45.939505146816373" lon="7.497680950909853">
        <ele>2486.1100000000001</ele>
        <time>2013-07-28T13:19:53Z</time>
      </trkpt>
      <trkpt lat="45.939417220652103" lon="7.497785137966275">
        <ele>2486.1100000000001</ele>
        <time>2013-07-28T13:20:04Z</time>
      </trkpt>
      <trkpt lat="45.939283696934581" lon="7.498014885932207">
        <ele>2485.1500000000001</ele>
        <time>2013-07-28T13:20:21Z</time>
      </trkpt>
      <trkpt lat="45.939160399138927" lon="7.498208256438375">
        <ele>2484.6599999999999</ele>
        <time>2013-07-28T13:20:37Z</time>
      </trkpt>
      <trkpt lat="45.939052272588015" lon="7.498414451256394">
        <ele>2485.6300000000001</ele>
        <time>2013-07-28T13:20:52Z</time>
      </trkpt>
      <trkpt lat="45.939005920663476" lon="7.498501036316156">
        <ele>2485.1500000000001</ele>
        <time>2013-07-28T13:20:58Z</time>
      </trkpt>
      <trkpt lat="45.939009860157967" lon="7.498515788465738">
        <ele>2485.1500000000001</ele>
        <time>2013-07-28T13:20:59Z</time>
      </trkpt>
      <trkpt lat="45.939009105786681" lon="7.498557530343533">
        <ele>2483.2199999999998</ele>
        <time>2013-07-28T13:21:06Z</time>
      </trkpt>
      <trkpt lat="45.938997957855463" lon="7.498550489544869">
        <ele>2484.1799999999998</ele>
        <time>2013-07-28T13:21:07Z</time>
      </trkpt>
      <trkpt lat="45.93898463062942" lon="7.498547388240695">
        <ele>2483.6999999999998</ele>
        <time>2013-07-28T13:21:08Z</time>
      </trkpt>
      <trkpt lat="45.938961831852794" lon="7.498568426817656">
        <ele>2482.2600000000002</ele>
        <time>2013-07-28T13:21:10Z</time>
      </trkpt>
      <trkpt lat="45.938947582617402" lon="7.498589046299458">
        <ele>2483.6999999999998</ele>
        <time>2013-07-28T13:21:11Z</time>
      </trkpt>
      <trkpt lat="45.938870469108224" lon="7.498754505068064">
        <ele>2483.6999999999998</ele>
        <time>2013-07-28T13:21:23Z</time>
      </trkpt>
      <trkpt lat="45.938814897090197" lon="7.498916024342179">
        <ele>2482.7399999999998</ele>
        <time>2013-07-28T13:21:36Z</time>
      </trkpt>
      <trkpt lat="45.938771897926927" lon="7.49903479591012">
        <ele>2482.7399999999998</ele>
        <time>2013-07-28T13:21:49Z</time>
      </trkpt>
      <trkpt lat="45.938747674226761" lon="7.499036053195596">
        <ele>2482.2600000000002</ele>
        <time>2013-07-28T13:21:51Z</time>
      </trkpt>
      <trkpt lat="45.938722528517246" lon="7.499066982418299">
        <ele>2483.2199999999998</ele>
        <time>2013-07-28T13:21:55Z</time>
      </trkpt>
      <trkpt lat="45.938704507425427" lon="7.499108891934156">
        <ele>2483.6999999999998</ele>
        <time>2013-07-28T13:21:58Z</time>
      </trkpt>
      <trkpt lat="45.938699478283525" lon="7.499124063178897">
        <ele>2483.2199999999998</ele>
        <time>2013-07-28T13:21:59Z</time>
      </trkpt>
      <trkpt lat="45.938638374209404" lon="7.499250965192914">
        <ele>2481.7800000000002</ele>
        <time>2013-07-28T13:22:10Z</time>
      </trkpt>
      <trkpt lat="45.938597219064832" lon="7.499448023736477">
        <ele>2480.8200000000002</ele>
        <time>2013-07-28T13:22:24Z</time>
      </trkpt>
      <trkpt lat="45.938590513542295" lon="7.499479204416275">
        <ele>2482.2600000000002</ele>
        <time>2013-07-28T13:22:26Z</time>
      </trkpt>
      <trkpt lat="45.938592273741961" lon="7.499497393146157">
        <ele>2482.2600000000002</ele>
        <time>2013-07-28T13:22:27Z</time>
      </trkpt>
      <trkpt lat="45.938588669523597" lon="7.499604010954499">
        <ele>2481.7800000000002</ele>
        <time>2013-07-28T13:22:34Z</time>
      </trkpt>
      <trkpt lat="45.938552627339959" lon="7.49974231235683">
        <ele>2480.8200000000002</ele>
        <time>2013-07-28T13:22:42Z</time>
      </trkpt>
      <trkpt lat="45.938491187989712" lon="7.499889079481363">
        <ele>2480.3400000000001</ele>
        <time>2013-07-28T13:22:52Z</time>
      </trkpt>
      <trkpt lat="45.938487835228443" lon="7.499918919056654">
        <ele>2479.3800000000001</ele>
        <time>2013-07-28T13:22:54Z</time>
      </trkpt>
      <trkpt lat="45.938469562679529" lon="7.499957391992211">
        <ele>2479.3800000000001</ele>
        <time>2013-07-28T13:22:58Z</time>
      </trkpt>
      <trkpt lat="45.938474424183369" lon="7.49997440725565">
        <ele>2479.8600000000001</ele>
        <time>2013-07-28T13:23:00Z</time>
      </trkpt>
      <trkpt lat="45.938476603478193" lon="7.49999494291842">
        <ele>2480.3400000000001</ele>
        <time>2013-07-28T13:23:01Z</time>
      </trkpt>
      <trkpt lat="45.938423210754991" lon="7.500094519928098">
        <ele>2480.8200000000002</ele>
        <time>2013-07-28T13:23:09Z</time>
      </trkpt>
      <trkpt lat="45.938380965963006" lon="7.500222930684686">
        <ele>2481.3000000000002</ele>
        <time>2013-07-28T13:23:18Z</time>
      </trkpt>
      <trkpt lat="45.938374008983374" lon="7.500298283994198">
        <ele>2481.7800000000002</ele>
        <time>2013-07-28T13:23:24Z</time>
      </trkpt>
      <trkpt lat="45.938361100852489" lon="7.500382270663977">
        <ele>2481.7800000000002</ele>
        <time>2013-07-28T13:23:30Z</time>
      </trkpt>
      <trkpt lat="45.938352970406413" lon="7.500469610095024">
        <ele>2482.7399999999998</ele>
        <time>2013-07-28T13:23:41Z</time>
      </trkpt>
      <trkpt lat="45.938336960971355" lon="7.500586956739426">
        <ele>2482.7399999999998</ele>
        <time>2013-07-28T13:23:53Z</time>
      </trkpt>
      <trkpt lat="45.938308797776699" lon="7.500692149624229">
        <ele>2482.7399999999998</ele>
        <time>2013-07-28T13:24:05Z</time>
      </trkpt>
      <trkpt lat="45.938227074220777" lon="7.500789044424892">
        <ele>2479.8600000000001</ele>
        <time>2013-07-28T13:24:15Z</time>
      </trkpt>
      <trkpt lat="45.938215255737305" lon="7.500789295881987">
        <ele>2479.3800000000001</ele>
        <time>2013-07-28T13:24:21Z</time>
      </trkpt>
      <trkpt lat="45.938208634033799" lon="7.500806814059615">
        <ele>2480.8200000000002</ele>
        <time>2013-07-28T13:24:23Z</time>
      </trkpt>
      <trkpt lat="45.938201509416103" lon="7.500810083001852">
        <ele>2481.7800000000002</ele>
        <time>2013-07-28T13:24:25Z</time>
      </trkpt>
      <trkpt lat="45.938199581578374" lon="7.500768760219216">
        <ele>2482.7399999999998</ele>
        <time>2013-07-28T13:24:38Z</time>
      </trkpt>
      <trkpt lat="45.938212238252163" lon="7.500767251476646">
        <ele>2481.3000000000002</ele>
        <time>2013-07-28T13:24:55Z</time>
      </trkpt>
      <trkpt lat="45.938201509416103" lon="7.50080362893641">
        <ele>2480.8200000000002</ele>
        <time>2013-07-28T13:25:11Z</time>
      </trkpt>
      <trkpt lat="45.938204945996404" lon="7.500790804624558">
        <ele>2480.8200000000002</ele>
        <time>2013-07-28T13:25:23Z</time>
      </trkpt>
      <trkpt lat="45.938222883269191" lon="7.500785943120718">
        <ele>2481.7800000000002</ele>
        <time>2013-07-28T13:25:39Z</time>
      </trkpt>
      <trkpt lat="45.938211567699909" lon="7.500763898715377">
        <ele>2480.8200000000002</ele>
        <time>2013-07-28T13:25:57Z</time>
      </trkpt>
      <trkpt lat="45.938214669004083" lon="7.50076943077147">
        <ele>2482.7399999999998</ele>
        <time>2013-07-28T13:26:13Z</time>
      </trkpt>
      <trkpt lat="45.938210226595402" lon="7.500768005847931">
        <ele>2481.3000000000002</ele>
        <time>2013-07-28T13:26:33Z</time>
      </trkpt>
      <trkpt lat="45.938192708417773" lon="7.500760294497013">
        <ele>2479.8600000000001</ele>
        <time>2013-07-28T13:27:00Z</time>
      </trkpt>
      <trkpt lat="45.938210058957338" lon="7.500779824331403">
        <ele>2481.3000000000002</ele>
        <time>2013-07-28T13:27:16Z</time>
      </trkpt>
      <trkpt lat="45.938231348991394" lon="7.500824918970466">
        <ele>2477.9400000000001</ele>
        <time>2013-07-28T13:27:27Z</time>
      </trkpt>
      <trkpt lat="45.938233276829123" lon="7.500859871506691">
        <ele>2479.3800000000001</ele>
        <time>2013-07-28T13:27:32Z</time>
      </trkpt>
      <trkpt lat="45.93823654577136" lon="7.500870181247592">
        <ele>2478.9000000000001</ele>
        <time>2013-07-28T13:27:33Z</time>
      </trkpt>
      <trkpt lat="45.93824434094131" lon="7.500893231481314">
        <ele>2476.4899999999998</ele>
        <time>2013-07-28T13:27:35Z</time>
      </trkpt>
      <trkpt lat="45.938240569084883" lon="7.500951737165451">
        <ele>2476.0100000000002</ele>
        <time>2013-07-28T13:27:39Z</time>
      </trkpt>
      <trkpt lat="45.938234953209758" lon="7.500966656953096">
        <ele>2476.4899999999998</ele>
        <time>2013-07-28T13:27:40Z</time>
      </trkpt>
      <trkpt lat="45.938237635418773" lon="7.50099029392004">
        <ele>2475.0500000000002</ele>
        <time>2013-07-28T13:27:41Z</time>
      </trkpt>
      <trkpt lat="45.93823503702879" lon="7.501035640016198">
        <ele>2476.9699999999998</ele>
        <time>2013-07-28T13:27:44Z</time>
      </trkpt>
      <trkpt lat="45.938222799450159" lon="7.501071430742741">
        <ele>2477.4499999999998</ele>
        <time>2013-07-28T13:27:46Z</time>
      </trkpt>
      <trkpt lat="45.938215255737305" lon="7.501135719940066">
        <ele>2476.0100000000002</ele>
        <time>2013-07-28T13:27:52Z</time>
      </trkpt>
      <trkpt lat="45.938182733952999" lon="7.501250887289643">
        <ele>2476.9699999999998</ele>
        <time>2013-07-28T13:28:05Z</time>
      </trkpt>
      <trkpt lat="45.938138477504253" lon="7.501304028555751">
        <ele>2477.4499999999998</ele>
        <time>2013-07-28T13:28:12Z</time>
      </trkpt>
      <trkpt lat="45.938130179420114" lon="7.501323390752077">
        <ele>2478.9000000000001</ele>
        <time>2013-07-28T13:28:14Z</time>
      </trkpt>
      <trkpt lat="45.93810704536736" lon="7.501397486776114">
        <ele>2476.9699999999998</ele>
        <time>2013-07-28T13:28:21Z</time>
      </trkpt>
      <trkpt lat="45.938100172206759" lon="7.501409891992807">
        <ele>2479.3800000000001</ele>
        <time>2013-07-28T13:28:22Z</time>
      </trkpt>
      <trkpt lat="45.938053485006094" lon="7.501544840633869">
        <ele>2478.9000000000001</ele>
        <time>2013-07-28T13:28:32Z</time>
      </trkpt>
      <trkpt lat="45.938024064525962" lon="7.501604519784451">
        <ele>2477.4499999999998</ele>
        <time>2013-07-28T13:28:36Z</time>
      </trkpt>
      <trkpt lat="45.937943598255515" lon="7.501727566123009">
        <ele>2476.0100000000002</ele>
        <time>2013-07-28T13:28:51Z</time>
      </trkpt>
      <trkpt lat="45.937887188047171" lon="7.501813229173422">
        <ele>2475.5300000000002</ele>
        <time>2013-07-28T13:29:01Z</time>
      </trkpt>
      <trkpt lat="45.937882326543331" lon="7.501824125647545">
        <ele>2477.4499999999998</ele>
        <time>2013-07-28T13:29:03Z</time>
      </trkpt>
      <trkpt lat="45.937891378998756" lon="7.501854049041867">
        <ele>2477.9400000000001</ele>
        <time>2013-07-28T13:29:06Z</time>
      </trkpt>
      <trkpt lat="45.937881404533982" lon="7.50187810510397">
        <ele>2476.4899999999998</ele>
        <time>2013-07-28T13:29:08Z</time>
      </trkpt>
      <trkpt lat="45.937847709283233" lon="7.501975251361728">
        <ele>2475.5300000000002</ele>
        <time>2013-07-28T13:29:19Z</time>
      </trkpt>
      <trkpt lat="45.93782901763916" lon="7.502036606892943">
        <ele>2476.4899999999998</ele>
        <time>2013-07-28T13:29:31Z</time>
      </trkpt>
      <trkpt lat="45.93782264739275" lon="7.502100896090269">
        <ele>2478.9000000000001</ele>
        <time>2013-07-28T13:29:44Z</time>
      </trkpt>
      <trkpt lat="45.937803285196424" lon="7.502127047628164">
        <ele>2477.9400000000001</ele>
        <time>2013-07-28T13:29:52Z</time>
      </trkpt>
      <trkpt lat="45.93779725022614" lon="7.502152863889933">
        <ele>2479.3800000000001</ele>
        <time>2013-07-28T13:29:54Z</time>
      </trkpt>
      <trkpt lat="45.937788868322968" lon="7.502161413431168">
        <ele>2476.9699999999998</ele>
        <time>2013-07-28T13:29:55Z</time>
      </trkpt>
      <trkpt lat="45.937762381508946" lon="7.502205418422818">
        <ele>2476.9699999999998</ele>
        <time>2013-07-28T13:29:59Z</time>
      </trkpt>
      <trkpt lat="45.93768778257072" lon="7.502327123656869">
        <ele>2476.0100000000002</ele>
        <time>2013-07-28T13:30:11Z</time>
      </trkpt>
      <trkpt lat="45.937601700425148" lon="7.502398118376732">
        <ele>2475.5300000000002</ele>
        <time>2013-07-28T13:30:25Z</time>
      </trkpt>
      <trkpt lat="45.937591809779406" lon="7.502394765615463">
        <ele>2475.5300000000002</ele>
        <time>2013-07-28T13:30:26Z</time>
      </trkpt>
      <trkpt lat="45.937523497268558" lon="7.502402728423476">
        <ele>2476.4899999999998</ele>
        <time>2013-07-28T13:30:38Z</time>
      </trkpt>
      <trkpt lat="45.937505727633834" lon="7.502415804192424">
        <ele>2476.4899999999998</ele>
        <time>2013-07-28T13:30:40Z</time>
      </trkpt>
      <trkpt lat="45.93748795799911" lon="7.502442039549351">
        <ele>2476.4899999999998</ele>
        <time>2013-07-28T13:30:43Z</time>
      </trkpt>
      <trkpt lat="45.937392236664891" lon="7.502571875229478">
        <ele>2477.9400000000001</ele>
        <time>2013-07-28T13:30:59Z</time>
      </trkpt>
      <trkpt lat="45.937402211129665" lon="7.502556703984737">
        <ele>2478.9000000000001</ele>
        <time>2013-07-28T13:31:11Z</time>
      </trkpt>
      <trkpt lat="45.937397349625826" lon="7.502531725913286">
        <ele>2478.9000000000001</ele>
        <time>2013-07-28T13:31:41Z</time>
      </trkpt>
      <trkpt lat="45.937388632446527" lon="7.50252015888691">
        <ele>2479.8600000000001</ele>
        <time>2013-07-28T13:31:53Z</time>
      </trkpt>
      <trkpt lat="45.937349405139685" lon="7.502519153058529">
        <ele>2479.3800000000001</ele>
        <time>2013-07-28T13:32:21Z</time>
      </trkpt>
      <trkpt lat="45.937336329370737" lon="7.502568019554019">
        <ele>2477.4499999999998</ele>
        <time>2013-07-28T13:32:34Z</time>
      </trkpt>
      <trkpt lat="45.937345465645194" lon="7.502617556601763">
        <ele>2474.5700000000002</ele>
        <time>2013-07-28T13:32:51Z</time>
      </trkpt>
      <trkpt lat="45.937343453988433" lon="7.502629794180393">
        <ele>2477.4499999999998</ele>
        <time>2013-07-28T13:32:56Z</time>
      </trkpt>
      <trkpt lat="45.937296096235514" lon="7.502719815820456">
        <ele>2476.4899999999998</ele>
        <time>2013-07-28T13:33:03Z</time>
      </trkpt>
      <trkpt lat="45.937257204204798" lon="7.502825427800417">
        <ele>2476.0100000000002</ele>
        <time>2013-07-28T13:33:09Z</time>
      </trkpt>
      <trkpt lat="45.937238847836852" lon="7.50284998677671">
        <ele>2472.1700000000001</ele>
        <time>2013-07-28T13:33:11Z</time>
      </trkpt>
      <trkpt lat="45.937239266932011" lon="7.502851076424122">
        <ele>2472.1700000000001</ele>
        <time>2013-07-28T13:33:12Z</time>
      </trkpt>
      <trkpt lat="45.937237674370408" lon="7.502859542146325">
        <ele>2474.5700000000002</ele>
        <time>2013-07-28T13:33:13Z</time>
      </trkpt>
      <trkpt lat="45.93723189085722" lon="7.502888794988394">
        <ele>2476.0100000000002</ele>
        <time>2013-07-28T13:33:15Z</time>
      </trkpt>
      <trkpt lat="45.937230549752712" lon="7.502903463318944">
        <ele>2476.0100000000002</ele>
        <time>2013-07-28T13:33:16Z</time>
      </trkpt>
      <trkpt lat="45.937202218919992" lon="7.502972278743982">
        <ele>2476.4899999999998</ele>
        <time>2013-07-28T13:33:20Z</time>
      </trkpt>
      <trkpt lat="45.937130721285939" lon="7.50302542001009">
        <ele>2474.5700000000002</ele>
        <time>2013-07-28T13:33:27Z</time>
      </trkpt>
      <trkpt lat="45.937089901417494" lon="7.503066323697567">
        <ele>2473.6100000000001</ele>
        <time>2013-07-28T13:33:31Z</time>
      </trkpt>
      <trkpt lat="45.937050925567746" lon="7.503237314522266">
        <ele>2470.2399999999998</ele>
        <time>2013-07-28T13:33:39Z</time>
      </trkpt>
      <trkpt lat="45.93700960278511" lon="7.503401516005397">
        <ele>2466.8800000000001</ele>
        <time>2013-07-28T13:33:48Z</time>
      </trkpt>
      <trkpt lat="45.936867445707321" lon="7.503555240109563">
        <ele>2464.96</ele>
        <time>2013-07-28T13:34:02Z</time>
      </trkpt>
      <trkpt lat="45.936845149844885" lon="7.503558089956641">
        <ele>2464.48</ele>
        <time>2013-07-28T13:34:04Z</time>
      </trkpt>
      <trkpt lat="45.936803156509995" lon="7.503579212352634">
        <ele>2464.96</ele>
        <time>2013-07-28T13:34:11Z</time>
      </trkpt>
      <trkpt lat="45.936826290562749" lon="7.503566890954971">
        <ele>2465.4400000000001</ele>
        <time>2013-07-28T13:34:25Z</time>
      </trkpt>
      <trkpt lat="45.936835426837206" lon="7.503568902611733">
        <ele>2464.96</ele>
        <time>2013-07-28T13:34:55Z</time>
      </trkpt>
      <trkpt lat="45.936818327754736" lon="7.503571752458811">
        <ele>2464.48</ele>
        <time>2013-07-28T13:34:57Z</time>
      </trkpt>
      <trkpt lat="45.936699975281954" lon="7.503665965050459">
        <ele>2465.9200000000001</ele>
        <time>2013-07-28T13:35:08Z</time>
      </trkpt>
      <trkpt lat="45.936689246445894" lon="7.503676190972328">
        <ele>2464.96</ele>
        <time>2013-07-28T13:35:10Z</time>
      </trkpt>
      <trkpt lat="45.936677344143391" lon="7.503675352782011">
        <ele>2463.52</ele>
        <time>2013-07-28T13:35:11Z</time>
      </trkpt>
      <trkpt lat="45.936670387163758" lon="7.50367283821106">
        <ele>2462.0700000000002</ele>
        <time>2013-07-28T13:35:12Z</time>
      </trkpt>
      <trkpt lat="45.936650186777115" lon="7.503678454086185">
        <ele>2461.5900000000001</ele>
        <time>2013-07-28T13:35:16Z</time>
      </trkpt>
      <trkpt lat="45.936640799045563" lon="7.50370753929019">
        <ele>2463.52</ele>
        <time>2013-07-28T13:35:25Z</time>
      </trkpt>
      <trkpt lat="45.936635434627533" lon="7.503714663907886">
        <ele>2462.5500000000002</ele>
        <time>2013-07-28T13:35:27Z</time>
      </trkpt>
      <trkpt lat="45.9366216044873" lon="7.503724135458469">
        <ele>2462.0700000000002</ele>
        <time>2013-07-28T13:35:29Z</time>
      </trkpt>
      <trkpt lat="45.936600901186466" lon="7.50373880378902">
        <ele>2461.1100000000001</ele>
        <time>2013-07-28T13:35:31Z</time>
      </trkpt>
      <trkpt lat="45.93650434166193" lon="7.50386780127883">
        <ele>2460.6300000000001</ele>
        <time>2013-07-28T13:35:45Z</time>
      </trkpt>
      <trkpt lat="45.936486991122365" lon="7.503891941159964">
        <ele>2457.27</ele>
        <time>2013-07-28T13:35:48Z</time>
      </trkpt>
      <trkpt lat="45.936467964202166" lon="7.503904430195689">
        <ele>2457.27</ele>
        <time>2013-07-28T13:35:59Z</time>
      </trkpt>
      <trkpt lat="45.936437454074621" lon="7.503787837922573">
        <ele>2456.3099999999999</ele>
        <time>2013-07-28T13:36:07Z</time>
      </trkpt>
      <trkpt lat="45.936430916190147" lon="7.503791442140937">
        <ele>2455.8200000000002</ele>
        <time>2013-07-28T13:36:08Z</time>
      </trkpt>
      <trkpt lat="45.936376014724374" lon="7.503919685259461">
        <ele>2452.46</ele>
        <time>2013-07-28T13:36:16Z</time>
      </trkpt>
      <trkpt lat="45.936328154057264" lon="7.50402370467782">
        <ele>2450.0599999999999</ele>
        <time>2013-07-28T13:36:22Z</time>
      </trkpt>
      <trkpt lat="45.936315497383475" lon="7.50401733443141">
        <ele>2449.0999999999999</ele>
        <time>2013-07-28T13:36:23Z</time>
      </trkpt>
      <trkpt lat="45.936270151287317" lon="7.503933515399694">
        <ele>2447.1700000000001</ele>
        <time>2013-07-28T13:36:33Z</time>
      </trkpt>
      <trkpt lat="45.936203766614199" lon="7.50401976518333">
        <ele>2443.8099999999999</ele>
        <time>2013-07-28T13:36:42Z</time>
      </trkpt>
      <trkpt lat="45.936175603419542" lon="7.503942064940929">
        <ele>2441.8899999999999</ele>
        <time>2013-07-28T13:36:47Z</time>
      </trkpt>
      <trkpt lat="45.936156073585153" lon="7.503846092149615">
        <ele>2440.4400000000001</ele>
        <time>2013-07-28T13:36:53Z</time>
      </trkpt>
      <trkpt lat="45.93615448102355" lon="7.503815665841103">
        <ele>2439.48</ele>
        <time>2013-07-28T13:36:55Z</time>
      </trkpt>
      <trkpt lat="45.936134280636907" lon="7.503824718296528">
        <ele>2439</ele>
        <time>2013-07-28T13:36:59Z</time>
      </trkpt>
      <trkpt lat="45.936057334765792" lon="7.503918511793017">
        <ele>2435.6399999999999</ele>
        <time>2013-07-28T13:37:06Z</time>
      </trkpt>
      <trkpt lat="45.936038559302688" lon="7.503936281427741">
        <ele>2434.1999999999998</ele>
        <time>2013-07-28T13:37:08Z</time>
      </trkpt>
      <trkpt lat="45.93599421903491" lon="7.503933347761631">
        <ele>2433.23</ele>
        <time>2013-07-28T13:37:14Z</time>
      </trkpt>
      <trkpt lat="45.935979969799519" lon="7.503761351108551">
        <ele>2429.3899999999999</ele>
        <time>2013-07-28T13:37:25Z</time>
      </trkpt>
      <trkpt lat="45.935967480763793" lon="7.503674095496535">
        <ele>2427.9499999999998</ele>
        <time>2013-07-28T13:37:33Z</time>
      </trkpt>
      <trkpt lat="45.935961613431573" lon="7.503689602017403">
        <ele>2427.9499999999998</ele>
        <time>2013-07-28T13:37:34Z</time>
      </trkpt>
      <trkpt lat="45.935911908745766" lon="7.503752717748284">
        <ele>2425.54</ele>
        <time>2013-07-28T13:37:39Z</time>
      </trkpt>
      <trkpt lat="45.935787940397859" lon="7.503836033865809">
        <ele>2422.1799999999998</ele>
        <time>2013-07-28T13:37:50Z</time>
      </trkpt>
      <trkpt lat="45.935774613171816" lon="7.503830920904875">
        <ele>2421.6999999999998</ele>
        <time>2013-07-28T13:37:51Z</time>
      </trkpt>
      <trkpt lat="45.935782240703702" lon="7.503771493211389">
        <ele>2420.2600000000002</ele>
        <time>2013-07-28T13:37:55Z</time>
      </trkpt>
      <trkpt lat="45.935788191854954" lon="7.503642830997706">
        <ele>2417.3699999999999</ele>
        <time>2013-07-28T13:38:03Z</time>
      </trkpt>
      <trkpt lat="45.935799423605204" lon="7.503639813512564">
        <ele>2416.8899999999999</ele>
        <time>2013-07-28T13:38:15Z</time>
      </trkpt>
      <trkpt lat="45.935827000066638" lon="7.503606704995036">
        <ele>2417.3699999999999</ele>
        <time>2013-07-28T13:38:44Z</time>
      </trkpt>
      <trkpt lat="45.935780648142099" lon="7.503638807684183">
        <ele>2416.8899999999999</ele>
        <time>2013-07-28T13:38:55Z</time>
      </trkpt>
      <trkpt lat="45.935673527419567" lon="7.503677532076836">
        <ele>2414.9699999999998</ele>
        <time>2013-07-28T13:39:07Z</time>
      </trkpt>
      <trkpt lat="45.935642933472991" lon="7.50370167195797">
        <ele>2413.5300000000002</ele>
        <time>2013-07-28T13:39:10Z</time>
      </trkpt>
      <trkpt lat="45.935629857704043" lon="7.503700749948621">
        <ele>2413.5300000000002</ele>
        <time>2013-07-28T13:39:11Z</time>
      </trkpt>
      <trkpt lat="45.93559792265296" lon="7.503678034991026">
        <ele>2412.0900000000001</ele>
        <time>2013-07-28T13:39:14Z</time>
      </trkpt>
      <trkpt lat="45.935465656220913" lon="7.503736205399036">
        <ele>2411.5999999999999</ele>
        <time>2013-07-28T13:39:27Z</time>
      </trkpt>
      <trkpt lat="45.935377730056643" lon="7.503720866516233">
        <ele>2408.2399999999998</ele>
        <time>2013-07-28T13:39:37Z</time>
      </trkpt>
      <trkpt lat="45.935321655124426" lon="7.503725811839104">
        <ele>2406.3200000000002</ele>
        <time>2013-07-28T13:39:45Z</time>
      </trkpt>
      <trkpt lat="45.935293240472674" lon="7.503718435764313">
        <ele>2404.8800000000001</ele>
        <time>2013-07-28T13:39:48Z</time>
      </trkpt>
      <trkpt lat="45.935182264074683" lon="7.503763530403376">
        <ele>2401.9899999999998</ele>
        <time>2013-07-28T13:39:59Z</time>
      </trkpt>
      <trkpt lat="45.935142701491714" lon="7.503792112693191">
        <ele>2401.5100000000002</ele>
        <time>2013-07-28T13:40:03Z</time>
      </trkpt>
      <trkpt lat="45.935087045654655" lon="7.503812815994024">
        <ele>2400.0700000000002</ele>
        <time>2013-07-28T13:40:10Z</time>
      </trkpt>
      <trkpt lat="45.935008758679032" lon="7.503858329728246">
        <ele>2398.1500000000001</ele>
        <time>2013-07-28T13:40:19Z</time>
      </trkpt>
      <trkpt lat="45.935009261593223" lon="7.503784568980336">
        <ele>2396.2199999999998</ele>
        <time>2013-07-28T13:40:26Z</time>
      </trkpt>
      <trkpt lat="45.934962658211589" lon="7.503769900649786">
        <ele>2395.7399999999998</ele>
        <time>2013-07-28T13:40:33Z</time>
      </trkpt>
      <trkpt lat="45.934868697077036" lon="7.503845756873488">
        <ele>2392.3800000000001</ele>
        <time>2013-07-28T13:40:44Z</time>
      </trkpt>
      <trkpt lat="45.934834331274033" lon="7.503841482102871">
        <ele>2391.4200000000001</ele>
        <time>2013-07-28T13:40:50Z</time>
      </trkpt>
      <trkpt lat="45.934807593002915" lon="7.503845002502203">
        <ele>2389.9699999999998</ele>
        <time>2013-07-28T13:41:04Z</time>
      </trkpt>
      <trkpt lat="45.934817148372531" lon="7.503828322514892">
        <ele>2389.4899999999998</ele>
        <time>2013-07-28T13:41:21Z</time>
      </trkpt>
      <trkpt lat="45.934794098138809" lon="7.503840392455459">
        <ele>2389.0100000000002</ele>
        <time>2013-07-28T13:41:42Z</time>
      </trkpt>
      <trkpt lat="45.934690497815609" lon="7.503922954201698">
        <ele>2388.0500000000002</ele>
        <time>2013-07-28T13:41:55Z</time>
      </trkpt>
      <trkpt lat="45.934654958546162" lon="7.503978526219726">
        <ele>2387.5700000000002</ele>
        <time>2013-07-28T13:42:03Z</time>
      </trkpt>
      <trkpt lat="45.934645319357514" lon="7.503991853445768">
        <ele>2387.0900000000001</ele>
        <time>2013-07-28T13:42:04Z</time>
      </trkpt>
      <trkpt lat="45.934605253860354" lon="7.504005264490843">
        <ele>2385.6500000000001</ele>
        <time>2013-07-28T13:42:08Z</time>
      </trkpt>
      <trkpt lat="45.934589328244328" lon="7.504011634737253">
        <ele>2385.1700000000001</ele>
        <time>2013-07-28T13:42:10Z</time>
      </trkpt>
      <trkpt lat="45.934564350172877" lon="7.504014065489173">
        <ele>2383.73</ele>
        <time>2013-07-28T13:42:13Z</time>
      </trkpt>
      <trkpt lat="45.934547083452344" lon="7.504028901457787">
        <ele>2383.73</ele>
        <time>2013-07-28T13:42:15Z</time>
      </trkpt>
      <trkpt lat="45.934512885287404" lon="7.50405739992857">
        <ele>2382.7600000000002</ele>
        <time>2013-07-28T13:42:19Z</time>
      </trkpt>
      <trkpt lat="45.934449266642332" lon="7.504207938909531">
        <ele>2381.3200000000002</ele>
        <time>2013-07-28T13:42:29Z</time>
      </trkpt>
      <trkpt lat="45.934419678524137" lon="7.504221433773637">
        <ele>2381.3200000000002</ele>
        <time>2013-07-28T13:42:32Z</time>
      </trkpt>
      <trkpt lat="45.934382630512118" lon="7.50426066108048">
        <ele>2379.8800000000001</ele>
        <time>2013-07-28T13:42:37Z</time>
      </trkpt>
      <trkpt lat="45.934259500354528" lon="7.504333918914199">
        <ele>2377</ele>
        <time>2013-07-28T13:42:49Z</time>
      </trkpt>
      <trkpt lat="45.934169478714466" lon="7.504320256412029">
        <ele>2374.1100000000001</ele>
        <time>2013-07-28T13:42:58Z</time>
      </trkpt>
      <trkpt lat="45.934157744050026" lon="7.504329392686486">
        <ele>2374.5900000000001</ele>
        <time>2013-07-28T13:43:00Z</time>
      </trkpt>
      <trkpt lat="45.934127317741513" lon="7.504384210333228">
        <ele>2373.6300000000001</ele>
        <time>2013-07-28T13:43:04Z</time>
      </trkpt>
      <trkpt lat="45.934046683833003" lon="7.504416480660439">
        <ele>2370.75</ele>
        <time>2013-07-28T13:43:16Z</time>
      </trkpt>
      <trkpt lat="45.933971917256713" lon="7.504440536722541">
        <ele>2368.8299999999999</ele>
        <time>2013-07-28T13:43:28Z</time>
      </trkpt>
      <trkpt lat="45.933886924758554" lon="7.504488062113524">
        <ele>2367.3800000000001</ele>
        <time>2013-07-28T13:43:42Z</time>
      </trkpt>
      <trkpt lat="45.933868316933513" lon="7.5045186560601">
        <ele>2366.4200000000001</ele>
        <time>2013-07-28T13:43:46Z</time>
      </trkpt>
      <trkpt lat="45.9338085539639" lon="7.504628458991647">
        <ele>2364.5</ele>
        <time>2013-07-28T13:44:01Z</time>
      </trkpt>
      <trkpt lat="45.933774020522833" lon="7.50473071821034">
        <ele>2363.0599999999999</ele>
        <time>2013-07-28T13:44:13Z</time>
      </trkpt>
      <trkpt lat="45.933749964460731" lon="7.504846472293139">
        <ele>2361.6199999999999</ele>
        <time>2013-07-28T13:44:27Z</time>
      </trkpt>
      <trkpt lat="45.933722136542201" lon="7.504939427599311">
        <ele>2360.1700000000001</ele>
        <time>2013-07-28T13:44:39Z</time>
      </trkpt>
      <trkpt lat="45.933675868436694" lon="7.505020899698138">
        <ele>2358.73</ele>
        <time>2013-07-28T13:44:50Z</time>
      </trkpt>
      <trkpt lat="45.933637646958232" lon="7.505107652395964">
        <ele>2357.29</ele>
        <time>2013-07-28T13:45:04Z</time>
      </trkpt>
      <trkpt lat="45.933582494035363" lon="7.505222484469414">
        <ele>2354.8899999999999</ele>
        <time>2013-07-28T13:45:17Z</time>
      </trkpt>
      <trkpt lat="45.93351342715323" lon="7.505333963781595">
        <ele>2353.9299999999998</ele>
        <time>2013-07-28T13:45:30Z</time>
      </trkpt>
      <trkpt lat="45.933479648083448" lon="7.505414681509137">
        <ele>2352.96</ele>
        <time>2013-07-28T13:45:44Z</time>
      </trkpt>
      <trkpt lat="45.933478223159909" lon="7.505423063412309">
        <ele>2352</ele>
        <time>2013-07-28T13:45:45Z</time>
      </trkpt>
      <trkpt lat="45.933475876227021" lon="7.505433959886432">
        <ele>2351.52</ele>
        <time>2013-07-28T13:45:46Z</time>
      </trkpt>
      <trkpt lat="45.933472104370594" lon="7.505444269627333">
        <ele>2351.04</ele>
        <time>2013-07-28T13:45:47Z</time>
      </trkpt>
      <trkpt lat="45.933438828215003" lon="7.505518198013306">
        <ele>2351.04</ele>
        <time>2013-07-28T13:45:58Z</time>
      </trkpt>
      <trkpt lat="45.933421896770597" lon="7.505579302087426">
        <ele>2350.0799999999999</ele>
        <time>2013-07-28T13:46:10Z</time>
      </trkpt>
      <trkpt lat="45.933414772152901" lon="7.505598831921816">
        <ele>2349.5999999999999</ele>
        <time>2013-07-28T13:46:15Z</time>
      </trkpt>
      <trkpt lat="45.933382334187627" lon="7.50569966621697">
        <ele>2347.6799999999998</ele>
        <time>2013-07-28T13:46:27Z</time>
      </trkpt>
      <trkpt lat="45.933368755504489" lon="7.50575833953917">
        <ele>2348.1599999999999</ele>
        <time>2013-07-28T13:46:40Z</time>
      </trkpt>
      <trkpt lat="45.933372024446726" lon="7.505774600431323">
        <ele>2348.1599999999999</ele>
        <time>2013-07-28T13:46:43Z</time>
      </trkpt>
      <trkpt lat="45.933376802131534" lon="7.505791280418634">
        <ele>2348.6399999999999</ele>
        <time>2013-07-28T13:46:44Z</time>
      </trkpt>
      <trkpt lat="45.933346375823021" lon="7.505864622071385">
        <ele>2347.6799999999998</ele>
        <time>2013-07-28T13:46:51Z</time>
      </trkpt>
      <trkpt lat="45.933313686400652" lon="7.505929078906775">
        <ele>2346.23</ele>
        <time>2013-07-28T13:47:01Z</time>
      </trkpt>
      <trkpt lat="45.933278063312173" lon="7.505992194637656">
        <ele>2345.75</ele>
        <time>2013-07-28T13:47:11Z</time>
      </trkpt>
      <trkpt lat="45.93324126675725" lon="7.506066290661693">
        <ele>2343.8299999999999</ele>
        <time>2013-07-28T13:47:22Z</time>
      </trkpt>
      <trkpt lat="45.933208074420691" lon="7.506127310916781">
        <ele>2343.3499999999999</ele>
        <time>2013-07-28T13:47:35Z</time>
      </trkpt>
      <trkpt lat="45.933189718052745" lon="7.506190007552505">
        <ele>2344.79</ele>
        <time>2013-07-28T13:47:47Z</time>
      </trkpt>
      <trkpt lat="45.933139007538557" lon="7.506327722221613">
        <ele>2342.8699999999999</ele>
        <time>2013-07-28T13:48:00Z</time>
      </trkpt>
      <trkpt lat="45.933116460219026" lon="7.506386060267687">
        <ele>2341.4299999999998</ele>
        <time>2013-07-28T13:48:07Z</time>
      </trkpt>
      <trkpt lat="45.933103552088141" lon="7.506406763568521">
        <ele>2341.9099999999999</ele>
        <time>2013-07-28T13:48:10Z</time>
      </trkpt>
      <trkpt lat="45.933080418035388" lon="7.506493264809251">
        <ele>2339.9899999999998</ele>
        <time>2013-07-28T13:48:21Z</time>
      </trkpt>
      <trkpt lat="45.93305166810751" lon="7.506599547341466">
        <ele>2339.02</ele>
        <time>2013-07-28T13:48:32Z</time>
      </trkpt>
      <trkpt lat="45.933030629530549" lon="7.506659897044301">
        <ele>2338.54</ele>
        <time>2013-07-28T13:48:39Z</time>
      </trkpt>
      <trkpt lat="45.932984026148915" lon="7.506833737716079">
        <ele>2337.0999999999999</ele>
        <time>2013-07-28T13:48:56Z</time>
      </trkpt>
      <trkpt lat="45.932957036420703" lon="7.50687288120389">
        <ele>2336.1399999999999</ele>
        <time>2013-07-28T13:49:01Z</time>
      </trkpt>
      <trkpt lat="45.932932980358601" lon="7.50689635053277">
        <ele>2336.1399999999999</ele>
        <time>2013-07-28T13:49:06Z</time>
      </trkpt>
      <trkpt lat="45.932896938174963" lon="7.506973631680012">
        <ele>2335.6599999999999</ele>
        <time>2013-07-28T13:49:14Z</time>
      </trkpt>
      <trkpt lat="45.932854190468788" lon="7.507035490125418">
        <ele>2335.1799999999998</ele>
        <time>2013-07-28T13:49:22Z</time>
      </trkpt>
      <trkpt lat="45.932851256802678" lon="7.507061054930091">
        <ele>2335.1799999999998</ele>
        <time>2013-07-28T13:49:24Z</time>
      </trkpt>
      <trkpt lat="45.932792164385319" lon="7.507204301655293">
        <ele>2332.7800000000002</ele>
        <time>2013-07-28T13:49:37Z</time>
      </trkpt>
      <trkpt lat="45.932750925421715" lon="7.507252916693687">
        <ele>2332.3000000000002</ele>
        <time>2013-07-28T13:49:47Z</time>
      </trkpt>
      <trkpt lat="45.932739861309528" lon="7.507256688550115">
        <ele>2332.7800000000002</ele>
        <time>2013-07-28T13:49:49Z</time>
      </trkpt>
      <trkpt lat="45.932708764448762" lon="7.507289294153452">
        <ele>2332.7800000000002</ele>
        <time>2013-07-28T13:49:53Z</time>
      </trkpt>
      <trkpt lat="45.932592675089836" lon="7.507485011592507">
        <ele>2331.8099999999999</ele>
        <time>2013-07-28T13:50:08Z</time>
      </trkpt>
      <trkpt lat="45.932554453611374" lon="7.507496913895011">
        <ele>2330.8499999999999</ele>
        <time>2013-07-28T13:50:20Z</time>
      </trkpt>
      <trkpt lat="45.932594602927566" lon="7.507447795942426">
        <ele>2330.3699999999999</ele>
        <time>2013-07-28T13:50:41Z</time>
      </trkpt>
      <trkpt lat="45.932535510510206" lon="7.507459446787834">
        <ele>2330.8499999999999</ele>
        <time>2013-07-28T13:51:07Z</time>
      </trkpt>
      <trkpt lat="45.932561997324228" lon="7.507432037964463">
        <ele>2331.3299999999999</ele>
        <time>2013-07-28T13:51:29Z</time>
      </trkpt>
      <trkpt lat="45.93263148330152" lon="7.507406389340758">
        <ele>2331.8099999999999</ele>
        <time>2013-07-28T13:51:54Z</time>
      </trkpt>
      <trkpt lat="45.932643134146929" lon="7.507407981902361">
        <ele>2332.7800000000002</ele>
        <time>2013-07-28T13:51:56Z</time>
      </trkpt>
      <trkpt lat="45.93262511305511" lon="7.507429858669639">
        <ele>2332.7800000000002</ele>
        <time>2013-07-28T13:52:13Z</time>
      </trkpt>
      <trkpt lat="45.932626789435744" lon="7.507491130381823">
        <ele>2333.2600000000002</ele>
        <time>2013-07-28T13:52:23Z</time>
      </trkpt>
      <trkpt lat="45.932615976780653" lon="7.507493896409869">
        <ele>2332.7800000000002</ele>
        <time>2013-07-28T13:52:39Z</time>
      </trkpt>
      <trkpt lat="45.932586975395679" lon="7.507438492029905">
        <ele>2332.7800000000002</ele>
        <time>2013-07-28T13:53:00Z</time>
      </trkpt>
      <trkpt lat="45.932568032294512" lon="7.507492806762457">
        <ele>2332.3000000000002</ele>
        <time>2013-07-28T13:53:15Z</time>
      </trkpt>
      <trkpt lat="45.932600973173976" lon="7.507390799000859">
        <ele>2332.3000000000002</ele>
        <time>2013-07-28T13:53:29Z</time>
      </trkpt>
      <trkpt lat="45.932641457766294" lon="7.507358444854617">
        <ele>2332.3000000000002</ele>
        <time>2013-07-28T13:53:47Z</time>
      </trkpt>
      <trkpt lat="45.93267154879868" lon="7.50734930858016">
        <ele>2331.3299999999999</ele>
        <time>2013-07-28T13:54:08Z</time>
      </trkpt>
      <trkpt lat="45.932670459151268" lon="7.507469337433577">
        <ele>2330.8499999999999</ele>
        <time>2013-07-28T13:54:19Z</time>
      </trkpt>
      <trkpt lat="45.932683870196342" lon="7.507552318274975">
        <ele>2331.3299999999999</ele>
        <time>2013-07-28T13:54:47Z</time>
      </trkpt>
      <trkpt lat="45.932695101946592" lon="7.507556257769465">
        <ele>2331.3299999999999</ele>
        <time>2013-07-28T13:55:07Z</time>
      </trkpt>
      <trkpt lat="45.932674650102854" lon="7.507549300789833">
        <ele>2330.8499999999999</ele>
        <time>2013-07-28T13:55:41Z</time>
      </trkpt>
      <trkpt lat="45.93268177472055" lon="7.507485598325729">
        <ele>2331.8099999999999</ele>
        <time>2013-07-28T13:55:57Z</time>
      </trkpt>
      <trkpt lat="45.932653024792671" lon="7.507481575012207">
        <ele>2331.3299999999999</ele>
        <time>2013-07-28T13:56:19Z</time>
      </trkpt>
      <trkpt lat="45.932691497728229" lon="7.507455423474312">
        <ele>2332.3000000000002</ele>
        <time>2013-07-28T13:56:45Z</time>
      </trkpt>
      <trkpt lat="45.932676075026393" lon="7.50749004073441">
        <ele>2331.3299999999999</ele>
        <time>2013-07-28T13:57:07Z</time>
      </trkpt>
      <trkpt lat="45.932666435837746" lon="7.507491884753108">
        <ele>2331.3299999999999</ele>
        <time>2013-07-28T13:57:28Z</time>
      </trkpt>
      <trkpt lat="45.93267984688282" lon="7.507534213364124">
        <ele>2331.3299999999999</ele>
        <time>2013-07-28T13:57:55Z</time>
      </trkpt>
      <trkpt lat="45.932728629559278" lon="7.507573524489999">
        <ele>2330.3699999999999</ele>
        <time>2013-07-28T13:58:28Z</time>
      </trkpt>
      <trkpt lat="45.932725695893168" lon="7.507526250556111">
        <ele>2330.8499999999999</ele>
        <time>2013-07-28T13:58:58Z</time>
      </trkpt>
      <trkpt lat="45.932723097503185" lon="7.507553575560451">
        <ele>2329.8899999999999</ele>
        <time>2013-07-28T13:59:30Z</time>
      </trkpt>
      <trkpt lat="45.932725947350264" lon="7.507542008534074">
        <ele>2329.8899999999999</ele>
        <time>2013-07-28T14:00:02Z</time>
      </trkpt>
      <trkpt lat="45.932727875187993" lon="7.507562125101686">
        <ele>2330.8499999999999</ele>
        <time>2013-07-28T14:00:36Z</time>
      </trkpt>
      <trkpt lat="45.932726869359612" lon="7.507561789825559">
        <ele>2330.3699999999999</ele>
        <time>2013-07-28T14:01:07Z</time>
      </trkpt>
      <trkpt lat="45.932760564610362" lon="7.507579224184156">
        <ele>2330.8499999999999</ele>
        <time>2013-07-28T14:01:42Z</time>
      </trkpt>
      <trkpt lat="45.932741621509194" lon="7.507538488134742">
        <ele>2330.3699999999999</ele>
        <time>2013-07-28T14:02:09Z</time>
      </trkpt>
      <trkpt lat="45.932707926258445" lon="7.507533542811871">
        <ele>2330.3699999999999</ele>
        <time>2013-07-28T14:02:41Z</time>
      </trkpt>
      <trkpt lat="45.932689066976309" lon="7.507578805088997">
        <ele>2330.8499999999999</ele>
        <time>2013-07-28T14:03:10Z</time>
      </trkpt>
      <trkpt lat="45.932744638994336" lon="7.50775926746428">
        <ele>2330.8499999999999</ele>
        <time>2013-07-28T14:03:40Z</time>
      </trkpt>
      <trkpt lat="45.932732233777642" lon="7.507678382098675">
        <ele>2331.3299999999999</ele>
        <time>2013-07-28T14:04:12Z</time>
      </trkpt>
      <trkpt lat="45.933053428307176" lon="7.507369257509708">
        <ele>2331.3299999999999</ele>
        <time>2013-07-28T14:04:49Z</time>
      </trkpt>
      <trkpt lat="45.933132218196988" lon="7.507289294153452">
        <ele>2331.3299999999999</ele>
        <time>2013-07-28T14:05:23Z</time>
      </trkpt>
      <trkpt lat="45.933134900406003" lon="7.507297843694687">
        <ele>2330.8499999999999</ele>
        <time>2013-07-28T14:05:56Z</time>
      </trkpt>
      <trkpt lat="45.933127356693149" lon="7.50724864192307">
        <ele>2331.3299999999999</ele>
        <time>2013-07-28T14:06:29Z</time>
      </trkpt>
      <trkpt lat="45.933123333379626" lon="7.507237242534757">
        <ele>2331.8099999999999</ele>
        <time>2013-07-28T14:07:06Z</time>
      </trkpt>
      <trkpt lat="45.933191981166601" lon="7.507179994136095">
        <ele>2331.8099999999999</ele>
        <time>2013-07-28T14:07:43Z</time>
      </trkpt>
      <trkpt lat="45.933207236230373" lon="7.507196757942438">
        <ele>2332.3000000000002</ele>
        <time>2013-07-28T14:08:09Z</time>
      </trkpt>
      <trkpt lat="45.933187203481793" lon="7.507126433774829">
        <ele>2332.3000000000002</ele>
        <time>2013-07-28T14:08:43Z</time>
      </trkpt>
      <trkpt lat="45.933214863762259" lon="7.507110759615898">
        <ele>2331.8099999999999</ele>
        <time>2013-07-28T14:09:17Z</time>
      </trkpt>
      <trkpt lat="45.933218719437718" lon="7.507156021893024">
        <ele>2331.8099999999999</ele>
        <time>2013-07-28T14:10:01Z</time>
      </trkpt>
      <trkpt lat="45.933198435232043" lon="7.507190555334091">
        <ele>2331.3299999999999</ele>
        <time>2013-07-28T14:10:40Z</time>
      </trkpt>
      <trkpt lat="45.933191226795316" lon="7.50716021284461">
        <ele>2331.3299999999999</ele>
        <time>2013-07-28T14:11:21Z</time>
      </trkpt>
      <trkpt lat="45.933216288685799" lon="7.507164319977164">
        <ele>2330.8499999999999</ele>
        <time>2013-07-28T14:11:51Z</time>
      </trkpt>
      <trkpt lat="45.933194998651743" lon="7.507172785699368">
        <ele>2330.8499999999999</ele>
        <time>2013-07-28T14:12:15Z</time>
      </trkpt>
      <trkpt lat="45.933222910389304" lon="7.507112603634596">
        <ele>2331.8099999999999</ele>
        <time>2013-07-28T14:12:26Z</time>
      </trkpt>
      <trkpt lat="45.933214193210006" lon="7.507012691348791">
        <ele>2332.3000000000002</ele>
        <time>2013-07-28T14:12:45Z</time>
      </trkpt>
      <trkpt lat="45.933252582326531" lon="7.507004393264651">
        <ele>2333.7399999999998</ele>
        <time>2013-07-28T14:13:05Z</time>
      </trkpt>
      <trkpt lat="45.933270938694477" lon="7.50698234885931">
        <ele>2332.3000000000002</ele>
        <time>2013-07-28T14:13:18Z</time>
      </trkpt>
      <trkpt lat="45.933184437453747" lon="7.507128613069654">
        <ele>2331.3299999999999</ele>
        <time>2013-07-28T14:13:40Z</time>
      </trkpt>
      <trkpt lat="45.933178486302495" lon="7.507135067135096">
        <ele>2331.8099999999999</ele>
        <time>2013-07-28T14:13:41Z</time>
      </trkpt>
      <trkpt lat="45.933147054165602" lon="7.507183933630586">
        <ele>2332.7800000000002</ele>
        <time>2013-07-28T14:13:54Z</time>
      </trkpt>
      <trkpt lat="45.933070024475455" lon="7.507263896986842">
        <ele>2331.8099999999999</ele>
        <time>2013-07-28T14:14:06Z</time>
      </trkpt>
      <trkpt lat="45.932996934279799" lon="7.507323827594519">
        <ele>2331.3299999999999</ele>
        <time>2013-07-28T14:14:16Z</time>
      </trkpt>
      <trkpt lat="45.93297497369349" lon="7.507322235032916">
        <ele>2330.8499999999999</ele>
        <time>2013-07-28T14:14:19Z</time>
      </trkpt>
      <trkpt lat="45.932909343391657" lon="7.507363222539425">
        <ele>2331.3299999999999</ele>
        <time>2013-07-28T14:14:26Z</time>
      </trkpt>
      <trkpt lat="45.93285234645009" lon="7.507367245852947">
        <ele>2332.3000000000002</ele>
        <time>2013-07-28T14:14:33Z</time>
      </trkpt>
      <trkpt lat="45.932735837996006" lon="7.507374454289675">
        <ele>2330.3699999999999</ele>
        <time>2013-07-28T14:14:44Z</time>
      </trkpt>
      <trkpt lat="45.932664508000016" lon="7.507422482594848">
        <ele>2329.4099999999999</ele>
        <time>2013-07-28T14:14:52Z</time>
      </trkpt>
      <trkpt lat="45.932620503008366" lon="7.507446873933077">
        <ele>2327.9699999999998</ele>
        <time>2013-07-28T14:14:56Z</time>
      </trkpt>
      <trkpt lat="45.932599883526564" lon="7.50745140016079">
        <ele>2327.9699999999998</ele>
        <time>2013-07-28T14:14:58Z</time>
      </trkpt>
      <trkpt lat="45.93254741281271" lon="7.507489202544093">
        <ele>2327.9699999999998</ele>
        <time>2013-07-28T14:15:03Z</time>
      </trkpt>
      <trkpt lat="45.932526206597686" lon="7.507496494799852">
        <ele>2327.4899999999998</ele>
        <time>2013-07-28T14:15:05Z</time>
      </trkpt>
      <trkpt lat="45.932413386180997" lon="7.507554916664958">
        <ele>2327.4899999999998</ele>
        <time>2013-07-28T14:15:16Z</time>
      </trkpt>
      <trkpt lat="45.932362256571651" lon="7.50758190639317">
        <ele>2326.5300000000002</ele>
        <time>2013-07-28T14:15:21Z</time>
      </trkpt>
      <trkpt lat="45.932303331792355" lon="7.507685674354434">
        <ele>2326.0500000000002</ele>
        <time>2013-07-28T14:15:32Z</time>
      </trkpt>
      <trkpt lat="45.932201324030757" lon="7.507733618840575">
        <ele>2325.5700000000002</ele>
        <time>2013-07-28T14:15:47Z</time>
      </trkpt>
      <trkpt lat="45.932137789204717" lon="7.507776534184814">
        <ele>2325.5700000000002</ele>
        <time>2013-07-28T14:16:02Z</time>
      </trkpt>
      <trkpt lat="45.932079283520579" lon="7.507806122303009">
        <ele>2325.5700000000002</ele>
        <time>2013-07-28T14:16:12Z</time>
      </trkpt>
      <trkpt lat="45.932048689574003" lon="7.507835878059268">
        <ele>2325.5700000000002</ele>
        <time>2013-07-28T14:16:16Z</time>
      </trkpt>
      <trkpt lat="45.93200015835464" lon="7.507917601615191">
        <ele>2325.5700000000002</ele>
        <time>2013-07-28T14:16:22Z</time>
      </trkpt>
      <trkpt lat="45.931954896077514" lon="7.507986752316356">
        <ele>2325.5700000000002</ele>
        <time>2013-07-28T14:16:28Z</time>
      </trkpt>
      <trkpt lat="45.931866047903895" lon="7.508018016815186">
        <ele>2324.6100000000001</ele>
        <time>2013-07-28T14:16:37Z</time>
      </trkpt>
      <trkpt lat="45.931753059849143" lon="7.508109882473946">
        <ele>2323.6399999999999</ele>
        <time>2013-07-28T14:16:49Z</time>
      </trkpt>
      <trkpt lat="45.931613584980369" lon="7.508239131420851">
        <ele>2321.2399999999998</ele>
        <time>2013-07-28T14:17:04Z</time>
      </trkpt>
      <trkpt lat="45.931514091789722" lon="7.508332589641213">
        <ele>2320.7600000000002</ele>
        <time>2013-07-28T14:17:15Z</time>
      </trkpt>
      <trkpt lat="45.931394314393401" lon="7.508442979305983">
        <ele>2319.8000000000002</ele>
        <time>2013-07-28T14:17:27Z</time>
      </trkpt>
      <trkpt lat="45.931350477039814" lon="7.508512381464243">
        <ele>2318.8400000000001</ele>
        <time>2013-07-28T14:17:31Z</time>
      </trkpt>
      <trkpt lat="45.931329522281885" lon="7.508534425869584">
        <ele>2317.4000000000001</ele>
        <time>2013-07-28T14:17:34Z</time>
      </trkpt>
      <trkpt lat="45.931295827031136" lon="7.508513974025846">
        <ele>2315.9499999999998</ele>
        <time>2013-07-28T14:17:46Z</time>
      </trkpt>
      <trkpt lat="45.931297671049833" lon="7.508522691205144">
        <ele>2316.9099999999999</ele>
        <time>2013-07-28T14:17:57Z</time>
      </trkpt>
      <trkpt lat="45.931274788454175" lon="7.508554542437196">
        <ele>2316.9099999999999</ele>
        <time>2013-07-28T14:18:01Z</time>
      </trkpt>
      <trkpt lat="45.931247882544994" lon="7.508624531328678">
        <ele>2315.4699999999998</ele>
        <time>2013-07-28T14:18:06Z</time>
      </trkpt>
      <trkpt lat="45.931245367974043" lon="7.508706590160728">
        <ele>2316.9099999999999</ele>
        <time>2013-07-28T14:18:12Z</time>
      </trkpt>
      <trkpt lat="45.931245284155011" lon="7.508768448606134">
        <ele>2317.4000000000001</ele>
        <time>2013-07-28T14:18:17Z</time>
      </trkpt>
      <trkpt lat="45.931245619431138" lon="7.508793091401458">
        <ele>2317.4000000000001</ele>
        <time>2013-07-28T14:18:19Z</time>
      </trkpt>
      <trkpt lat="45.931205721572042" lon="7.508884454146028">
        <ele>2314.5100000000002</ele>
        <time>2013-07-28T14:18:25Z</time>
      </trkpt>
      <trkpt lat="45.931184180080891" lon="7.508895015344024">
        <ele>2314.5100000000002</ele>
        <time>2013-07-28T14:18:27Z</time>
      </trkpt>
      <trkpt lat="45.931122405454516" lon="7.509043710306287">
        <ele>2314.9899999999998</ele>
        <time>2013-07-28T14:18:37Z</time>
      </trkpt>
      <trkpt lat="45.931090638041496" lon="7.509063240140677">
        <ele>2314.0300000000002</ele>
        <time>2013-07-28T14:18:40Z</time>
      </trkpt>
      <trkpt lat="45.931039173156023" lon="7.509111268445849">
        <ele>2313.5500000000002</ele>
        <time>2013-07-28T14:18:45Z</time>
      </trkpt>
      <trkpt lat="45.930988295003772" lon="7.509165415540338">
        <ele>2313.0700000000002</ele>
        <time>2013-07-28T14:18:50Z</time>
      </trkpt>
      <trkpt lat="45.93097454868257" lon="7.509183771908283">
        <ele>2312.5900000000001</ele>
        <time>2013-07-28T14:18:52Z</time>
      </trkpt>
      <trkpt lat="45.930846473202109" lon="7.50940790399909">
        <ele>2311.1500000000001</ele>
        <time>2013-07-28T14:19:08Z</time>
      </trkpt>
      <trkpt lat="45.930817974731326" lon="7.509484849870205">
        <ele>2309.6999999999998</ele>
        <time>2013-07-28T14:19:13Z</time>
      </trkpt>
      <trkpt lat="45.93071362003684" lon="7.509556096047163">
        <ele>2306.8200000000002</ele>
        <time>2013-07-28T14:19:23Z</time>
      </trkpt>
      <trkpt lat="45.930593088269234" lon="7.509629605337977">
        <ele>2304.9000000000001</ele>
        <time>2013-07-28T14:19:36Z</time>
      </trkpt>
      <trkpt lat="45.930573474615812" lon="7.509644022211433">
        <ele>2304.9000000000001</ele>
        <time>2013-07-28T14:19:38Z</time>
      </trkpt>
      <trkpt lat="45.930466772988439" lon="7.509768074378371">
        <ele>2301.5300000000002</ele>
        <time>2013-07-28T14:19:52Z</time>
      </trkpt>
      <trkpt lat="45.930432910099626" lon="7.509818952530623">
        <ele>2300.5700000000002</ele>
        <time>2013-07-28T14:19:57Z</time>
      </trkpt>
      <trkpt lat="45.930378846824169" lon="7.509930180385709">
        <ele>2300.5700000000002</ele>
        <time>2013-07-28T14:20:07Z</time>
      </trkpt>
      <trkpt lat="45.93037691898644" lon="7.509975861757994">
        <ele>2300.0900000000001</ele>
        <time>2013-07-28T14:20:10Z</time>
      </trkpt>
      <trkpt lat="45.930346492677927" lon="7.510087341070175">
        <ele>2299.6100000000001</ele>
        <time>2013-07-28T14:20:23Z</time>
      </trkpt>
      <trkpt lat="45.930311288684607" lon="7.510145595297217">
        <ele>2298.6500000000001</ele>
        <time>2013-07-28T14:20:27Z</time>
      </trkpt>
      <trkpt lat="45.930299637839198" lon="7.510184738785029">
        <ele>2299.6100000000001</ele>
        <time>2013-07-28T14:20:30Z</time>
      </trkpt>
      <trkpt lat="45.930249765515327" lon="7.510294206440449">
        <ele>2299.6100000000001</ele>
        <time>2013-07-28T14:20:39Z</time>
      </trkpt>
      <trkpt lat="45.930229313671589" lon="7.510388419032097">
        <ele>2299.1300000000001</ele>
        <time>2013-07-28T14:20:46Z</time>
      </trkpt>
      <trkpt lat="45.930165946483612" lon="7.510597798973322">
        <ele>2298.1700000000001</ele>
        <time>2013-07-28T14:21:01Z</time>
      </trkpt>
      <trkpt lat="45.930152870714664" lon="7.510748757049441">
        <ele>2297.21</ele>
        <time>2013-07-28T14:21:14Z</time>
      </trkpt>
      <trkpt lat="45.930082211270928" lon="7.510918155312538">
        <ele>2296.25</ele>
        <time>2013-07-28T14:21:28Z</time>
      </trkpt>
      <trkpt lat="45.930072739720345" lon="7.510942462831736">
        <ele>2296.25</ele>
        <time>2013-07-28T14:21:30Z</time>
      </trkpt>
      <trkpt lat="45.930055053904653" lon="7.511037262156606">
        <ele>2296.25</ele>
        <time>2013-07-28T14:21:37Z</time>
      </trkpt>
      <trkpt lat="45.930027142167091" lon="7.511064168065786">
        <ele>2293.8400000000001</ele>
        <time>2013-07-28T14:21:40Z</time>
      </trkpt>
      <trkpt lat="45.930022113025188" lon="7.511081686243415">
        <ele>2295.77</ele>
        <time>2013-07-28T14:21:42Z</time>
      </trkpt>
      <trkpt lat="45.930032674223185" lon="7.511089313775301">
        <ele>2294.3200000000002</ele>
        <time>2013-07-28T14:21:44Z</time>
      </trkpt>
      <trkpt lat="45.930020352825522" lon="7.511177994310856">
        <ele>2292.8800000000001</ele>
        <time>2013-07-28T14:21:53Z</time>
      </trkpt>
      <trkpt lat="45.92995086684823" lon="7.511254018172622">
        <ele>2290</ele>
        <time>2013-07-28T14:22:05Z</time>
      </trkpt>
      <trkpt lat="45.929893869906664" lon="7.511366503313184">
        <ele>2289.04</ele>
        <time>2013-07-28T14:22:18Z</time>
      </trkpt>
      <trkpt lat="45.929879955947399" lon="7.511430205777288">
        <ele>2286.6300000000001</ele>
        <time>2013-07-28T14:22:31Z</time>
      </trkpt>
      <trkpt lat="45.929874004796147" lon="7.511462224647403">
        <ele>2288.0799999999999</ele>
        <time>2013-07-28T14:22:37Z</time>
      </trkpt>
      <trkpt lat="45.929879117757082" lon="7.511481586843729">
        <ele>2288.0799999999999</ele>
        <time>2013-07-28T14:22:39Z</time>
      </trkpt>
      <trkpt lat="45.929817762225866" lon="7.511677136644721">
        <ele>2286.1500000000001</ele>
        <time>2013-07-28T14:22:52Z</time>
      </trkpt>
      <trkpt lat="45.929797561839223" lon="7.511731116101146">
        <ele>2285.6700000000001</ele>
        <time>2013-07-28T14:22:56Z</time>
      </trkpt>
      <trkpt lat="45.929686166346073" lon="7.511857347562909">
        <ele>2283.27</ele>
        <time>2013-07-28T14:23:11Z</time>
      </trkpt>
      <trkpt lat="45.929614501073956" lon="7.511920966207981">
        <ele>2283.75</ele>
        <time>2013-07-28T14:23:25Z</time>
      </trkpt>
      <trkpt lat="45.929600754752755" lon="7.511928174644709">
        <ele>2283.27</ele>
        <time>2013-07-28T14:23:31Z</time>
      </trkpt>
      <trkpt lat="45.929601928219199" lon="7.511991541832686">
        <ele>2283.27</ele>
        <time>2013-07-28T14:23:44Z</time>
      </trkpt>
      <trkpt lat="45.929596563801169" lon="7.512005791068077">
        <ele>2283.27</ele>
        <time>2013-07-28T14:23:59Z</time>
      </trkpt>
      <trkpt lat="45.92946806922555" lon="7.512149624526501">
        <ele>2281.3499999999999</ele>
        <time>2013-07-28T14:24:13Z</time>
      </trkpt>
      <trkpt lat="45.929439989849925" lon="7.512177787721157">
        <ele>2280.3800000000001</ele>
        <time>2013-07-28T14:24:16Z</time>
      </trkpt>
      <trkpt lat="45.929420040920377" lon="7.512215673923492">
        <ele>2280.8699999999999</ele>
        <time>2013-07-28T14:24:20Z</time>
      </trkpt>
      <trkpt lat="45.929411156103015" lon="7.51225071027875">
        <ele>2283.27</ele>
        <time>2013-07-28T14:24:24Z</time>
      </trkpt>
      <trkpt lat="45.929412497207522" lon="7.512256745249033">
        <ele>2282.79</ele>
        <time>2013-07-28T14:24:25Z</time>
      </trkpt>
      <trkpt lat="45.929414760321379" lon="7.512261103838682">
        <ele>2282.79</ele>
        <time>2013-07-28T14:24:26Z</time>
      </trkpt>
      <trkpt lat="45.929405456408858" lon="7.512310221791267">
        <ele>2278.9400000000001</ele>
        <time>2013-07-28T14:24:31Z</time>
      </trkpt>
      <trkpt lat="45.929320463910699" lon="7.512459000572562">
        <ele>2278.9400000000001</ele>
        <time>2013-07-28T14:24:43Z</time>
      </trkpt>
      <trkpt lat="45.929318284615874" lon="7.512607527896762">
        <ele>2277.5</ele>
        <time>2013-07-28T14:24:55Z</time>
      </trkpt>
      <trkpt lat="45.929296659305692" lon="7.512641893699765">
        <ele>2277.02</ele>
        <time>2013-07-28T14:24:58Z</time>
      </trkpt>
      <trkpt lat="45.92922130599618" lon="7.512780027464032">
        <ele>2276.54</ele>
        <time>2013-07-28T14:25:14Z</time>
      </trkpt>
      <trkpt lat="45.929164057597518" lon="7.512900894507766">
        <ele>2274.1399999999999</ele>
        <time>2013-07-28T14:25:25Z</time>
      </trkpt>
      <trkpt lat="45.92913824133575" lon="7.512946408241987">
        <ele>2273.6599999999999</ele>
        <time>2013-07-28T14:25:29Z</time>
      </trkpt>
      <trkpt lat="45.929126003757119" lon="7.512972056865692">
        <ele>2274.1399999999999</ele>
        <time>2013-07-28T14:25:32Z</time>
      </trkpt>
      <trkpt lat="45.929084680974483" lon="7.513147657737136">
        <ele>2272.21</ele>
        <time>2013-07-28T14:25:46Z</time>
      </trkpt>
      <trkpt lat="45.928994910791516" lon="7.513260394334793">
        <ele>2269.3299999999999</ele>
        <time>2013-07-28T14:26:00Z</time>
      </trkpt>
      <trkpt lat="45.928921569138765" lon="7.513365838676691">
        <ele>2268.3699999999999</ele>
        <time>2013-07-28T14:26:10Z</time>
      </trkpt>
      <trkpt lat="45.928934728726745" lon="7.513505984097719">
        <ele>2267.8899999999999</ele>
        <time>2013-07-28T14:26:23Z</time>
      </trkpt>
      <trkpt lat="45.928943529725075" lon="7.513658870011568">
        <ele>2265.48</ele>
        <time>2013-07-28T14:26:37Z</time>
      </trkpt>
      <trkpt lat="45.928941015154123" lon="7.51367362216115">
        <ele>2265</ele>
        <time>2013-07-28T14:26:38Z</time>
      </trkpt>
      <trkpt lat="45.928928190842271" lon="7.513725589960814">
        <ele>2264.52</ele>
        <time>2013-07-28T14:26:41Z</time>
      </trkpt>
      <trkpt lat="45.928927268832922" lon="7.513758363202214">
        <ele>2265</ele>
        <time>2013-07-28T14:26:44Z</time>
      </trkpt>
      <trkpt lat="45.928927771747112" lon="7.513933042064309">
        <ele>2264.04</ele>
        <time>2013-07-28T14:26:58Z</time>
      </trkpt>
      <trkpt lat="45.928949397057295" lon="7.514018369838595">
        <ele>2264.52</ele>
        <time>2013-07-28T14:27:07Z</time>
      </trkpt>
      <trkpt lat="45.928957778960466" lon="7.5140699185431">
        <ele>2263.5599999999999</ele>
        <time>2013-07-28T14:27:10Z</time>
      </trkpt>
      <trkpt lat="45.928919306024909" lon="7.514164969325066">
        <ele>2260.6799999999998</ele>
        <time>2013-07-28T14:27:20Z</time>
      </trkpt>
      <trkpt lat="45.928847473114729" lon="7.51438164152205">
        <ele>2261.1599999999999</ele>
        <time>2013-07-28T14:27:34Z</time>
      </trkpt>
      <trkpt lat="45.928818387910724" lon="7.514402428641915">
        <ele>2259.2399999999998</ele>
        <time>2013-07-28T14:27:38Z</time>
      </trkpt>
      <trkpt lat="45.928800366818905" lon="7.514473171904683">
        <ele>2260.1999999999998</ele>
        <time>2013-07-28T14:27:43Z</time>
      </trkpt>
      <trkpt lat="45.928794415667653" lon="7.514664195477963">
        <ele>2256.8299999999999</ele>
        <time>2013-07-28T14:27:58Z</time>
      </trkpt>
      <trkpt lat="45.928765749558806" lon="7.514729658141732">
        <ele>2255.3899999999999</ele>
        <time>2013-07-28T14:28:03Z</time>
      </trkpt>
      <trkpt lat="45.928693749010563" lon="7.514892183244228">
        <ele>2252.0300000000002</ele>
        <time>2013-07-28T14:28:19Z</time>
      </trkpt>
      <trkpt lat="45.928584700450301" lon="7.515037357807159">
        <ele>2250.0999999999999</ele>
        <time>2013-07-28T14:28:35Z</time>
      </trkpt>
      <trkpt lat="45.928495684638619" lon="7.515064934268594">
        <ele>2247.2199999999998</ele>
        <time>2013-07-28T14:28:48Z</time>
      </trkpt>
      <trkpt lat="45.928477328270674" lon="7.515070466324687">
        <ele>2249.1399999999999</ele>
        <time>2013-07-28T14:28:50Z</time>
      </trkpt>
      <trkpt lat="45.928439106792212" lon="7.515143388882279">
        <ele>2249.1399999999999</ele>
        <time>2013-07-28T14:28:55Z</time>
      </trkpt>
      <trkpt lat="45.928420918062329" lon="7.515169456601143">
        <ele>2247.2199999999998</ele>
        <time>2013-07-28T14:28:58Z</time>
      </trkpt>
      <trkpt lat="45.928392754867673" lon="7.515207342803478">
        <ele>2248.1799999999998</ele>
        <time>2013-07-28T14:29:01Z</time>
      </trkpt>
      <trkpt lat="45.928362831473351" lon="7.51523525454104">
        <ele>2246.7399999999998</ele>
        <time>2013-07-28T14:29:04Z</time>
      </trkpt>
      <trkpt lat="45.928312875330448" lon="7.515296693891287">
        <ele>2246.7399999999998</ele>
        <time>2013-07-28T14:29:11Z</time>
      </trkpt>
      <trkpt lat="45.928202569484711" lon="7.51548838801682">
        <ele>2246.7399999999998</ele>
        <time>2013-07-28T14:29:28Z</time>
      </trkpt>
      <trkpt lat="45.928110452368855" lon="7.515515461564064">
        <ele>2243.8499999999999</ele>
        <time>2013-07-28T14:29:38Z</time>
      </trkpt>
      <trkpt lat="45.92802420258522" lon="7.515497021377087">
        <ele>2244.3299999999999</ele>
        <time>2013-07-28T14:29:47Z</time>
      </trkpt>
      <trkpt lat="45.927976425737143" lon="7.515549659729004">
        <ele>2243.8499999999999</ele>
        <time>2013-07-28T14:29:53Z</time>
      </trkpt>
      <trkpt lat="45.927946837618947" lon="7.515565920621157">
        <ele>2243.8499999999999</ele>
        <time>2013-07-28T14:29:56Z</time>
      </trkpt>
      <trkpt lat="45.927930325269699" lon="7.51556315459311">
        <ele>2241.9299999999998</ele>
        <time>2013-07-28T14:29:58Z</time>
      </trkpt>
      <trkpt lat="45.927915070205927" lon="7.515546977519989">
        <ele>2240.9699999999998</ele>
        <time>2013-07-28T14:30:00Z</time>
      </trkpt>
      <trkpt lat="45.927812391892076" lon="7.515419824048877">
        <ele>2241.4499999999998</ele>
        <time>2013-07-28T14:30:14Z</time>
      </trkpt>
      <trkpt lat="45.927766542881727" lon="7.515421165153384">
        <ele>2240.0100000000002</ele>
        <time>2013-07-28T14:30:18Z</time>
      </trkpt>
      <trkpt lat="45.927636455744505" lon="7.515487633645535">
        <ele>2238.5700000000002</ele>
        <time>2013-07-28T14:30:32Z</time>
      </trkpt>
      <trkpt lat="45.927535705268383" lon="7.515577906742692">
        <ele>2237.6100000000001</ele>
        <time>2013-07-28T14:30:43Z</time>
      </trkpt>
      <trkpt lat="45.927510475739837" lon="7.515603639185429">
        <ele>2238.5700000000002</ele>
        <time>2013-07-28T14:30:46Z</time>
      </trkpt>
      <trkpt lat="45.927497232332826" lon="7.515640435740352">
        <ele>2238.5700000000002</ele>
        <time>2013-07-28T14:30:49Z</time>
      </trkpt>
      <trkpt lat="45.927395056933165" lon="7.515791561454535">
        <ele>2238.0900000000001</ele>
        <time>2013-07-28T14:31:04Z</time>
      </trkpt>
      <trkpt lat="45.927259353920817" lon="7.515930198132992">
        <ele>2236.6399999999999</ele>
        <time>2013-07-28T14:31:20Z</time>
      </trkpt>
      <trkpt lat="45.927159693092108" lon="7.516051400452852">
        <ele>2236.1599999999999</ele>
        <time>2013-07-28T14:31:36Z</time>
      </trkpt>
      <trkpt lat="45.92706598341465" lon="7.516090627759695">
        <ele>2232.8000000000002</ele>
        <time>2013-07-28T14:31:50Z</time>
      </trkpt>
      <trkpt lat="45.927045699208975" lon="7.516145193949342">
        <ele>2233.2800000000002</ele>
        <time>2013-07-28T14:31:56Z</time>
      </trkpt>
      <trkpt lat="45.927016865462065" lon="7.516217865049839">
        <ele>2232.3200000000002</ele>
        <time>2013-07-28T14:32:02Z</time>
      </trkpt>
      <trkpt lat="45.926931705325842" lon="7.516235718503594">
        <ele>2229.4299999999998</ele>
        <time>2013-07-28T14:32:10Z</time>
      </trkpt>
      <trkpt lat="45.926886694505811" lon="7.516276286914945">
        <ele>2228.9499999999998</ele>
        <time>2013-07-28T14:32:18Z</time>
      </trkpt>
      <trkpt lat="45.926839588209987" lon="7.516386760398746">
        <ele>2226.5500000000002</ele>
        <time>2013-07-28T14:32:33Z</time>
      </trkpt>
      <trkpt lat="45.926804384216666" lon="7.516423808410764">
        <ele>2224.6300000000001</ele>
        <time>2013-07-28T14:32:41Z</time>
      </trkpt>
      <trkpt lat="45.926765911281109" lon="7.516447696834803">
        <ele>2224.6300000000001</ele>
        <time>2013-07-28T14:32:48Z</time>
      </trkpt>
      <trkpt lat="45.926725929602981" lon="7.516486002132297">
        <ele>2222.71</ele>
        <time>2013-07-28T14:32:55Z</time>
      </trkpt>
      <trkpt lat="45.926711345091462" lon="7.516501760110259">
        <ele>2224.1500000000001</ele>
        <time>2013-07-28T14:32:57Z</time>
      </trkpt>
      <trkpt lat="45.926680080592632" lon="7.516642408445478">
        <ele>2222.2199999999998</ele>
        <time>2013-07-28T14:33:10Z</time>
      </trkpt>
      <trkpt lat="45.926620317623019" lon="7.516750702634454">
        <ele>2220.3000000000002</ele>
        <time>2013-07-28T14:33:22Z</time>
      </trkpt>
      <trkpt lat="45.926540186628699" lon="7.516896380111575">
        <ele>2218.3800000000001</ele>
        <time>2013-07-28T14:33:35Z</time>
      </trkpt>
      <trkpt lat="45.92648159712553" lon="7.517043063417077">
        <ele>2215.5</ele>
        <time>2013-07-28T14:33:51Z</time>
      </trkpt>
      <trkpt lat="45.926488973200321" lon="7.517076842486858">
        <ele>2215.0100000000002</ele>
        <time>2013-07-28T14:33:57Z</time>
      </trkpt>
      <trkpt lat="45.926471538841724" lon="7.517231656238437">
        <ele>2212.6100000000001</ele>
        <time>2013-07-28T14:34:11Z</time>
      </trkpt>
      <trkpt lat="45.926439687609673" lon="7.517353780567646">
        <ele>2210.21</ele>
        <time>2013-07-28T14:34:22Z</time>
      </trkpt>
      <trkpt lat="45.9263916593045" lon="7.517440784722567">
        <ele>2207.8099999999999</ele>
        <time>2013-07-28T14:34:31Z</time>
      </trkpt>
      <trkpt lat="45.926319407299161" lon="7.517555113881826">
        <ele>2205.4000000000001</ele>
        <time>2013-07-28T14:34:44Z</time>
      </trkpt>
      <trkpt lat="45.926356371492147" lon="7.517481688410044">
        <ele>2205.8800000000001</ele>
        <time>2013-07-28T14:34:56Z</time>
      </trkpt>
      <trkpt lat="45.926350671797991" lon="7.51750448718667">
        <ele>2206.3600000000001</ele>
        <time>2013-07-28T14:35:19Z</time>
      </trkpt>
      <trkpt lat="45.926338350400329" lon="7.51751177944243">
        <ele>2205.4000000000001</ele>
        <time>2013-07-28T14:35:29Z</time>
      </trkpt>
      <trkpt lat="45.926345977932215" lon="7.517533404752612">
        <ele>2205.4000000000001</ele>
        <time>2013-07-28T14:35:46Z</time>
      </trkpt>
      <trkpt lat="45.926239946857095" lon="7.517668856307864">
        <ele>2203.48</ele>
        <time>2013-07-28T14:35:59Z</time>
      </trkpt>
      <trkpt lat="45.926164342090487" lon="7.517807660624385">
        <ele>2200.5900000000001</ele>
        <time>2013-07-28T14:36:10Z</time>
      </trkpt>
      <trkpt lat="45.926114805042744" lon="7.517867088317871">
        <ele>2200.1100000000001</ele>
        <time>2013-07-28T14:36:16Z</time>
      </trkpt>
      <trkpt lat="45.926096448674798" lon="7.517901202663779">
        <ele>2199.6300000000001</ele>
        <time>2013-07-28T14:36:19Z</time>
      </trkpt>
      <trkpt lat="45.92597583308816" lon="7.518063308671117">
        <ele>2198.6700000000001</ele>
        <time>2013-07-28T14:36:33Z</time>
      </trkpt>
      <trkpt lat="45.925949094817042" lon="7.518113180994988">
        <ele>2200.1100000000001</ele>
        <time>2013-07-28T14:36:36Z</time>
      </trkpt>
      <trkpt lat="45.925910454243422" lon="7.518160119652748">
        <ele>2199.6300000000001</ele>
        <time>2013-07-28T14:36:40Z</time>
      </trkpt>
      <trkpt lat="45.925884302705526" lon="7.518205549567938">
        <ele>2198.6700000000001</ele>
        <time>2013-07-28T14:36:44Z</time>
      </trkpt>
      <trkpt lat="45.925813810899854" lon="7.51830730587244">
        <ele>2197.71</ele>
        <time>2013-07-28T14:36:52Z</time>
      </trkpt>
      <trkpt lat="45.925653213635087" lon="7.518488857895136">
        <ele>2197.23</ele>
        <time>2013-07-28T14:37:08Z</time>
      </trkpt>
      <trkpt lat="45.925551960244775" lon="7.518615340813994">
        <ele>2197.23</ele>
        <time>2013-07-28T14:37:21Z</time>
      </trkpt>
      <trkpt lat="45.925524048507214" lon="7.518658842891455">
        <ele>2196.75</ele>
        <time>2013-07-28T14:37:25Z</time>
      </trkpt>
      <trkpt lat="45.925445090979338" lon="7.518733777105808">
        <ele>2195.3099999999999</ele>
        <time>2013-07-28T14:37:37Z</time>
      </trkpt>
      <trkpt lat="45.925427321344614" lon="7.518773507326841">
        <ele>2197.71</ele>
        <time>2013-07-28T14:37:41Z</time>
      </trkpt>
      <trkpt lat="45.925430674105883" lon="7.518795467913151">
        <ele>2196.75</ele>
        <time>2013-07-28T14:37:43Z</time>
      </trkpt>
      <trkpt lat="45.925396895036101" lon="7.518826816231012">
        <ele>2194.8299999999999</ele>
        <time>2013-07-28T14:37:47Z</time>
      </trkpt>
      <trkpt lat="45.925367726013064" lon="7.518834108486772">
        <ele>2194.8299999999999</ele>
        <time>2013-07-28T14:37:50Z</time>
      </trkpt>
      <trkpt lat="45.925304777920246" lon="7.518906025215983">
        <ele>2195.79</ele>
        <time>2013-07-28T14:37:57Z</time>
      </trkpt>
      <trkpt lat="45.925190700218081" lon="7.519087744876742">
        <ele>2195.79</ele>
        <time>2013-07-28T14:38:12Z</time>
      </trkpt>
      <trkpt lat="45.925053488463163" lon="7.519239541143179">
        <ele>2196.27</ele>
        <time>2013-07-28T14:38:27Z</time>
      </trkpt>
      <trkpt lat="45.924987103790045" lon="7.51934758387506">
        <ele>2195.79</ele>
        <time>2013-07-28T14:38:36Z</time>
      </trkpt>
      <trkpt lat="45.924824075773358" lon="7.519512204453349">
        <ele>2193.8699999999999</ele>
        <time>2013-07-28T14:38:53Z</time>
      </trkpt>
      <trkpt lat="45.924765150994062" lon="7.519594514742494">
        <ele>2193.3899999999999</ele>
        <time>2013-07-28T14:39:00Z</time>
      </trkpt>
      <trkpt lat="45.924664484336972" lon="7.519728792831302">
        <ele>2191.9400000000001</ele>
        <time>2013-07-28T14:39:13Z</time>
      </trkpt>
      <trkpt lat="45.924626011401415" lon="7.519849743694067">
        <ele>2190.5</ele>
        <time>2013-07-28T14:39:22Z</time>
      </trkpt>
      <trkpt lat="45.924545880407095" lon="7.519920654594898">
        <ele>2190.5</ele>
        <time>2013-07-28T14:39:30Z</time>
      </trkpt>
      <trkpt lat="45.9244713652879" lon="7.519924258813262">
        <ele>2190.02</ele>
        <time>2013-07-28T14:39:37Z</time>
      </trkpt>
      <trkpt lat="45.924434484913945" lon="7.519942950457335">
        <ele>2190.02</ele>
        <time>2013-07-28T14:39:41Z</time>
      </trkpt>
      <trkpt lat="45.924404561519623" lon="7.519971951842308">
        <ele>2190.98</ele>
        <time>2013-07-28T14:39:55Z</time>
      </trkpt>
      <trkpt lat="45.924391569569707" lon="7.519988128915429">
        <ele>2190.98</ele>
        <time>2013-07-28T14:39:57Z</time>
      </trkpt>
      <trkpt lat="45.924266679212451" lon="7.520035319030285">
        <ele>2190.02</ele>
        <time>2013-07-28T14:40:10Z</time>
      </trkpt>
      <trkpt lat="45.924256453290582" lon="7.520047221332789">
        <ele>2189.0599999999999</ele>
        <time>2013-07-28T14:40:12Z</time>
      </trkpt>
      <trkpt lat="45.924168778583407" lon="7.520077563822269">
        <ele>2189.0599999999999</ele>
        <time>2013-07-28T14:40:20Z</time>
      </trkpt>
      <trkpt lat="45.924115553498268" lon="7.520118886604905">
        <ele>2189.54</ele>
        <time>2013-07-28T14:40:25Z</time>
      </trkpt>
      <trkpt lat="45.924004912376404" lon="7.520160293206573">
        <ele>2189.0599999999999</ele>
        <time>2013-07-28T14:40:35Z</time>
      </trkpt>
      <trkpt lat="45.923894187435508" lon="7.520218966528773">
        <ele>2189.0599999999999</ele>
        <time>2013-07-28T14:40:49Z</time>
      </trkpt>
      <trkpt lat="45.923849260434508" lon="7.520254841074348">
        <ele>2189.54</ele>
        <time>2013-07-28T14:41:00Z</time>
      </trkpt>
      <trkpt lat="45.923849428072572" lon="7.520244782790542">
        <ele>2189.54</ele>
        <time>2013-07-28T14:41:14Z</time>
      </trkpt>
      <trkpt lat="45.923867449164391" lon="7.520271940156817">
        <ele>2188.5799999999999</ele>
        <time>2013-07-28T14:41:21Z</time>
      </trkpt>
      <trkpt lat="45.923790838569403" lon="7.520345533266664">
        <ele>2187.1399999999999</ele>
        <time>2013-07-28T14:41:29Z</time>
      </trkpt>
      <trkpt lat="45.92376627959311" lon="7.520377971231937">
        <ele>2186.6599999999999</ele>
        <time>2013-07-28T14:41:32Z</time>
      </trkpt>
      <trkpt lat="45.923716742545366" lon="7.520504454150796">
        <ele>2183.77</ele>
        <time>2013-07-28T14:41:42Z</time>
      </trkpt>
      <trkpt lat="45.923661170527339" lon="7.520595313981175">
        <ele>2180.8899999999999</ele>
        <time>2013-07-28T14:41:51Z</time>
      </trkpt>
      <trkpt lat="45.923626972362399" lon="7.520612496882677">
        <ele>2178.48</ele>
        <time>2013-07-28T14:41:54Z</time>
      </trkpt>
      <trkpt lat="45.923612723127007" lon="7.520617609843612">
        <ele>2175.5999999999999</ele>
        <time>2013-07-28T14:41:55Z</time>
      </trkpt>
      <trkpt lat="45.923600820824504" lon="7.520617609843612">
        <ele>2175.1199999999999</ele>
        <time>2013-07-28T14:41:56Z</time>
      </trkpt>
      <trkpt lat="45.923577016219497" lon="7.520619202405214">
        <ele>2177.04</ele>
        <time>2013-07-28T14:41:58Z</time>
      </trkpt>
      <trkpt lat="45.923522617667913" lon="7.520639905706048">
        <ele>2178.48</ele>
        <time>2013-07-28T14:42:04Z</time>
      </trkpt>
      <trkpt lat="45.92350535094738" lon="7.520660357549787">
        <ele>2179.4499999999998</ele>
        <time>2013-07-28T14:42:06Z</time>
      </trkpt>
      <trkpt lat="45.923433685675263" lon="7.520740907639265">
        <ele>2178</ele>
        <time>2013-07-28T14:42:14Z</time>
      </trkpt>
      <trkpt lat="45.923411557450891" lon="7.520790528506041">
        <ele>2175.5999999999999</ele>
        <time>2013-07-28T14:42:18Z</time>
      </trkpt>
      <trkpt lat="45.923238219693303" lon="7.520923297852278">
        <ele>2174.6399999999999</ele>
        <time>2013-07-28T14:42:35Z</time>
      </trkpt>
      <trkpt lat="45.923200249671936" lon="7.520958753302693">
        <ele>2175.1199999999999</ele>
        <time>2013-07-28T14:42:40Z</time>
      </trkpt>
      <trkpt lat="45.923177534714341" lon="7.520968811586499">
        <ele>2173.6799999999998</ele>
        <time>2013-07-28T14:42:43Z</time>
      </trkpt>
      <trkpt lat="45.923159429803491" lon="7.520972583442926">
        <ele>2174.1599999999999</ele>
        <time>2013-07-28T14:42:54Z</time>
      </trkpt>
      <trkpt lat="45.923155657947063" lon="7.52094928175211">
        <ele>2172.7199999999998</ele>
        <time>2013-07-28T14:42:58Z</time>
      </trkpt>
      <trkpt lat="45.923154233023524" lon="7.520925309509039">
        <ele>2172.7199999999998</ele>
        <time>2013-07-28T14:43:27Z</time>
      </trkpt>
      <trkpt lat="45.923155909404159" lon="7.520965961739421">
        <ele>2173.6799999999998</ele>
        <time>2013-07-28T14:43:55Z</time>
      </trkpt>
      <trkpt lat="45.923122130334377" lon="7.521091857925057">
        <ele>2172.2399999999998</ele>
        <time>2013-07-28T14:44:09Z</time>
      </trkpt>
      <trkpt lat="45.923124141991138" lon="7.521098898723722">
        <ele>2172.2399999999998</ele>
        <time>2013-07-28T14:44:18Z</time>
      </trkpt>
      <trkpt lat="45.923139397054911" lon="7.521253041923046">
        <ele>2168.8699999999999</ele>
        <time>2013-07-28T14:44:28Z</time>
      </trkpt>
      <trkpt lat="45.923149874433875" lon="7.521306350827217">
        <ele>2167.4299999999998</ele>
        <time>2013-07-28T14:44:32Z</time>
      </trkpt>
      <trkpt lat="45.923167811706662" lon="7.521331077441573">
        <ele>2165.0300000000002</ele>
        <time>2013-07-28T14:44:35Z</time>
      </trkpt>
      <trkpt lat="45.923153646290302" lon="7.521353960037231">
        <ele>2165.0300000000002</ele>
        <time>2013-07-28T14:44:40Z</time>
      </trkpt>
      <trkpt lat="45.923146437853575" lon="7.521382290869951">
        <ele>2165.0300000000002</ele>
        <time>2013-07-28T14:44:42Z</time>
      </trkpt>
      <trkpt lat="45.923001514747739" lon="7.521475665271282">
        <ele>2163.5799999999999</ele>
        <time>2013-07-28T14:44:56Z</time>
      </trkpt>
      <trkpt lat="45.92296589165926" lon="7.521503493189812">
        <ele>2162.6199999999999</ele>
        <time>2013-07-28T14:45:00Z</time>
      </trkpt>
      <trkpt lat="45.922930100932717" lon="7.521516233682632">
        <ele>2162.1399999999999</ele>
        <time>2013-07-28T14:45:04Z</time>
      </trkpt>
      <trkpt lat="45.922906883060932" lon="7.521543391048908">
        <ele>2162.6199999999999</ele>
        <time>2013-07-28T14:45:07Z</time>
      </trkpt>
      <trkpt lat="45.922859273850918" lon="7.521563591435552">
        <ele>2160.6999999999998</ele>
        <time>2013-07-28T14:45:11Z</time>
      </trkpt>
      <trkpt lat="45.922724241390824" lon="7.521592425182462">
        <ele>2160.6999999999998</ele>
        <time>2013-07-28T14:45:24Z</time>
      </trkpt>
      <trkpt lat="45.922707058489323" lon="7.521575326099992">
        <ele>2159.2600000000002</ele>
        <time>2013-07-28T14:45:33Z</time>
      </trkpt>
      <trkpt lat="45.922680404037237" lon="7.521607093513012">
        <ele>2158.3000000000002</ele>
        <time>2013-07-28T14:45:44Z</time>
      </trkpt>
      <trkpt lat="45.922577725723386" lon="7.52176626585424">
        <ele>2154.9299999999998</ele>
        <time>2013-07-28T14:45:58Z</time>
      </trkpt>
      <trkpt lat="45.922512095421553" lon="7.521815551444888">
        <ele>2153.9699999999998</ele>
        <time>2013-07-28T14:46:04Z</time>
      </trkpt>
      <trkpt lat="45.922423163428903" lon="7.521881181746721">
        <ele>2150.6100000000001</ele>
        <time>2013-07-28T14:46:13Z</time>
      </trkpt>
      <trkpt lat="45.922284442931414" lon="7.52194756641984">
        <ele>2148.6799999999998</ele>
        <time>2013-07-28T14:46:25Z</time>
      </trkpt>
      <trkpt lat="45.922273881733418" lon="7.521987380459905">
        <ele>2147.2399999999998</ele>
        <time>2013-07-28T14:46:28Z</time>
      </trkpt>
      <trkpt lat="45.922237001359463" lon="7.522086203098297">
        <ele>2146.2800000000002</ele>
        <time>2013-07-28T14:46:37Z</time>
      </trkpt>
      <trkpt lat="45.922222081571817" lon="7.522175554186106">
        <ele>2143.8800000000001</ele>
        <time>2013-07-28T14:46:45Z</time>
      </trkpt>
      <trkpt lat="45.922224679961801" lon="7.52227739430964">
        <ele>2140.9899999999998</ele>
        <time>2013-07-28T14:46:55Z</time>
      </trkpt>
      <trkpt lat="45.922205150127411" lon="7.522311257198453">
        <ele>2140.0300000000002</ele>
        <time>2013-07-28T14:46:58Z</time>
      </trkpt>
      <trkpt lat="45.922161061316729" lon="7.522341012954712">
        <ele>2138.5900000000001</ele>
        <time>2013-07-28T14:47:04Z</time>
      </trkpt>
      <trkpt lat="45.922106998041272" lon="7.522372780367732">
        <ele>2136.6700000000001</ele>
        <time>2013-07-28T14:47:11Z</time>
      </trkpt>
      <trkpt lat="45.92209417372942" lon="7.522399686276913">
        <ele>2136.1900000000001</ele>
        <time>2013-07-28T14:47:14Z</time>
      </trkpt>
      <trkpt lat="45.922063495963812" lon="7.522467747330666">
        <ele>2134.7399999999998</ele>
        <time>2013-07-28T14:47:21Z</time>
      </trkpt>
      <trkpt lat="45.92203457839787" lon="7.522519798949361">
        <ele>2132.3400000000001</ele>
        <time>2013-07-28T14:47:27Z</time>
      </trkpt>
      <trkpt lat="45.922051426023245" lon="7.522587860003114">
        <ele>2130.4200000000001</ele>
        <time>2013-07-28T14:47:33Z</time>
      </trkpt>
      <trkpt lat="45.922016222029924" lon="7.522700177505612">
        <ele>2127.5300000000002</ele>
        <time>2013-07-28T14:47:43Z</time>
      </trkpt>
      <trkpt lat="45.92199694365263" lon="7.522718533873558">
        <ele>2126.0900000000001</ele>
        <time>2013-07-28T14:47:47Z</time>
      </trkpt>
      <trkpt lat="45.921892756596208" lon="7.522734710946679">
        <ele>2124.1700000000001</ele>
        <time>2013-07-28T14:47:59Z</time>
      </trkpt>
      <trkpt lat="45.921830730512738" lon="7.522863792255521">
        <ele>2121.29</ele>
        <time>2013-07-28T14:48:12Z</time>
      </trkpt>
      <trkpt lat="45.921813631430268" lon="7.523005614057183">
        <ele>2118.8800000000001</ele>
        <time>2013-07-28T14:48:24Z</time>
      </trkpt>
      <trkpt lat="45.921783959493041" lon="7.523085996508598">
        <ele>2117.4400000000001</ele>
        <time>2013-07-28T14:48:31Z</time>
      </trkpt>
      <trkpt lat="45.921715144068003" lon="7.523091780021787">
        <ele>2115.52</ele>
        <time>2013-07-28T14:48:39Z</time>
      </trkpt>
      <trkpt lat="45.921633085235953" lon="7.523152632638812">
        <ele>2112.6300000000001</ele>
        <time>2013-07-28T14:48:51Z</time>
      </trkpt>
      <trkpt lat="45.921622356399894" lon="7.523153051733971">
        <ele>2112.6300000000001</ele>
        <time>2013-07-28T14:48:52Z</time>
      </trkpt>
      <trkpt lat="45.92159871943295" lon="7.523133270442486">
        <ele>2111.1900000000001</ele>
        <time>2013-07-28T14:48:54Z</time>
      </trkpt>
      <trkpt lat="45.92149025760591" lon="7.523076524958015">
        <ele>2109.27</ele>
        <time>2013-07-28T14:49:07Z</time>
      </trkpt>
      <trkpt lat="45.921452036127448" lon="7.523073423653841">
        <ele>2108.79</ele>
        <time>2013-07-28T14:49:26Z</time>
      </trkpt>
      <trkpt lat="45.921455472707748" lon="7.523109130561352">
        <ele>2108.79</ele>
        <time>2013-07-28T14:49:35Z</time>
      </trkpt>
      <trkpt lat="45.921345334500074" lon="7.523117093369365">
        <ele>2105.4200000000001</ele>
        <time>2013-07-28T14:49:46Z</time>
      </trkpt>
      <trkpt lat="45.921299485489726" lon="7.523110471665859">
        <ele>2103.5</ele>
        <time>2013-07-28T14:49:50Z</time>
      </trkpt>
      <trkpt lat="45.921277524903417" lon="7.523137209936976">
        <ele>2099.6599999999999</ele>
        <time>2013-07-28T14:50:02Z</time>
      </trkpt>
      <trkpt lat="45.921273753046989" lon="7.523224214091897">
        <ele>2096.77</ele>
        <time>2013-07-28T14:50:13Z</time>
      </trkpt>
      <trkpt lat="45.921291690319777" lon="7.523313229903579">
        <ele>2094.3699999999999</ele>
        <time>2013-07-28T14:50:20Z</time>
      </trkpt>
      <trkpt lat="45.921210721135139" lon="7.523343740031123">
        <ele>2092.9299999999998</ele>
        <time>2013-07-28T14:50:30Z</time>
      </trkpt>
      <trkpt lat="45.921194963157177" lon="7.523357821628451">
        <ele>2092.4499999999998</ele>
        <time>2013-07-28T14:50:32Z</time>
      </trkpt>
      <trkpt lat="45.921132015064359" lon="7.523479945957661">
        <ele>2090.04</ele>
        <time>2013-07-28T14:50:46Z</time>
      </trkpt>
      <trkpt lat="45.921130003407598" lon="7.523489585146308">
        <ele>2089.5599999999999</ele>
        <time>2013-07-28T14:50:47Z</time>
      </trkpt>
      <trkpt lat="45.921116843819618" lon="7.523571224883199">
        <ele>2087.6399999999999</ele>
        <time>2013-07-28T14:51:01Z</time>
      </trkpt>
      <trkpt lat="45.921075688675046" lon="7.523762248456478">
        <ele>2087.1599999999999</ele>
        <time>2013-07-28T14:51:17Z</time>
      </trkpt>
      <trkpt lat="45.921081975102425" lon="7.523786975070834">
        <ele>2087.1599999999999</ele>
        <time>2013-07-28T14:51:20Z</time>
      </trkpt>
      <trkpt lat="45.921106785535812" lon="7.523941956460476">
        <ele>2085.7199999999998</ele>
        <time>2013-07-28T14:51:30Z</time>
      </trkpt>
      <trkpt lat="45.9210763592273" lon="7.52401739358902">
        <ele>2084.2800000000002</ele>
        <time>2013-07-28T14:51:43Z</time>
      </trkpt>
      <trkpt lat="45.921081220731139" lon="7.524035917595029">
        <ele>2083.79</ele>
        <time>2013-07-28T14:51:52Z</time>
      </trkpt>
      <trkpt lat="45.921016177162528" lon="7.524231383576989">
        <ele>2082.8299999999999</ele>
        <time>2013-07-28T14:52:05Z</time>
      </trkpt>
      <trkpt lat="45.920884916558862" lon="7.524360632523894">
        <ele>2081.8699999999999</ele>
        <time>2013-07-28T14:52:20Z</time>
      </trkpt>
      <trkpt lat="45.92089070007205" lon="7.524360464885831">
        <ele>2081.8699999999999</ele>
        <time>2013-07-28T14:52:27Z</time>
      </trkpt>
      <trkpt lat="45.920831775292754" lon="7.524453336372972">
        <ele>2081.3899999999999</ele>
        <time>2013-07-28T14:52:41Z</time>
      </trkpt>
      <trkpt lat="45.920820627361536" lon="7.524468172341585">
        <ele>2082.3499999999999</ele>
        <time>2013-07-28T14:52:54Z</time>
      </trkpt>
      <trkpt lat="45.920823225751519" lon="7.524465993046761">
        <ele>2081.3899999999999</ele>
        <time>2013-07-28T14:53:12Z</time>
      </trkpt>
      <trkpt lat="45.920832697302103" lon="7.524469345808029">
        <ele>2081.3899999999999</ele>
        <time>2013-07-28T14:53:18Z</time>
      </trkpt>
      <trkpt lat="45.920815095305443" lon="7.524476302787662">
        <ele>2080.9099999999999</ele>
        <time>2013-07-28T14:53:33Z</time>
      </trkpt>
      <trkpt lat="45.920824315398932" lon="7.524463646113873">
        <ele>2081.8699999999999</ele>
        <time>2013-07-28T14:53:39Z</time>
      </trkpt>
      <trkpt lat="45.920814340934157" lon="7.524495329707861">
        <ele>2081.8699999999999</ele>
        <time>2013-07-28T14:53:51Z</time>
      </trkpt>
      <trkpt lat="45.920825824141502" lon="7.524500275030732">
        <ele>2081.8699999999999</ele>
        <time>2013-07-28T14:53:57Z</time>
      </trkpt>
      <trkpt lat="45.920788943767548" lon="7.524631200358272">
        <ele>2081.3899999999999</ele>
        <time>2013-07-28T14:54:07Z</time>
      </trkpt>
      <trkpt lat="45.920757176354527" lon="7.5246452819556">
        <ele>2080.9099999999999</ele>
        <time>2013-07-28T14:54:10Z</time>
      </trkpt>
      <trkpt lat="45.920722475275397" lon="7.524710241705179">
        <ele>2080.4299999999998</ele>
        <time>2013-07-28T14:54:15Z</time>
      </trkpt>
      <trkpt lat="45.920684253796935" lon="7.524748547002673">
        <ele>2079.9499999999998</ele>
        <time>2013-07-28T14:54:34Z</time>
      </trkpt>
      <trkpt lat="45.920677799731493" lon="7.524630026891828">
        <ele>2079.9499999999998</ele>
        <time>2013-07-28T14:54:46Z</time>
      </trkpt>
      <trkpt lat="45.920688780024648" lon="7.52454754896462">
        <ele>2079.9499999999998</ele>
        <time>2013-07-28T14:55:00Z</time>
      </trkpt>
      <trkpt lat="45.920686181634665" lon="7.524552997201681">
        <ele>2080.4299999999998</ele>
        <time>2013-07-28T14:55:23Z</time>
      </trkpt>
      <trkpt lat="45.92067520134151" lon="7.524549057707191">
        <ele>2080.4299999999998</ele>
        <time>2013-07-28T14:55:49Z</time>
      </trkpt>
      <trkpt lat="45.920681823045015" lon="7.524544280022383">
        <ele>2079.9499999999998</ele>
        <time>2013-07-28T14:56:25Z</time>
      </trkpt>
      <trkpt lat="45.920685091987252" lon="7.52455048263073">
        <ele>2079.9499999999998</ele>
        <time>2013-07-28T14:56:47Z</time>
      </trkpt>
      <trkpt lat="45.920685594901443" lon="7.524555427953601">
        <ele>2079.4699999999998</ele>
        <time>2013-07-28T14:57:30Z</time>
      </trkpt>
      <trkpt lat="45.92067469842732" lon="7.5245675817132">
        <ele>2079.4699999999998</ele>
        <time>2013-07-28T14:57:47Z</time>
      </trkpt>
      <trkpt lat="45.920668328180909" lon="7.524588787928224">
        <ele>2079.4699999999998</ele>
        <time>2013-07-28T14:58:07Z</time>
      </trkpt>
      <trkpt lat="45.920667825266719" lon="7.524563390761614">
        <ele>2078.9899999999998</ele>
        <time>2013-07-28T14:58:22Z</time>
      </trkpt>
      <trkpt lat="45.920664723962545" lon="7.524546124041081">
        <ele>2078.0300000000002</ele>
        <time>2013-07-28T14:58:50Z</time>
      </trkpt>
      <trkpt lat="45.920674111694098" lon="7.524505136534572">
        <ele>2078.0300000000002</ele>
        <time>2013-07-28T14:59:05Z</time>
      </trkpt>
      <trkpt lat="45.920663382858038" lon="7.524514775723219">
        <ele>2078.5100000000002</ele>
        <time>2013-07-28T14:59:29Z</time>
      </trkpt>
      <trkpt lat="45.920663634315133" lon="7.524558696895838">
        <ele>2078.0300000000002</ele>
        <time>2013-07-28T14:59:48Z</time>
      </trkpt>
      <trkpt lat="45.920650223270059" lon="7.524573616683483">
        <ele>2078.0300000000002</ele>
        <time>2013-07-28T15:00:05Z</time>
      </trkpt>
      <trkpt lat="45.920604458078742" lon="7.524542938917875">
        <ele>2076.5900000000001</ele>
        <time>2013-07-28T15:00:17Z</time>
      </trkpt>
      <trkpt lat="45.920573193579912" lon="7.524543609470129">
        <ele>2075.6199999999999</ele>
        <time>2013-07-28T15:00:31Z</time>
      </trkpt>
      <trkpt lat="45.920567996799946" lon="7.52455048263073">
        <ele>2076.0999999999999</ele>
        <time>2013-07-28T15:00:33Z</time>
      </trkpt>
      <trkpt lat="45.920416368171573" lon="7.524552410468459">
        <ele>2074.1799999999998</ele>
        <time>2013-07-28T15:00:49Z</time>
      </trkpt>
      <trkpt lat="45.920373285189271" lon="7.524527767673135">
        <ele>2072.7399999999998</ele>
        <time>2013-07-28T15:01:01Z</time>
      </trkpt>
      <trkpt lat="45.920360377058387" lon="7.524507064372301">
        <ele>2073.2199999999998</ele>
        <time>2013-07-28T15:01:17Z</time>
      </trkpt>
      <trkpt lat="45.920349480584264" lon="7.524506310001016">
        <ele>2073.2199999999998</ele>
        <time>2013-07-28T15:01:21Z</time>
      </trkpt>
      <trkpt lat="45.920242946594954" lon="7.524333475157619">
        <ele>2072.2600000000002</ele>
        <time>2013-07-28T15:01:36Z</time>
      </trkpt>
      <trkpt lat="45.920142279937863" lon="7.524202717468143">
        <ele>2070.8200000000002</ele>
        <time>2013-07-28T15:01:49Z</time>
      </trkpt>
      <trkpt lat="45.920042954385281" lon="7.524185869842768">
        <ele>2069.3800000000001</ele>
        <time>2013-07-28T15:02:05Z</time>
      </trkpt>
      <trkpt lat="45.920029124245048" lon="7.524164076894522">
        <ele>2069.3800000000001</ele>
        <time>2013-07-28T15:02:20Z</time>
      </trkpt>
      <trkpt lat="45.920048905536532" lon="7.524143122136593">
        <ele>2068.4099999999999</ele>
        <time>2013-07-28T15:02:34Z</time>
      </trkpt>
      <trkpt lat="45.92001655139029" lon="7.524135243147612">
        <ele>2066.9699999999998</ele>
        <time>2013-07-28T15:02:50Z</time>
      </trkpt>
      <trkpt lat="45.919948825612664" lon="7.524083526805043">
        <ele>2064.5700000000002</ele>
        <time>2013-07-28T15:03:08Z</time>
      </trkpt>
      <trkpt lat="45.919915633276105" lon="7.524052262306213">
        <ele>2064.5700000000002</ele>
        <time>2013-07-28T15:03:11Z</time>
      </trkpt>
      <trkpt lat="45.919863246381283" lon="7.52403985708952">
        <ele>2063.1300000000001</ele>
        <time>2013-07-28T15:03:16Z</time>
      </trkpt>
      <trkpt lat="45.919846314936876" lon="7.524024099111557">
        <ele>2062.6500000000001</ele>
        <time>2013-07-28T15:03:22Z</time>
      </trkpt>
      <trkpt lat="45.919834161177278" lon="7.524010268971324">
        <ele>2062.6500000000001</ele>
        <time>2013-07-28T15:03:24Z</time>
      </trkpt>
      <trkpt lat="45.919832987710834" lon="7.523932065814734">
        <ele>2064.0900000000001</ele>
        <time>2013-07-28T15:03:39Z</time>
      </trkpt>
      <trkpt lat="45.91982988640666" lon="7.523936843499541">
        <ele>2063.1300000000001</ele>
        <time>2013-07-28T15:03:49Z</time>
      </trkpt>
      <trkpt lat="45.919799711555243" lon="7.523952936753631">
        <ele>2062.1700000000001</ele>
        <time>2013-07-28T15:04:10Z</time>
      </trkpt>
      <trkpt lat="45.919817062094808" lon="7.524011693894863">
        <ele>2062.1700000000001</ele>
        <time>2013-07-28T15:04:26Z</time>
      </trkpt>
      <trkpt lat="45.919818738475442" lon="7.524021500721574">
        <ele>2062.1700000000001</ele>
        <time>2013-07-28T15:04:27Z</time>
      </trkpt>
      <trkpt lat="45.919787725433707" lon="7.524048825725913">
        <ele>2061.1999999999998</ele>
        <time>2013-07-28T15:04:40Z</time>
      </trkpt>
      <trkpt lat="45.919759562239051" lon="7.524063913151622">
        <ele>2059.7600000000002</ele>
        <time>2013-07-28T15:04:50Z</time>
      </trkpt>
      <trkpt lat="45.91969795525074" lon="7.524137003347278">
        <ele>2056.8800000000001</ele>
        <time>2013-07-28T15:05:03Z</time>
      </trkpt>
      <trkpt lat="45.919618243351579" lon="7.524098781868815">
        <ele>2054.96</ele>
        <time>2013-07-28T15:05:15Z</time>
      </trkpt>
      <trkpt lat="45.919530568644404" lon="7.524037258699536">
        <ele>2052.5500000000002</ele>
        <time>2013-07-28T15:05:30Z</time>
      </trkpt>
      <trkpt lat="45.919527299702168" lon="7.524034241214395">
        <ele>2052.5500000000002</ele>
        <time>2013-07-28T15:05:31Z</time>
      </trkpt>
      <trkpt lat="45.919408276677132" lon="7.523966347798705">
        <ele>2051.1100000000001</ele>
        <time>2013-07-28T15:05:45Z</time>
      </trkpt>
      <trkpt lat="45.919315153732896" lon="7.523885210976005">
        <ele>2048.23</ele>
        <time>2013-07-28T15:06:00Z</time>
      </trkpt>
      <trkpt lat="45.919277351349592" lon="7.523937094956636">
        <ele>2046.3</ele>
        <time>2013-07-28T15:06:14Z</time>
      </trkpt>
      <trkpt lat="45.919306436553597" lon="7.524092411622405">
        <ele>2042.9400000000001</ele>
        <time>2013-07-28T15:06:27Z</time>
      </trkpt>
      <trkpt lat="45.919300401583314" lon="7.52420942299068">
        <ele>2041.5</ele>
        <time>2013-07-28T15:06:40Z</time>
      </trkpt>
      <trkpt lat="45.919272406026721" lon="7.524183942005038">
        <ele>2041.02</ele>
        <time>2013-07-28T15:06:54Z</time>
      </trkpt>
      <trkpt lat="45.919226557016373" lon="7.52414739690721">
        <ele>2040.54</ele>
        <time>2013-07-28T15:06:57Z</time>
      </trkpt>
      <trkpt lat="45.919182887300849" lon="7.524111857637763">
        <ele>2040.05</ele>
        <time>2013-07-28T15:07:01Z</time>
      </trkpt>
      <trkpt lat="45.919045256450772" lon="7.524002054706216">
        <ele>2039.0899999999999</ele>
        <time>2013-07-28T15:07:16Z</time>
      </trkpt>
      <trkpt lat="45.918986164033413" lon="7.523977914825082">
        <ele>2039.0899999999999</ele>
        <time>2013-07-28T15:07:21Z</time>
      </trkpt>
      <trkpt lat="45.918960683047771" lon="7.523907255381346">
        <ele>2035.73</ele>
        <time>2013-07-28T15:07:26Z</time>
      </trkpt>
      <trkpt lat="45.918891532346606" lon="7.523892754688859">
        <ele>2034.29</ele>
        <time>2013-07-28T15:07:40Z</time>
      </trkpt>
      <trkpt lat="45.918867979198694" lon="7.524124346673489">
        <ele>2032.8399999999999</ele>
        <time>2013-07-28T15:07:54Z</time>
      </trkpt>
      <trkpt lat="45.918868901208043" lon="7.524137757718563">
        <ele>2032.3599999999999</ele>
        <time>2013-07-28T15:07:55Z</time>
      </trkpt>
      <trkpt lat="45.918864207342267" lon="7.524214871227741">
        <ele>2032.8399999999999</ele>
        <time>2013-07-28T15:07:59Z</time>
      </trkpt>
      <trkpt lat="45.918945427983999" lon="7.524521984159946">
        <ele>2029</ele>
        <time>2013-07-28T15:08:16Z</time>
      </trkpt>
      <trkpt lat="45.918944841250777" lon="7.524544028565288">
        <ele>2029</ele>
        <time>2013-07-28T15:08:17Z</time>
      </trkpt>
      <trkpt lat="45.918886587023735" lon="7.524586105719209">
        <ele>2028.04</ele>
        <time>2013-07-28T15:08:22Z</time>
      </trkpt>
      <trkpt lat="45.918628759682178" lon="7.524395920336247">
        <ele>2027.5599999999999</ele>
        <time>2013-07-28T15:08:43Z</time>
      </trkpt>
      <trkpt lat="45.918455673381686" lon="7.524247476831079">
        <ele>2026.1199999999999</ele>
        <time>2013-07-28T15:09:00Z</time>
      </trkpt>
      <trkpt lat="45.918317204341292" lon="7.524165417999029">
        <ele>2022.27</ele>
        <time>2013-07-28T15:09:15Z</time>
      </trkpt>
      <trkpt lat="45.918298177421093" lon="7.52418159507215">
        <ele>2022.75</ele>
        <time>2013-07-28T15:09:18Z</time>
      </trkpt>
      <trkpt lat="45.918378559872508" lon="7.524356860667467">
        <ele>2020.3499999999999</ele>
        <time>2013-07-28T15:09:31Z</time>
      </trkpt>
      <trkpt lat="45.918399849906564" lon="7.524390639737248">
        <ele>2019.8699999999999</ele>
        <time>2013-07-28T15:09:34Z</time>
      </trkpt>
      <trkpt lat="45.918405884876847" lon="7.52456464804709">
        <ele>2017.46</ele>
        <time>2013-07-28T15:09:44Z</time>
      </trkpt>
      <trkpt lat="45.918326089158654" lon="7.524549392983317">
        <ele>2016.98</ele>
        <time>2013-07-28T15:09:49Z</time>
      </trkpt>
      <trkpt lat="45.918179405853152" lon="7.524442272260785">
        <ele>2015.54</ele>
        <time>2013-07-28T15:10:02Z</time>
      </trkpt>
      <trkpt lat="45.918043535202742" lon="7.524414863437414">
        <ele>2013.6199999999999</ele>
        <time>2013-07-28T15:10:15Z</time>
      </trkpt>
      <trkpt lat="45.917892912402749" lon="7.524279914796352">
        <ele>2011.22</ele>
        <time>2013-07-28T15:10:30Z</time>
      </trkpt>
      <trkpt lat="45.917749162763357" lon="7.524123257026076">
        <ele>2007.8499999999999</ele>
        <time>2013-07-28T15:10:45Z</time>
      </trkpt>
      <trkpt lat="45.917725609615445" lon="7.524083442986012">
        <ele>2007.3699999999999</ele>
        <time>2013-07-28T15:10:48Z</time>
      </trkpt>
      <trkpt lat="45.917722592130303" lon="7.524030720815063">
        <ele>2007.3699999999999</ele>
        <time>2013-07-28T15:11:02Z</time>
      </trkpt>
      <trkpt lat="45.917710354551673" lon="7.523965928703547">
        <ele>2005.9300000000001</ele>
        <time>2013-07-28T15:11:13Z</time>
      </trkpt>
      <trkpt lat="45.917688561603427" lon="7.523884372785687">
        <ele>2004.49</ele>
        <time>2013-07-28T15:11:18Z</time>
      </trkpt>
      <trkpt lat="45.917701385915279" lon="7.523824106901884">
        <ele>2002.5599999999999</ele>
        <time>2013-07-28T15:11:34Z</time>
      </trkpt>
      <trkpt lat="45.917705409228802" lon="7.523745568469167">
        <ele>2001.5999999999999</ele>
        <time>2013-07-28T15:11:56Z</time>
      </trkpt>
      <trkpt lat="45.917706331238151" lon="7.52373106777668">
        <ele>2001.1199999999999</ele>
        <time>2013-07-28T15:11:57Z</time>
      </trkpt>
      <trkpt lat="45.917718736454844" lon="7.523735258728266">
        <ele>2000.6400000000001</ele>
        <time>2013-07-28T15:12:07Z</time>
      </trkpt>
      <trkpt lat="45.917743463069201" lon="7.523660659790039">
        <ele>2002.0799999999999</ele>
        <time>2013-07-28T15:12:18Z</time>
      </trkpt>
      <trkpt lat="45.917768608778715" lon="7.52362453378737">
        <ele>2001.5999999999999</ele>
        <time>2013-07-28T15:12:29Z</time>
      </trkpt>
      <trkpt lat="45.917749246582389" lon="7.523601818829775">
        <ele>2002.0799999999999</ele>
        <time>2013-07-28T15:12:39Z</time>
      </trkpt>
      <trkpt lat="45.917729381471872" lon="7.523449687287211">
        <ele>2002.0799999999999</ele>
        <time>2013-07-28T15:12:52Z</time>
      </trkpt>
      <trkpt lat="45.91765453107655" lon="7.523380033671856">
        <ele>2003.52</ele>
        <time>2013-07-28T15:13:01Z</time>
      </trkpt>
      <trkpt lat="45.917526036500931" lon="7.523231590166688">
        <ele>2004.01</ele>
        <time>2013-07-28T15:13:17Z</time>
      </trkpt>
      <trkpt lat="45.917499884963036" lon="7.523010978475213">
        <ele>2005.45</ele>
        <time>2013-07-28T15:13:31Z</time>
      </trkpt>
      <trkpt lat="45.917504243552685" lon="7.522980384528637">
        <ele>2005.45</ele>
        <time>2013-07-28T15:13:33Z</time>
      </trkpt>
      <trkpt lat="45.917409025132656" lon="7.522841244935989">
        <ele>2006.8900000000001</ele>
        <time>2013-07-28T15:13:47Z</time>
      </trkpt>
      <trkpt lat="45.917406929656863" lon="7.52276698127389">
        <ele>2007.3699999999999</ele>
        <time>2013-07-28T15:13:51Z</time>
      </trkpt>
      <trkpt lat="45.917428303509951" lon="7.522501023486257">
        <ele>2004.97</ele>
        <time>2013-07-28T15:14:07Z</time>
      </trkpt>
      <trkpt lat="45.917440708726645" lon="7.522370098158717">
        <ele>2005.45</ele>
        <time>2013-07-28T15:14:14Z</time>
      </trkpt>
      <trkpt lat="45.917495861649513" lon="7.522275885567069">
        <ele>2005.45</ele>
        <time>2013-07-28T15:14:22Z</time>
      </trkpt>
      <trkpt lat="45.91759636066854" lon="7.522192317992449">
        <ele>2005.45</ele>
        <time>2013-07-28T15:14:32Z</time>
      </trkpt>
      <trkpt lat="45.917632738128304" lon="7.522180080413818">
        <ele>2005.45</ele>
        <time>2013-07-28T15:14:35Z</time>
      </trkpt>
      <trkpt lat="45.91766182333231" lon="7.522150240838528">
        <ele>2005.9300000000001</ele>
        <time>2013-07-28T15:14:38Z</time>
      </trkpt>
      <trkpt lat="45.917830551043153" lon="7.522184606641531">
        <ele>2005.9300000000001</ele>
        <time>2013-07-28T15:14:53Z</time>
      </trkpt>
      <trkpt lat="45.917989639565349" lon="7.522261636331677">
        <ele>2005.45</ele>
        <time>2013-07-28T15:15:07Z</time>
      </trkpt>
      <trkpt lat="45.918139927089214" lon="7.522340677678585">
        <ele>2004.97</ele>
        <time>2013-07-28T15:15:21Z</time>
      </trkpt>
      <trkpt lat="45.918298847973347" lon="7.522296002134681">
        <ele>2005.45</ele>
        <time>2013-07-28T15:15:37Z</time>
      </trkpt>
      <trkpt lat="45.918326005339622" lon="7.522218720987439">
        <ele>2007.3699999999999</ele>
        <time>2013-07-28T15:15:51Z</time>
      </trkpt>
      <trkpt lat="45.91835567727685" lon="7.522211847826839">
        <ele>2007.3699999999999</ele>
        <time>2013-07-28T15:16:14Z</time>
      </trkpt>
      <trkpt lat="45.918378727510571" lon="7.522277561947703">
        <ele>2007.8499999999999</ele>
        <time>2013-07-28T15:16:50Z</time>
      </trkpt>
      <trkpt lat="45.918375290930271" lon="7.522289380431175">
        <ele>2007.8499999999999</ele>
        <time>2013-07-28T15:17:17Z</time>
      </trkpt>
      <trkpt lat="45.918334554880857" lon="7.522227019071579">
        <ele>2008.3299999999999</ele>
        <time>2013-07-28T15:17:37Z</time>
      </trkpt>
      <trkpt lat="45.918324999511242" lon="7.522221319377422">
        <ele>2008.3299999999999</ele>
        <time>2013-07-28T15:17:46Z</time>
      </trkpt>
      <trkpt lat="45.91833271086216" lon="7.522192066535354">
        <ele>2008.3299999999999</ele>
        <time>2013-07-28T15:17:48Z</time>
      </trkpt>
      <trkpt lat="45.918344361707568" lon="7.522120652720332">
        <ele>2008.8099999999999</ele>
        <time>2013-07-28T15:17:53Z</time>
      </trkpt>
      <trkpt lat="45.918311756104231" lon="7.522068433463574">
        <ele>2009.29</ele>
        <time>2013-07-28T15:17:58Z</time>
      </trkpt>
      <trkpt lat="45.91816465370357" lon="7.52189526334405">
        <ele>2008.3299999999999</ele>
        <time>2013-07-28T15:18:14Z</time>
      </trkpt>
      <trkpt lat="45.918053761124611" lon="7.521808259189129">
        <ele>2007.3699999999999</ele>
        <time>2013-07-28T15:18:25Z</time>
      </trkpt>
      <trkpt lat="45.917930966243148" lon="7.52159720286727">
        <ele>2005.45</ele>
        <time>2013-07-28T15:18:41Z</time>
      </trkpt>
      <trkpt lat="45.917798280715942" lon="7.521353121846914">
        <ele>2003.52</ele>
        <time>2013-07-28T15:18:59Z</time>
      </trkpt>
      <trkpt lat="45.917637515813112" lon="7.521140137687326">
        <ele>2003.04</ele>
        <time>2013-07-28T15:19:15Z</time>
      </trkpt>
      <trkpt lat="45.917450599372387" lon="7.520888512954116">
        <ele>2000.6400000000001</ele>
        <time>2013-07-28T15:19:34Z</time>
      </trkpt>
      <trkpt lat="45.917337695136666" lon="7.520718947052956">
        <ele>1998.24</ele>
        <time>2013-07-28T15:19:50Z</time>
      </trkpt>
      <trkpt lat="45.91714926995337" lon="7.520531862974167">
        <ele>1996.8</ele>
        <time>2013-07-28T15:20:06Z</time>
      </trkpt>
      <trkpt lat="45.917128147557378" lon="7.520501017570496">
        <ele>1996.3199999999999</ele>
        <time>2013-07-28T15:20:08Z</time>
      </trkpt>
      <trkpt lat="45.917005520313978" lon="7.520388616248965">
        <ele>1995.3499999999999</ele>
        <time>2013-07-28T15:20:19Z</time>
      </trkpt>
      <trkpt lat="45.916859172284603" lon="7.520097596570849">
        <ele>1993.4300000000001</ele>
        <time>2013-07-28T15:20:36Z</time>
      </trkpt>
      <trkpt lat="45.916797565296292" lon="7.519985279068351">
        <ele>1993.4300000000001</ele>
        <time>2013-07-28T15:20:43Z</time>
      </trkpt>
      <trkpt lat="45.916669489815831" lon="7.519803391769528">
        <ele>1993.4300000000001</ele>
        <time>2013-07-28T15:20:57Z</time>
      </trkpt>
      <trkpt lat="45.916650211438537" lon="7.519776737317443">
        <ele>1993.4300000000001</ele>
        <time>2013-07-28T15:20:59Z</time>
      </trkpt>
      <trkpt lat="45.916573517024517" lon="7.519663330167532">
        <ele>1992.95</ele>
        <time>2013-07-28T15:21:07Z</time>
      </trkpt>
      <trkpt lat="45.916532194241881" lon="7.519625946879387">
        <ele>1993.4300000000001</ele>
        <time>2013-07-28T15:21:11Z</time>
      </trkpt>
      <trkpt lat="45.916468575596809" lon="7.519607003778219">
        <ele>1993.4300000000001</ele>
        <time>2013-07-28T15:21:23Z</time>
      </trkpt>
      <trkpt lat="45.916468324139714" lon="7.519601974636316">
        <ele>1992.95</ele>
        <time>2013-07-28T15:21:52Z</time>
      </trkpt>
      <trkpt lat="45.916434209793806" lon="7.519545396789908">
        <ele>1992.95</ele>
        <time>2013-07-28T15:21:56Z</time>
      </trkpt>
      <trkpt lat="45.916277635842562" lon="7.5192850548774">
        <ele>1993.4300000000001</ele>
        <time>2013-07-28T15:22:14Z</time>
      </trkpt>
      <trkpt lat="45.916168754920363" lon="7.518976265564561">
        <ele>1993.9100000000001</ele>
        <time>2013-07-28T15:22:32Z</time>
      </trkpt>
      <trkpt lat="45.916128773242235" lon="7.51876805908978">
        <ele>1993.9100000000001</ele>
        <time>2013-07-28T15:22:43Z</time>
      </trkpt>
      <trkpt lat="45.916186524555087" lon="7.51850369386375">
        <ele>1993.9100000000001</ele>
        <time>2013-07-28T15:22:58Z</time>
      </trkpt>
      <trkpt lat="45.916043361648917" lon="7.518266821280122">
        <ele>1994.3900000000001</ele>
        <time>2013-07-28T15:23:15Z</time>
      </trkpt>
      <trkpt lat="45.915901875123382" lon="7.518028942868114">
        <ele>1994.3900000000001</ele>
        <time>2013-07-28T15:23:32Z</time>
      </trkpt>
      <trkpt lat="45.915793245658278" lon="7.517774384468794">
        <ele>1994.3900000000001</ele>
        <time>2013-07-28T15:23:46Z</time>
      </trkpt>
      <trkpt lat="45.915697608143091" lon="7.517559975385666">
        <ele>1994.8699999999999</ele>
        <time>2013-07-28T15:24:01Z</time>
      </trkpt>
      <trkpt lat="45.915571209043264" lon="7.517290161922574">
        <ele>1995.8299999999999</ele>
        <time>2013-07-28T15:24:20Z</time>
      </trkpt>
      <trkpt lat="45.915491916239262" lon="7.517168959602714">
        <ele>1996.8</ele>
        <time>2013-07-28T15:24:31Z</time>
      </trkpt>
      <trkpt lat="45.915337353944778" lon="7.517035016790032">
        <ele>1997.76</ele>
        <time>2013-07-28T15:24:45Z</time>
      </trkpt>
      <trkpt lat="45.915281027555466" lon="7.516973661258817">
        <ele>1998.24</ele>
        <time>2013-07-28T15:24:51Z</time>
      </trkpt>
      <trkpt lat="45.915180528536439" lon="7.51686385832727">
        <ele>1998.72</ele>
        <time>2013-07-28T15:25:02Z</time>
      </trkpt>
      <trkpt lat="45.915087824687362" lon="7.516774339601398">
        <ele>1999.2</ele>
        <time>2013-07-28T15:25:12Z</time>
      </trkpt>
      <trkpt lat="45.914959078654647" lon="7.516689179465175">
        <ele>1999.2</ele>
        <time>2013-07-28T15:25:24Z</time>
      </trkpt>
      <trkpt lat="45.91490208171308" lon="7.516648946329951">
        <ele>2000.1600000000001</ele>
        <time>2013-07-28T15:25:29Z</time>
      </trkpt>
      <trkpt lat="45.914745340123773" lon="7.516565630212426">
        <ele>2000.6400000000001</ele>
        <time>2013-07-28T15:25:41Z</time>
      </trkpt>
      <trkpt lat="45.914672166109085" lon="7.516415091231465">
        <ele>1999.2</ele>
        <time>2013-07-28T15:25:51Z</time>
      </trkpt>
      <trkpt lat="45.914544593542814" lon="7.516190204769373">
        <ele>1997.76</ele>
        <time>2013-07-28T15:26:07Z</time>
      </trkpt>
      <trkpt lat="45.914380894973874" lon="7.515948219224811">
        <ele>1996.3199999999999</ele>
        <time>2013-07-28T15:26:25Z</time>
      </trkpt>
      <trkpt lat="45.914301266893744" lon="7.51586607657373">
        <ele>1995.8299999999999</ele>
        <time>2013-07-28T15:26:32Z</time>
      </trkpt>
      <trkpt lat="45.914201606065035" lon="7.515758872032166">
        <ele>1995.3499999999999</ele>
        <time>2013-07-28T15:26:41Z</time>
      </trkpt>
      <trkpt lat="45.91412172652781" lon="7.515692487359047">
        <ele>1995.3499999999999</ele>
        <time>2013-07-28T15:26:48Z</time>
      </trkpt>
      <trkpt lat="45.913904132321477" lon="7.515529207885265">
        <ele>1993.9100000000001</ele>
        <time>2013-07-28T15:27:05Z</time>
      </trkpt>
      <trkpt lat="45.913838250562549" lon="7.515452932566404">
        <ele>1993.4300000000001</ele>
        <time>2013-07-28T15:27:11Z</time>
      </trkpt>
      <trkpt lat="45.913760047405958" lon="7.515328293666244">
        <ele>1992.95</ele>
        <time>2013-07-28T15:27:20Z</time>
      </trkpt>
      <trkpt lat="45.9136370010674" lon="7.515144729986787">
        <ele>1993.4300000000001</ele>
        <time>2013-07-28T15:27:34Z</time>
      </trkpt>
      <trkpt lat="45.913611687719822" lon="7.515066862106323">
        <ele>1992.47</ele>
        <time>2013-07-28T15:27:46Z</time>
      </trkpt>
      <trkpt lat="45.913531975820661" lon="7.51500466838479">
        <ele>1992.47</ele>
        <time>2013-07-28T15:28:00Z</time>
      </trkpt>
      <trkpt lat="45.913470955565572" lon="7.514739548787475">
        <ele>1992.47</ele>
        <time>2013-07-28T15:28:17Z</time>
      </trkpt>
      <trkpt lat="45.913331313058734" lon="7.514523295685649">
        <ele>1992.47</ele>
        <time>2013-07-28T15:28:32Z</time>
      </trkpt>
      <trkpt lat="45.913171051070094" lon="7.514389855787158">
        <ele>1992.47</ele>
        <time>2013-07-28T15:28:47Z</time>
      </trkpt>
      <trkpt lat="45.913035180419683" lon="7.514152815565467">
        <ele>1991.03</ele>
        <time>2013-07-28T15:29:03Z</time>
      </trkpt>
      <trkpt lat="45.912906434386969" lon="7.513947291299701">
        <ele>1991.03</ele>
        <time>2013-07-28T15:29:18Z</time>
      </trkpt>
      <trkpt lat="45.912787327542901" lon="7.513826424255967">
        <ele>1991.03</ele>
        <time>2013-07-28T15:29:29Z</time>
      </trkpt>
      <trkpt lat="45.912736533209682" lon="7.51378258690238">
        <ele>1990.55</ele>
        <time>2013-07-28T15:29:34Z</time>
      </trkpt>
      <trkpt lat="45.912546934559941" lon="7.513611009344459">
        <ele>1991.03</ele>
        <time>2013-07-28T15:29:51Z</time>
      </trkpt>
      <trkpt lat="45.912373512983322" lon="7.51338335685432">
        <ele>1991.51</ele>
        <time>2013-07-28T15:30:08Z</time>
      </trkpt>
      <trkpt lat="45.912362113595009" lon="7.513372041285038">
        <ele>1991.51</ele>
        <time>2013-07-28T15:30:09Z</time>
      </trkpt>
      <trkpt lat="45.912311067804694" lon="7.51328025944531">
        <ele>1991.51</ele>
        <time>2013-07-28T15:30:15Z</time>
      </trkpt>
      <trkpt lat="45.91215742751956" lon="7.513064760714769">
        <ele>1991.03</ele>
        <time>2013-07-28T15:30:32Z</time>
      </trkpt>
      <trkpt lat="45.912084672600031" lon="7.51301346346736">
        <ele>1990.55</ele>
        <time>2013-07-28T15:31:04Z</time>
      </trkpt>
      <trkpt lat="45.911986939609051" lon="7.512746164575219">
        <ele>1990.0699999999999</ele>
        <time>2013-07-28T15:31:21Z</time>
      </trkpt>
      <trkpt lat="45.91180513612926" lon="7.512587243691087">
        <ele>1989.5899999999999</ele>
        <time>2013-07-28T15:31:37Z</time>
      </trkpt>
      <trkpt lat="45.911691309884191" lon="7.512292368337512">
        <ele>1989.0999999999999</ele>
        <time>2013-07-28T15:31:54Z</time>
      </trkpt>
      <trkpt lat="45.911548817530274" lon="7.512105954810977">
        <ele>1988.6199999999999</ele>
        <time>2013-07-28T15:32:11Z</time>
      </trkpt>
      <trkpt lat="45.9113575424999" lon="7.512095058336854">
        <ele>1989.5899999999999</ele>
        <time>2013-07-28T15:32:27Z</time>
      </trkpt>
      <trkpt lat="45.911180013790727" lon="7.511939322575927">
        <ele>1991.03</ele>
        <time>2013-07-28T15:32:43Z</time>
      </trkpt>
      <trkpt lat="45.91106534935534" lon="7.511815018951893">
        <ele>1991.03</ele>
        <time>2013-07-28T15:32:55Z</time>
      </trkpt>
      <trkpt lat="45.910989157855511" lon="7.511669425293803">
        <ele>1991.99</ele>
        <time>2013-07-28T15:33:09Z</time>
      </trkpt>
      <trkpt lat="45.91092855669558" lon="7.511587869375944">
        <ele>1992.95</ele>
        <time>2013-07-28T15:33:16Z</time>
      </trkpt>
      <trkpt lat="45.91079318895936" lon="7.511418135836721">
        <ele>1993.4300000000001</ele>
        <time>2013-07-28T15:33:30Z</time>
      </trkpt>
      <trkpt lat="45.910621359944344" lon="7.511253012344241">
        <ele>1995.3499999999999</ele>
        <time>2013-07-28T15:33:45Z</time>
      </trkpt>
      <trkpt lat="45.910464450716972" lon="7.511128624901176">
        <ele>1996.8</ele>
        <time>2013-07-28T15:34:00Z</time>
      </trkpt>
      <trkpt lat="45.910273930057883" lon="7.511025611311197">
        <ele>1998.24</ele>
        <time>2013-07-28T15:34:16Z</time>
      </trkpt>
      <trkpt lat="45.910224141553044" lon="7.510977080091834">
        <ele>1999.2</ele>
        <time>2013-07-28T15:34:22Z</time>
      </trkpt>
      <trkpt lat="45.910048456862569" lon="7.5108234398067">
        <ele>2000.1600000000001</ele>
        <time>2013-07-28T15:34:39Z</time>
      </trkpt>
      <trkpt lat="45.909906886518002" lon="7.510623866692185">
        <ele>2000.6400000000001</ele>
        <time>2013-07-28T15:34:55Z</time>
      </trkpt>
      <trkpt lat="45.909767495468259" lon="7.510481793433428">
        <ele>2002.0799999999999</ele>
        <time>2013-07-28T15:35:09Z</time>
      </trkpt>
      <trkpt lat="45.909696919843554" lon="7.510456731542945">
        <ele>2003.04</ele>
        <time>2013-07-28T15:35:15Z</time>
      </trkpt>
      <trkpt lat="45.909493658691645" lon="7.510288171470165">
        <ele>2003.04</ele>
        <time>2013-07-28T15:35:34Z</time>
      </trkpt>
      <trkpt lat="45.909324511885643" lon="7.510190270841122">
        <ele>2003.04</ele>
        <time>2013-07-28T15:35:49Z</time>
      </trkpt>
      <trkpt lat="45.909119993448257" lon="7.509962785989046">
        <ele>2004.97</ele>
        <time>2013-07-28T15:36:08Z</time>
      </trkpt>
      <trkpt lat="45.909083364531398" lon="7.509890366345644">
        <ele>2004.49</ele>
        <time>2013-07-28T15:36:12Z</time>
      </trkpt>
      <trkpt lat="45.909107755869627" lon="7.509795483201742">
        <ele>2004.49</ele>
        <time>2013-07-28T15:36:17Z</time>
      </trkpt>
      <trkpt lat="45.909119406715035" lon="7.509752064943314">
        <ele>2003.52</ele>
        <time>2013-07-28T15:36:19Z</time>
      </trkpt>
      <trkpt lat="45.909185623750091" lon="7.509462051093578">
        <ele>2003.52</ele>
        <time>2013-07-28T15:36:34Z</time>
      </trkpt>
      <trkpt lat="45.909291403368115" lon="7.509244875982404">
        <ele>2003.04</ele>
        <time>2013-07-28T15:36:47Z</time>
      </trkpt>
      <trkpt lat="45.909322835505009" lon="7.50921780243516">
        <ele>2003.52</ele>
        <time>2013-07-28T15:36:49Z</time>
      </trkpt>
      <trkpt lat="45.909352172166109" lon="7.508973469957709">
        <ele>2004.01</ele>
        <time>2013-07-28T15:37:03Z</time>
      </trkpt>
      <trkpt lat="45.909232227131724" lon="7.508794013410807">
        <ele>2002.5599999999999</ele>
        <time>2013-07-28T15:37:17Z</time>
      </trkpt>
      <trkpt lat="45.909107252955437" lon="7.508617741987109">
        <ele>2003.04</ele>
        <time>2013-07-28T15:37:33Z</time>
      </trkpt>
      <trkpt lat="45.908959144726396" lon="7.508454797789455">
        <ele>2003.04</ele>
        <time>2013-07-28T15:37:48Z</time>
      </trkpt>
      <trkpt lat="45.908803744241595" lon="7.508287075906992">
        <ele>2002.5599999999999</ele>
        <time>2013-07-28T15:38:03Z</time>
      </trkpt>
      <trkpt lat="45.908764852210879" lon="7.508271234109998">
        <ele>2002.5599999999999</ele>
        <time>2013-07-28T15:38:06Z</time>
      </trkpt>
      <trkpt lat="45.908656474202871" lon="7.508153468370438">
        <ele>2001.5999999999999</ele>
        <time>2013-07-28T15:38:19Z</time>
      </trkpt>
      <trkpt lat="45.908637614920735" lon="7.50811935402453">
        <ele>2002.0799999999999</ele>
        <time>2013-07-28T15:38:22Z</time>
      </trkpt>
      <trkpt lat="45.908488836139441" lon="7.507918104529381">
        <ele>2002.0799999999999</ele>
        <time>2013-07-28T15:38:37Z</time>
      </trkpt>
      <trkpt lat="45.908278115093708" lon="7.507737558335066">
        <ele>2001.5999999999999</ele>
        <time>2013-07-28T15:38:54Z</time>
      </trkpt>
      <trkpt lat="45.908194547519088" lon="7.50762733630836">
        <ele>2001.5999999999999</ele>
        <time>2013-07-28T15:39:02Z</time>
      </trkpt>
      <trkpt lat="45.908008888363838" lon="7.507468415424228">
        <ele>2002.0799999999999</ele>
        <time>2013-07-28T15:39:17Z</time>
      </trkpt>
      <trkpt lat="45.907842088490725" lon="7.50730387866497">
        <ele>2002.0799999999999</ele>
        <time>2013-07-28T15:39:32Z</time>
      </trkpt>
      <trkpt lat="45.907613513991237" lon="7.507112603634596">
        <ele>2002.0799999999999</ele>
        <time>2013-07-28T15:39:51Z</time>
      </trkpt>
      <trkpt lat="45.907417545095086" lon="7.506929961964488">
        <ele>2000.6400000000001</ele>
        <time>2013-07-28T15:40:08Z</time>
      </trkpt>
      <trkpt lat="45.907219313085079" lon="7.506773052737117">
        <ele>1998.72</ele>
        <time>2013-07-28T15:40:25Z</time>
      </trkpt>
      <trkpt lat="45.907124932855368" lon="7.5066789239645">
        <ele>1998.24</ele>
        <time>2013-07-28T15:40:34Z</time>
      </trkpt>
      <trkpt lat="45.907073887065053" lon="7.506583957001567">
        <ele>1998.24</ele>
        <time>2013-07-28T15:40:40Z</time>
      </trkpt>
      <trkpt lat="45.906957210972905" lon="7.506420845165849">
        <ele>1997.76</ele>
        <time>2013-07-28T15:40:50Z</time>
      </trkpt>
      <trkpt lat="45.906942207366228" lon="7.506330320611596">
        <ele>1997.76</ele>
        <time>2013-07-28T15:40:55Z</time>
      </trkpt>
      <trkpt lat="45.906885210424662" lon="7.506108870729804">
        <ele>1997.76</ele>
        <time>2013-07-28T15:41:09Z</time>
      </trkpt>
      <trkpt lat="45.906844977289438" lon="7.506031170487404">
        <ele>1998.24</ele>
        <time>2013-07-28T15:41:16Z</time>
      </trkpt>
      <trkpt lat="45.906781023368239" lon="7.505934527143836">
        <ele>1998.72</ele>
        <time>2013-07-28T15:41:23Z</time>
      </trkpt>
      <trkpt lat="45.906629478558898" lon="7.505780635401607">
        <ele>1999.6800000000001</ele>
        <time>2013-07-28T15:41:37Z</time>
      </trkpt>
      <trkpt lat="45.906529817730188" lon="7.505666641518474">
        <ele>1999.6800000000001</ele>
        <time>2013-07-28T15:41:47Z</time>
      </trkpt>
      <trkpt lat="45.906484639272094" lon="7.505639819428325">
        <ele>2000.1600000000001</ele>
        <time>2013-07-28T15:41:51Z</time>
      </trkpt>
      <trkpt lat="45.906413728371263" lon="7.505443431437016">
        <ele>2000.6400000000001</ele>
        <time>2013-07-28T15:42:00Z</time>
      </trkpt>
      <trkpt lat="45.906376596540213" lon="7.505202786996961">
        <ele>1999.6800000000001</ele>
        <time>2013-07-28T15:42:10Z</time>
      </trkpt>
      <trkpt lat="45.906357653439045" lon="7.504890561103821">
        <ele>1998.72</ele>
        <time>2013-07-28T15:42:26Z</time>
      </trkpt>
      <trkpt lat="45.906363939866424" lon="7.504871031269431">
        <ele>1997.76</ele>
        <time>2013-07-28T15:42:27Z</time>
      </trkpt>
      <trkpt lat="45.906360084190965" lon="7.50458805821836">
        <ele>1998.24</ele>
        <time>2013-07-28T15:42:43Z</time>
      </trkpt>
      <trkpt lat="45.906343907117844" lon="7.504522679373622">
        <ele>1998.24</ele>
        <time>2013-07-28T15:42:46Z</time>
      </trkpt>
      <trkpt lat="45.906254388391972" lon="7.504363171756268">
        <ele>1998.24</ele>
        <time>2013-07-28T15:42:57Z</time>
      </trkpt>
      <trkpt lat="45.906142238527536" lon="7.504123784601688">
        <ele>1998.24</ele>
        <time>2013-07-28T15:43:13Z</time>
      </trkpt>
      <trkpt lat="45.906042829155922" lon="7.503898898139596">
        <ele>1999.2</ele>
        <time>2013-07-28T15:43:28Z</time>
      </trkpt>
      <trkpt lat="45.905974181368947" lon="7.503621876239777">
        <ele>2001.1199999999999</ele>
        <time>2013-07-28T15:43:44Z</time>
      </trkpt>
      <trkpt lat="45.905821546912193" lon="7.503342591226101">
        <ele>2002.0799999999999</ele>
        <time>2013-07-28T15:44:03Z</time>
      </trkpt>
      <trkpt lat="45.905792461708188" lon="7.50328877940774">
        <ele>2002.0799999999999</ele>
        <time>2013-07-28T15:44:07Z</time>
      </trkpt>
      <trkpt lat="45.905671678483486" lon="7.503122817724943">
        <ele>2003.52</ele>
        <time>2013-07-28T15:44:21Z</time>
      </trkpt>
      <trkpt lat="45.905495826154947" lon="7.50293648801744">
        <ele>2004.01</ele>
        <time>2013-07-28T15:44:37Z</time>
      </trkpt>
      <trkpt lat="45.905419550836086" lon="7.502831462770701">
        <ele>2004.49</ele>
        <time>2013-07-28T15:44:45Z</time>
      </trkpt>
      <trkpt lat="45.905398512259126" lon="7.502814782783389">
        <ele>2004.01</ele>
        <time>2013-07-28T15:44:47Z</time>
      </trkpt>
      <trkpt lat="45.905324835330248" lon="7.502744542434812">
        <ele>2004.97</ele>
        <time>2013-07-28T15:44:54Z</time>
      </trkpt>
      <trkpt lat="45.90515929274261" lon="7.502534156665206">
        <ele>2004.97</ele>
        <time>2013-07-28T15:45:11Z</time>
      </trkpt>
      <trkpt lat="45.905048064887524" lon="7.502381773665547">
        <ele>2005.9300000000001</ele>
        <time>2013-07-28T15:45:24Z</time>
      </trkpt>
      <trkpt lat="45.904905572533607" lon="7.502192845568061">
        <ele>2007.8499999999999</ele>
        <time>2013-07-28T15:45:40Z</time>
      </trkpt>
      <trkpt lat="45.904890149831772" lon="7.502171220257878">
        <ele>2007.8499999999999</ele>
        <time>2013-07-28T15:45:42Z</time>
      </trkpt>
      <trkpt lat="45.904740784317255" lon="7.502036774531007">
        <ele>2009.29</ele>
        <time>2013-07-28T15:45:57Z</time>
      </trkpt>
      <trkpt lat="45.904699210077524" lon="7.5020198430866">
        <ele>2010.25</ele>
        <time>2013-07-28T15:46:01Z</time>
      </trkpt>
      <trkpt lat="45.904645984992385" lon="7.501963684335351">
        <ele>2010.73</ele>
        <time>2013-07-28T15:46:08Z</time>
      </trkpt>
      <trkpt lat="45.904518412426114" lon="7.501832088455558">
        <ele>2011.7</ele>
        <time>2013-07-28T15:46:22Z</time>
      </trkpt>
      <trkpt lat="45.904399724677205" lon="7.501709880307317">
        <ele>2012.6600000000001</ele>
        <time>2013-07-28T15:46:36Z</time>
      </trkpt>
      <trkpt lat="45.904313642531633" lon="7.501476360484958">
        <ele>2012.6600000000001</ele>
        <time>2013-07-28T15:46:49Z</time>
      </trkpt>
      <trkpt lat="45.904291765764356" lon="7.501382231712341">
        <ele>2011.7</ele>
        <time>2013-07-28T15:46:54Z</time>
      </trkpt>
      <trkpt lat="45.904205432161689" lon="7.501137731596828">
        <ele>2012.1800000000001</ele>
        <time>2013-07-28T15:47:08Z</time>
      </trkpt>
      <trkpt lat="45.904071405529976" lon="7.500980570912361">
        <ele>2012.6600000000001</ele>
        <time>2013-07-28T15:47:22Z</time>
      </trkpt>
      <trkpt lat="45.90400367975235" lon="7.500707656145096">
        <ele>2013.1400000000001</ele>
        <time>2013-07-28T15:47:38Z</time>
      </trkpt>
      <trkpt lat="45.903980294242501" lon="7.500629704445601">
        <ele>2010.73</ele>
        <time>2013-07-28T15:47:43Z</time>
      </trkpt>
      <trkpt lat="45.903926230967045" lon="7.500500120222569">
        <ele>2010.73</ele>
        <time>2013-07-28T15:47:50Z</time>
      </trkpt>
      <trkpt lat="45.903888596221805" lon="7.500263163819909">
        <ele>2011.7</ele>
        <time>2013-07-28T15:48:03Z</time>
      </trkpt>
      <trkpt lat="45.903840903192759" lon="7.500156797468662">
        <ele>2011.22</ele>
        <time>2013-07-28T15:48:09Z</time>
      </trkpt>
      <trkpt lat="45.903773680329323" lon="7.499833004549146">
        <ele>2011.7</ele>
        <time>2013-07-28T15:48:27Z</time>
      </trkpt>
      <trkpt lat="45.903769070282578" lon="7.499818587675691">
        <ele>2011.7</ele>
        <time>2013-07-28T15:48:28Z</time>
      </trkpt>
      <trkpt lat="45.903708888217807" lon="7.499755639582872">
        <ele>2012.1800000000001</ele>
        <time>2013-07-28T15:48:34Z</time>
      </trkpt>
      <trkpt lat="45.903518199920654" lon="7.499568806961179">
        <ele>2011.7</ele>
        <time>2013-07-28T15:48:53Z</time>
      </trkpt>
      <trkpt lat="45.903319213539362" lon="7.499423967674375">
        <ele>2011.22</ele>
        <time>2013-07-28T15:49:11Z</time>
      </trkpt>
      <trkpt lat="45.903227347880602" lon="7.49922389164567">
        <ele>2011.22</ele>
        <time>2013-07-28T15:49:24Z</time>
      </trkpt>
      <trkpt lat="45.903080413118005" lon="7.498921304941177">
        <ele>2011.22</ele>
        <time>2013-07-28T15:49:42Z</time>
      </trkpt>
      <trkpt lat="45.902963653206825" lon="7.498690886422992">
        <ele>2010.73</ele>
        <time>2013-07-28T15:49:59Z</time>
      </trkpt>
      <trkpt lat="45.902832644060254" lon="7.498525427654386">
        <ele>2011.22</ele>
        <time>2013-07-28T15:50:14Z</time>
      </trkpt>
      <trkpt lat="45.902780927717686" lon="7.498226361349225">
        <ele>2010.73</ele>
        <time>2013-07-28T15:50:30Z</time>
      </trkpt>
      <trkpt lat="45.902728624641895" lon="7.497980017215014">
        <ele>2010.73</ele>
        <time>2013-07-28T15:50:45Z</time>
      </trkpt>
      <trkpt lat="45.902542630210519" lon="7.497794525697827">
        <ele>2010.73</ele>
        <time>2013-07-28T15:51:01Z</time>
      </trkpt>
      <trkpt lat="45.902375243604183" lon="7.497581876814365">
        <ele>2010.73</ele>
        <time>2013-07-28T15:51:19Z</time>
      </trkpt>
      <trkpt lat="45.902227973565459" lon="7.497300747781992">
        <ele>2008.8099999999999</ele>
        <time>2013-07-28T15:51:37Z</time>
      </trkpt>
      <trkpt lat="45.902108866721392" lon="7.497040824964643">
        <ele>2007.8499999999999</ele>
        <time>2013-07-28T15:51:53Z</time>
      </trkpt>
      <trkpt lat="45.902136275544763" lon="7.49679196625948">
        <ele>2004.97</ele>
        <time>2013-07-28T15:52:06Z</time>
      </trkpt>
      <trkpt lat="45.902136443182826" lon="7.496719295158982">
        <ele>2004.49</ele>
        <time>2013-07-28T15:52:10Z</time>
      </trkpt>
      <trkpt lat="45.902105178683996" lon="7.496447218582034">
        <ele>2003.52</ele>
        <time>2013-07-28T15:52:24Z</time>
      </trkpt>
      <trkpt lat="45.902087660506368" lon="7.496335152536631">
        <ele>2004.01</ele>
        <time>2013-07-28T15:52:31Z</time>
      </trkpt>
      <trkpt lat="45.902067963033915" lon="7.496271198615432">
        <ele>2004.49</ele>
        <time>2013-07-28T15:52:35Z</time>
      </trkpt>
      <trkpt lat="45.902020772919059" lon="7.495951680466533">
        <ele>2004.97</ele>
        <time>2013-07-28T15:52:52Z</time>
      </trkpt>
      <trkpt lat="45.902017671614885" lon="7.495837854221463">
        <ele>2005.45</ele>
        <time>2013-07-28T15:52:58Z</time>
      </trkpt>
      <trkpt lat="45.902014570310712" lon="7.495680022984743">
        <ele>2005.9300000000001</ele>
        <time>2013-07-28T15:53:07Z</time>
      </trkpt>
      <trkpt lat="45.901950532570481" lon="7.495452957227826">
        <ele>2007.3699999999999</ele>
        <time>2013-07-28T15:53:21Z</time>
      </trkpt>
      <trkpt lat="45.901877358555794" lon="7.495168391615152">
        <ele>2008.3299999999999</ele>
        <time>2013-07-28T15:53:38Z</time>
      </trkpt>
      <trkpt lat="45.901833940297365" lon="7.495078118517995">
        <ele>2008.8099999999999</ele>
        <time>2013-07-28T15:53:44Z</time>
      </trkpt>
      <trkpt lat="45.901789683848619" lon="7.494974602013826">
        <ele>2009.77</ele>
        <time>2013-07-28T15:53:52Z</time>
      </trkpt>
      <trkpt lat="45.901662865653634" lon="7.494761450216174">
        <ele>2010.73</ele>
        <time>2013-07-28T15:54:09Z</time>
      </trkpt>
      <trkpt lat="45.901610143482685" lon="7.494652234017849">
        <ele>2011.7</ele>
        <time>2013-07-28T15:54:17Z</time>
      </trkpt>
      <trkpt lat="45.901441080495715" lon="7.494455929845572">
        <ele>2011.22</ele>
        <time>2013-07-28T15:54:36Z</time>
      </trkpt>
      <trkpt lat="45.901242680847645" lon="7.494341852143407">
        <ele>2010.25</ele>
        <time>2013-07-28T15:54:54Z</time>
      </trkpt>
      <trkpt lat="45.901098093017936" lon="7.494114618748426">
        <ele>2009.77</ele>
        <time>2013-07-28T15:55:10Z</time>
      </trkpt>
      <trkpt lat="45.900869015604258" lon="7.493838770315051">
        <ele>2007.3699999999999</ele>
        <time>2013-07-28T15:55:31Z</time>
      </trkpt>
      <trkpt lat="45.900708502158523" lon="7.493640957400203">
        <ele>2005.9300000000001</ele>
        <time>2013-07-28T15:55:48Z</time>
      </trkpt>
      <trkpt lat="45.900531811639667" lon="7.493426967412233">
        <ele>2003.52</ele>
        <time>2013-07-28T15:56:05Z</time>
      </trkpt>
      <trkpt lat="45.900542875751853" lon="7.493406599387527">
        <ele>2003.04</ele>
        <time>2013-07-28T15:56:15Z</time>
      </trkpt>
      <trkpt lat="45.900499122217298" lon="7.493359660729766">
        <ele>2002.0799999999999</ele>
        <time>2013-07-28T15:56:29Z</time>
      </trkpt>
      <trkpt lat="45.900489063933492" lon="7.493291180580854">
        <ele>2002.0799999999999</ele>
        <time>2013-07-28T15:56:33Z</time>
      </trkpt>
      <trkpt lat="45.900343973189592" lon="7.493052128702402">
        <ele>2000.1600000000001</ele>
        <time>2013-07-28T15:56:50Z</time>
      </trkpt>
      <trkpt lat="45.900176167488098" lon="7.492826823145151">
        <ele>1999.6800000000001</ele>
        <time>2013-07-28T15:57:07Z</time>
      </trkpt>
      <trkpt lat="45.900117997080088" lon="7.492730263620615">
        <ele>1999.2</ele>
        <time>2013-07-28T15:57:24Z</time>
      </trkpt>
      <trkpt lat="45.90008145198226" lon="7.49266061000526">
        <ele>1998.72</ele>
        <time>2013-07-28T15:57:47Z</time>
      </trkpt>
      <trkpt lat="45.899989334866405" lon="7.492432035505772">
        <ele>1996.8</ele>
        <time>2013-07-28T15:58:04Z</time>
      </trkpt>
      <trkpt lat="45.899928482249379" lon="7.49226875603199">
        <ele>1996.3199999999999</ele>
        <time>2013-07-28T15:58:16Z</time>
      </trkpt>
      <trkpt lat="45.899853715673089" lon="7.492011599242687">
        <ele>1995.8299999999999</ele>
        <time>2013-07-28T15:58:32Z</time>
      </trkpt>
      <trkpt lat="45.899822451174259" lon="7.49185292981565">
        <ele>1997.28</ele>
        <time>2013-07-28T15:58:41Z</time>
      </trkpt>
      <trkpt lat="45.899822451174259" lon="7.491768021136522">
        <ele>1997.28</ele>
        <time>2013-07-28T15:58:46Z</time>
      </trkpt>
      <trkpt lat="45.899811303243041" lon="7.491591833531857">
        <ele>1999.6800000000001</ele>
        <time>2013-07-28T15:58:57Z</time>
      </trkpt>
      <trkpt lat="45.899826558306813" lon="7.491385722532868">
        <ele>1999.6800000000001</ele>
        <time>2013-07-28T15:59:10Z</time>
      </trkpt>
      <trkpt lat="45.899834940209985" lon="7.491357140243053">
        <ele>1999.2</ele>
        <time>2013-07-28T15:59:12Z</time>
      </trkpt>
      <trkpt lat="45.899846004322171" lon="7.491222778335214">
        <ele>1998.24</ele>
        <time>2013-07-28T15:59:25Z</time>
      </trkpt>
      <trkpt lat="45.899845501407981" lon="7.491210959851742">
        <ele>1997.76</ele>
        <time>2013-07-28T15:59:30Z</time>
      </trkpt>
      <trkpt lat="45.899807196110487" lon="7.491081962361932">
        <ele>1996.3199999999999</ele>
        <time>2013-07-28T15:59:36Z</time>
      </trkpt>
      <trkpt lat="45.899767382070422" lon="7.490791361778975">
        <ele>1992.95</ele>
        <time>2013-07-28T15:59:51Z</time>
      </trkpt>
      <trkpt lat="45.899765118956566" lon="7.490680972114205">
        <ele>1992.95</ele>
        <time>2013-07-28T15:59:56Z</time>
      </trkpt>
      <trkpt lat="45.89982639066875" lon="7.490586927160621">
        <ele>1992.95</ele>
        <time>2013-07-28T16:00:03Z</time>
      </trkpt>
      <trkpt lat="45.899833515286446" lon="7.490272354334593">
        <ele>1993.4300000000001</ele>
        <time>2013-07-28T16:00:20Z</time>
      </trkpt>
      <trkpt lat="45.899838795885444" lon="7.490254919975996">
        <ele>1992.95</ele>
        <time>2013-07-28T16:00:21Z</time>
      </trkpt>
      <trkpt lat="45.899858828634024" lon="7.490202030166984">
        <ele>1992.47</ele>
        <time>2013-07-28T16:00:25Z</time>
      </trkpt>
      <trkpt lat="45.89989922940731" lon="7.490115696564317">
        <ele>1992.95</ele>
        <time>2013-07-28T16:00:33Z</time>
      </trkpt>
      <trkpt lat="45.899891266599298" lon="7.490071775391698">
        <ele>1992.95</ele>
        <time>2013-07-28T16:00:36Z</time>
      </trkpt>
      <trkpt lat="45.899776434525847" lon="7.490125335752964">
        <ele>1992.95</ele>
        <time>2013-07-28T16:00:48Z</time>
      </trkpt>
      <trkpt lat="45.899599995464087" lon="7.490205718204379">
        <ele>1992.47</ele>
        <time>2013-07-28T16:01:03Z</time>
      </trkpt>
      <trkpt lat="45.899489857256413" lon="7.4901735316962">
        <ele>1991.51</ele>
        <time>2013-07-28T16:01:19Z</time>
      </trkpt>
    </trkseg>
  </trk>

</gpx>